# Wetter Temperatur Luftdruck Luftfeuchtigkeit Sichtweite Windgeschwindigkeit Windrichtung Zeit
1 Clouds 25 1009 83 6000 6.2 170 18:41 11.12.2019
2 Clouds 25 1009 83 6000 6.2 170 18:21 11.12.2019
3 Clouds 26 1010 78 6000 5.1 180 17:57 11.12.2019
4 Clouds 26 1010 78 6000 5.1 180 17:57 11.12.2019
5 Clouds 26 1010 78 6000 5.1 180 17:39 11.12.2019
6 Clouds 26 1010 78 6000 5.1 180 17:19 11.12.2019
7 Clouds 26 1010 78 7000 2.6 150 16:57 11.12.2019
8 Clouds 26 1010 78 7000 2.6 150 16:39 11.12.2019
9 Clouds 26 1010 78 7000 2.6 150 16:21 11.12.2019
10 Clouds 26 1010 83 6000 2.1 130 15:59 11.12.2019
11 Clouds 27 1010 83 6000 2.1 130 15:40 11.12.2019
12 Clouds 27 1010 83 6000 2.1 130 15:22 11.12.2019
13 Clouds 25 1010 83 8000 2.6 350 15:22 11.12.2019
14 Clouds 25 1010 83 8000 2.6 350 14:56 11.12.2019
15 Clouds 25 1010 83 8000 2.6 350 14:38 11.12.2019
16 Clouds 25 1010 83 8000 2.6 350 14:19 11.12.2019
17 Clouds 25 1010 88 7000 1.5 30 13:55 11.12.2019
18 Clouds 25 1011 88 6000 1.5 130 13:36 11.12.2019
19 Clouds 24 1011 88 6000 1.5 130 13:18 11.12.2019
20 Mist 24 1011 94 5000 3.6 130 12:55 11.12.2019
21 Mist 24 1011 94 5000 3.6 130 12:37 11.12.2019
22 Mist 23 1011 94 4500 3.6 150 12:18 11.12.2019
23 Mist 24 1011 94 5000 3.6 130 12:18 11.12.2019
24 Mist 23 1011 94 4500 3.6 150 11:57 11.12.2019
25 Mist 23 1011 94 4500 3.6 150 11:57 11.12.2019
26 Mist 23 1011 94 4500 3.6 150 11:38 11.12.2019
27 Mist 23 1011 94 4500 3.6 150 11:38 11.12.2019
28 Mist 23 1011 94 4500 3.6 150 11:18 11.12.2019
29 Mist 23 1011 94 4000 0.5 320 11:18 11.12.2019
30 Mist 22 1010 100 4500 4.6 190 10:45 11.12.2019
31 Mist 22 1010 100 4500 4.6 190 10:27 11.12.2019
32 Mist 21 1009 100 4000 1 190 09:59 11.12.2019
33 Mist 21 1009 100 4000 1 190 09:39 11.12.2019
34 Mist 21 1009 100 4000 1 190 09:39 11.12.2019
35 Mist 21 1009 100 4000 1 190 09:39 11.12.2019
36 Mist 21 1009 100 4000 1 190 09:20 11.12.2019
37 Mist 21 1009 94 4000 2.6 110 08:57 11.12.2019
38 Mist 21 1009 94 4000 2.6 110 08:38 11.12.2019
39 Mist 21 1009 94 4000 2.6 110 08:19 11.12.2019
40 Mist 22 1009 94 4000 1.5 170 07:47 11.12.2019
41 Mist 22 1009 94 4000 1.5 170 07:28 11.12.2019
42 Mist 22 1009 94 4000 2.6 350 06:59 11.12.2019
43 Mist 22 1009 94 4000 2.6 350 06:40 11.12.2019
44 Mist 22 1009 94 4000 2.6 350 06:21 11.12.2019
45 Rain 22 1010 94 4000 1.5 350 05:41 11.12.2019
46 Rain 22 1010 94 4000 1.5 350 05:18 11.12.2019
47 Rain 22 1012 94 3500 2.6 360 03:50 11.12.2019
48 Rain 22 1012 94 3500 2.1 20 02:49 11.12.2019
49 Rain 23 1012 94 4000 2.1 320 01:25 11.12.2019
50 Thunderstorm 23 1012 94 5000 5.1 270 00:47 11.12.2019
51 Rain 23 1012 94 4500 5.7 170 00:21 11.12.2019
52 Drizzle 23 1011 94 3500 6.2 150 23:47 10.12.2019
53 Drizzle 23 1011 94 3500 6.2 150 23:28 10.12.2019
54 Clouds 23 1010 94 6000 6.2 170 22:58 10.12.2019
55 Clouds 24 1010 94 6000 6.2 170 22:40 10.12.2019
56 Clouds 24 1010 94 6000 6.2 170 22:40 10.12.2019
57 Clouds 23 1010 94 6000 6.2 170 22:22 10.12.2019
58 Clouds 24 1010 88 8000 4.1 170 21:56 10.12.2019
59 Clouds 24 1010 88 8000 4.1 170 21:38 10.12.2019
60 Clouds 24 1010 88 8000 4.1 170 21:38 10.12.2019
61 Clouds 24 1010 88 8000 4.1 170 21:38 10.12.2019
62 Clouds 24 1010 88 8000 4.1 170 21:19 10.12.2019
63 Clouds 24 1010 88 9000 4.1 150 20:57 10.12.2019
64 Clouds 24 1010 88 9000 4.1 150 20:37 10.12.2019
65 Clouds 24 1010 88 9000 4.1 150 20:37 10.12.2019
66 Clouds 24 1010 88 9000 4.1 150 20:19 10.12.2019
67 Rain 24 1010 88 7000 4.1 170 19:55 10.12.2019
68 Rain 24 1010 88 7000 4.1 170 19:37 10.12.2019
69 Rain 24 1010 88 7000 4.1 170 19:18 10.12.2019
70 Rain 25 1011 83 8000 5.7 170 18:40 10.12.2019
71 Rain 25 1011 83 8000 5.7 170 18:20 10.12.2019
72 Clouds 25 1011 83 9000 5.1 170 17:58 10.12.2019
73 Clouds 25 1011 83 9000 5.1 170 17:40 10.12.2019
74 Clouds 25 1011 83 9000 5.1 170 17:40 10.12.2019
75 Clouds 25 1011 83 9000 5.1 170 17:20 10.12.2019
76 Rain 25 1011 88 8000 5.7 180 16:54 10.12.2019
77 Rain 25 1011 88 8000 5.7 180 16:36 10.12.2019
78 Rain 25 1011 88 8000 5.7 180 16:18 10.12.2019
79 Clouds 26 1011 83 10000 2.1 130 15:38 10.12.2019
80 Clouds 27 1012 83 10000 2.6 350 15:18 10.12.2019
81 Clouds 27 1012 83 10000 2.6 350 14:56 10.12.2019
82 Clouds 27 1012 83 10000 2.6 350 14:37 10.12.2019
83 Clouds 27 1012 83 10000 2.6 350 14:19 10.12.2019
84 Clouds 27 1012 94 10000 2.6 350 13:57 10.12.2019
85 Clouds 27 1012 94 10000 2.6 350 13:57 10.12.2019
86 Clouds 27 1012 94 10000 2.6 350 13:38 10.12.2019
87 Clouds 27 1012 94 10000 2.6 350 13:19 10.12.2019
88 Clouds 25 1012 100 9000 0.5 70 12:47 10.12.2019
89 Clouds 25 1012 100 9000 0.5 70 12:27 10.12.2019
90 Rain 24 1012 100 7000 1 90 11:55 10.12.2019
91 Rain 24 1012 100 7000 1 90 11:37 10.12.2019
92 Rain 24 1012 100 7000 1 90 11:18 10.12.2019
93 Rain 23 1012 88 5000 1.5 160 10:42 10.12.2019
94 Rain 23 1012 88 5000 1.5 160 10:24 10.12.2019
95 Clouds 23 1010 100 10000 0.5 190 09:57 10.12.2019
96 Clouds 23 1010 100 10000 0.5 190 09:39 10.12.2019
97 Clouds 23 1010 100 10000 0.5 190 09:20 10.12.2019
98 Clouds 22 1010 100 10000 1 160 08:58 10.12.2019
99 Clouds 22 1010 100 10000 1 160 08:39 10.12.2019
100 Clouds 22 1010 100 10000 1 160 08:20 10.12.2019
101 Rain 22 1010 100 10000 2.1 150 07:45 10.12.2019
102 Rain 22 1010 100 10000 2.1 150 07:27 10.12.2019
103 Rain 22 1010 100 10000 2.1 150 06:50 10.12.2019
104 Rain 22 1010 100 10000 2.1 150 06:25 10.12.2019
105 Rain 23 1011 100 10000 2.1 140 05:57 10.12.2019
106 Rain 23 1011 100 10000 2.1 140 05:38 10.12.2019
107 Clouds 23 1012 94 10000 2.78 53 03:55 10.12.2019
108 Clouds 23 1012 94 10000 2.78 53 03:55 10.12.2019
109 Clouds 23 1012 88 10000 2.78 53 02:57 10.12.2019
110 Clouds 24 1012 88 10000 1.5 190 01:55 10.12.2019
111 Clouds 24 1012 88 10000 1.5 190 01:28 10.12.2019
112 Clouds 25 1011 88 10000 1.5 150 00:58 10.12.2019
113 Clouds 25 1011 88 10000 1.5 150 00:25 10.12.2019
114 Clouds 25 1011 83 10000 1.5 170 23:57 09.12.2019
115 Clouds 26 1011 83 10000 1.5 170 23:37 09.12.2019
116 Clouds 26 1011 83 10000 1.5 170 23:18 09.12.2019
117 Clouds 27 1010 78 10000 3.6 180 22:55 09.12.2019
118 Clouds 27 1010 78 10000 3.6 180 22:37 09.12.2019
119 Clouds 27 1010 78 10000 3.6 180 22:18 09.12.2019
120 Clouds 27 1010 69 10000 3.6 180 21:55 09.12.2019
121 Clouds 27 1010 69 10000 3.6 180 21:37 09.12.2019
122 Clouds 27 1010 69 10000 3.6 180 21:18 09.12.2019
123 Clouds 28 1010 51 10000 5.7 190 20:55 09.12.2019
124 Clouds 28 1010 51 10000 5.7 190 20:37 09.12.2019
125 Clouds 28 1010 51 10000 5.7 190 20:37 09.12.2019
126 Clouds 28 1010 51 10000 5.7 190 20:18 09.12.2019
127 Clouds 28 1011 66 10000 4.6 160 19:55 09.12.2019
128 Clouds 28 1011 66 10000 4.6 160 19:37 09.12.2019
129 Clouds 28 1011 66 10000 4.6 160 19:37 09.12.2019
130 Clouds 28 1011 66 10000 4.6 160 19:18 09.12.2019
131 Clouds 30 1011 55 10000 4.6 150 18:54 09.12.2019
132 Clouds 30 1011 55 10000 4.6 150 18:36 09.12.2019
133 Clouds 30 1011 55 10000 4.6 150 18:18 09.12.2019
134 Clouds 30 1012 54 10000 5.1 160 17:55 09.12.2019
135 Clouds 30 1012 54 10000 5.1 160 17:37 09.12.2019
136 Clouds 30 1012 54 10000 5.1 160 17:18 09.12.2019
137 Clouds 29 1013 58 10000 4.6 160 16:54 09.12.2019
138 Clouds 29 1013 58 10000 4.6 160 16:36 09.12.2019
139 Clouds 29 1013 58 10000 4.6 160 16:18 09.12.2019
140 Clouds 28 1013 65 10000 5.1 150 15:54 09.12.2019
141 Clouds 29 1013 65 10000 5.1 150 15:36 09.12.2019
142 Clouds 29 1013 65 10000 5.1 150 15:18 09.12.2019
143 Clouds 28 1013 65 10000 3.1 150 14:41 09.12.2019
144 Clouds 26 1013 65 10000 3.1 150 14:18 09.12.2019
145 Clouds 26 1013 65 10000 3.1 150 14:18 09.12.2019
146 Clouds 27 1014 69 10000 2.6 140 13:56 09.12.2019
147 Clouds 27 1014 69 10000 2.6 140 13:38 09.12.2019
148 Clouds 27 1014 69 10000 2.6 140 13:19 09.12.2019
149 Clouds 25 1014 61 10000 1.5 120 12:56 09.12.2019
150 Clouds 26 1013 69 10000 1.5 350 12:37 09.12.2019
151 Clouds 24 1013 69 10000 1.5 350 12:19 09.12.2019
152 Clouds 23 1013 73 10000 2.1 330 11:55 09.12.2019
153 Clouds 24 1013 73 10000 2.1 330 11:36 09.12.2019
154 Clouds 22 1013 73 10000 2.1 330 11:18 09.12.2019
155 Clouds 22 1013 73 10000 2.1 330 11:18 09.12.2019
156 Clouds 21 1013 78 10000 1 10 10:40 09.12.2019
157 Clouds 20 1013 78 10000 1 10 10:20 09.12.2019
158 Clouds 20 1012 83 10000 1 30 09:58 09.12.2019
159 Clouds 20 1012 83 10000 1 30 09:40 09.12.2019
160 Clouds 20 1012 83 10000 1 30 09:21 09.12.2019
161 Clouds 20 1012 94 10000 2.97 34 08:44 09.12.2019
162 Clouds 19 1012 94 10000 2.97 34 08:25 09.12.2019
163 Clouds 20 1012 94 10000 2.2 37 07:56 09.12.2019
164 Clouds 20 1012 94 10000 2.2 37 07:38 09.12.2019
165 Clouds 20 1012 94 10000 2.2 37 07:20 09.12.2019
166 Clouds 20 1012 88 10000 2.2 37 06:43 09.12.2019
167 Clouds 20 1012 88 10000 2.2 37 06:24 09.12.2019
168 Clouds 20 1012 88 10000 2.2 37 06:24 09.12.2019
169 Clouds 20 1013 88 10000 3.9 66 05:26 09.12.2019
170 Clouds 21 1014 83 10000 1.5 80 04:33 09.12.2019
171 Clouds 22 1014 83 10000 2.1 60 03:19 09.12.2019
172 Clouds 22 1014 83 10000 2.6 100 02:24 09.12.2019
173 Clouds 22 1014 78 10000 2.6 90 01:42 09.12.2019
174 Clouds 23 1014 88 10000 0.5 150 00:46 09.12.2019
175 Clouds 23 1014 88 10000 0.5 150 00:26 09.12.2019
176 Clouds 25 1014 83 10000 2.6 180 23:41 08.12.2019
177 Clouds 25 1014 83 10000 2.6 180 23:23 08.12.2019
178 Clouds 25 1013 73 10000 2.6 150 22:57 08.12.2019
179 Clouds 25 1013 73 10000 2.6 150 22:57 08.12.2019
180 Clouds 25 1013 73 10000 2.6 150 22:39 08.12.2019
181 Clouds 25 1013 73 10000 2.6 150 22:19 08.12.2019
182 Clouds 27 1013 69 10000 3.1 170 21:58 08.12.2019
183 Clouds 27 1013 69 10000 3.1 170 21:40 08.12.2019
184 Clouds 27 1013 69 10000 3.1 170 21:21 08.12.2019
185 Clouds 27 1013 69 10000 4.1 160 20:57 08.12.2019
186 Clouds 27 1013 69 10000 4.1 160 20:38 08.12.2019
187 Clouds 27 1013 69 10000 4.1 160 20:20 08.12.2019
188 Clouds 27 1013 69 10000 4.1 160 20:20 08.12.2019
189 Clouds 28 1013 65 10000 4.6 150 19:59 08.12.2019
190 Clouds 28 1013 65 10000 4.6 150 19:41 08.12.2019
191 Clouds 28 1013 65 10000 4.6 150 19:23 08.12.2019
192 Clouds 28 1014 69 10000 6.2 170 18:55 08.12.2019
193 Clouds 28 1014 69 10000 6.2 170 18:55 08.12.2019
194 Clouds 28 1014 69 10000 6.2 170 18:37 08.12.2019
195 Clouds 28 1014 69 10000 6.2 170 18:19 08.12.2019
196 Clouds 28 1014 74 10000 7.2 170 17:57 08.12.2019
197 Clouds 28 1014 74 10000 7.2 170 17:39 08.12.2019
198 Clouds 28 1014 74 10000 7.2 170 17:20 08.12.2019
199 Clouds 28 1014 74 10000 7.2 170 17:20 08.12.2019
200 Clouds 28 1014 74 10000 7.2 170 17:20 08.12.2019
201 Clouds 27 1015 69 10000 6.2 170 16:57 08.12.2019
202 Clouds 27 1015 69 10000 6.2 170 16:39 08.12.2019
203 Clouds 27 1015 69 10000 6.2 170 16:21 08.12.2019
204 Clouds 27 1015 69 10000 5.7 170 15:56 08.12.2019
205 Clouds 27 1015 69 10000 5.7 170 15:37 08.12.2019
206 Clouds 27 1015 69 10000 5.7 170 15:18 08.12.2019
207 Clouds 25 1016 69 10000 2.6 140 14:44 08.12.2019
208 Clouds 25 1016 69 10000 2.6 140 14:24 08.12.2019
209 Clouds 24 1016 69 10000 3.1 140 13:59 08.12.2019
210 Clouds 24 1016 69 10000 2.1 340 13:40 08.12.2019
211 Clouds 24 1016 69 10000 2.1 340 13:22 08.12.2019
212 Clouds 23 1016 78 10000 1.5 10 12:58 08.12.2019
213 Clouds 22 1016 78 10000 1.5 10 12:38 08.12.2019
214 Clouds 23 1016 78 10000 1.5 10 12:18 08.12.2019
215 Clouds 22 1016 78 10000 1 60 11:57 08.12.2019
216 Clouds 22 1016 78 10000 1 60 11:37 08.12.2019
217 Clouds 20 1016 78 10000 1 60 11:19 08.12.2019
218 Clouds 18 1015 83 10000 0.5 110 10:55 08.12.2019
219 Clouds 18 1015 83 10000 0.5 110 10:36 08.12.2019
220 Clouds 18 1015 83 10000 0.5 110 10:18 08.12.2019
221 Clouds 19 1015 88 10000 1.5 60 09:54 08.12.2019
222 Clouds 19 1015 88 10000 1.5 60 09:36 08.12.2019
223 Clouds 17 1015 88 10000 1.5 60 09:18 08.12.2019
224 Clouds 17 1014 94 10000 1.5 10 08:41 08.12.2019
225 Clouds 17 1014 94 10000 1.5 10 08:22 08.12.2019
226 Clouds 18 1014 88 10000 2.1 50 07:49 08.12.2019
227 Clouds 17 1014 88 10000 2.1 50 07:21 08.12.2019
228 Clouds 18 1014 88 10000 0.5 130 06:59 08.12.2019
229 Clouds 18 1014 88 10000 0.5 130 06:39 08.12.2019
230 Clouds 18 1014 88 10000 0.5 130 06:19 08.12.2019
231 Clouds 18 1014 88 10000 1 170 05:23 08.12.2019
232 Clear 18 1015 88 10000 3.26 53 04:46 08.12.2019
233 Clear 19 1016 88 10000 1.5 150 03:39 08.12.2019
234 Clear 20 1016 88 10000 2.6 150 02:43 08.12.2019
235 Clear 22 1016 88 10000 2.6 150 02:20 08.12.2019
236 Clear 22 1015 94 10000 3.1 170 01:40 08.12.2019
237 Clear 23 1015 94 10000 4.6 160 00:53 08.12.2019
238 Clear 23 1015 94 10000 4.6 160 00:24 08.12.2019
239 Clouds 23 1014 94 10000 4.6 160 23:59 07.12.2019
240 Clouds 23 1014 94 10000 4.6 160 23:38 07.12.2019
241 Clouds 24 1013 83 10000 5.1 150 23:20 07.12.2019
242 Clouds 24 1013 83 10000 5.1 150 22:55 07.12.2019
243 Clouds 24 1013 83 10000 5.1 150 22:37 07.12.2019
244 Clouds 24 1013 83 10000 5.1 150 22:37 07.12.2019
245 Clouds 24 1013 83 10000 5.1 150 22:37 07.12.2019
246 Clouds 25 1013 83 10000 4.6 160 22:19 07.12.2019
247 Clouds 25 1013 83 10000 4.6 160 21:55 07.12.2019
248 Clouds 25 1013 83 10000 4.6 160 21:37 07.12.2019
249 Clouds 25 1013 83 10000 4.6 160 21:18 07.12.2019
250 Clouds 26 1013 74 10000 5.1 160 20:38 07.12.2019
251 Clouds 26 1013 74 10000 5.1 160 20:20 07.12.2019
252 Clouds 27 1013 69 10000 4.1 150 19:58 07.12.2019
253 Clouds 27 1013 69 10000 4.1 150 19:39 07.12.2019
254 Clouds 26 1013 69 10000 4.1 150 19:21 07.12.2019
255 Clouds 27 1013 65 10000 4.6 150 18:59 07.12.2019
256 Clouds 27 1013 65 10000 4.6 150 18:40 07.12.2019
257 Clouds 27 1013 65 10000 4.6 150 18:18 07.12.2019
258 Clouds 27 1014 65 10000 4.6 160 17:56 07.12.2019
259 Clouds 27 1014 65 10000 4.6 160 17:37 07.12.2019
260 Clouds 27 1014 65 10000 4.6 160 17:19 07.12.2019
261 Clouds 27 1014 69 10000 4.6 140 16:56 07.12.2019
262 Clouds 27 1014 69 10000 4.6 140 16:36 07.12.2019
263 Clouds 27 1014 69 10000 4.6 140 16:18 07.12.2019
264 Clouds 27 1014 69 10000 4.1 150 15:41 07.12.2019
265 Clouds 27 1014 69 10000 4.1 150 15:23 07.12.2019
266 Clouds 26 1014 69 10000 3.6 160 14:57 07.12.2019
267 Clouds 26 1014 69 10000 3.6 160 14:38 07.12.2019
268 Clouds 27 1014 69 10000 3.6 160 14:18 07.12.2019
269 Clouds 26 1014 74 10000 1 70 13:41 07.12.2019
270 Clouds 26 1014 74 10000 1 70 13:21 07.12.2019
271 Clouds 23 1014 78 9000 1.5 50 12:56 07.12.2019
272 Clouds 23 1014 78 9000 1.5 50 12:38 07.12.2019
273 Clouds 23 1014 78 9000 1.5 50 12:20 07.12.2019
274 Clouds 22 1013 88 9000 1.5 350 11:56 07.12.2019
275 Clouds 22 1013 88 9000 1.5 350 11:37 07.12.2019
276 Clouds 22 1013 88 9000 1.5 350 11:19 07.12.2019
277 Clouds 21 1013 94 10000 3.1 340 10:37 07.12.2019
278 Clouds 21 1013 94 10000 3.1 340 10:19 07.12.2019
279 Clouds 21 1013 94 10000 3.1 340 10:19 07.12.2019
280 Clouds 20 1012 94 10000 2.1 320 09:41 07.12.2019
281 Clouds 20 1012 94 10000 2.1 320 09:22 07.12.2019
282 Clouds 20 1012 94 10000 2.1 330 08:56 07.12.2019
283 Clouds 20 1012 94 10000 2.1 330 08:37 07.12.2019
284 Clouds 20 1012 94 10000 2.1 330 08:19 07.12.2019
285 Clouds 19 1011 94 10000 1.5 330 07:44 07.12.2019
286 Clouds 20 1011 94 8000 2.1 10 07:23 07.12.2019
287 Clouds 20 1011 94 8000 2.1 10 06:45 07.12.2019
288 Clouds 20 1011 94 8000 2.1 10 06:24 07.12.2019
289 Clouds 20 1012 94 10000 2.6 10 05:19 07.12.2019
290 Clouds 21 1013 94 10000 0.5 110 03:55 07.12.2019
291 Rain 21 1014 94 7000 2.6 40 02:59 07.12.2019
292 Clouds 21 1013 100 9000 2.6 140 02:21 07.12.2019
293 Rain 21 1013 94 9000 3.6 170 01:34 07.12.2019
294 Clouds 21 1012 88 10000 3.1 150 00:52 07.12.2019
295 Clouds 21 1012 88 10000 3.1 150 00:19 07.12.2019
296 Clouds 21 1011 94 10000 3.1 140 23:55 06.12.2019
297 Clouds 21 1011 94 10000 3.1 140 23:36 06.12.2019
298 Clouds 21 1011 94 10000 3.1 140 23:18 06.12.2019
299 Clouds 22 1010 88 10000 1.5 130 22:37 06.12.2019
300 Clouds 22 1010 88 10000 1.5 130 22:19 06.12.2019
301 Clouds 22 1010 83 10000 3.1 210 21:57 06.12.2019
302 Clouds 22 1010 83 10000 3.1 210 21:38 06.12.2019
303 Clouds 22 1010 83 10000 3.1 210 21:19 06.12.2019
304 Clouds 22 1010 88 9000 3.6 160 20:42 06.12.2019
305 Clouds 22 1010 88 9000 3.6 160 20:42 06.12.2019
306 Clouds 22 1010 88 9000 3.6 160 20:23 06.12.2019
307 Clouds 21 1010 100 7000 4.1 180 19:59 06.12.2019
308 Clouds 22 1010 100 7000 4.1 180 19:40 06.12.2019
309 Clouds 21 1010 100 7000 4.1 180 19:21 06.12.2019
310 Clouds 21 1010 94 10000 6.7 200 18:56 06.12.2019
311 Clouds 21 1010 94 10000 6.7 200 18:38 06.12.2019
312 Clouds 21 1010 94 10000 6.7 200 18:19 06.12.2019
313 Rain 22 1009 100 5000 9.3 190 17:55 06.12.2019
314 Rain 22 1009 100 5000 9.3 190 17:37 06.12.2019
315 Rain 21 1009 100 5000 9.3 190 17:19 06.12.2019
316 Rain 23 1010 100 4500 7.7 180 16:43 06.12.2019
317 Rain 22 1010 100 4500 7.7 180 16:25 06.12.2019
318 Rain 24 1009 100 2000 9.8 200 15:59 06.12.2019
319 Clouds 24 1009 94 10000 4.6 180 15:40 06.12.2019
320 Clouds 24 1009 94 10000 4.6 180 15:19 06.12.2019
321 Rain 24 1009 100 7000 6.2 210 14:57 06.12.2019
322 Rain 25 1009 100 7000 6.2 210 14:38 06.12.2019
323 Rain 25 1009 100 7000 6.2 210 14:19 06.12.2019
324 Clouds 25 1008 94 10000 4.1 170 13:43 06.12.2019
325 Clouds 25 1008 94 10000 4.1 170 13:25 06.12.2019
326 Clouds 25 1008 94 10000 2.6 170 12:43 06.12.2019
327 Clouds 25 1008 94 10000 2.6 170 12:23 06.12.2019
328 Clouds 24 1008 100 10000 4.1 180 11:58 06.12.2019
329 Clouds 24 1008 100 10000 4.1 180 11:39 06.12.2019
330 Clouds 24 1008 100 10000 4.1 180 11:21 06.12.2019
331 Clouds 24 1006 94 10000 5.1 170 10:44 06.12.2019
332 Clouds 24 1006 94 10000 5.1 170 10:22 06.12.2019
333 Clouds 23 1005 100 10000 5.1 180 09:59 06.12.2019
334 Clouds 23 1005 100 10000 5.1 180 09:39 06.12.2019
335 Clouds 23 1005 100 10000 5.1 180 09:20 06.12.2019
336 Clouds 24 1005 100 10000 2.1 160 08:57 06.12.2019
337 Clouds 24 1005 100 10000 2.1 160 08:38 06.12.2019
338 Clouds 24 1005 100 10000 2.1 160 08:38 06.12.2019
339 Clouds 24 1005 100 10000 2.1 160 08:20 06.12.2019
340 Clouds 24 1005 100 10000 2.6 150 07:38 06.12.2019
341 Clouds 24 1005 100 10000 2.6 150 07:20 06.12.2019
342 Clouds 24 1005 100 10000 3.1 140 06:30 06.12.2019
343 Clouds 25 1005 94 10000 1 340 05:56 06.12.2019
344 Clouds 25 1005 94 10000 1 340 05:38 06.12.2019
345 Clouds 25 1007 100 10000 4.1 20 02:20 06.12.2019
346 Clouds 25 1008 100 8000 2.6 340 01:43 06.12.2019
347 Rain 25 1008 100 3000 4.6 280 00:49 06.12.2019
348 Rain 25 1008 100 3000 4.6 280 00:22 06.12.2019
349 Rain 25 1008 100 4500 4.1 290 23:50 05.12.2019
350 Rain 26 1007 100 4500 5.7 320 23:20 05.12.2019
351 Rain 26 1006 94 4500 6.2 360 22:58 05.12.2019
352 Clouds 27 1005 83 10000 4.6 10 22:38 05.12.2019
353 Clouds 29 1005 83 10000 4.6 10 22:19 05.12.2019
354 Rain 31 1004 62 10000 2.6 350 21:55 05.12.2019
355 Rain 31 1004 62 10000 2.6 350 21:37 05.12.2019
356 Clouds 32 1005 66 10000 1.5 130 21:19 05.12.2019
357 Clouds 33 1004 59 10000 0.5 360 20:55 05.12.2019
358 Clouds 33 1004 59 10000 0.5 360 20:36 05.12.2019
359 Clouds 34 1004 59 10000 0.5 360 20:18 05.12.2019
360 Clouds 34 1004 59 10000 0.5 360 20:18 05.12.2019
361 Clouds 33 1004 62 10000 3.6 360 19:40 05.12.2019
362 Clouds 33 1004 62 10000 3.6 360 19:21 05.12.2019
363 Clouds 33 1005 59 10000 4.6 350 18:58 05.12.2019
364 Clouds 32 1005 59 10000 4.6 350 18:38 05.12.2019
365 Clouds 33 1005 59 10000 4.6 350 18:20 05.12.2019
366 Clouds 33 1006 62 10000 4.1 360 17:41 05.12.2019
367 Clouds 31 1006 62 10000 4.1 360 17:20 05.12.2019
368 Clouds 31 1007 59 10000 5.1 360 16:59 05.12.2019
369 Clouds 29 1007 59 10000 5.1 360 16:40 05.12.2019
370 Clouds 33 1007 59 10000 5.1 360 16:22 05.12.2019
371 Clouds 33 1007 59 10000 6.7 20 15:58 05.12.2019
372 Clouds 28 1007 59 10000 6.7 20 15:40 05.12.2019
373 Clouds 33 1007 59 10000 6.7 20 15:20 05.12.2019
374 Clouds 33 1007 59 10000 6.7 20 15:20 05.12.2019
375 Clouds 33 1008 55 10000 3.6 350 14:56 05.12.2019
376 Clouds 33 1008 55 10000 3.6 350 14:38 05.12.2019
377 Clouds 32 1008 55 10000 3.6 350 14:20 05.12.2019
378 Clouds 31 1008 66 10000 2.6 350 13:58 05.12.2019
379 Clouds 31 1008 66 10000 2.6 350 13:40 05.12.2019
380 Clouds 30 1008 66 10000 2.6 350 13:21 05.12.2019
381 Clouds 29 1009 78 10000 2.6 360 12:59 05.12.2019
382 Clouds 29 1009 78 10000 2.6 360 12:40 05.12.2019
383 Clouds 27 1009 78 10000 2.6 360 12:21 05.12.2019
384 Clouds 27 1009 74 10000 1.5 350 11:55 05.12.2019
385 Clouds 24 1009 74 10000 1.5 350 11:36 05.12.2019
386 Clouds 24 1009 74 10000 1.5 350 11:18 05.12.2019
387 Clouds 24 1009 88 10000 0.5 290 10:54 05.12.2019
388 Clouds 23 1009 88 10000 0.5 290 10:36 05.12.2019
389 Clouds 23 1009 88 10000 0.5 290 10:18 05.12.2019
390 Clouds 22 1009 100 10000 0.5 100 09:42 05.12.2019
391 Clouds 23 1009 100 10000 0.5 100 09:20 05.12.2019
392 Clouds 23 1009 94 10000 2.1 350 08:57 05.12.2019
393 Clouds 22 1009 94 10000 2.1 350 08:37 05.12.2019
394 Clouds 23 1009 94 10000 2.1 350 08:19 05.12.2019
395 Clouds 23 1009 100 10000 0.5 140 07:44 05.12.2019
396 Clouds 22 1009 100 10000 0.5 140 07:24 05.12.2019
397 Clouds 22 1009 100 10000 1 20 06:56 05.12.2019
398 Clouds 22 1009 100 10000 1 20 06:37 05.12.2019
399 Clouds 22 1009 100 10000 1 20 06:18 05.12.2019
400 Clouds 23 1010 88 10000 1 300 05:44 05.12.2019
401 Clouds 23 1010 88 10000 1 300 05:19 05.12.2019
402 Clouds 24 1012 88 10000 1 100 03:52 05.12.2019
403 Clouds 24 1012 88 10000 1 100 03:52 05.12.2019
404 Clouds 24 1012 94 10000 2.6 60 02:43 05.12.2019
405 Clouds 24 1012 94 10000 2.6 60 02:23 05.12.2019
406 Clouds 24 1012 94 10000 3.1 100 01:52 05.12.2019
407 Clouds 25 1012 94 10000 3.1 100 01:24 05.12.2019
408 Clouds 25 1012 83 10000 4.73 64 00:50 05.12.2019
409 Clouds 25 1012 83 10000 4.73 64 00:29 05.12.2019
410 Clouds 25 1011 83 10000 2.1 90 23:57 04.12.2019
411 Clouds 24 1011 83 10000 2.1 90 23:39 04.12.2019
412 Clouds 26 1011 83 10000 2.1 90 23:20 04.12.2019
413 Clouds 27 1010 78 10000 4.1 60 22:55 04.12.2019
414 Clouds 25 1010 78 10000 4.1 60 22:36 04.12.2019
415 Clouds 29 1010 78 10000 4.1 60 22:18 04.12.2019
416 Clouds 29 1010 74 10000 4.1 110 21:54 04.12.2019
417 Clouds 26 1010 74 10000 4.1 110 21:36 04.12.2019
418 Clouds 30 1010 74 10000 4.1 110 21:18 04.12.2019
419 Clouds 30 1010 74 10000 3.6 170 20:54 04.12.2019
420 Clouds 26 1010 74 10000 3.6 170 20:36 04.12.2019
421 Clouds 30 1010 74 10000 3.6 170 20:18 04.12.2019
422 Clouds 30 1010 74 10000 3.6 170 20:18 04.12.2019
423 Clouds 30 1011 74 10000 5.1 170 19:39 04.12.2019
424 Clouds 30 1011 74 10000 5.1 170 19:21 04.12.2019
425 Clouds 30 1012 70 10000 4.1 160 18:57 04.12.2019
426 Clouds 30 1012 70 10000 4.1 160 18:39 04.12.2019
427 Clouds 30 1012 70 10000 4.1 160 18:21 04.12.2019
428 Clouds 29 1013 78 10000 4.1 150 17:40 04.12.2019
429 Clouds 29 1013 78 10000 4.1 150 17:22 04.12.2019
430 Clouds 28 1013 74 10000 4.6 160 16:59 04.12.2019
431 Clouds 27 1013 74 10000 4.6 160 16:40 04.12.2019
432 Clouds 28 1013 74 10000 4.6 160 16:20 04.12.2019
433 Clouds 28 1013 74 10000 4.6 160 16:20 04.12.2019
434 Clouds 28 1014 74 10000 4.1 150 15:57 04.12.2019
435 Clouds 28 1014 74 10000 4.1 150 15:38 04.12.2019
436 Clouds 27 1014 74 10000 4.1 150 15:19 04.12.2019
437 Clouds 26 1014 78 10000 3.1 150 14:57 04.12.2019
438 Clouds 26 1014 78 10000 3.1 150 14:39 04.12.2019
439 Clouds 24 1014 78 10000 3.1 150 14:20 04.12.2019
440 Clouds 24 1014 69 10000 2.1 350 13:39 04.12.2019
441 Clouds 25 1014 69 10000 2.1 350 13:20 04.12.2019
442 Clouds 25 1014 73 10000 2.1 20 12:58 04.12.2019
443 Clouds 25 1014 73 10000 2.1 20 12:40 04.12.2019
444 Clouds 24 1014 73 10000 2.1 20 12:22 04.12.2019
445 Clouds 23 1014 78 10000 2.1 40 11:41 04.12.2019
446 Clouds 21 1014 78 10000 2.1 40 11:23 04.12.2019
447 Clouds 21 1014 83 10000 1.5 20 10:57 04.12.2019
448 Clouds 21 1014 83 10000 1.5 20 10:39 04.12.2019
449 Clouds 21 1014 83 10000 1.5 20 10:21 04.12.2019
450 Clouds 20 1014 88 10000 1.5 80 09:42 04.12.2019
451 Clouds 20 1014 88 10000 1.5 80 09:23 04.12.2019
452 Clouds 20 1014 88 10000 2.1 50 08:44 04.12.2019
453 Clouds 20 1014 88 10000 2.1 50 08:44 04.12.2019
454 Clouds 20 1014 88 10000 2.1 50 08:25 04.12.2019
455 Clouds 20 1013 88 10000 3.1 70 07:51 04.12.2019
456 Clouds 20 1013 88 10000 3.1 70 07:31 04.12.2019
457 Clouds 20 1014 83 10000 1 160 06:59 04.12.2019
458 Clouds 20 1014 83 10000 1 160 06:31 04.12.2019
459 Clouds 21 1014 88 10000 2.1 190 05:46 04.12.2019
460 Clouds 20 1015 88 10000 2.6 170 04:39 04.12.2019
461 Clouds 21 1016 83 10000 2.6 170 03:52 04.12.2019
462 Clouds 23 1015 78 10000 2.1 170 01:53 04.12.2019
463 Clouds 23 1015 83 10000 2.6 110 00:49 04.12.2019
464 Clouds 23 1015 83 10000 2.6 110 00:22 04.12.2019
465 Clouds 23 1014 78 10000 3.1 110 23:55 03.12.2019
466 Clouds 23 1014 78 10000 3.1 110 23:37 03.12.2019
467 Clouds 23 1014 78 10000 3.1 110 23:18 03.12.2019
468 Clouds 23 1013 78 10000 4.1 120 22:39 03.12.2019
469 Clouds 21 1013 78 10000 4.1 120 22:39 03.12.2019
470 Clouds 23 1013 78 10000 4.1 120 22:39 03.12.2019
471 Clouds 23 1013 78 10000 4.1 120 22:18 03.12.2019
472 Clouds 23 1013 83 10000 4.6 170 21:57 03.12.2019
473 Clouds 23 1013 83 10000 4.6 170 21:37 03.12.2019
474 Clouds 23 1013 83 10000 4.6 170 21:18 03.12.2019
475 Clouds 23 1013 83 10000 4.1 180 20:56 03.12.2019
476 Clouds 21 1013 83 10000 4.1 180 20:38 03.12.2019
477 Clouds 23 1013 83 10000 4.1 180 20:18 03.12.2019
478 Clouds 24 1014 69 10000 4.6 160 19:54 03.12.2019
479 Clouds 24 1014 69 10000 4.6 160 19:36 03.12.2019
480 Clouds 24 1014 69 10000 4.6 160 19:18 03.12.2019
481 Clouds 24 1014 65 10000 6.2 160 18:55 03.12.2019
482 Clouds 23 1014 65 10000 6.2 160 18:37 03.12.2019
483 Clouds 24 1014 65 10000 6.2 160 18:19 03.12.2019
484 Clouds 23 1015 69 10000 6.2 180 17:40 03.12.2019
485 Clouds 24 1015 69 10000 6.2 180 17:19 03.12.2019
486 Clouds 24 1015 65 10000 4.6 160 16:59 03.12.2019
487 Clouds 24 1015 65 10000 4.6 160 16:40 03.12.2019
488 Clouds 24 1015 65 10000 4.6 160 16:21 03.12.2019
489 Clouds 24 1015 65 10000 3.6 160 15:59 03.12.2019
490 Clouds 25 1015 65 10000 3.6 160 15:39 03.12.2019
491 Clouds 25 1015 65 10000 3.6 160 15:20 03.12.2019
492 Clouds 24 1015 78 10000 1 120 14:58 03.12.2019
493 Clouds 24 1015 78 10000 1 120 14:40 03.12.2019
494 Clouds 23 1015 78 10000 1 120 14:19 03.12.2019
495 Clouds 23 1015 73 10000 1 30 13:39 03.12.2019
496 Clouds 22 1015 73 10000 1 30 13:20 03.12.2019
497 Clouds 22 1015 73 10000 1 30 13:20 03.12.2019
498 Clouds 22 1015 88 10000 2.1 360 12:58 03.12.2019
499 Clouds 22 1015 88 10000 2.1 360 12:38 03.12.2019
500 Clouds 21 1015 88 10000 2.1 360 12:18 03.12.2019
501 Clouds 21 1015 88 10000 1.5 40 11:58 03.12.2019
502 Clouds 21 1015 88 10000 1.5 40 11:38 03.12.2019
503 Clouds 20 1015 88 10000 1.5 40 11:19 03.12.2019
504 Clouds 20 1015 88 10000 1.5 40 11:19 03.12.2019
505 Clouds 20 1014 94 9000 1.5 360 10:56 03.12.2019
506 Clouds 19 1014 94 9000 1.5 360 10:38 03.12.2019
507 Clouds 19 1014 94 9000 1.5 360 10:19 03.12.2019
508 Clouds 19 1013 94 10000 1.5 340 09:45 03.12.2019
509 Clouds 19 1013 94 10000 1.5 340 09:25 03.12.2019
510 Clouds 19 1013 100 10000 2.1 350 08:58 03.12.2019
511 Clouds 19 1013 100 10000 2.1 350 08:39 03.12.2019
512 Clouds 19 1013 100 10000 2.1 350 08:21 03.12.2019
513 Clouds 19 1013 100 10000 3.1 30 07:52 03.12.2019
514 Clouds 19 1013 100 10000 3.1 30 07:29 03.12.2019
515 Clouds 19 1013 100 10000 3.1 30 07:29 03.12.2019
516 Clouds 19 1014 100 10000 2.1 10 06:45 03.12.2019
517 Clouds 20 1014 100 10000 2.1 10 06:20 03.12.2019
518 Clouds 20 1014 94 10000 2.6 350 05:54 03.12.2019
519 Clouds 20 1015 100 10000 2.1 340 03:44 03.12.2019
520 Clouds 21 1015 100 10000 2.1 340 03:22 03.12.2019
521 Clouds 21 1015 100 10000 2.6 20 02:54 03.12.2019
522 Clouds 21 1015 100 10000 2.6 20 02:32 03.12.2019
523 Clouds 21 1015 88 10000 2.1 350 01:59 03.12.2019
524 Clouds 21 1015 88 10000 2.1 350 01:39 03.12.2019
525 Clouds 21 1015 88 10000 2.1 350 01:20 03.12.2019
526 Clouds 21 1014 83 8000 2.6 170 00:42 03.12.2019
527 Clouds 21 1014 83 8000 2.6 170 00:23 03.12.2019
528 Rain 21 1014 83 8000 3.1 210 23:44 02.12.2019
529 Rain 21 1014 83 8000 3.1 210 23:22 02.12.2019
530 Rain 21 1014 94 8000 2.6 210 22:58 02.12.2019
531 Clouds 21 1013 88 10000 6.7 190 22:39 02.12.2019
532 Clouds 22 1013 88 10000 6.7 190 22:20 02.12.2019
533 Clouds 22 1013 88 10000 4.6 190 21:54 02.12.2019
534 Clouds 21 1013 88 10000 4.6 190 21:36 02.12.2019
535 Clouds 22 1013 88 10000 4.6 190 21:18 02.12.2019
536 Clouds 21 1013 88 8000 6.7 180 20:54 02.12.2019
537 Clouds 21 1013 88 8000 6.7 180 20:54 02.12.2019
538 Clouds 21 1013 88 8000 6.7 180 20:36 02.12.2019
539 Clouds 22 1013 88 8000 6.7 180 20:18 02.12.2019
540 Clouds 22 1013 88 8000 7.7 190 19:41 02.12.2019
541 Clouds 22 1013 88 8000 7.7 190 19:41 02.12.2019
542 Clouds 22 1013 88 8000 7.7 190 19:21 02.12.2019
543 Clouds 22 1013 88 8000 7.7 190 19:21 02.12.2019
544 Rain 22 1013 100 4500 6.7 190 18:56 02.12.2019
545 Rain 22 1013 100 4500 6.7 190 18:37 02.12.2019
546 Rain 22 1013 100 4500 6.7 190 18:18 02.12.2019
547 Rain 23 1013 100 6000 6.2 180 17:41 02.12.2019
548 Rain 23 1013 100 6000 6.2 180 17:21 02.12.2019
549 Rain 23 1013 100 6000 6.2 180 17:21 02.12.2019
550 Clouds 24 1013 74 10000 8.7 200 16:59 02.12.2019
551 Clouds 24 1013 74 10000 8.7 200 16:39 02.12.2019
552 Clouds 25 1013 74 10000 8.7 200 16:19 02.12.2019
553 Clouds 25 1013 78 10000 4.6 160 15:57 02.12.2019
554 Clouds 25 1013 78 10000 4.6 160 15:39 02.12.2019
555 Clouds 26 1013 78 10000 4.6 160 15:21 02.12.2019
556 Clouds 25 1013 83 10000 3.1 190 14:56 02.12.2019
557 Clouds 24 1013 83 10000 3.1 190 14:37 02.12.2019
558 Clouds 25 1013 83 10000 3.1 190 14:19 02.12.2019
559 -273 0 0 0 0 0 13:55 02.12.2019
560 Clouds 25 1013 94 8000 4.6 200 13:55 02.12.2019
561 Rain 23 1013 94 6000 4.6 200 13:37 02.12.2019
562 Rain 25 1013 94 6000 4.6 200 13:18 02.12.2019
563 Clouds 25 1013 83 10000 4.1 210 12:42 02.12.2019
564 Clouds 26 1013 83 10000 4.1 210 12:21 02.12.2019
565 Clouds 26 1012 83 10000 1.5 40 11:58 02.12.2019
566 Clouds 23 1012 83 10000 1.5 40 11:38 02.12.2019
567 Clouds 23 1012 83 10000 1.5 40 11:19 02.12.2019
568 Clouds 23 1012 94 10000 1 120 10:57 02.12.2019
569 Clouds 23 1012 94 10000 1 120 10:39 02.12.2019
570 Clouds 22 1012 94 10000 1 120 10:21 02.12.2019
571 Clouds 22 1011 94 10000 2.1 180 09:56 02.12.2019
572 Clouds 22 1011 94 10000 2.1 180 09:38 02.12.2019
573 Clouds 22 1011 94 10000 2.1 180 09:18 02.12.2019
574 Clouds 22 1010 100 10000 2.6 210 08:55 02.12.2019
575 Clouds 22 1010 100 10000 2.6 210 08:36 02.12.2019
576 Clouds 22 1010 100 10000 2.6 210 08:18 02.12.2019
577 Clouds 22 1010 88 10000 4.6 200 07:39 02.12.2019
578 Clouds 22 1010 88 10000 4.6 200 07:20 02.12.2019
579 Clouds 23 1010 88 10000 4.6 200 06:42 02.12.2019
580 Clouds 23 1010 94 10000 3.1 210 05:49 02.12.2019
581 Clouds 23 1010 94 10000 3.1 210 05:19 02.12.2019
582 Clouds 24 1011 88 10000 3.6 190 03:35 02.12.2019
583 Clouds 24 1011 83 10000 1.5 270 02:50 02.12.2019
584 Clouds 23 1011 94 9000 3.6 180 01:50 02.12.2019
585 Clouds 24 1011 94 9000 3.6 180 01:21 02.12.2019
586 Clouds 24 1010 94 10000 4.6 190 00:41 02.12.2019
587 Clouds 25 1010 94 10000 4.6 190 00:22 02.12.2019
588 Clouds 24 1010 100 10000 2.6 170 23:43 01.12.2019
589 Clouds 24 1010 100 10000 2.6 170 23:22 01.12.2019
590 Clouds 24 1009 100 10000 2.1 90 22:57 01.12.2019
591 Clouds 24 1009 100 10000 2.1 90 22:57 01.12.2019
592 Clouds 24 1009 100 10000 2.1 90 22:38 01.12.2019
593 Clouds 24 1009 100 10000 2.1 90 22:20 01.12.2019
594 Clouds 25 1009 94 10000 2.6 160 21:57 01.12.2019
595 Clouds 25 1009 94 10000 2.6 160 21:39 01.12.2019
596 Clouds 25 1009 94 10000 2.6 160 21:21 01.12.2019
597 Clouds 25 1009 74 10000 2.6 180 20:58 01.12.2019
598 Clouds 25 1009 74 10000 2.6 180 20:40 01.12.2019
599 Clouds 26 1009 74 10000 2.6 180 20:21 01.12.2019
600 Clouds 26 1008 78 10000 5.1 190 19:58 01.12.2019
601 Clouds 26 1008 78 10000 5.1 190 19:39 01.12.2019
602 Clouds 25 1008 78 10000 5.1 190 19:39 01.12.2019
603 Clouds 25 1008 78 10000 5.1 190 19:39 01.12.2019
604 Clouds 26 1008 78 10000 5.1 190 19:21 01.12.2019
605 Clouds 26 1008 78 10000 5.1 190 19:21 01.12.2019
606 Clouds 27 1008 78 10000 10.3 180 18:57 01.12.2019
607 Clouds 27 1008 78 10000 10.3 180 18:38 01.12.2019
608 Clouds 27 1008 78 10000 10.3 180 18:19 01.12.2019
609 Clouds 27 1008 78 10000 8.7 170 17:58 01.12.2019
610 Clouds 27 1008 78 10000 8.7 170 17:40 01.12.2019
611 Clouds 28 1008 78 10000 8.7 170 17:22 01.12.2019
612 Clouds 27 1008 83 10000 7.7 150 16:55 01.12.2019
613 Clouds 28 1008 83 10000 7.7 150 16:37 01.12.2019
614 Clouds 27 1008 83 10000 7.7 150 16:19 01.12.2019
615 Clouds 28 1008 83 10000 6.2 150 15:46 01.12.2019
616 Clouds 28 1008 83 10000 6.2 150 15:27 01.12.2019
617 Clouds 28 1008 83 10000 6.2 150 15:27 01.12.2019
618 Clouds 28 1009 83 10000 3.1 160 14:42 01.12.2019
619 Clouds 27 1009 83 10000 3.1 160 14:20 01.12.2019
620 Clouds 27 1008 70 10000 1.5 70 13:56 01.12.2019
621 Clouds 27 1008 70 10000 1.5 70 13:38 01.12.2019
622 Clouds 27 1008 74 10000 1.5 340 13:19 01.12.2019
623 Clouds 26 1009 83 10000 2.1 340 12:43 01.12.2019
624 Clouds 26 1009 88 10000 2.6 360 11:57 01.12.2019
625 Clouds 26 1009 88 10000 2.6 360 11:57 01.12.2019
626 Clouds 26 1009 88 10000 2.6 360 11:57 01.12.2019
627 Clouds 26 1009 88 10000 2.6 360 11:57 01.12.2019
628 Clouds 24 1009 88 10000 2.6 360 11:37 01.12.2019
629 Clouds 24 1009 88 10000 2.6 360 11:19 01.12.2019
630 Clouds 23 1009 100 10000 3.1 360 10:43 01.12.2019
631 Clouds 22 1009 100 10000 3.1 360 10:21 01.12.2019
632 Clouds 22 1008 100 10000 2.1 330 09:57 01.12.2019
633 Clouds 22 1008 100 10000 2.1 330 09:38 01.12.2019
634 Clouds 22 1008 100 10000 2.1 330 09:20 01.12.2019
635 Clouds 22 1008 100 10000 2.1 330 09:19 01.12.2019
636 Clouds 21 1008 100 10000 1.49 30 08:44 01.12.2019
637 Clouds 22 1008 100 10000 1.96 37 08:19 01.12.2019
638 Clouds 21 1008 100 10000 1 120 07:50 01.12.2019
639 Clouds 21 1008 100 10000 1 120 07:50 01.12.2019
640 Clouds 22 1008 100 10000 1 120 07:30 01.12.2019
641 Clouds 22 1009 100 10000 3.1 150 06:56 01.12.2019
642 Clouds 22 1009 100 10000 3.1 150 06:25 01.12.2019
643 Clouds 22 1009 100 10000 0.5 160 05:46 01.12.2019
644 Clouds 22 1010 100 10000 1.5 150 04:34 01.12.2019
645 Clouds 24 1011 94 10000 0.5 100 02:47 01.12.2019
646 Clouds 24 1011 94 10000 0.5 100 02:29 01.12.2019
647 Clouds 24 1011 88 10000 4.1 190 01:57 01.12.2019
648 Clouds 24 1011 88 10000 4.1 190 01:39 01.12.2019
649 Clouds 24 1011 88 10000 4.1 190 01:18 01.12.2019
650 Clouds 23 1010 94 10000 5.1 170 00:39 01.12.2019
651 Clouds 24 1010 94 10000 5.1 170 00:20 01.12.2019
652 Clouds 25 1010 88 10000 6.7 180 23:42 30.11.2019
653 Clouds 25 1010 88 10000 6.7 180 23:23 30.11.2019
654 Clouds 25 1009 88 10000 7.2 190 22:50 30.11.2019
655 Clouds 26 1009 88 10000 7.2 190 22:30 30.11.2019
656 Clouds 26 1008 88 10000 5.7 180 21:58 30.11.2019
657 Clouds 27 1008 88 10000 5.7 180 21:39 30.11.2019
658 Clouds 27 1008 88 10000 5.7 180 21:20 30.11.2019
659 Clouds 27 1008 83 10000 6.7 180 20:55 30.11.2019
660 Clouds 27 1008 83 10000 6.7 180 20:37 30.11.2019
661 Clouds 28 1008 83 10000 6.7 180 20:19 30.11.2019
662 Clouds 28 1009 78 10000 6.2 170 19:55 30.11.2019
663 Clouds 27 1009 78 10000 6.2 170 19:36 30.11.2019
664 Clouds 28 1009 78 10000 6.2 170 19:18 30.11.2019
665 Clouds 28 1010 78 10000 6.2 160 18:55 30.11.2019
666 Clouds 27 1010 78 10000 6.2 160 18:37 30.11.2019
667 Clouds 28 1010 78 10000 6.2 160 18:18 30.11.2019
668 Clouds 28 1011 78 10000 5.7 160 17:56 30.11.2019
669 Clouds 28 1011 78 10000 5.7 160 17:37 30.11.2019
670 Clouds 28 1011 78 10000 5.7 160 17:19 30.11.2019
671 Clouds 27 1012 74 10000 5.7 160 16:42 30.11.2019
672 Clouds 27 1012 74 10000 5.7 160 16:23 30.11.2019
673 Clouds 27 1012 74 10000 5.7 160 15:58 30.11.2019
674 Clouds 27 1012 74 10000 5.7 160 15:40 30.11.2019
675 Clouds 27 1012 74 10000 5.7 160 15:19 30.11.2019
676 Clouds 27 1012 74 10000 5.7 160 15:19 30.11.2019
677 Clouds 26 1013 69 10000 4.6 160 14:56 30.11.2019
678 Clouds 25 1013 69 10000 4.6 160 14:37 30.11.2019
679 Clouds 26 1013 69 10000 4.6 160 14:18 30.11.2019
680 Clouds 26 1014 78 10000 2.6 140 13:56 30.11.2019
681 Clouds 24 1014 78 10000 2.6 140 13:36 30.11.2019
682 Clouds 25 1014 78 10000 2.6 140 13:18 30.11.2019
683 Clouds 25 1013 73 10000 1.5 330 12:43 30.11.2019
684 Clouds 24 1013 73 10000 1.5 330 12:25 30.11.2019
685 Clouds 23 1013 83 10000 1 360 11:45 30.11.2019
686 Clouds 22 1013 83 10000 1 360 11:20 30.11.2019
687 Clouds 22 1013 83 10000 2.56 66 10:57 30.11.2019
688 Clouds 22 1013 83 10000 2.56 66 10:39 30.11.2019
689 Clouds 21 1013 83 10000 2.56 66 10:20 30.11.2019
690 Clouds 21 1012 94 10000 2.56 66 09:46 30.11.2019
691 Clouds 21 1012 94 10000 2.56 66 09:28 30.11.2019
692 Clouds 21 1012 100 10000 2.56 66 08:44 30.11.2019
693 Clouds 21 1012 100 10000 2.56 66 08:44 30.11.2019
694 Clouds 21 1012 100 10000 2.67 66 08:23 30.11.2019
695 Clouds 21 1012 94 10000 0.5 160 07:59 30.11.2019
696 Clouds 21 1012 94 10000 0.5 160 07:40 30.11.2019
697 Clouds 21 1012 94 10000 0.5 160 07:21 30.11.2019
698 Clouds 21 1012 88 10000 1 150 06:30 30.11.2019
699 Clouds 21 1012 88 10000 1 150 06:30 30.11.2019
700 Clouds 21 1013 94 10000 1 170 05:55 30.11.2019
701 Clouds 22 1014 88 10000 2.1 170 03:54 30.11.2019
702 Clouds 22 1014 88 10000 2.1 170 03:54 30.11.2019
703 Clouds 22 1014 88 10000 2.6 170 02:53 30.11.2019
704 Clouds 22 1014 88 10000 2.6 170 02:22 30.11.2019
705 Clouds 22 1014 94 10000 2.1 170 01:47 30.11.2019
706 Clouds 22 1014 94 10000 2.1 170 01:24 30.11.2019
707 Clouds 22 1014 88 10000 2.6 170 00:38 30.11.2019
708 Clouds 22 1014 88 10000 2.6 170 00:20 30.11.2019
709 Clouds 22 1013 88 10000 3.1 160 23:44 29.11.2019
710 Clouds 22 1013 88 10000 3.1 160 23:23 29.11.2019
711 Clouds 22 1013 88 10000 3.1 160 23:23 29.11.2019
712 Clouds 22 1013 88 10000 2.6 180 22:48 29.11.2019
713 Clouds 23 1013 88 10000 2.6 180 22:26 29.11.2019
714 Clouds 23 1013 88 10000 2.6 150 21:55 29.11.2019
715 Clouds 23 1013 88 10000 2.6 150 21:36 29.11.2019
716 Clouds 23 1013 88 10000 2.6 150 21:18 29.11.2019
717 Clouds 23 1013 83 10000 3.6 160 20:54 29.11.2019
718 Clouds 22 1013 83 10000 3.6 160 20:36 29.11.2019
719 Clouds 23 1013 83 10000 3.6 160 20:18 29.11.2019
720 Clouds 24 1013 78 10000 3.1 170 19:41 29.11.2019
721 Clouds 24 1013 78 10000 3.1 170 19:21 29.11.2019
722 Clouds 24 1014 78 10000 3.1 170 18:59 29.11.2019
723 Clouds 24 1014 78 10000 3.1 170 18:41 29.11.2019
724 Clouds 24 1014 78 10000 3.1 170 18:22 29.11.2019
725 Clouds 24 1014 73 10000 3.6 170 17:54 29.11.2019
726 Clouds 24 1014 73 10000 3.6 170 17:36 29.11.2019
727 Clouds 24 1014 73 10000 3.6 170 17:18 29.11.2019
728 Clouds 24 1015 73 10000 4.6 180 16:42 29.11.2019
729 Clouds 24 1015 73 10000 4.6 180 16:21 29.11.2019
730 Clouds 24 1015 73 10000 4.6 180 16:21 29.11.2019
731 Clouds 24 1015 73 10000 3.6 170 15:56 29.11.2019
732 Clouds 24 1015 73 10000 3.6 170 15:37 29.11.2019
733 Clouds 24 1015 73 10000 3.6 170 15:19 29.11.2019
734 Clouds 24 1015 83 10000 1.5 140 14:40 29.11.2019
735 Clouds 23 1015 83 10000 1.5 140 14:21 29.11.2019
736 Clouds 23 1015 83 10000 2.1 160 13:56 29.11.2019
737 Clouds 23 1015 83 10000 1 90 13:37 29.11.2019
738 Clouds 23 1015 83 10000 1 90 13:19 29.11.2019
739 Clouds 23 1015 88 9000 1 80 12:42 29.11.2019
740 Clouds 22 1015 88 9000 1 80 12:24 29.11.2019
741 Clouds 22 1014 94 9000 1 40 11:56 29.11.2019
742 Clouds 22 1014 94 9000 1 40 11:38 29.11.2019
743 Clouds 21 1014 94 9000 1 40 11:19 29.11.2019
744 Clouds 21 1014 94 8000 1 80 10:57 29.11.2019
745 Clouds 21 1014 94 8000 1 80 10:38 29.11.2019
746 Clouds 21 1014 94 8000 1 80 10:20 29.11.2019
747 Clouds 21 1014 100 8000 1 320 09:57 29.11.2019
748 Clouds 20 1014 100 8000 1 320 09:38 29.11.2019
749 Clouds 21 1014 100 8000 1 320 09:20 29.11.2019
750 Clouds 21 1013 88 8000 3.58 213 08:55 29.11.2019
751 Clouds 21 1013 88 8000 3.58 213 08:36 29.11.2019
752 Clouds 21 1013 88 8000 5.74 187 08:18 29.11.2019
753 Clouds 21 1013 94 6000 1.5 280 07:41 29.11.2019
754 Clouds 21 1013 94 6000 1.5 280 07:23 29.11.2019
755 Rain 20 1014 100 6000 3.6 200 06:47 29.11.2019
756 Rain 20 1014 100 6000 3.6 200 06:28 29.11.2019
757 Rain 21 1014 94 5000 2.6 240 05:32 29.11.2019
758 Rain 21 1014 94 5000 2.6 240 05:32 29.11.2019
759 Rain 21 1014 94 5000 4.6 210 04:56 29.11.2019
760 Rain 21 1014 100 5000 5.7 220 03:41 29.11.2019
761 Rain 22 1014 100 5000 5.7 220 03:18 29.11.2019
762 Rain 22 1014 100 4500 5.7 210 02:24 29.11.2019
763 Rain 22 1013 94 4500 6.2 200 01:45 29.11.2019
764 Rain 22 1013 94 4500 6.2 200 01:23 29.11.2019
765 Rain 23 1012 100 4500 7.2 200 00:40 29.11.2019
766 Rain 23 1012 100 4500 7.2 200 00:20 29.11.2019
767 Rain 23 1012 100 4500 6.2 190 23:42 28.11.2019
768 Rain 23 1012 100 4500 5.1 190 23:21 28.11.2019
769 Rain 23 1012 100 4500 5.1 190 23:21 28.11.2019
770 Rain 23 1011 94 5000 3.1 210 22:57 28.11.2019
771 Rain 23 1011 94 5000 3.1 210 22:37 28.11.2019
772 Rain 23 1011 94 5000 3.1 210 22:19 28.11.2019
773 Rain 23 1010 100 4500 4.1 200 21:55 28.11.2019
774 Rain 23 1010 100 4500 4.1 200 21:36 28.11.2019
775 Rain 23 1010 100 4500 4.1 200 21:18 28.11.2019
776 Rain 23 1010 94 5000 4.1 260 20:42 28.11.2019
777 Rain 23 1010 100 4500 3.6 190 20:23 28.11.2019
778 Rain 23 1010 100 4500 5.1 180 19:59 28.11.2019
779 Rain 23 1010 100 4500 5.1 180 19:40 28.11.2019
780 Rain 24 1010 83 3000 5.7 210 19:22 28.11.2019
781 Rain 24 1010 94 7000 6.2 190 18:59 28.11.2019
782 Rain 24 1010 94 7000 6.2 190 18:39 28.11.2019
783 Rain 24 1010 94 7000 6.2 190 18:18 28.11.2019
784 Clouds 25 1010 88 10000 5.7 190 17:59 28.11.2019
785 Clouds 25 1010 88 10000 5.7 190 17:59 28.11.2019
786 Clouds 25 1010 88 10000 5.7 190 17:41 28.11.2019
787 Clouds 25 1010 88 10000 5.7 190 17:21 28.11.2019
788 Clouds 25 1010 78 9000 3.1 180 16:57 28.11.2019
789 Clouds 25 1010 78 9000 3.1 180 16:56 28.11.2019
790 Clouds 25 1010 78 9000 3.1 180 16:38 28.11.2019
791 Clouds 26 1010 78 9000 3.1 180 16:18 28.11.2019
792 Clouds 26 1010 78 9000 3.1 180 16:18 28.11.2019
793 Clouds 26 1010 83 9000 4.1 140 15:41 28.11.2019
794 Clouds 26 1010 83 9000 4.1 140 15:20 28.11.2019
795 Clouds 26 1010 88 8000 2.6 160 14:59 28.11.2019
796 Clouds 26 1010 88 8000 2.6 160 14:41 28.11.2019
797 Clouds 25 1010 88 8000 2.6 160 14:22 28.11.2019
798 Clouds 25 1010 94 8000 2.1 120 13:57 28.11.2019
799 Clouds 25 1010 94 8000 2.1 120 13:39 28.11.2019
800 Clouds 25 1010 94 8000 2.1 120 13:21 28.11.2019
801 Clouds 25 1009 88 9000 1 30 12:43 28.11.2019
802 Clouds 25 1009 88 9000 1 30 12:24 28.11.2019
803 Clouds 25 1009 83 9000 2.1 350 11:58 28.11.2019
804 Clouds 25 1009 83 9000 2.1 350 11:39 28.11.2019
805 Clouds 24 1009 83 9000 2.1 350 11:20 28.11.2019
806 Clouds 24 1009 83 9000 2.1 350 11:20 28.11.2019
807 Clouds 23 1008 88 10000 1 320 10:56 28.11.2019
808 Clouds 24 1008 88 10000 1 320 10:38 28.11.2019
809 Clouds 24 1008 88 10000 1 320 10:18 28.11.2019
810 Rain 22 1008 94 10000 2.1 40 09:41 28.11.2019
811 Rain 22 1008 94 10000 2.1 40 09:22 28.11.2019
812 Clouds 22 1008 94 10000 2.6 40 08:57 28.11.2019
813 Clouds 22 1008 94 10000 2.6 40 08:38 28.11.2019
814 Clouds 22 1008 94 10000 2.6 40 08:19 28.11.2019
815 Rain 23 1008 94 10000 2.1 20 07:42 28.11.2019
816 Rain 23 1008 94 10000 2.1 20 07:24 28.11.2019
817 Rain 22 1009 94 10000 3.1 110 06:50 28.11.2019
818 Rain 22 1009 94 10000 3.1 110 06:31 28.11.2019
819 Rain 23 1009 94 10000 2.6 70 05:51 28.11.2019
820 Rain 23 1009 94 10000 2.6 70 05:18 28.11.2019
821 Rain 23 1009 88 10000 2.6 170 02:46 28.11.2019
822 Rain 25 1008 74 10000 2.6 320 01:50 28.11.2019
823 Rain 25 1008 83 10000 1 20 00:48 28.11.2019
824 Rain 25 1008 83 10000 1 20 00:24 28.11.2019
825 Rain 26 1007 73 10000 2.1 160 23:55 27.11.2019
826 Rain 27 1007 73 10000 2.1 160 23:37 27.11.2019
827 Rain 27 1007 73 10000 2.1 160 23:37 27.11.2019
828 Clouds 27 1007 73 10000 2.1 160 23:19 27.11.2019
829 Clouds 29 1006 61 10000 4.1 180 22:39 27.11.2019
830 Clouds 29 1006 61 10000 4.1 180 22:20 27.11.2019
831 Clouds 29 1006 58 10000 6.2 180 21:56 27.11.2019
832 Clouds 29 1006 58 10000 6.2 180 21:38 27.11.2019
833 Clouds 29 1006 58 10000 6.2 180 21:38 27.11.2019
834 Clouds 31 1006 58 10000 6.2 180 21:19 27.11.2019
835 Clouds 31 1006 58 10000 6.2 180 21:19 27.11.2019
836 Clouds 32 1006 52 10000 5.1 180 20:59 27.11.2019
837 Rain 32 1006 52 10000 5.1 180 20:39 27.11.2019
838 Clear 31 1006 52 10000 5.1 180 20:21 27.11.2019
839 Clear 31 1006 58 10000 4.6 180 19:58 27.11.2019
840 Clear 31 1006 58 10000 4.6 180 19:40 27.11.2019
841 Clear 32 1006 58 10000 4.6 180 19:22 27.11.2019
842 Clear 32 1007 52 10000 3.6 160 18:59 27.11.2019
843 Clear 32 1007 52 10000 3.6 160 18:37 27.11.2019
844 Clear 33 1007 52 10000 3.6 160 18:19 27.11.2019
845 Clear 33 1008 62 10000 3.6 140 17:58 27.11.2019
846 Clear 33 1008 62 10000 3.6 140 17:40 27.11.2019
847 Clear 32 1008 62 10000 3.6 140 17:21 27.11.2019
848 Clear 32 1009 62 10000 2.6 150 16:57 27.11.2019
849 Clear 30 1009 62 10000 2.6 150 16:38 27.11.2019
850 Clear 31 1009 62 10000 2.6 150 16:20 27.11.2019
851 Clear 31 1009 62 10000 2.6 150 16:20 27.11.2019
852 Clear 31 1010 43 10000 2.1 190 15:57 27.11.2019
853 Clear 30 1010 43 10000 2.1 190 15:38 27.11.2019
854 Clear 30 1010 43 10000 2.1 190 15:20 27.11.2019
855 Clear 29 1010 54 10000 1.5 330 14:57 27.11.2019
856 Clear 29 1010 54 10000 1.5 330 14:39 27.11.2019
857 Clouds 29 1010 54 10000 1.5 330 14:21 27.11.2019
858 Clouds 27 1011 65 10000 1 20 13:57 27.11.2019
859 Clouds 27 1011 65 10000 1 20 13:38 27.11.2019
860 Clouds 27 1011 65 10000 1 20 13:19 27.11.2019
861 Clouds 26 1011 69 10000 0.5 190 12:55 27.11.2019
862 Clouds 26 1011 69 10000 0.5 190 12:37 27.11.2019
863 Clouds 24 1011 57 10000 2.6 90 12:18 27.11.2019
864 Clouds 24 1011 73 10000 2.54 74 11:38 27.11.2019
865 Clouds 21 1011 88 10000 2.1 330 11:19 27.11.2019
866 Clouds 21 1011 88 10000 2.1 330 10:57 27.11.2019
867 Clouds 20 1011 88 10000 2.1 330 10:39 27.11.2019
868 Clouds 22 1011 88 10000 2.1 330 10:21 27.11.2019
869 Clouds 21 1011 88 10000 3.11 33 09:43 27.11.2019
870 Clouds 21 1011 88 10000 3.11 33 09:43 27.11.2019
871 Clouds 21 1011 88 10000 3.11 33 09:25 27.11.2019
872 Clouds 21 1011 88 10000 1 110 08:57 27.11.2019
873 Clouds 21 1011 88 10000 1 110 08:38 27.11.2019
874 Clouds 20 1011 83 10000 1 110 08:19 27.11.2019
875 Clouds 20 1011 83 10000 1 110 07:45 27.11.2019
876 Clouds 20 1011 83 10000 1 110 07:27 27.11.2019
877 Clouds 20 1012 88 10000 3.83 40 06:47 27.11.2019
878 Clouds 20 1012 88 10000 3.83 40 06:29 27.11.2019
879 Clouds 20 1014 88 10000 1 360 05:27 27.11.2019
880 Clouds 21 1014 88 10000 1 360 04:59 27.11.2019
881 Clouds 21 1014 88 10000 1 360 04:40 27.11.2019
882 Clouds 21 1014 73 10000 1.5 80 03:53 27.11.2019
883 Clouds 22 1014 73 10000 1.5 80 03:22 27.11.2019
884 Clouds 22 1014 73 10000 3.6 60 02:54 27.11.2019
885 Clouds 22 1014 69 10000 3.6 80 01:39 27.11.2019
886 Clouds 22 1013 69 10000 3.1 120 00:45 27.11.2019
887 Clouds 23 1013 69 10000 3.1 120 00:26 27.11.2019
888 Clouds 23 1013 78 10000 3.1 180 23:49 26.11.2019
889 Clouds 23 1013 78 10000 3.1 180 23:27 26.11.2019
890 Clouds 24 1013 64 10000 3.1 150 22:58 26.11.2019
891 Clouds 25 1013 64 10000 3.1 150 22:38 26.11.2019
892 Clouds 25 1013 64 10000 3.1 150 22:19 26.11.2019
893 Clouds 25 1012 65 10000 6.2 120 21:58 26.11.2019
894 Clouds 25 1012 65 10000 6.2 120 21:58 26.11.2019
895 Clouds 25 1012 65 10000 6.2 120 21:37 26.11.2019
896 Clouds 26 1012 65 10000 6.2 120 21:19 26.11.2019
897 Clouds 27 1013 57 10000 7.7 120 20:55 26.11.2019
898 Clouds 27 1013 57 10000 7.7 120 20:36 26.11.2019
899 Clouds 27 1013 57 10000 7.7 120 20:18 26.11.2019
900 Clouds 27 1013 57 10000 5.7 150 19:55 26.11.2019
901 Clouds 27 1013 57 10000 5.7 150 19:37 26.11.2019
902 Clouds 27 1013 57 10000 5.7 150 19:18 26.11.2019
903 Clouds 28 1014 57 10000 5.1 160 18:56 26.11.2019
904 Clouds 28 1014 57 10000 5.1 160 18:38 26.11.2019
905 Clouds 28 1015 61 10000 6.7 140 18:20 26.11.2019
906 -273 0 0 0 0 0 17:55 26.11.2019
907 Clouds 28 1015 61 10000 6.7 140 17:36 26.11.2019
908 Clouds 27 1015 61 10000 5.7 150 17:18 26.11.2019
909 Clouds 27 1015 61 10000 5.7 150 16:55 26.11.2019
910 Clouds 26 1015 61 10000 5.7 150 16:37 26.11.2019
911 Clouds 27 1015 61 10000 5.7 150 16:18 26.11.2019
912 Clouds 27 1016 69 10000 4.6 160 15:56 26.11.2019
913 Clouds 26 1016 69 10000 4.6 160 15:37 26.11.2019
914 Clouds 26 1016 69 10000 4.6 160 15:18 26.11.2019
915 Clouds 25 1016 73 10000 4.1 160 14:45 26.11.2019
916 Clouds 25 1016 73 10000 4.1 160 14:24 26.11.2019
917 Clouds 25 1017 65 10000 3.1 160 13:43 26.11.2019
918 Clouds 25 1017 65 10000 3.1 160 13:24 26.11.2019
919 Clouds 24 1017 64 10000 2.6 170 12:58 26.11.2019
920 Clouds 24 1017 64 10000 2.6 170 12:37 26.11.2019
921 Clouds 22 1017 73 10000 1.5 170 12:19 26.11.2019
922 Clouds 22 1017 73 10000 1.5 170 11:55 26.11.2019
923 Clouds 22 1017 73 10000 1.5 170 11:37 26.11.2019
924 Clouds 22 1017 73 10000 1.5 170 11:18 26.11.2019
925 Clouds 21 1016 77 10000 1 140 10:56 26.11.2019
926 Clouds 21 1016 77 10000 1 140 10:37 26.11.2019
927 Clouds 21 1016 77 10000 1 140 10:19 26.11.2019
928 Clouds 20 1016 82 10000 1.5 170 09:42 26.11.2019
929 Clouds 20 1016 82 10000 1.5 170 09:23 26.11.2019
930 Clouds 20 1016 77 10000 1 110 08:50 26.11.2019
931 Clouds 20 1016 77 10000 1 110 08:31 26.11.2019
932 Clouds 20 1016 77 10000 0.5 110 07:58 26.11.2019
933 Clouds 20 1016 77 10000 0.5 110 07:40 26.11.2019
934 Clouds 20 1016 77 10000 0.5 110 07:21 26.11.2019
935 Clouds 21 1016 77 10000 2.6 120 06:50 26.11.2019
936 Clouds 21 1016 77 10000 2.6 120 05:59 26.11.2019
937 Clouds 21 1016 77 10000 2.6 120 05:26 26.11.2019
938 Clouds 22 1017 73 10000 2.6 120 03:22 26.11.2019
939 Clouds 22 1017 73 10000 2.6 120 03:22 26.11.2019
940 Clouds 22 1016 68 10000 3.1 130 01:42 26.11.2019
941 Clouds 22 1016 68 10000 3.1 130 01:42 26.11.2019
942 Clouds 22 1016 68 10000 3.1 130 01:22 26.11.2019
943 Clouds 22 1016 56 10000 4.6 130 00:41 26.11.2019
944 Clouds 22 1016 56 10000 4.6 130 00:20 26.11.2019
945 Clouds 22 1015 73 10000 3.6 150 23:39 25.11.2019
946 Clouds 22 1015 73 10000 3.6 150 23:19 25.11.2019
947 Clouds 22 1015 73 10000 4.1 160 22:54 25.11.2019
948 Clouds 22 1015 73 10000 4.1 160 22:36 25.11.2019
949 Clouds 22 1015 73 10000 4.1 160 22:36 25.11.2019
950 Clouds 23 1015 73 10000 4.1 160 22:18 25.11.2019
951 Clouds 23 1015 69 10000 5.1 160 21:54 25.11.2019
952 Clouds 23 1015 69 10000 5.1 160 21:36 25.11.2019
953 Clouds 23 1015 69 10000 5.1 160 21:18 25.11.2019
954 Clouds 24 1015 61 10000 5.7 160 20:54 25.11.2019
955 Clouds 24 1015 61 10000 5.7 160 20:36 25.11.2019
956 Clouds 24 1015 61 10000 5.7 160 20:18 25.11.2019
957 Clouds 24 1015 61 10000 5.1 160 19:54 25.11.2019
958 Clouds 24 1015 61 10000 5.1 160 19:36 25.11.2019
959 Clouds 24 1015 61 10000 5.1 160 19:18 25.11.2019
960 Clouds 25 1016 61 10000 5.7 160 18:54 25.11.2019
961 Clouds 25 1016 61 10000 5.7 160 18:36 25.11.2019
962 Clouds 25 1016 61 10000 5.7 160 18:36 25.11.2019
963 Clouds 24 1016 61 10000 5.7 160 18:18 25.11.2019
964 Clouds 24 1016 61 10000 5.7 160 17:54 25.11.2019
965 Clouds 24 1016 61 10000 5.7 160 17:36 25.11.2019
966 Clouds 24 1016 65 10000 4.1 160 17:18 25.11.2019
967 Clouds 24 1016 65 10000 4.1 160 16:41 25.11.2019
968 Clouds 24 1016 65 10000 4.1 160 16:23 25.11.2019
969 Clouds 24 1017 57 10000 3.1 160 15:57 25.11.2019
970 Clouds 24 1017 57 10000 3.1 160 15:37 25.11.2019
971 Clouds 23 1017 57 10000 3.1 160 15:19 25.11.2019
972 Clouds 23 1017 57 10000 3.1 160 15:19 25.11.2019
973 Clouds 23 1017 73 10000 1.5 130 14:54 25.11.2019
974 Clouds 23 1017 73 10000 1.5 130 14:36 25.11.2019
975 Clouds 23 1017 73 10000 1.5 130 14:18 25.11.2019
976 Clouds 22 1017 78 10000 2.6 140 13:39 25.11.2019
977 Clouds 22 1017 78 10000 2.6 140 13:20 25.11.2019
978 Clouds 22 1017 78 10000 2.6 140 12:59 25.11.2019
979 Clouds 22 1017 78 10000 2.6 140 12:39 25.11.2019
980 Clouds 22 1017 78 10000 2.6 140 12:19 25.11.2019
981 Clouds 21 1017 83 10000 0.5 80 11:55 25.11.2019
982 Clouds 21 1017 83 10000 0.5 80 11:37 25.11.2019
983 Clouds 19 1016 94 10000 2.1 340 11:18 25.11.2019
984 Clouds 19 1016 94 10000 2.1 340 10:41 25.11.2019
985 Clouds 19 1016 94 10000 2.1 340 10:20 25.11.2019
986 Clouds 19 1016 94 10000 2.6 320 09:45 25.11.2019
987 Clouds 19 1016 94 10000 2.6 320 09:26 25.11.2019
988 Clouds 19 1015 94 10000 2.1 340 08:59 25.11.2019
989 Clouds 19 1015 94 10000 2.1 340 08:39 25.11.2019
990 Clouds 19 1015 94 10000 2.1 340 08:20 25.11.2019
991 Clouds 19 1015 88 10000 1.87 167 07:41 25.11.2019
992 Clouds 19 1015 88 10000 1.87 167 07:20 25.11.2019
993 Clouds 20 1015 83 10000 1 350 06:45 25.11.2019
994 Clouds 20 1016 77 10000 1.5 360 06:21 25.11.2019
995 Clouds 20 1016 88 10000 0.5 110 05:38 25.11.2019
996 Clouds 20 1017 94 10000 2.6 120 04:52 25.11.2019
997 Clouds 20 1017 64 10000 2.1 340 02:51 25.11.2019
998 Clouds 20 1017 64 10000 2.1 340 02:19 25.11.2019
999 Clouds 20 1017 64 10000 1.5 330 01:39 25.11.2019
1000 Clouds 20 1017 64 10000 1.5 330 01:20 25.11.2019
1001 Clouds 21 1016 64 10000 1 10 00:23 25.11.2019
1002 Clouds 20 1015 68 10000 1 170 23:58 24.11.2019
1003 Clouds 20 1015 68 10000 1 170 23:38 24.11.2019
1004 Clouds 21 1015 68 10000 1 170 23:19 24.11.2019
1005 Clouds 21 1015 60 10000 3.6 190 22:54 24.11.2019
1006 Clouds 22 1015 60 10000 3.6 190 22:36 24.11.2019
1007 Clouds 22 1015 60 10000 3.6 190 22:18 24.11.2019
1008 Clouds 22 1015 60 10000 3.6 190 22:18 24.11.2019
1009 Clouds 22 1015 56 10000 3.1 160 21:42 24.11.2019
1010 Clouds 22 1015 56 10000 3.1 160 21:21 24.11.2019
1011 Clouds 22 1015 60 10000 2.6 160 20:59 24.11.2019
1012 Clouds 22 1015 60 10000 2.6 160 20:59 24.11.2019
1013 Clouds 22 1015 60 10000 2.6 160 20:40 24.11.2019
1014 Clouds 22 1015 60 10000 2.6 160 20:19 24.11.2019
1015 Clouds 22 1015 60 10000 2.6 160 20:19 24.11.2019
1016 Clouds 23 1015 53 10000 3.6 180 19:57 24.11.2019
1017 Clouds 23 1015 53 10000 3.6 180 19:39 24.11.2019
1018 Clouds 23 1015 53 10000 3.6 180 19:21 24.11.2019
1019 Clouds 23 1016 57 10000 3.1 170 18:59 24.11.2019
1020 Clouds 23 1016 57 10000 3.1 170 18:59 24.11.2019
1021 Clouds 23 1016 57 10000 3.1 170 18:38 24.11.2019
1022 Clouds 23 1016 57 10000 2.6 170 18:20 24.11.2019
1023 Clouds 23 1016 57 10000 2.6 170 17:58 24.11.2019
1024 Clouds 23 1016 57 10000 2.6 170 17:40 24.11.2019
1025 Clouds 23 1016 57 10000 2.6 170 17:22 24.11.2019
1026 Clouds 23 1016 64 10000 4.1 180 16:58 24.11.2019
1027 Clouds 23 1016 64 10000 4.1 180 16:39 24.11.2019
1028 Clouds 22 1016 64 10000 4.1 180 16:21 24.11.2019
1029 Clouds 22 1016 64 10000 4.1 180 16:21 24.11.2019
1030 Rain 22 1017 64 9000 4.1 190 15:55 24.11.2019
1031 Clouds 22 1017 60 10000 4.1 150 15:37 24.11.2019
1032 Clouds 22 1017 60 10000 4.1 150 15:18 24.11.2019
1033 Clouds 23 1017 64 10000 5.7 190 14:39 24.11.2019
1034 Clouds 22 1017 64 10000 5.7 190 14:19 24.11.2019
1035 Rain 22 1016 69 10000 5.1 180 13:58 24.11.2019
1036 Rain 22 1016 69 10000 5.1 180 13:37 24.11.2019
1037 Rain 22 1016 69 10000 5.1 180 13:19 24.11.2019
1038 Clouds 22 1016 78 10000 4.1 190 12:56 24.11.2019
1039 Clouds 22 1016 78 10000 4.1 190 12:37 24.11.2019
1040 Clouds 22 1016 68 10000 3.6 170 12:18 24.11.2019
1041 Clouds 22 1015 78 10000 3.6 190 11:38 24.11.2019
1042 Clouds 22 1015 78 10000 3.6 190 11:19 24.11.2019
1043 Clouds 21 1014 83 8000 4.6 190 10:57 24.11.2019
1044 Clouds 22 1014 83 8000 4.6 190 10:38 24.11.2019
1045 Clouds 21 1014 83 8000 4.6 190 10:20 24.11.2019
1046 Clouds 21 1014 83 8000 4.6 190 10:20 24.11.2019
1047 Clouds 21 1014 83 8000 3.6 210 09:39 24.11.2019
1048 Clouds 21 1013 88 8000 4.1 220 09:20 24.11.2019
1049 Rain 21 1012 100 7000 4.6 190 08:57 24.11.2019
1050 Rain 21 1012 100 7000 4.6 190 08:39 24.11.2019
1051 Rain 21 1012 100 7000 4.6 190 08:20 24.11.2019
1052 Rain 21 1011 100 6000 6.7 180 07:52 24.11.2019
1053 Rain 21 1011 100 6000 6.7 180 07:52 24.11.2019
1054 Rain 21 1011 100 6000 6.7 180 07:25 24.11.2019
1055 Rain 22 1011 100 7000 5.7 190 06:52 24.11.2019
1056 Rain 22 1011 100 7000 3.1 180 05:40 24.11.2019
1057 Rain 23 1012 100 6000 6.7 200 04:42 24.11.2019
1058 Rain 24 1012 94 5000 6.7 210 02:49 24.11.2019
1059 Thunderstorm 23 1012 94 6000 4.1 260 01:56 24.11.2019
1060 Thunderstorm 23 1012 94 6000 4.1 260 01:37 24.11.2019
1061 Thunderstorm 23 1012 94 6000 4.1 260 01:18 24.11.2019
1062 Rain 23 1011 100 5000 1.5 290 00:42 24.11.2019
1063 Rain 23 1010 100 6000 3.1 210 00:20 24.11.2019
1064 Rain 23 1010 100 6000 3.1 210 23:44 23.11.2019
1065 Rain 23 1010 100 6000 3.1 210 23:21 23.11.2019
1066 Clouds 25 1009 83 10000 5.7 200 22:57 23.11.2019
1067 Clouds 26 1009 83 10000 5.7 200 22:38 23.11.2019
1068 Clouds 26 1009 83 10000 5.7 200 22:20 23.11.2019
1069 Clouds 26 1008 74 10000 3.6 160 21:57 23.11.2019
1070 Clouds 26 1008 74 10000 3.6 160 21:39 23.11.2019
1071 Clouds 26 1008 74 10000 3.6 160 21:21 23.11.2019
1072 Clouds 26 1008 74 10000 3.6 160 21:21 23.11.2019
1073 Clouds 27 1007 66 10000 4.6 190 20:40 23.11.2019
1074 Clouds 28 1007 66 10000 4.6 190 20:22 23.11.2019
1075 Clouds 28 1007 58 10000 5.7 210 19:58 23.11.2019
1076 Clouds 28 1007 58 10000 5.7 210 19:40 23.11.2019
1077 Clouds 29 1008 62 10000 7.7 280 19:19 23.11.2019
1078 Clouds 30 1007 55 10000 7.2 210 18:59 23.11.2019
1079 Clouds 30 1007 55 10000 7.2 210 18:39 23.11.2019
1080 Clouds 30 1007 55 10000 7.2 210 18:20 23.11.2019
1081 Rain 30 1007 58 10000 6.7 200 17:54 23.11.2019
1082 Rain 30 1007 58 10000 6.7 200 17:36 23.11.2019
1083 Rain 30 1007 58 10000 6.7 200 17:18 23.11.2019
1084 Clouds 32 1008 55 10000 8.2 190 16:41 23.11.2019
1085 Clouds 31 1008 55 10000 8.2 190 16:23 23.11.2019
1086 Clouds 31 1008 74 10000 5.1 150 15:59 23.11.2019
1087 Clouds 31 1008 74 10000 5.1 150 15:39 23.11.2019
1088 Clouds 30 1008 74 10000 5.1 150 15:19 23.11.2019
1089 Clear 31 1008 70 10000 3.1 150 14:58 23.11.2019
1090 Clear 32 1008 70 10000 3.1 150 14:39 23.11.2019
1091 Clouds 32 1008 70 10000 3.1 150 14:21 23.11.2019
1092 Clouds 31 1008 74 10000 3.1 150 13:56 23.11.2019
1093 Clouds 31 1008 83 10000 2.6 10 13:38 23.11.2019
1094 Clouds 31 1008 83 10000 2.6 10 13:18 23.11.2019
1095 Clouds 30 1007 88 10000 2.6 350 12:42 23.11.2019
1096 Clouds 30 1007 88 10000 2.6 350 12:24 23.11.2019
1097 Clouds 27 1007 88 10000 2.6 320 11:45 23.11.2019
1098 Clouds 27 1007 88 10000 2.6 320 11:23 23.11.2019
1099 Clouds 27 1007 94 10000 4.1 10 10:56 23.11.2019
1100 Clouds 26 1007 94 10000 4.1 10 10:37 23.11.2019
1101 Clouds 26 1007 94 10000 4.1 10 10:18 23.11.2019
1102 Clouds 25 1006 100 10000 4.1 360 09:40 23.11.2019
1103 Clouds 25 1006 100 10000 4.1 360 09:18 23.11.2019
1104 Clouds 24 1006 94 10000 2.6 330 08:41 23.11.2019
1105 Clouds 24 1006 94 10000 2.6 330 08:19 23.11.2019
1106 Clouds 25 1006 94 10000 4.1 350 07:42 23.11.2019
1107 Clouds 25 1006 100 10000 1 10 07:00 23.11.2019
1108 Clouds 25 1006 100 10000 1 10 06:41 23.11.2019
1109 Clouds 25 1007 78 10000 2.1 10 06:19 23.11.2019
1110 Clouds 25 1007 100 10000 3.3 359 05:44 23.11.2019
1111 Clouds 25 1007 100 10000 3.3 359 05:26 23.11.2019
1112 Clouds 25 1008 94 10000 1.5 70 04:39 23.11.2019
1113 Clouds 26 1008 94 10000 1.5 70 04:21 23.11.2019
1114 Clouds 26 1009 78 10000 2.6 350 02:39 23.11.2019
1115 Clouds 26 1009 66 10000 3.1 310 01:42 23.11.2019
1116 Clouds 26 1009 74 10000 2.6 320 00:49 23.11.2019
1117 Clouds 25 1009 65 10000 3.6 290 00:23 23.11.2019
1118 Clouds 25 1009 65 10000 3.6 290 00:23 23.11.2019
1119 Clouds 25 1009 94 10000 0.5 60 00:22 23.11.2019
1120 Clouds 25 1009 94 10000 0.5 60 00:22 23.11.2019
1121 Clouds 25 1009 94 10000 0.5 60 23:59 22.11.2019
1122 Clouds 25 1009 94 10000 0.5 60 23:37 22.11.2019
1123 Clouds 28 1008 78 10000 3.1 180 23:19 22.11.2019
1124 Clouds 28 1008 78 10000 3.1 180 22:57 22.11.2019
1125 Clouds 29 1008 78 10000 3.1 180 22:37 22.11.2019
1126 Clouds 29 1008 78 10000 3.1 180 22:19 22.11.2019
1127 Clouds 28 1007 78 10000 4.1 160 21:55 22.11.2019
1128 Clouds 29 1007 78 10000 4.1 160 21:36 22.11.2019
1129 Clouds 29 1007 78 10000 4.1 160 21:18 22.11.2019
1130 Clouds 30 1008 70 10000 5.1 170 20:40 22.11.2019
1131 Clouds 32 1008 70 10000 5.1 170 20:22 22.11.2019
1132 Clouds 31 1009 74 10000 6.2 160 19:54 22.11.2019
1133 Clouds 31 1009 74 10000 6.2 160 19:36 22.11.2019
1134 Clouds 31 1009 74 10000 6.2 160 19:18 22.11.2019
1135 Clouds 32 1009 70 10000 5.7 160 18:39 22.11.2019
1136 Clouds 31 1009 70 10000 5.7 160 18:21 22.11.2019
1137 Clouds 31 1010 74 10000 4.6 160 17:55 22.11.2019
1138 Clouds 31 1010 74 10000 4.6 160 17:37 22.11.2019
1139 Clouds 31 1010 74 10000 4.6 160 17:19 22.11.2019
1140 Clouds 31 1011 74 10000 3.6 160 16:40 22.11.2019
1141 Clouds 32 1011 74 10000 3.6 160 16:22 22.11.2019
1142 Clouds 30 1011 74 10000 3.1 150 15:41 22.11.2019
1143 Clouds 30 1011 74 10000 3.1 150 15:23 22.11.2019
1144 Clear 29 1012 78 10000 2.6 160 14:56 22.11.2019
1145 Clear 28 1012 78 10000 2.6 160 14:37 22.11.2019
1146 Clear 29 1012 78 10000 2.6 160 14:19 22.11.2019
1147 Clear 28 1012 83 10000 3.1 150 13:56 22.11.2019
1148 Clear 27 1012 83 10000 3.1 150 13:36 22.11.2019
1149 Clear 27 1012 83 10000 3.1 150 13:18 22.11.2019
1150 Clear 27 1012 74 10000 1 110 12:40 22.11.2019
1151 Clear 26 1012 74 10000 1 110 12:20 22.11.2019
1152 Clear 26 1012 83 10000 2.1 310 11:59 22.11.2019
1153 Clear 25 1012 83 10000 2.1 310 11:39 22.11.2019
1154 Clear 24 1012 83 10000 2.1 310 11:20 22.11.2019
1155 Clouds 23 1012 94 10000 2.1 10 10:59 22.11.2019
1156 Clouds 23 1012 94 10000 2.1 10 10:39 22.11.2019
1157 Clouds 23 1012 94 10000 2.1 10 10:21 22.11.2019
1158 Clear 22 1011 100 10000 1.5 310 09:55 22.11.2019
1159 Clear 22 1011 100 10000 1.5 310 09:37 22.11.2019
1160 Clear 22 1011 100 10000 1.5 310 09:19 22.11.2019
1161 Clear 22 1011 100 10000 1 190 08:46 22.11.2019
1162 Clouds 22 1011 100 10000 1 190 08:27 22.11.2019
1163 Clouds 22 1011 100 10000 1 190 08:27 22.11.2019
1164 Clouds 22 1012 94 10000 2.1 30 07:46 22.11.2019
1165 Clouds 22 1012 94 10000 2.1 30 07:23 22.11.2019
1166 Clouds 22 1012 94 10000 2.1 30 07:23 22.11.2019
1167 Clouds 22 1012 100 10000 1 20 06:57 22.11.2019
1168 Clouds 22 1012 100 10000 1 20 06:37 22.11.2019
1169 Clouds 23 1013 100 10000 1 150 05:49 22.11.2019
1170 Rain 23 1013 94 10000 1.5 130 04:50 22.11.2019
1171 Clouds 24 1014 88 10000 2.6 50 02:55 22.11.2019
1172 Clouds 24 1014 88 10000 2.6 50 02:32 22.11.2019
1173 Clouds 24 1014 88 10000 2.6 90 01:45 22.11.2019
1174 Clouds 25 1014 88 10000 2.6 90 01:20 22.11.2019
1175 Clouds 25 1014 83 10000 4.1 90 00:54 22.11.2019
1176 Clouds 25 1014 83 10000 4.1 90 00:25 22.11.2019
1177 Clouds 25 1013 88 10000 2.6 180 23:56 21.11.2019
1178 Clouds 25 1013 88 10000 2.6 180 23:56 21.11.2019
1179 Clouds 27 1013 88 10000 2.6 180 23:37 21.11.2019
1180 Clouds 27 1013 88 10000 2.6 180 23:18 21.11.2019
1181 Clouds 26 1013 83 10000 3.1 170 22:41 21.11.2019
1182 Clouds 28 1013 83 10000 3.1 170 22:22 21.11.2019
1183 Clouds 28 1013 78 10000 4.1 180 21:58 21.11.2019
1184 Clouds 27 1013 78 10000 4.1 180 21:39 21.11.2019
1185 Clouds 28 1013 78 10000 4.1 180 21:20 21.11.2019
1186 Thunderstorm 29 1013 65 10000 4.1 130 20:59 21.11.2019
1187 Clouds 29 1012 78 10000 3.6 180 20:39 21.11.2019
1188 Thunderstorm 29 1013 65 10000 4.1 130 20:39 21.11.2019
1189 Clouds 29 1012 78 10000 3.6 180 20:19 21.11.2019
1190 Clouds 29 1013 69 10000 4.1 180 19:59 21.11.2019
1191 Clouds 29 1013 69 10000 4.1 180 19:59 21.11.2019
1192 Clouds 29 1013 69 10000 4.1 180 19:41 21.11.2019
1193 Clouds 29 1013 69 10000 4.1 180 19:23 21.11.2019
1194 Clouds 29 1013 74 10000 6.2 190 18:58 21.11.2019
1195 Clouds 29 1013 74 10000 6.2 190 18:40 21.11.2019
1196 Clouds 29 1013 74 10000 6.2 190 18:21 21.11.2019
1197 Clouds 29 1014 78 10000 6.2 160 17:58 21.11.2019
1198 Clouds 29 1014 78 10000 6.2 160 17:39 21.11.2019
1199 Clouds 29 1014 78 10000 6.2 160 17:21 21.11.2019
1200 Clouds 29 1015 74 10000 6.2 160 16:57 21.11.2019
1201 Clouds 29 1015 74 10000 6.2 160 16:39 21.11.2019
1202 Clouds 29 1015 74 10000 6.2 160 16:20 21.11.2019
1203 Clouds 28 1016 78 10000 5.1 160 15:43 21.11.2019
1204 Clouds 27 1016 78 10000 5.1 160 15:21 21.11.2019
1205 Clouds 27 1016 83 10000 3.6 170 14:57 21.11.2019
1206 Clouds 27 1016 83 10000 3.6 170 14:57 21.11.2019
1207 Clouds 27 1016 83 10000 3.6 170 14:38 21.11.2019
1208 Clouds 26 1016 83 10000 3.6 170 14:19 21.11.2019
1209 Clouds 26 1017 94 10000 2.6 180 13:57 21.11.2019
1210 Clouds 25 1017 94 10000 2.6 180 13:37 21.11.2019
1211 Clouds 25 1017 94 10000 2.6 180 13:18 21.11.2019
1212 Clouds 25 1016 94 10000 2.1 160 12:41 21.11.2019
1213 Clouds 24 1016 94 10000 2.1 160 12:22 21.11.2019
1214 Clouds 24 1016 94 10000 1.5 160 11:56 21.11.2019
1215 Clouds 24 1016 88 10000 1 70 11:37 21.11.2019
1216 Clouds 23 1016 88 10000 1 70 11:37 21.11.2019
1217 Clouds 23 1016 88 10000 1 70 11:19 21.11.2019
1218 Clouds 22 1016 94 10000 1.5 190 10:43 21.11.2019
1219 Clouds 22 1016 94 10000 1.5 190 10:24 21.11.2019
1220 Clouds 21 1015 100 10000 1.5 180 09:59 21.11.2019
1221 Clouds 21 1015 100 10000 1.5 180 09:41 21.11.2019
1222 Clouds 22 1015 100 10000 1.5 180 09:22 21.11.2019
1223 Clouds 21 1015 100 10000 2.6 160 08:54 21.11.2019
1224 Clouds 21 1015 100 10000 2.6 160 08:36 21.11.2019
1225 Clouds 21 1015 100 10000 2.6 160 08:18 21.11.2019
1226 Clouds 22 1015 100 10000 1.5 170 07:37 21.11.2019
1227 Clouds 22 1015 100 10000 1.5 170 07:18 21.11.2019
1228 Clouds 22 1015 100 10000 1.5 170 06:42 21.11.2019
1229 Clouds 22 1015 100 10000 1.5 170 06:24 21.11.2019
1230 Clouds 23 1016 100 10000 1.5 160 05:27 21.11.2019
1231 Clouds 23 1017 94 10000 1.5 170 03:25 21.11.2019
1232 Clouds 23 1017 100 10000 2.6 190 02:35 21.11.2019
1233 Clouds 23 1016 100 10000 2.6 190 01:52 21.11.2019
1234 Clouds 23 1016 100 10000 2.6 190 01:23 21.11.2019
1235 Clouds 23 1016 100 10000 2.1 160 00:47 21.11.2019
1236 Clouds 23 1016 100 10000 2.1 160 00:20 21.11.2019
1237 Clouds 23 1016 100 10000 2.1 160 00:20 21.11.2019
1238 Clouds 23 1016 100 10000 1.5 160 23:51 20.11.2019
1239 Clouds 24 1016 100 10000 1.5 160 23:23 20.11.2019
1240 Clouds 24 1015 94 10000 3.1 180 22:59 20.11.2019
1241 Clouds 24 1015 94 10000 3.1 180 22:41 20.11.2019
1242 Clouds 24 1015 94 10000 3.1 180 22:20 20.11.2019
1243 Rain 24 1015 94 8000 4.1 210 21:59 20.11.2019
1244 Rain 24 1015 94 8000 4.1 210 21:40 20.11.2019
1245 Rain 24 1015 94 8000 4.1 210 21:22 20.11.2019
1246 Clouds 24 1015 100 10000 6.2 190 20:58 20.11.2019
1247 Clouds 24 1015 100 10000 6.2 190 20:40 20.11.2019
1248 Clouds 24 1015 100 10000 6.2 190 20:21 20.11.2019
1249 Clouds 25 1015 88 10000 5.1 170 19:58 20.11.2019
1250 Clouds 25 1015 88 10000 5.1 170 19:58 20.11.2019
1251 Clouds 24 1015 88 10000 5.1 170 19:37 20.11.2019
1252 Clouds 25 1015 88 10000 5.1 170 19:19 20.11.2019
1253 Clouds 24 1016 88 10000 4.6 160 18:59 20.11.2019
1254 Clouds 24 1016 88 10000 4.6 160 18:40 20.11.2019
1255 Clouds 24 1016 88 10000 4.6 160 18:21 20.11.2019
1256 Clouds 24 1016 94 10000 5.7 170 17:58 20.11.2019
1257 Clouds 24 1016 94 10000 5.7 170 17:39 20.11.2019
1258 Clouds 25 1016 94 10000 5.7 170 17:20 20.11.2019
1259 Clouds 24 1016 94 9000 5.7 170 16:57 20.11.2019
1260 Clouds 24 1016 94 9000 5.7 170 16:39 20.11.2019
1261 Clouds 24 1016 94 9000 5.7 170 16:19 20.11.2019
1262 Clouds 24 1016 94 9000 5.7 170 16:19 20.11.2019
1263 Clouds 24 1017 100 9000 5.7 170 15:57 20.11.2019
1264 Clouds 24 1017 100 9000 5.7 170 15:38 20.11.2019
1265 Clouds 23 1017 100 9000 5.7 170 15:38 20.11.2019
1266 Clouds 24 1017 100 9000 5.7 170 15:19 20.11.2019
1267 Clouds 24 1017 94 10000 4.6 180 14:41 20.11.2019
1268 Clouds 24 1017 94 10000 4.6 180 14:22 20.11.2019
1269 Clouds 24 1017 94 10000 4.1 160 13:59 20.11.2019
1270 Clouds 24 1017 94 10000 4.1 160 13:40 20.11.2019
1271 Clouds 23 1017 94 10000 4.1 160 13:20 20.11.2019
1272 Clouds 22 1017 100 10000 3.1 170 12:59 20.11.2019
1273 Clouds 22 1017 100 10000 3.1 170 12:38 20.11.2019
1274 Clouds 23 1017 100 10000 3.1 170 12:19 20.11.2019
1275 Clouds 22 1016 100 10000 3.1 160 11:46 20.11.2019
1276 Clouds 22 1016 100 10000 3.1 160 11:23 20.11.2019
1277 Clouds 22 1016 100 10000 4.6 140 10:58 20.11.2019
1278 Clouds 22 1016 100 10000 4.6 140 10:39 20.11.2019
1279 Clouds 22 1016 100 10000 4.6 140 10:20 20.11.2019
1280 Clouds 21 1015 100 10000 4.1 140 09:59 20.11.2019
1281 Clouds 21 1015 100 10000 4.1 140 09:41 20.11.2019
1282 Clouds 21 1015 100 10000 4.1 140 09:19 20.11.2019
1283 Drizzle 21 1015 94 9000 2.6 150 08:43 20.11.2019
1284 Drizzle 22 1015 94 9000 2.6 150 08:24 20.11.2019
1285 Drizzle 21 1016 100 8000 4.6 140 07:52 20.11.2019
1286 Drizzle 21 1016 100 8000 4.6 140 07:34 20.11.2019
1287 Clouds 21 1016 100 10000 5.7 130 06:58 20.11.2019
1288 Clouds 21 1016 100 10000 5.7 130 06:38 20.11.2019
1289 Clouds 21 1016 100 10000 5.7 130 06:18 20.11.2019
1290 Clouds 22 1016 100 10000 4.1 140 04:41 20.11.2019
1291 Clouds 22 1017 100 10000 4.6 130 02:28 20.11.2019
1292 Clouds 22 1017 100 10000 4.1 140 01:38 20.11.2019
1293 Clouds 22 1016 100 10000 5.1 150 00:50 20.11.2019
1294 Clouds 22 1016 100 10000 5.1 150 00:21 20.11.2019
1295 Clouds 22 1016 100 10000 5.7 130 23:41 19.11.2019
1296 Clouds 22 1016 100 10000 5.7 130 23:22 19.11.2019
1297 Clouds 23 1015 100 10000 5.7 140 22:56 19.11.2019
1298 Clouds 22 1015 100 10000 5.7 140 22:37 19.11.2019
1299 Clouds 23 1015 100 10000 5.7 140 22:18 19.11.2019
1300 Clouds 23 1015 100 8000 4.6 130 21:55 19.11.2019
1301 Clouds 22 1015 100 8000 4.6 130 21:36 19.11.2019
1302 Clouds 23 1015 100 8000 4.6 130 21:18 19.11.2019
1303 Drizzle 23 1015 100 8000 6.2 130 20:54 19.11.2019
1304 Drizzle 24 1015 100 8000 6.2 130 20:36 19.11.2019
1305 Drizzle 24 1015 100 8000 6.2 130 20:18 19.11.2019
1306 Drizzle 24 1015 100 8000 4.6 170 19:42 19.11.2019
1307 Drizzle 24 1015 100 8000 4.6 170 19:20 19.11.2019
1308 Clouds 24 1016 100 8000 5.1 170 18:58 19.11.2019
1309 Clouds 24 1016 100 8000 5.1 170 18:40 19.11.2019
1310 Clouds 24 1016 100 8000 5.1 170 18:20 19.11.2019
1311 Clouds 24 1016 94 8000 5.1 160 17:58 19.11.2019
1312 Clouds 23 1016 100 10000 6.2 160 17:39 19.11.2019
1313 Clouds 23 1016 78 10000 5.7 140 17:20 19.11.2019
1314 Clouds 24 1017 100 10000 4.6 170 16:59 19.11.2019
1315 Clouds 23 1017 100 10000 4.6 170 16:40 19.11.2019
1316 Clouds 23 1017 100 10000 4.6 170 16:20 19.11.2019
1317 Clouds 23 1017 94 10000 5.7 160 15:47 19.11.2019
1318 Clouds 23 1017 94 10000 5.7 160 15:27 19.11.2019
1319 Clouds 23 1017 94 10000 4.1 150 14:58 19.11.2019
1320 Clouds 23 1017 94 10000 4.1 150 14:39 19.11.2019
1321 Clouds 23 1017 94 10000 4.1 150 14:21 19.11.2019
1322 Clouds 23 1017 94 10000 3.6 170 13:42 19.11.2019
1323 Clouds 23 1017 94 10000 3.6 170 13:22 19.11.2019
1324 Clouds 22 1017 100 10000 3.1 170 12:58 19.11.2019
1325 Clouds 22 1017 100 10000 3.1 170 12:39 19.11.2019
1326 Clouds 22 1017 100 10000 3.1 170 12:21 19.11.2019
1327 Clouds 22 1017 100 9000 3.1 180 11:56 19.11.2019
1328 Clouds 22 1017 100 9000 3.1 180 11:56 19.11.2019
1329 Drizzle 21 1017 100 6000 3.6 170 11:37 19.11.2019
1330 Drizzle 21 1017 100 6000 3.6 170 11:18 19.11.2019
1331 Drizzle 21 1017 100 5000 4.1 160 10:44 19.11.2019
1332 Mist 21 1017 100 4000 4.6 160 10:21 19.11.2019
1333 Mist 21 1016 100 4000 3.6 170 09:45 19.11.2019
1334 Mist 20 1016 100 4000 3.6 170 09:21 19.11.2019
1335 Mist 20 1015 100 4000 4.1 190 08:58 19.11.2019
1336 Mist 20 1015 100 4000 4.1 190 08:40 19.11.2019
1337 Mist 20 1015 100 4000 4.1 190 08:21 19.11.2019
1338 Drizzle 20 1015 100 4000 4.1 180 07:56 19.11.2019
1339 Drizzle 20 1015 100 4000 4.1 180 07:37 19.11.2019
1340 Drizzle 20 1015 100 4000 4.1 180 07:18 19.11.2019
1341 Rain 21 1015 94 2500 4.1 150 06:42 19.11.2019
1342 Drizzle 21 1015 100 4000 4.1 140 06:19 19.11.2019
1343 Drizzle 21 1016 100 4000 4.1 150 05:19 19.11.2019
1344 Rain 21 1017 100 8000 3.6 170 03:41 19.11.2019
1345 Rain 21 1017 100 8000 3.6 170 03:20 19.11.2019
1346 Rain 21 1017 100 8000 3.6 170 02:50 19.11.2019
1347 Clouds 22 1017 94 8000 4.1 150 01:49 19.11.2019
1348 Clouds 22 1017 100 9000 4.1 140 00:51 19.11.2019
1349 Clouds 22 1017 100 9000 4.1 140 00:21 19.11.2019
1350 Clouds 23 1016 88 9000 3.1 140 23:41 18.11.2019
1351 Clouds 23 1016 88 9000 3.1 140 23:20 18.11.2019
1352 Clouds 23 1016 88 9000 3.1 140 23:20 18.11.2019
1353 Clouds 23 1016 83 10000 4.1 130 22:59 18.11.2019
1354 Clouds 23 1016 83 10000 4.1 130 22:41 18.11.2019
1355 Clouds 22 1016 88 9000 3.6 130 22:23 18.11.2019
1356 Clouds 22 1016 100 8000 2.1 160 21:54 18.11.2019
1357 Rain 21 1016 100 6000 2.6 160 21:36 18.11.2019
1358 Rain 22 1016 100 6000 2.6 160 21:18 18.11.2019
1359 Mist 22 1016 94 5000 4.1 140 20:41 18.11.2019
1360 Rain 22 1016 100 6000 3.6 130 20:20 18.11.2019
1361 Rain 23 1016 88 6000 4.1 130 19:58 18.11.2019
1362 Rain 23 1016 88 6000 4.1 130 19:58 18.11.2019
1363 Rain 23 1016 78 7000 4.6 160 19:39 18.11.2019
1364 Rain 24 1016 78 7000 4.6 160 19:21 18.11.2019
1365 Clouds 23 1015 88 10000 3.6 160 18:57 18.11.2019
1366 Clouds 23 1015 88 10000 3.6 160 18:38 18.11.2019
1367 Clouds 23 1015 88 10000 3.6 160 18:19 18.11.2019
1368 Clouds 24 1016 88 10000 5.1 160 17:59 18.11.2019
1369 Clouds 24 1016 88 10000 5.1 160 17:38 18.11.2019
1370 Clouds 24 1016 88 10000 5.1 160 17:19 18.11.2019
1371 Clouds 25 1016 78 10000 3.6 160 16:43 18.11.2019
1372 Clouds 24 1016 78 10000 3.6 160 16:25 18.11.2019
1373 Clouds 24 1016 83 10000 2.1 150 15:59 18.11.2019
1374 Clouds 24 1016 83 10000 2.1 150 15:59 18.11.2019
1375 Clouds 24 1016 83 10000 2.1 150 15:41 18.11.2019
1376 Clouds 24 1016 83 10000 2.1 150 15:22 18.11.2019
1377 Clouds 24 1016 83 10000 2.1 150 15:22 18.11.2019
1378 Clouds 24 1017 83 10000 2.1 160 14:58 18.11.2019
1379 Clouds 24 1017 83 10000 2.1 160 14:58 18.11.2019
1380 Clouds 24 1017 83 10000 2.1 160 14:40 18.11.2019
1381 Clouds 23 1017 83 10000 2.1 160 14:22 18.11.2019
1382 Clouds 23 1016 83 10000 2.1 150 13:44 18.11.2019
1383 Clouds 23 1016 83 10000 2.1 150 13:26 18.11.2019
1384 Clouds 23 1016 88 10000 1.5 140 12:57 18.11.2019
1385 Clouds 23 1016 88 10000 1.5 140 12:37 18.11.2019
1386 Clouds 23 1016 88 10000 1.5 140 12:18 18.11.2019
1387 Clouds 22 1016 88 10000 1.5 150 11:43 18.11.2019
1388 Clouds 21 1016 88 10000 1.5 150 11:25 18.11.2019
1389 Clouds 21 1015 88 10000 2.49 77 10:46 18.11.2019
1390 Clouds 21 1015 88 10000 2.49 77 10:27 18.11.2019
1391 Clouds 21 1014 83 10000 2.49 77 09:59 18.11.2019
1392 Clouds 21 1014 83 10000 2.49 77 09:39 18.11.2019
1393 Clouds 21 1014 83 10000 2.49 77 09:21 18.11.2019
1394 Clouds 21 1014 88 10000 2.49 77 08:59 18.11.2019
1395 Clouds 21 1014 88 10000 2.49 77 08:41 18.11.2019
1396 Clouds 21 1014 88 10000 3.4 77 08:20 18.11.2019
1397 Clouds 21 1014 88 10000 0.5 220 07:47 18.11.2019
1398 Clouds 21 1014 88 10000 0.5 220 07:27 18.11.2019
1399 Clouds 21 1014 83 10000 2.6 50 06:52 18.11.2019
1400 Clouds 21 1014 83 10000 2.6 50 06:32 18.11.2019
1401 Clouds 21 1015 88 10000 1.5 340 05:47 18.11.2019
1402 Clouds 21 1015 88 10000 1.5 330 04:46 18.11.2019
1403 Clouds 21 1015 83 10000 1 330 01:56 18.11.2019
1404 Clouds 22 1015 83 10000 1 330 01:31 18.11.2019
1405 Clouds 22 1015 88 10000 1 10 00:23 18.11.2019
1406 Clouds 22 1014 94 10000 3.1 30 23:44 17.11.2019
1407 Clouds 22 1014 94 10000 3.1 30 23:24 17.11.2019
1408 Clouds 22 1013 88 10000 0.5 120 22:58 17.11.2019
1409 Clouds 22 1013 88 10000 0.5 120 22:40 17.11.2019
1410 Clouds 22 1013 88 10000 0.5 120 22:22 17.11.2019
1411 Rain 22 1013 88 8000 2.1 160 21:59 17.11.2019
1412 Rain 22 1013 88 8000 2.1 160 21:40 17.11.2019
1413 Rain 22 1013 88 8000 2.1 160 21:19 17.11.2019
1414 Rain 23 1013 68 10000 4.6 140 20:57 17.11.2019
1415 Rain 23 1013 68 10000 4.6 140 20:38 17.11.2019
1416 Rain 23 1012 78 9000 4.6 160 20:19 17.11.2019
1417 Clouds 23 1012 83 10000 4.1 160 19:56 17.11.2019
1418 Clouds 23 1012 83 10000 4.1 160 19:37 17.11.2019
1419 Clouds 23 1012 83 10000 4.1 160 19:19 17.11.2019
1420 Clouds 23 1013 73 10000 5.1 160 18:55 17.11.2019
1421 Clouds 23 1013 73 10000 5.1 160 18:55 17.11.2019
1422 Clouds 23 1013 73 10000 5.1 160 18:37 17.11.2019
1423 Clouds 23 1013 73 10000 5.1 160 18:37 17.11.2019
1424 Clouds 23 1013 73 10000 5.1 160 18:19 17.11.2019
1425 Clouds 24 1013 69 10000 5.1 170 17:57 17.11.2019
1426 Clouds 24 1013 69 10000 5.1 170 17:57 17.11.2019
1427 Clouds 24 1013 69 10000 5.1 170 17:39 17.11.2019
1428 Clouds 24 1013 69 10000 5.1 170 17:20 17.11.2019
1429 Clouds 25 1013 65 10000 5.1 170 16:57 17.11.2019
1430 Clouds 25 1013 65 10000 5.1 170 16:39 17.11.2019
1431 Clouds 26 1013 65 10000 5.1 170 16:21 17.11.2019
1432 Clouds 26 1013 65 10000 3.6 150 15:55 17.11.2019
1433 Clouds 26 1013 65 10000 3.6 150 15:36 17.11.2019
1434 Clouds 26 1013 65 10000 3.6 150 15:18 17.11.2019
1435 Clouds 26 1013 74 10000 2.6 140 14:55 17.11.2019
1436 Clouds 25 1013 74 10000 2.6 140 14:37 17.11.2019
1437 Clouds 24 1013 74 10000 2.6 140 14:19 17.11.2019
1438 Clouds 24 1013 74 10000 2.6 150 13:55 17.11.2019
1439 Clouds 24 1013 74 10000 2.6 150 13:55 17.11.2019
1440 Clouds 24 1013 78 10000 2.1 360 13:37 17.11.2019
1441 Clouds 24 1013 78 10000 2.1 360 13:18 17.11.2019
1442 Clouds 23 1013 83 10000 1.5 50 12:41 17.11.2019
1443 Clouds 22 1013 83 10000 1.5 50 12:22 17.11.2019
1444 Clouds 22 1013 94 10000 1 70 11:56 17.11.2019
1445 Clouds 22 1013 94 10000 1 70 11:38 17.11.2019
1446 Clouds 21 1013 94 10000 1 70 11:20 17.11.2019
1447 Clouds 20 1013 94 10000 1.5 190 10:44 17.11.2019
1448 Clouds 20 1013 94 10000 1.5 190 10:23 17.11.2019
1449 Clouds 20 1012 94 9000 1 200 09:57 17.11.2019
1450 Clouds 20 1012 94 9000 1 200 09:39 17.11.2019
1451 Clouds 20 1012 100 9000 3.1 180 09:20 17.11.2019
1452 Clouds 21 1012 94 10000 2.6 150 08:40 17.11.2019
1453 Clouds 20 1012 94 10000 2.6 150 08:20 17.11.2019
1454 Clear 21 1011 88 10000 1 10 07:48 17.11.2019
1455 Clear 21 1011 88 10000 1 10 07:24 17.11.2019
1456 Clear 21 1011 83 10000 1 300 06:59 17.11.2019
1457 Clear 21 1011 83 10000 1 300 06:33 17.11.2019
1458 Clear 22 1012 73 10000 2.1 310 05:54 17.11.2019
1459 Clear 20 1012 73 10000 0.5 230 04:24 17.11.2019
1460 Clear 20 1013 77 10000 1.5 190 03:51 17.11.2019
1461 Clear 20 1013 77 10000 1.5 190 03:32 17.11.2019
1462 Clear 21 1012 78 10000 3.6 190 02:28 17.11.2019
1463 Clear 21 1012 78 10000 2.6 180 01:41 17.11.2019
1464 Clear 21 1011 78 10000 5.1 190 00:55 17.11.2019
1465 Clear 22 1011 78 10000 5.1 190 00:22 17.11.2019
1466 Clear 22 1010 73 10000 4.6 190 23:48 16.11.2019
1467 Clear 23 1010 73 10000 4.6 190 23:20 16.11.2019
1468 Clear 23 1009 64 10000 3.6 180 22:59 16.11.2019
1469 Clear 23 1009 64 10000 3.6 180 22:41 16.11.2019
1470 Clear 24 1009 64 10000 3.6 180 22:19 16.11.2019
1471 Clear 25 1009 57 10000 5.7 190 21:56 16.11.2019
1472 Clear 26 1009 57 10000 5.7 190 21:38 16.11.2019
1473 Clear 26 1009 57 10000 5.7 190 21:19 16.11.2019
1474 Clouds 26 1009 54 10000 6.2 180 20:43 16.11.2019
1475 Clouds 26 1009 54 10000 6.2 180 20:21 16.11.2019
1476 Clouds 26 1009 54 10000 6.7 180 19:59 16.11.2019
1477 Clouds 26 1009 54 10000 6.7 180 19:40 16.11.2019
1478 Clouds 27 1009 54 10000 6.7 180 19:22 16.11.2019
1479 Clouds 27 1009 54 10000 6.7 180 18:47 16.11.2019
1480 Clouds 27 1009 54 10000 6.7 180 18:29 16.11.2019
1481 Clouds 27 1009 58 10000 7.2 190 17:58 16.11.2019
1482 Clouds 27 1009 58 10000 7.2 190 17:39 16.11.2019
1483 Clouds 27 1009 58 10000 7.2 190 17:20 16.11.2019
1484 Clouds 26 1010 61 10000 5.1 200 16:56 16.11.2019
1485 Clouds 26 1010 61 10000 5.1 200 16:37 16.11.2019
1486 Clouds 26 1010 61 10000 5.1 200 16:19 16.11.2019
1487 Clouds 26 1011 61 10000 1.5 60 15:41 16.11.2019
1488 Clouds 26 1011 61 10000 1.5 60 15:22 16.11.2019
1489 Clouds 25 1011 69 10000 3.1 10 14:58 16.11.2019
1490 Clouds 26 1011 61 10000 3.6 170 14:40 16.11.2019
1491 Clouds 25 1011 61 10000 3.6 170 14:21 16.11.2019
1492 Clouds 24 1011 69 9000 2.6 260 13:56 16.11.2019
1493 Clouds 25 1011 69 9000 2.6 260 13:38 16.11.2019
1494 Clouds 23 1011 69 9000 2.6 260 13:19 16.11.2019
1495 Clouds 24 1011 69 9000 2.6 260 13:19 16.11.2019
1496 Clouds 23 1010 73 8000 3.1 300 12:56 16.11.2019
1497 Clouds 23 1010 83 8000 1.5 80 12:38 16.11.2019
1498 Clouds 22 1010 83 8000 1.5 80 12:19 16.11.2019
1499 Clouds 22 1010 94 8000 2.1 120 11:43 16.11.2019
1500 Clouds 21 1010 94 8000 2.1 120 11:25 16.11.2019
1501 Clouds 21 1009 100 10000 0.5 90 10:56 16.11.2019
1502 Clouds 21 1009 100 10000 0.5 90 10:38 16.11.2019
1503 Clouds 20 1009 100 10000 0.5 90 10:20 16.11.2019
1504 Clouds 20 1008 100 10000 1 170 09:43 16.11.2019
1505 Clouds 20 1008 100 10000 1 170 09:21 16.11.2019
1506 Clouds 20 1008 94 10000 2.1 320 08:58 16.11.2019
1507 Clouds 21 1008 94 10000 2.1 320 08:37 16.11.2019
1508 Clouds 21 1008 94 10000 2.1 320 08:18 16.11.2019
1509 Clouds 21 1008 94 10000 1.5 310 07:41 16.11.2019
1510 Clouds 21 1008 94 10000 1.5 310 07:20 16.11.2019
1511 Clouds 21 1008 94 10000 2.1 330 06:51 16.11.2019
1512 Clouds 21 1008 94 10000 2.1 330 06:33 16.11.2019
1513 Clouds 22 1009 94 10000 2.6 310 05:28 16.11.2019
1514 Clouds 21 1010 94 10000 2.6 310 03:44 16.11.2019
1515 Clouds 21 1010 94 10000 2.6 310 03:25 16.11.2019
1516 Clouds 21 1010 94 10000 2.6 310 01:47 16.11.2019
1517 Clouds 21 1010 94 10000 2.6 310 01:20 16.11.2019
1518 Clouds 21 1009 94 10000 3.6 330 00:42 16.11.2019
1519 Clouds 21 1009 94 10000 3.6 330 00:22 16.11.2019
1520 Clouds 21 1009 100 8000 3.1 320 23:40 15.11.2019
1521 Clouds 21 1009 100 8000 3.1 320 23:21 15.11.2019
1522 Clouds 21 1009 100 8000 3.6 330 22:55 15.11.2019
1523 Rain 21 1008 100 7000 3.1 330 22:37 15.11.2019
1524 Rain 21 1008 100 7000 3.1 330 22:18 15.11.2019
1525 Rain 21 1008 94 7000 2.1 300 21:42 15.11.2019
1526 Rain 21 1008 94 7000 2.1 300 21:21 15.11.2019
1527 Rain 21 1008 88 10000 3.6 330 20:59 15.11.2019
1528 Rain 21 1008 88 10000 3.6 330 20:40 15.11.2019
1529 Clouds 23 1007 83 10000 4.1 190 20:22 15.11.2019
1530 Clouds 23 1007 73 10000 10.3 210 19:59 15.11.2019
1531 Clouds 23 1007 73 10000 10.3 210 19:41 15.11.2019
1532 Clouds 24 1007 73 10000 10.3 210 19:21 15.11.2019
1533 Clouds 24 1007 73 10000 4.6 210 18:59 15.11.2019
1534 Clouds 25 1007 69 10000 6.7 210 18:41 15.11.2019
1535 Clouds 24 1007 73 10000 4.6 210 18:41 15.11.2019
1536 Clouds 25 1007 69 10000 6.7 210 18:22 15.11.2019
1537 Clouds 25 1008 69 10000 4.6 220 17:54 15.11.2019
1538 Clouds 26 1008 69 10000 4.6 220 17:36 15.11.2019
1539 Clouds 25 1008 69 10000 4.6 220 17:18 15.11.2019
1540 Rain 24 1008 78 10000 2.6 220 16:40 15.11.2019
1541 Rain 24 1008 78 10000 2.6 220 16:22 15.11.2019
1542 Rain 24 1008 88 10000 7.2 210 15:57 15.11.2019
1543 Rain 24 1008 88 10000 7.2 210 15:36 15.11.2019
1544 Rain 24 1008 88 10000 7.2 210 15:18 15.11.2019
1545 Clouds 25 1007 78 10000 2.6 220 14:55 15.11.2019
1546 Clouds 26 1007 78 10000 2.6 220 14:36 15.11.2019
1547 Clouds 27 1007 78 10000 2.6 220 14:18 15.11.2019
1548 Clouds 28 1007 70 10000 2.6 310 13:54 15.11.2019
1549 Clouds 28 1007 70 10000 2.6 310 13:36 15.11.2019
1550 Clouds 28 1007 70 10000 2.6 310 13:18 15.11.2019
1551 Clouds 28 1006 83 10000 1.5 330 12:55 15.11.2019
1552 Clouds 28 1006 83 10000 1.5 330 12:36 15.11.2019
1553 Clouds 27 1006 83 10000 1.5 330 12:18 15.11.2019
1554 Clouds 26 1006 88 10000 2.1 320 11:39 15.11.2019
1555 Clouds 25 1006 88 10000 2.1 320 11:21 15.11.2019
1556 Clouds 24 1005 100 10000 2.6 10 10:58 15.11.2019
1557 Clouds 24 1005 100 10000 2.6 10 10:39 15.11.2019
1558 Clouds 24 1005 100 10000 2.6 10 10:20 15.11.2019
1559 Clouds 25 1005 83 10000 2.1 280 09:41 15.11.2019
1560 Clouds 25 1005 83 10000 2.1 280 09:20 15.11.2019
1561 Clouds 24 1005 88 10000 4.1 320 08:58 15.11.2019
1562 Clouds 24 1005 88 10000 4.1 320 08:39 15.11.2019
1563 Clouds 24 1005 88 10000 4.1 320 08:20 15.11.2019
1564 Rain 24 1006 88 10000 3.1 300 07:42 15.11.2019
1565 Rain 24 1006 88 10000 3.1 300 07:23 15.11.2019
1566 Rain 24 1006 88 10000 3.1 290 06:36 15.11.2019
1567 Rain 25 1007 83 10000 4.1 280 05:54 15.11.2019
1568 Rain 25 1007 83 10000 4.1 280 05:35 15.11.2019
1569 Rain 25 1006 94 10000 3.6 320 04:53 15.11.2019
1570 Clouds 24 1006 94 10000 4.6 320 03:43 15.11.2019
1571 Clouds 25 1007 100 10000 4.1 340 02:34 15.11.2019
1572 Clouds 23 1007 100 10000 4.1 300 01:55 15.11.2019
1573 Clouds 24 1007 100 10000 4.1 300 01:32 15.11.2019
1574 Clouds 23 1007 100 8000 4.1 320 00:41 15.11.2019
1575 Clouds 24 1007 100 8000 4.1 320 00:23 15.11.2019
1576 Clouds 23 1008 100 8000 3.1 10 23:46 14.11.2019
1577 Clouds 23 1008 100 8000 3.1 10 23:26 14.11.2019
1578 Rain 23 1009 100 8000 3.1 360 22:42 14.11.2019
1579 Rain 23 1009 100 8000 3.1 360 22:23 14.11.2019
1580 Rain 23 1009 100 8000 3.1 360 22:23 14.11.2019
1581 Rain 23 1010 100 6000 3.1 320 21:59 14.11.2019
1582 Rain 22 1010 100 6000 3.1 320 21:41 14.11.2019
1583 Rain 23 1010 100 6000 3.1 320 21:22 14.11.2019
1584 Rain 22 1010 100 7000 1.5 350 20:55 14.11.2019
1585 Rain 22 1010 100 7000 1.5 350 20:37 14.11.2019
1586 Rain 22 1010 100 7000 1.5 350 20:37 14.11.2019
1587 Rain 23 1010 100 7000 1.5 350 20:19 14.11.2019
1588 Rain 23 1011 100 6000 1.5 340 19:56 14.11.2019
1589 Rain 22 1011 100 7000 0.5 160 19:37 14.11.2019
1590 Rain 23 1011 100 7000 0.5 160 19:18 14.11.2019
1591 Rain 22 1012 88 7000 3.1 120 18:43 14.11.2019
1592 Rain 23 1012 88 7000 3.1 120 18:24 14.11.2019
1593 Rain 23 1012 88 7000 3.1 120 17:58 14.11.2019
1594 Rain 23 1012 100 10000 3.6 190 17:38 14.11.2019
1595 Rain 24 1013 100 10000 4.6 140 17:20 14.11.2019
1596 Rain 24 1013 100 10000 4.6 140 16:58 14.11.2019
1597 Rain 24 1013 100 10000 4.6 140 16:58 14.11.2019
1598 Rain 24 1013 100 10000 4.6 140 16:58 14.11.2019
1599 Rain 24 1013 100 10000 4.6 140 16:58 14.11.2019
1600 Rain 23 1013 100 10000 4.6 140 16:37 14.11.2019
1601 Rain 23 1013 100 10000 4.6 140 16:19 14.11.2019
1602 Clouds 23 1013 100 10000 4.6 150 15:58 14.11.2019
1603 Clouds 22 1013 100 10000 4.6 150 15:38 14.11.2019
1604 Clouds 24 1013 100 10000 4.6 150 15:20 14.11.2019
1605 Clouds 24 1012 88 10000 3.1 160 14:57 14.11.2019
1606 Clouds 23 1012 88 10000 3.1 160 14:39 14.11.2019
1607 Clouds 24 1012 88 10000 3.1 160 14:20 14.11.2019
1608 Clouds 24 1012 94 10000 1.5 150 13:42 14.11.2019
1609 Clouds 24 1012 94 10000 1.5 150 13:23 14.11.2019
1610 Clouds 24 1012 83 10000 2.6 330 12:59 14.11.2019
1611 Clouds 23 1012 83 10000 2.6 330 12:40 14.11.2019
1612 Clouds 23 1012 83 10000 2.6 330 12:21 14.11.2019
1613 Clouds 23 1012 88 10000 1 120 11:56 14.11.2019
1614 Clouds 22 1012 88 10000 1 120 11:37 14.11.2019
1615 Clouds 22 1012 88 10000 1 120 11:19 14.11.2019
1616 Clouds 22 1011 94 10000 1 120 10:57 14.11.2019
1617 Clouds 23 1011 94 10000 1 120 10:37 14.11.2019
1618 Clouds 23 1011 94 10000 1 120 10:19 14.11.2019
1619 Clouds 22 1011 94 10000 2.1 50 09:54 14.11.2019
1620 Clouds 22 1011 94 10000 0.5 40 09:36 14.11.2019
1621 Clouds 22 1011 94 10000 0.5 40 09:18 14.11.2019
1622 Clouds 22 1011 94 10000 0.5 40 08:41 14.11.2019
1623 Clouds 22 1011 94 10000 0.5 40 08:23 14.11.2019
1624 Clouds 22 1011 94 10000 1 10 07:42 14.11.2019
1625 Clouds 22 1011 94 10000 1 10 07:24 14.11.2019
1626 Clouds 22 1012 94 10000 1.5 20 06:46 14.11.2019
1627 Clouds 22 1012 94 10000 1.5 20 06:21 14.11.2019
1628 Clouds 23 1012 88 10000 3.6 70 05:40 14.11.2019
1629 Clouds 22 1015 86 0 6.33 59 04:38 14.11.2019
1630 Clouds 23 1014 88 10000 7.2 60 03:47 14.11.2019
1631 Clouds 23 1014 88 10000 7.2 60 02:39 14.11.2019
1632 Clouds 24 1014 83 10000 6.7 60 01:41 14.11.2019
1633 Clouds 24 1014 83 10000 6.7 70 00:58 14.11.2019
1634 Clouds 24 1014 83 10000 6.7 70 00:58 14.11.2019
1635 Clouds 24 1014 83 10000 6.7 70 00:39 14.11.2019
1636 Clouds 24 1014 83 10000 6.7 70 00:20 14.11.2019
1637 Clouds 24 1014 83 10000 6.2 90 23:39 13.11.2019
1638 Clouds 25 1014 83 10000 6.2 90 23:20 13.11.2019
1639 Clouds 25 1013 78 10000 6.2 90 22:55 13.11.2019
1640 Clouds 25 1013 78 10000 6.2 90 22:55 13.11.2019
1641 Clouds 25 1013 78 10000 6.2 90 22:37 13.11.2019
1642 Clouds 25 1013 78 10000 6.2 90 22:19 13.11.2019
1643 Clouds 25 1013 83 10000 4.6 100 21:55 13.11.2019
1644 Clouds 26 1013 83 10000 4.6 100 21:36 13.11.2019
1645 Clouds 26 1013 83 10000 4.6 100 21:18 13.11.2019
1646 Clouds 26 1013 78 10000 4.1 170 20:55 13.11.2019
1647 Clouds 25 1013 78 10000 4.1 170 20:37 13.11.2019
1648 Clouds 25 1013 78 10000 4.1 170 20:37 13.11.2019
1649 Clouds 26 1013 78 10000 4.1 170 20:18 13.11.2019
1650 Clouds 26 1013 78 10000 4.1 170 20:18 13.11.2019
1651 Clouds 25 1013 83 10000 4.6 130 19:42 13.11.2019
1652 Clouds 25 1013 83 10000 4.6 130 19:19 13.11.2019
1653 Clouds 25 1014 78 10000 5.7 140 18:56 13.11.2019
1654 Clouds 26 1014 78 10000 5.7 140 18:38 13.11.2019
1655 Clouds 26 1014 78 10000 5.7 140 18:19 13.11.2019
1656 Clouds 26 1014 78 10000 5.7 140 18:19 13.11.2019
1657 Clouds 26 1015 78 10000 4.1 150 17:57 13.11.2019
1658 Clouds 26 1015 78 10000 4.1 150 17:38 13.11.2019
1659 Clouds 27 1015 78 10000 4.1 150 17:19 13.11.2019
1660 Clouds 27 1015 69 10000 3.6 70 16:58 13.11.2019
1661 Clouds 27 1015 69 10000 3.6 70 16:39 13.11.2019
1662 Clouds 27 1015 69 10000 3.6 70 16:39 13.11.2019
1663 Clouds 26 1015 69 10000 3.6 70 16:21 13.11.2019
1664 Clouds 27 1016 65 10000 6.2 60 15:57 13.11.2019
1665 Clouds 26 1016 65 10000 6.2 60 15:38 13.11.2019
1666 Clouds 27 1016 65 10000 6.2 60 15:20 13.11.2019
1667 Clouds 25 1017 69 10000 5.7 70 14:42 13.11.2019
1668 Clouds 26 1017 69 10000 5.7 70 14:22 13.11.2019
1669 Clouds 24 1017 74 10000 7.2 70 13:57 13.11.2019
1670 Clouds 24 1017 74 10000 7.2 70 13:36 13.11.2019
1671 Clouds 24 1017 74 10000 7.2 70 13:18 13.11.2019
1672 Clouds 23 1017 83 10000 2.6 80 12:54 13.11.2019
1673 Clouds 22 1017 83 10000 2.6 80 12:36 13.11.2019
1674 Clouds 23 1017 83 10000 2.6 80 12:18 13.11.2019
1675 Clouds 21 1017 83 10000 2.1 60 11:40 13.11.2019
1676 Clouds 21 1017 83 10000 2.1 60 11:20 13.11.2019
1677 Clouds 20 1017 88 10000 1.5 70 10:58 13.11.2019
1678 Clouds 21 1017 88 10000 1.5 70 10:40 13.11.2019
1679 Clouds 21 1017 88 10000 1.5 70 10:19 13.11.2019
1680 Clouds 21 1016 88 10000 2.1 90 09:45 13.11.2019
1681 Clouds 21 1016 88 10000 2.1 90 09:24 13.11.2019
1682 Clouds 21 1017 88 10000 1 70 08:59 13.11.2019
1683 Clouds 21 1017 88 10000 1 70 08:37 13.11.2019
1684 Clouds 21 1017 88 10000 1 70 08:19 13.11.2019
1685 Clouds 21 1017 88 10000 2.1 90 07:42 13.11.2019
1686 Clouds 21 1017 88 10000 2.1 90 07:42 13.11.2019
1687 Clouds 21 1017 88 10000 2.1 90 07:20 13.11.2019
1688 Clouds 21 1017 88 10000 3.1 80 06:46 13.11.2019
1689 Clouds 21 1017 88 10000 3.1 80 06:19 13.11.2019
1690 Clouds 21 1017 88 10000 3.1 80 06:19 13.11.2019
1691 Clouds 21 1017 88 10000 3.1 80 06:19 13.11.2019
1692 Clouds 22 1017 83 10000 4.6 90 05:53 13.11.2019
1693 Clouds 22 1017 83 10000 4.6 90 05:34 13.11.2019
1694 Clouds 22 1018 83 10000 4.1 90 04:43 13.11.2019
1695 Clouds 22 1018 88 10000 3.6 100 02:19 13.11.2019
1696 Clouds 21 1018 94 10000 1.5 90 01:44 13.11.2019
1697 Clouds 22 1018 88 10000 4.1 100 00:44 13.11.2019
1698 Clouds 22 1018 88 10000 4.1 100 00:26 13.11.2019
1699 Clouds 23 1017 88 10000 5.7 110 23:42 12.11.2019
1700 Clouds 23 1017 88 10000 5.7 110 23:42 12.11.2019
1701 Clouds 23 1017 88 10000 5.7 110 23:21 12.11.2019
1702 Clouds 23 1017 83 10000 5.1 110 22:56 12.11.2019
1703 Clouds 23 1017 83 10000 5.1 110 22:37 12.11.2019
1704 Clouds 23 1017 83 10000 5.1 110 22:18 12.11.2019
1705 Clouds 23 1017 83 10000 5.1 120 21:44 12.11.2019
1706 Clouds 24 1017 83 10000 5.1 120 21:25 12.11.2019
1707 Clouds 24 1016 78 10000 5.7 110 20:58 12.11.2019
1708 Clouds 24 1016 78 10000 5.7 110 20:37 12.11.2019
1709 Clouds 24 1016 78 10000 5.7 110 20:19 12.11.2019
1710 Clouds 24 1017 78 10000 7.2 130 19:57 12.11.2019
1711 Clouds 22 1017 78 10000 7.2 130 19:39 12.11.2019
1712 Clouds 24 1017 78 10000 7.2 130 19:19 12.11.2019
1713 Clouds 24 1017 78 10000 6.7 130 18:59 12.11.2019
1714 Clouds 23 1017 78 10000 6.7 130 18:40 12.11.2019
1715 Clouds 25 1017 78 10000 6.7 130 18:22 12.11.2019
1716 Clouds 25 1018 78 9000 6.2 130 17:57 12.11.2019
1717 Clouds 23 1018 78 9000 6.2 130 17:39 12.11.2019
1718 Clouds 24 1018 78 9000 6.2 130 17:21 12.11.2019
1719 Clouds 24 1018 78 9000 6.2 130 17:21 12.11.2019
1720 Clouds 24 1018 78 9000 6.2 120 16:57 12.11.2019
1721 Clouds 23 1018 78 9000 6.2 120 16:39 12.11.2019
1722 Clouds 24 1018 78 9000 6.2 120 16:20 12.11.2019
1723 Clouds 24 1018 78 9000 6.7 120 15:41 12.11.2019
1724 Clouds 24 1018 78 9000 6.7 120 15:21 12.11.2019
1725 Clouds 24 1018 83 9000 5.7 120 14:57 12.11.2019
1726 Clouds 24 1018 83 9000 5.7 120 14:37 12.11.2019
1727 Clouds 24 1018 83 9000 5.7 120 14:19 12.11.2019
1728 Clouds 24 1018 78 9000 5.7 100 13:56 12.11.2019
1729 Clouds 23 1018 78 9000 5.7 100 13:37 12.11.2019
1730 Clouds 23 1018 78 9000 5.7 100 13:18 12.11.2019
1731 Clouds 22 1018 78 10000 6.7 110 12:42 12.11.2019
1732 Clouds 22 1017 88 8000 5.7 110 12:20 12.11.2019
1733 Clouds 22 1017 94 7000 5.1 100 11:59 12.11.2019
1734 Clouds 22 1017 94 7000 5.1 100 11:40 12.11.2019
1735 Clouds 22 1017 94 7000 5.1 100 11:22 12.11.2019
1736 Clouds 22 1017 94 7000 5.1 100 11:22 12.11.2019
1737 Clouds 21 1017 100 9000 3.6 120 10:56 12.11.2019
1738 Clouds 21 1017 100 9000 3.6 120 10:38 12.11.2019
1739 Clouds 21 1017 100 9000 3.6 120 10:20 12.11.2019
1740 Clouds 21 1016 94 9000 3.6 120 09:56 12.11.2019
1741 Clouds 21 1016 94 9000 3.6 120 09:37 12.11.2019
1742 Clouds 21 1016 94 9000 3.6 120 09:18 12.11.2019
1743 Rain 22 1017 85 0 6.96 93 08:41 12.11.2019
1744 Rain 21 1016 100 8000 3.1 150 08:22 12.11.2019
1745 Rain 21 1016 100 8000 3.1 150 07:41 12.11.2019
1746 Rain 21 1016 100 8000 3.1 150 07:23 12.11.2019
1747 Rain 21 1016 100 6000 2.1 140 06:45 12.11.2019
1748 Rain 21 1016 100 6000 2.1 140 06:23 12.11.2019
1749 Rain 21 1017 100 7000 2.1 150 05:46 12.11.2019
1750 Rain 21 1018 100 5000 2.6 160 04:50 12.11.2019
1751 Rain 21 1018 100 5000 2.6 160 04:50 12.11.2019
1752 Rain 21 1018 100 7000 4.1 130 03:49 12.11.2019
1753 Rain 21 1018 88 2100 5.7 140 01:49 12.11.2019
1754 Rain 21 1018 88 2100 5.7 140 01:22 12.11.2019
1755 Rain 21 1018 88 2100 5.7 140 01:22 12.11.2019
1756 Drizzle 21 1017 94 7000 3.1 170 00:51 12.11.2019
1757 Drizzle 21 1017 94 7000 3.1 170 00:32 12.11.2019
1758 Drizzle 21 1016 100 7000 3.6 160 23:47 11.11.2019
1759 Rain 22 1016 100 3000 4.1 160 23:24 11.11.2019
1760 Rain 22 1016 100 2000 5.1 150 22:58 11.11.2019
1761 Rain 22 1016 100 2000 5.1 150 22:37 11.11.2019
1762 Rain 22 1016 100 2000 5.1 150 22:18 11.11.2019
1763 Rain 22 1015 100 5000 5.7 150 21:57 11.11.2019
1764 Rain 22 1015 100 2500 4.1 150 21:38 11.11.2019
1765 Rain 22 1015 100 2500 4.1 150 21:19 11.11.2019
1766 Rain 22 1015 100 7000 5.7 170 20:55 11.11.2019
1767 Rain 22 1015 100 7000 5.7 170 20:36 11.11.2019
1768 Rain 22 1015 100 7000 5.7 170 20:18 11.11.2019
1769 Rain 23 1014 100 5000 7.7 180 19:41 11.11.2019
1770 Rain 22 1014 100 5000 7.7 180 19:19 11.11.2019
1771 Rain 23 1014 100 4000 8.2 170 18:57 11.11.2019
1772 Rain 23 1014 100 4000 8.2 170 18:38 11.11.2019
1773 Rain 23 1014 100 4000 8.2 170 18:19 11.11.2019
1774 Rain 23 1014 100 3000 8.2 180 17:43 11.11.2019
1775 Rain 23 1014 100 4000 8.7 160 17:24 11.11.2019
1776 Thunderstorm 23 1014 94 1800 5.1 170 16:45 11.11.2019
1777 Rain 24 1013 100 1000 7.7 170 16:24 11.11.2019
1778 Rain 25 1013 100 4000 4.6 160 15:59 11.11.2019
1779 Rain 25 1013 100 4000 4.6 160 15:41 11.11.2019
1780 Rain 26 1013 100 8000 5.7 170 15:20 11.11.2019
1781 Rain 26 1013 94 8000 3.6 160 14:54 11.11.2019
1782 Clouds 26 1013 88 9000 4.1 160 14:36 11.11.2019
1783 Clouds 26 1013 88 9000 4.1 160 14:18 11.11.2019
1784 -273 0 0 0 0 0 13:39 11.11.2019
1785 Clouds 26 1013 88 10000 3.1 150 13:21 11.11.2019
1786 Clouds 25 1013 94 10000 3.1 150 12:58 11.11.2019
1787 Clouds 26 1013 94 10000 3.1 150 12:40 11.11.2019
1788 Clouds 25 1013 94 10000 3.1 150 12:22 11.11.2019
1789 Clouds 25 1012 100 10000 2.1 150 11:57 11.11.2019
1790 Clouds 23 1012 100 10000 2.1 150 11:38 11.11.2019
1791 Clouds 23 1012 100 10000 2.1 150 11:20 11.11.2019
1792 Clouds 24 1012 94 10000 2.1 170 10:42 11.11.2019
1793 Clouds 23 1012 94 10000 2.1 170 10:19 11.11.2019
1794 Clouds 23 1012 100 10000 1.5 170 09:58 11.11.2019
1795 Clouds 23 1012 100 10000 1.5 170 09:58 11.11.2019
1796 Clouds 23 1012 100 10000 1.5 170 09:39 11.11.2019
1797 Clouds 23 1012 100 10000 1.5 170 09:19 11.11.2019
1798 Clouds 23 1011 100 10000 2.6 160 08:41 11.11.2019
1799 Clouds 24 1011 100 10000 2.6 160 08:22 11.11.2019
1800 Clouds 24 1011 100 10000 2.6 170 07:57 11.11.2019
1801 Clouds 24 1011 100 10000 2.6 170 07:37 11.11.2019
1802 Clouds 24 1011 100 10000 2.6 170 07:19 11.11.2019
1803 Clouds 24 1011 100 10000 2.6 170 07:19 11.11.2019
1804 Clouds 24 1012 94 10000 3.1 170 06:48 11.11.2019
1805 Clouds 25 1012 94 10000 3.1 170 06:23 11.11.2019
1806 Clouds 25 1012 94 10000 2.6 160 05:51 11.11.2019
1807 Clouds 25 1013 94 10000 2.1 170 04:43 11.11.2019
1808 Clouds 25 1013 100 10000 2.6 180 03:25 11.11.2019
1809 Clouds 25 1014 100 10000 2.1 170 02:30 11.11.2019
1810 Clouds 25 1014 100 10000 3.6 170 01:57 11.11.2019
1811 Clouds 25 1014 100 10000 3.6 170 01:35 11.11.2019
1812 Clouds 25 1014 100 10000 3.1 170 00:51 11.11.2019
1813 Clouds 25 1014 100 10000 3.1 170 00:26 11.11.2019
1814 Clouds 25 1013 94 10000 4.1 160 23:56 10.11.2019
1815 Clouds 26 1013 94 10000 4.1 160 23:36 10.11.2019
1816 Clouds 26 1013 94 10000 4.1 160 23:18 10.11.2019
1817 Clouds 26 1013 88 10000 4.1 170 22:55 10.11.2019
1818 Clouds 26 1013 88 10000 4.1 170 22:36 10.11.2019
1819 Clouds 26 1013 88 10000 4.1 170 22:18 10.11.2019
1820 Clouds 26 1013 88 10000 5.7 180 21:54 10.11.2019
1821 Clouds 26 1013 88 10000 5.7 180 21:36 10.11.2019
1822 Clouds 26 1013 88 10000 5.7 180 21:18 10.11.2019
1823 Clouds 26 1012 88 10000 6.7 160 20:40 10.11.2019
1824 Clouds 26 1012 88 10000 6.7 160 20:21 10.11.2019
1825 Clouds 27 1012 78 9000 6.7 160 19:56 10.11.2019
1826 Clouds 27 1012 78 9000 6.7 160 19:37 10.11.2019
1827 Clouds 27 1012 78 9000 6.7 160 19:18 10.11.2019
1828 Clouds 27 1012 79 9000 6.2 160 18:56 10.11.2019
1829 Clouds 28 1012 79 9000 6.2 160 18:56 10.11.2019
1830 Clouds 28 1012 79 9000 6.2 160 18:38 10.11.2019
1831 Clouds 27 1012 79 9000 6.2 160 18:19 10.11.2019
1832 Clouds 27 1012 83 8000 5.7 150 17:56 10.11.2019
1833 Clouds 27 1012 83 8000 5.7 150 17:37 10.11.2019
1834 Clouds 27 1012 83 8000 5.7 150 17:19 10.11.2019
1835 Clouds 27 1012 83 8000 5.7 140 16:57 10.11.2019
1836 Clouds 27 1012 83 8000 5.7 140 16:37 10.11.2019
1837 Clouds 28 1012 83 8000 5.7 140 16:19 10.11.2019
1838 Clouds 28 1012 83 8000 4.6 150 15:54 10.11.2019
1839 Clouds 29 1012 83 8000 4.6 150 15:36 10.11.2019
1840 Clouds 29 1012 83 8000 4.6 150 15:18 10.11.2019
1841 Clouds 28 1013 83 9000 3.6 140 14:40 10.11.2019
1842 Clouds 28 1013 83 9000 3.6 140 14:22 10.11.2019
1843 Clouds 28 1013 83 9000 2.1 10 13:57 10.11.2019
1844 Clouds 28 1013 83 9000 2.1 10 13:39 10.11.2019
1845 Clouds 27 1013 83 9000 2.1 10 13:19 10.11.2019
1846 Clouds 26 1013 88 8000 1.5 40 12:42 10.11.2019
1847 Clouds 25 1013 88 8000 1.5 40 12:20 10.11.2019
1848 Clouds 25 1012 100 9000 0.5 130 11:57 10.11.2019
1849 Clouds 24 1012 100 9000 0.5 130 11:38 10.11.2019
1850 Clouds 24 1012 100 9000 0.5 130 11:20 10.11.2019
1851 Clouds 23 1012 100 7000 1.73 279 10:59 10.11.2019
1852 Clouds 23 1012 100 7000 1.73 279 10:40 10.11.2019
1853 Clouds 22 1012 100 7000 1.73 279 10:20 10.11.2019
1854 Clouds 23 1011 100 8000 1 130 09:42 10.11.2019
1855 Clouds 23 1011 100 8000 1 130 09:23 10.11.2019
1856 Clouds 23 1011 100 9000 2.1 180 08:41 10.11.2019
1857 Clouds 23 1011 100 9000 2.1 180 08:21 10.11.2019
1858 Clouds 24 1011 100 10000 2.1 170 07:58 10.11.2019
1859 Clouds 24 1011 100 10000 2.1 170 07:40 10.11.2019
1860 Clouds 24 1011 100 10000 2.1 170 07:21 10.11.2019
1861 Clouds 24 1012 94 10000 3.1 160 06:26 10.11.2019
1862 Clouds 24 1012 94 10000 2.6 170 04:46 10.11.2019
1863 Clouds 25 1012 94 10000 0.5 220 03:19 10.11.2019
1864 Clouds 25 1013 100 10000 2.1 190 01:44 10.11.2019
1865 Clouds 25 1013 100 10000 2.1 190 01:19 10.11.2019
1866 Clouds 25 1013 100 10000 3.1 180 00:40 10.11.2019
1867 Clouds 25 1012 83 8000 4.1 140 23:46 09.11.2019
1868 Clouds 25 1012 83 8000 4.1 140 23:21 09.11.2019
1869 Clouds 25 1012 100 10000 4.6 160 22:59 09.11.2019
1870 Clouds 25 1012 100 10000 4.6 160 22:40 09.11.2019
1871 Clouds 24 1012 100 10000 4.6 160 22:20 09.11.2019
1872 Clouds 25 1012 100 10000 5.1 160 21:55 09.11.2019
1873 Clouds 25 1012 100 10000 5.1 160 21:37 09.11.2019
1874 Clouds 25 1012 100 10000 5.1 160 21:19 09.11.2019
1875 Clouds 25 1011 100 8000 3.1 160 20:41 09.11.2019
1876 Clouds 25 1011 100 8000 3.1 160 20:41 09.11.2019
1877 Clouds 25 1011 100 8000 3.1 160 20:22 09.11.2019
1878 Clouds 26 1011 94 7000 4.1 170 19:57 09.11.2019
1879 Clouds 26 1011 94 7000 4.1 170 19:38 09.11.2019
1880 Clouds 26 1011 94 7000 4.1 170 19:20 09.11.2019
1881 Clouds 26 1012 100 8000 5.1 150 18:41 09.11.2019
1882 Clouds 26 1012 100 8000 5.1 150 18:19 09.11.2019
1883 Clouds 26 1012 94 8000 5.1 160 17:59 09.11.2019
1884 Clouds 26 1012 94 8000 5.1 160 17:40 09.11.2019
1885 Clouds 27 1012 94 8000 5.1 160 17:22 09.11.2019
1886 Clouds 27 1013 88 10000 4.6 160 16:43 09.11.2019
1887 Clouds 27 1013 88 10000 4.6 160 16:22 09.11.2019
1888 Clouds 27 1013 88 10000 5.1 170 15:59 09.11.2019
1889 Clouds 27 1013 88 10000 5.1 170 15:41 09.11.2019
1890 Clouds 27 1013 88 10000 5.1 170 15:23 09.11.2019
1891 Clouds 26 1013 88 9000 5.1 170 14:43 09.11.2019
1892 Clouds 26 1013 94 10000 4.6 150 14:22 09.11.2019
1893 Clouds 26 1013 94 10000 2.6 150 13:57 09.11.2019
1894 Clouds 25 1013 94 10000 2.6 150 13:39 09.11.2019
1895 Clouds 25 1013 94 10000 2.6 150 13:19 09.11.2019
1896 Clouds 25 1013 100 10000 1.5 170 12:56 09.11.2019
1897 Clouds 25 1013 100 10000 1.5 170 12:38 09.11.2019
1898 Clouds 25 1013 100 10000 1.5 170 12:19 09.11.2019
1899 Clouds 25 1012 100 10000 0.5 190 11:47 09.11.2019
1900 Clouds 23 1012 100 10000 0.5 190 11:21 09.11.2019
1901 Clouds 23 1012 100 8000 1 160 10:56 09.11.2019
1902 Clouds 22 1012 100 8000 1 160 10:38 09.11.2019
1903 Clouds 24 1012 100 8000 1 160 10:18 09.11.2019
1904 Clouds 24 1011 100 10000 2.1 150 09:43 09.11.2019
1905 Clouds 24 1011 100 10000 2.1 150 09:21 09.11.2019
1906 Clouds 24 1011 100 10000 1.5 160 08:53 09.11.2019
1907 Clouds 24 1011 100 10000 1.5 160 08:26 09.11.2019
1908 Clouds 24 1011 100 10000 1 170 07:57 09.11.2019
1909 Clouds 24 1011 100 10000 1 170 07:57 09.11.2019
1910 Clouds 24 1011 100 10000 1 170 07:39 09.11.2019
1911 Clouds 24 1011 100 10000 1 170 07:20 09.11.2019
1912 Clouds 24 1011 100 10000 1.5 180 06:46 09.11.2019
1913 Clouds 24 1011 100 10000 1.5 180 06:28 09.11.2019
1914 Clouds 24 1012 100 10000 2.1 180 05:40 09.11.2019
1915 Clouds 24 1012 100 9000 1.5 200 04:48 09.11.2019
1916 Clouds 24 1013 100 8000 2.1 160 02:57 09.11.2019
1917 Clouds 24 1013 100 8000 2.1 160 02:38 09.11.2019
1918 Clouds 25 1013 94 8000 2.6 120 01:40 09.11.2019
1919 Rain 24 1013 100 8000 2.6 160 00:46 09.11.2019
1920 Rain 24 1013 100 8000 2.6 160 00:27 09.11.2019
1921 Rain 24 1013 88 10000 2.1 100 23:42 08.11.2019
1922 Rain 24 1013 100 10000 2.6 130 23:23 08.11.2019
1923 Clouds 24 1012 100 10000 2.6 170 22:59 08.11.2019
1924 Clouds 24 1012 100 10000 2.6 170 22:41 08.11.2019
1925 Clouds 24 1012 100 10000 2.6 170 22:21 08.11.2019
1926 Rain 24 1011 100 10000 3.6 170 21:55 08.11.2019
1927 Rain 23 1011 100 10000 3.6 170 21:36 08.11.2019
1928 Rain 24 1011 100 10000 3.6 170 21:18 08.11.2019
1929 Clouds 24 1011 94 10000 4.6 170 20:41 08.11.2019
1930 Clouds 24 1011 94 10000 4.6 170 20:20 08.11.2019
1931 Clouds 24 1011 94 10000 5.7 160 19:58 08.11.2019
1932 Clouds 24 1011 94 10000 5.7 160 19:38 08.11.2019
1933 Clouds 24 1011 94 10000 5.7 160 19:38 08.11.2019
1934 Clouds 25 1011 94 10000 5.7 160 19:18 08.11.2019
1935 Clouds 25 1011 88 10000 6.2 160 18:55 08.11.2019
1936 Clouds 25 1011 88 10000 6.2 160 18:37 08.11.2019
1937 Clouds 26 1011 88 10000 6.2 160 18:19 08.11.2019
1938 Clouds 27 1011 88 10000 7.2 160 17:55 08.11.2019
1939 Clouds 26 1011 88 10000 7.2 160 17:36 08.11.2019
1940 Clouds 27 1011 88 10000 7.2 160 17:18 08.11.2019
1941 Clouds 27 1011 83 10000 7.2 160 16:57 08.11.2019
1942 Clouds 26 1011 83 10000 7.2 160 16:39 08.11.2019
1943 Clouds 27 1011 83 10000 7.2 160 16:19 08.11.2019
1944 Clouds 28 1011 78 10000 5.7 150 15:56 08.11.2019
1945 Clouds 26 1011 78 10000 5.7 150 15:38 08.11.2019
1946 Clouds 27 1011 78 10000 5.7 150 15:19 08.11.2019
1947 Clouds 27 1011 88 10000 4.1 150 14:55 08.11.2019
1948 Clouds 25 1011 88 10000 4.1 150 14:36 08.11.2019
1949 Clouds 26 1011 88 10000 4.1 150 14:36 08.11.2019
1950 Clouds 26 1011 88 10000 4.1 150 14:18 08.11.2019
1951 Clouds 25 1011 78 10000 0.5 270 13:43 08.11.2019
1952 Clouds 25 1011 78 10000 0.5 270 13:22 08.11.2019
1953 Clouds 25 1011 78 10000 0.5 270 13:22 08.11.2019
1954 Clouds 25 1011 88 10000 2.1 340 12:58 08.11.2019
1955 Clouds 25 1011 88 10000 2.1 340 12:39 08.11.2019
1956 Clouds 25 1011 88 10000 2.1 340 12:21 08.11.2019
1957 Clouds 25 1011 88 10000 3.1 10 11:55 08.11.2019
1958 Clouds 25 1011 88 10000 3.1 10 11:55 08.11.2019
1959 Clouds 24 1011 88 10000 3.1 10 11:37 08.11.2019
1960 Clouds 24 1011 88 10000 3.1 10 11:19 08.11.2019
1961 Clouds 23 1010 94 10000 1.5 20 10:43 08.11.2019
1962 Clouds 23 1010 94 10000 1.5 20 10:22 08.11.2019
1963 Clouds 22 1010 100 10000 2.1 70 09:59 08.11.2019
1964 Clouds 22 1010 100 10000 2.1 70 09:40 08.11.2019
1965 Clouds 22 1010 100 10000 2.1 70 09:20 08.11.2019
1966 Clouds 23 1010 88 10000 1 320 08:47 08.11.2019
1967 Clouds 23 1010 88 10000 1 320 08:29 08.11.2019
1968 Clouds 22 1009 94 10000 3.1 50 07:57 08.11.2019
1969 Clouds 22 1009 94 10000 3.1 50 07:39 08.11.2019
1970 Clouds 22 1009 94 10000 3.1 50 07:20 08.11.2019
1971 Clouds 23 1010 88 10000 2.1 40 06:40 08.11.2019
1972 Clouds 23 1010 88 10000 2.1 40 06:20 08.11.2019
1973 Clouds 23 1011 94 10000 2.1 30 05:40 08.11.2019
1974 Clouds 23 1012 94 10000 1.5 170 04:43 08.11.2019
1975 Clouds 23 1013 94 10000 1 160 03:44 08.11.2019
1976 Clouds 24 1013 94 10000 1 160 03:21 08.11.2019
1977 Clouds 24 1013 94 10000 2.6 160 02:41 08.11.2019
1978 Clouds 24 1013 88 10000 2.1 150 01:46 08.11.2019
1979 Clouds 24 1013 88 10000 2.1 150 01:22 08.11.2019
1980 Clouds 24 1012 94 10000 5.1 120 00:24 08.11.2019
1981 Clouds 24 1012 94 10000 3.6 130 23:58 07.11.2019
1982 Clouds 24 1012 94 10000 3.6 130 23:40 07.11.2019
1983 Clouds 24 1012 94 10000 3.6 130 23:21 07.11.2019
1984 Clouds 24 1011 94 10000 5.1 120 22:42 07.11.2019
1985 Clouds 24 1011 94 10000 5.1 120 22:22 07.11.2019
1986 Clouds 24 1011 94 10000 5.1 120 22:22 07.11.2019
1987 Clouds 25 1011 83 10000 5.7 110 21:56 07.11.2019
1988 Clouds 24 1011 83 10000 5.7 110 21:37 07.11.2019
1989 Clouds 25 1011 83 10000 5.7 110 21:19 07.11.2019
1990 Clouds 26 1011 83 10000 5.1 140 20:58 07.11.2019
1991 Clouds 26 1011 83 10000 5.1 140 20:39 07.11.2019
1992 Clouds 26 1011 83 10000 5.1 140 20:21 07.11.2019
1993 Clouds 26 1011 88 10000 3.6 130 19:56 07.11.2019
1994 Clouds 24 1011 88 10000 3.6 130 19:37 07.11.2019
1995 Clouds 26 1011 88 10000 3.6 130 19:18 07.11.2019
1996 Clouds 27 1012 83 10000 3.6 160 18:55 07.11.2019
1997 Clouds 25 1012 83 10000 3.6 160 18:37 07.11.2019
1998 Clouds 27 1012 83 10000 3.6 160 18:19 07.11.2019
1999 Clouds 27 1012 74 10000 5.1 160 17:40 07.11.2019
2000 Clouds 27 1013 78 10000 5.1 160 17:22 07.11.2019
2001 Clouds 27 1013 78 10000 5.1 160 16:58 07.11.2019
2002 Clouds 27 1013 78 10000 5.1 160 16:40 07.11.2019
2003 Clouds 27 1013 78 10000 5.1 160 16:20 07.11.2019
2004 Clouds 27 1014 78 10000 3.6 150 15:58 07.11.2019
2005 Clouds 27 1014 78 10000 3.6 150 15:39 07.11.2019
2006 Clouds 27 1014 78 10000 3.6 150 15:19 07.11.2019
2007 Clouds 25 1014 83 10000 1 150 14:45 07.11.2019
2008 Clouds 25 1014 83 10000 1 150 14:27 07.11.2019
2009 Clouds 24 1015 88 9000 2.1 360 13:57 07.11.2019
2010 Clouds 25 1015 88 9000 2.1 360 13:39 07.11.2019
2011 Clouds 25 1015 88 9000 2.1 360 13:21 07.11.2019
2012 Clouds 24 1016 94 9000 3.1 360 12:59 07.11.2019
2013 Clouds 24 1016 94 9000 3.1 360 12:41 07.11.2019
2014 Clouds 24 1016 94 9000 3.1 360 12:22 07.11.2019
2015 Clouds 24 1016 94 9000 3.1 360 12:22 07.11.2019
2016 Clouds 23 1015 88 9000 1 160 11:59 07.11.2019
2017 Clouds 23 1015 88 9000 1 160 11:40 07.11.2019
2018 Clouds 23 1015 88 9000 1 160 11:22 07.11.2019
2019 Rain 22 1015 94 8000 1.5 170 10:42 07.11.2019
2020 Clouds 22 1015 88 6000 1.5 300 10:19 07.11.2019
2021 Clouds 22 1014 88 6000 2.6 190 09:45 07.11.2019
2022 -273 0 0 0 0 0 09:25 07.11.2019
2023 -273 0 0 0 0 0 08:59 07.11.2019
2024 -273 0 0 0 0 0 08:59 07.11.2019
2025 Clouds 22 1014 88 6000 2.6 180 08:40 07.11.2019
2026 Clouds 22 1014 88 6000 2.6 180 08:22 07.11.2019
2027 Clouds 22 1014 88 6000 2.1 180 07:56 07.11.2019
2028 Clouds 22 1014 88 6000 2.1 180 07:37 07.11.2019
2029 Clouds 23 1014 94 8000 2.6 170 07:18 07.11.2019
2030 Clouds 23 1014 94 8000 2.6 170 06:41 07.11.2019
2031 Clouds 23 1014 94 8000 2.6 170 06:41 07.11.2019
2032 Clouds 23 1014 94 8000 2.6 170 06:22 07.11.2019
2033 Clouds 23 1015 94 8000 2.6 170 05:47 07.11.2019
2034 Clouds 23 1015 94 8000 2.6 170 05:29 07.11.2019
2035 Clouds 23 1016 94 10000 2.6 180 04:49 07.11.2019
2036 Clouds 22 1016 94 10000 2.6 180 04:27 07.11.2019
2037 Rain 23 1016 94 9000 4.1 190 01:18 07.11.2019
2038 Rain 23 1016 94 9000 5.1 190 00:26 07.11.2019
2039 Clouds 23 1016 94 9000 4.1 180 23:50 06.11.2019
2040 Clouds 23 1016 94 9000 4.1 180 23:23 06.11.2019
2041 Clouds 23 1016 78 8000 2.1 120 22:59 06.11.2019
2042 Clouds 23 1016 100 9000 4.1 180 22:39 06.11.2019
2043 Clouds 23 1016 100 9000 4.1 180 22:20 06.11.2019
2044 Clouds 24 1015 83 9000 4.1 170 21:57 06.11.2019
2045 Clouds 24 1015 83 9000 4.1 170 21:39 06.11.2019
2046 Clouds 24 1015 83 9000 4.1 170 21:39 06.11.2019
2047 Clouds 24 1015 88 7000 5.7 180 21:19 06.11.2019
2048 Clouds 24 1015 88 7000 5.7 180 20:56 06.11.2019
2049 Clouds 24 1015 88 7000 5.7 180 20:38 06.11.2019
2050 Clouds 24 1015 88 7000 5.7 180 20:19 06.11.2019
2051 Clouds 25 1015 83 9000 5.7 180 19:56 06.11.2019
2052 Clouds 25 1015 83 9000 5.7 180 19:36 06.11.2019
2053 Clouds 25 1015 65 9000 5.7 210 19:18 06.11.2019
2054 Clouds 25 1015 83 9000 5.1 180 18:54 06.11.2019
2055 Clouds 26 1015 83 9000 5.1 180 18:36 06.11.2019
2056 Clouds 25 1015 83 9000 5.1 180 18:18 06.11.2019
2057 Clouds 26 1015 88 9000 6.2 190 17:41 06.11.2019
2058 Clouds 25 1015 88 9000 6.2 190 17:23 06.11.2019
2059 Clouds 25 1015 88 9000 3.6 210 16:57 06.11.2019
2060 Clouds 24 1015 88 9000 3.6 210 16:39 06.11.2019
2061 Clouds 24 1015 88 9000 3.6 210 16:20 06.11.2019
2062 Drizzle 24 1015 100 5000 5.7 180 15:57 06.11.2019
2063 Drizzle 24 1015 100 5000 5.7 180 15:37 06.11.2019
2064 Drizzle 25 1015 100 5000 5.7 180 15:19 06.11.2019
2065 Drizzle 25 1015 100 5000 5.7 180 15:19 06.11.2019
2066 Rain 25 1015 100 4000 4.1 190 14:57 06.11.2019
2067 Rain 25 1015 100 4000 4.1 190 14:39 06.11.2019
2068 Rain 26 1015 100 4000 4.1 190 14:20 06.11.2019
2069 Drizzle 26 1015 83 8000 4.1 200 13:58 06.11.2019
2070 Drizzle 26 1015 83 8000 4.1 200 13:37 06.11.2019
2071 Drizzle 26 1015 83 8000 4.1 200 13:18 06.11.2019
2072 Clouds 26 1014 78 10000 5.1 190 12:55 06.11.2019
2073 Clouds 27 1014 78 10000 5.1 190 12:37 06.11.2019
2074 Clouds 26 1014 78 10000 5.1 190 12:18 06.11.2019
2075 Clouds 26 1014 78 10000 4.6 200 11:55 06.11.2019
2076 Clouds 26 1014 78 10000 4.6 200 11:36 06.11.2019
2077 Clouds 26 1014 78 10000 4.6 200 11:18 06.11.2019
2078 Clouds 25 1013 83 10000 2.1 170 10:42 06.11.2019
2079 Clouds 25 1013 83 10000 2.1 170 10:24 06.11.2019
2080 Clouds 25 1013 78 10000 1.5 300 09:58 06.11.2019
2081 Clouds 25 1013 78 10000 1.5 300 09:58 06.11.2019
2082 Clouds 25 1013 78 10000 1.5 300 09:58 06.11.2019
2083 Clouds 25 1013 78 10000 1.5 300 09:40 06.11.2019
2084 Clouds 25 1013 78 10000 1.5 300 09:20 06.11.2019
2085 Clouds 25 1012 83 10000 2.1 250 08:56 06.11.2019
2086 Clouds 25 1012 83 10000 2.1 250 08:37 06.11.2019
2087 Clouds 25 1012 83 10000 2.1 250 08:18 06.11.2019
2088 Clouds 25 1012 83 10000 2.1 190 07:45 06.11.2019
2089 Clouds 26 1012 83 10000 2.1 190 07:27 06.11.2019
2090 Clouds 26 1012 78 10000 4.6 200 06:53 06.11.2019
2091 Clouds 26 1012 78 10000 4.6 200 06:34 06.11.2019
2092 Clouds 26 1013 78 10000 6.2 210 05:51 06.11.2019
2093 Clouds 28 1013 70 10000 5.1 200 03:39 06.11.2019
2094 Clouds 27 1013 83 10000 2.1 80 01:59 06.11.2019
2095 Clouds 27 1012 74 10000 2.1 150 00:48 06.11.2019
2096 Clouds 27 1012 74 10000 2.1 150 00:48 06.11.2019
2097 Clouds 27 1012 74 10000 2.1 150 00:26 06.11.2019
2098 Thunderstorm 28 1010 70 10000 4.1 190 23:56 05.11.2019
2099 Thunderstorm 28 1010 70 10000 4.1 190 23:37 05.11.2019
2100 Thunderstorm 28 1010 70 10000 4.1 190 23:18 05.11.2019
2101 Thunderstorm 28 1010 70 10000 4.1 190 23:18 05.11.2019
2102 Clouds 28 1009 78 10000 8.7 180 22:41 05.11.2019
2103 Clouds 28 1009 78 10000 8.7 180 22:19 05.11.2019
2104 Clouds 29 1007 74 10000 9.3 160 21:55 05.11.2019
2105 Clouds 29 1007 74 10000 9.3 160 21:55 05.11.2019
2106 Clouds 31 1007 74 10000 9.3 160 21:37 05.11.2019
2107 Clouds 31 1007 74 10000 9.3 160 21:19 05.11.2019
2108 Clouds 31 1006 70 10000 6.7 160 20:56 05.11.2019
2109 Clouds 32 1006 70 10000 6.7 160 20:38 05.11.2019
2110 Clouds 35 1005 62 10000 7.2 170 20:19 05.11.2019
2111 Clouds 35 1005 62 10000 7.2 170 19:42 05.11.2019
2112 Clouds 34 1005 62 10000 7.2 170 19:23 05.11.2019
2113 Clouds 35 1006 66 10000 6.2 160 18:59 05.11.2019
2114 Clouds 35 1006 66 10000 6.2 160 18:40 05.11.2019
2115 Clouds 35 1006 66 10000 6.2 160 18:22 05.11.2019
2116 Clouds 35 1006 74 10000 5.1 160 17:59 05.11.2019
2117 Clouds 35 1006 74 10000 5.1 160 17:39 05.11.2019
2118 Clouds 35 1006 74 10000 5.1 160 17:21 05.11.2019
2119 Clouds 35 1007 70 10000 6.2 150 16:59 05.11.2019
2120 Clouds 36 1007 70 10000 6.2 150 16:41 05.11.2019
2121 Clouds 35 1007 70 10000 6.2 150 16:20 05.11.2019
2122 Clouds 35 1007 70 10000 5.1 150 15:41 05.11.2019
2123 Clouds 34 1007 70 10000 5.1 150 15:20 05.11.2019
2124 Clouds 33 1008 74 10000 4.6 140 14:59 05.11.2019
2125 Clouds 32 1008 70 9000 2.1 20 14:41 05.11.2019
2126 Clouds 32 1008 70 9000 2.1 20 14:22 05.11.2019
2127 Clouds 32 1008 74 7000 2.6 40 13:58 05.11.2019
2128 Clouds 32 1008 74 7000 2.6 40 13:40 05.11.2019
2129 Clouds 31 1008 74 7000 2.6 40 13:22 05.11.2019
2130 Clouds 29 1008 74 7000 3.6 340 12:41 05.11.2019
2131 Clouds 28 1008 74 7000 3.6 340 12:22 05.11.2019
2132 Clouds 27 1008 78 7000 1.03 18 11:57 05.11.2019
2133 Clouds 25 1008 78 7000 1.03 18 11:38 05.11.2019
2134 Clouds 25 1008 78 7000 2.94 336 11:20 05.11.2019
2135 Clouds 23 1008 94 10000 1 120 10:55 05.11.2019
2136 Clouds 24 1008 94 10000 1 120 10:37 05.11.2019
2137 Clouds 24 1008 94 10000 1 120 10:18 05.11.2019
2138 Clouds 24 1007 100 10000 0.5 60 09:54 05.11.2019
2139 Clouds 24 1007 100 10000 0.5 60 09:36 05.11.2019
2140 Clouds 24 1007 100 10000 0.5 60 09:18 05.11.2019
2141 Clouds 24 1007 100 10000 0.5 30 08:38 05.11.2019
2142 Clouds 24 1007 100 10000 0.5 30 08:19 05.11.2019
2143 Clouds 24 1007 100 10000 3.1 340 07:55 05.11.2019
2144 Clouds 24 1007 100 10000 3.1 340 07:37 05.11.2019
2145 Clouds 24 1007 100 10000 3.1 340 07:19 05.11.2019
2146 Clouds 24 1007 94 10000 1.5 310 06:43 05.11.2019
2147 Clouds 24 1007 94 10000 1.5 310 06:43 05.11.2019
2148 Clouds 25 1007 94 10000 2.1 120 05:51 05.11.2019
2149 Clear 25 1007 94 10000 2.1 120 05:22 05.11.2019
2150 Clear 25 1008 78 10000 1 0 04:24 05.11.2019
2151 Clear 25 1008 94 10000 0.5 360 03:33 05.11.2019
2152 Clear 25 1009 94 10000 1 190 02:43 05.11.2019
2153 Clear 25 1008 83 10000 3.1 180 01:57 05.11.2019
2154 Clear 25 1008 83 10000 4.1 180 00:49 05.11.2019
2155 Clear 26 1008 83 10000 4.1 180 00:27 05.11.2019
2156 Clear 26 1007 88 10000 4.6 190 23:54 04.11.2019
2157 Clear 26 1007 88 10000 4.6 190 23:36 04.11.2019
2158 Clear 26 1007 88 10000 4.6 190 23:18 04.11.2019
2159 Clear 26 1007 94 10000 6.2 170 22:40 04.11.2019
2160 Clear 27 1007 94 10000 6.2 170 22:22 04.11.2019
2161 Clouds 27 1007 88 10000 7.2 170 21:56 04.11.2019
2162 Clouds 27 1007 88 10000 7.2 170 21:37 04.11.2019
2163 Clouds 28 1007 88 10000 7.2 170 21:19 04.11.2019
2164 Clouds 28 1007 83 10000 7.2 170 20:58 04.11.2019
2165 Clouds 28 1007 83 10000 7.2 170 20:39 04.11.2019
2166 Clouds 29 1007 83 10000 7.2 170 20:21 04.11.2019
2167 Clouds 29 1007 78 10000 7.7 160 19:58 04.11.2019
2168 Clouds 29 1007 78 10000 7.7 160 19:40 04.11.2019
2169 Clouds 30 1007 78 10000 7.7 160 19:21 04.11.2019
2170 Clouds 30 1007 78 10000 7.2 160 18:57 04.11.2019
2171 Clouds 30 1007 78 10000 7.2 160 18:38 04.11.2019
2172 Clouds 30 1007 78 10000 7.2 160 18:19 04.11.2019
2173 Clouds 30 1008 74 10000 7.7 150 17:39 04.11.2019
2174 Clouds 30 1008 74 10000 7.7 150 17:39 04.11.2019
2175 Clear 30 1008 74 10000 7.7 150 17:21 04.11.2019
2176 Clear 30 1009 74 10000 4.6 150 16:57 04.11.2019
2177 Clear 30 1009 74 10000 4.6 150 16:39 04.11.2019
2178 Clear 30 1009 74 10000 4.6 150 16:20 04.11.2019
2179 Clear 29 1009 74 10000 4.1 150 15:55 04.11.2019
2180 Clear 29 1009 74 10000 4.1 150 15:36 04.11.2019
2181 Clear 29 1009 74 10000 4.1 150 15:18 04.11.2019
2182 Clear 29 1010 74 10000 5.1 150 14:41 04.11.2019
2183 Clouds 29 1010 74 10000 5.1 150 14:21 04.11.2019
2184 Clouds 29 1010 70 10000 3.6 170 13:59 04.11.2019
2185 Clouds 29 1010 70 10000 3.6 170 13:41 04.11.2019
2186 Clouds 28 1010 70 10000 3.6 170 13:22 04.11.2019
2187 Clouds 28 1010 69 10000 3.1 160 12:59 04.11.2019
2188 Clouds 27 1010 69 10000 3.1 160 12:41 04.11.2019
2189 Clouds 26 1010 69 10000 3.1 160 12:22 04.11.2019
2190 Clouds 26 1010 74 10000 2.6 180 11:57 04.11.2019
2191 Clouds 27 1010 78 10000 2.6 40 11:38 04.11.2019
2192 Clouds 24 1010 78 10000 2.6 40 11:20 04.11.2019
2193 Clouds 24 1009 88 10000 3.1 330 10:44 04.11.2019
2194 Clouds 23 1009 88 10000 3.1 330 10:25 04.11.2019
2195 Clouds 25 1009 88 10000 5.29 252 09:54 04.11.2019
2196 Clouds 25 1009 88 10000 5.29 252 09:36 04.11.2019
2197 Clouds 25 1009 88 10000 5.29 252 09:18 04.11.2019
2198 Clouds 24 1008 100 10000 4.1 140 08:41 04.11.2019
2199 Clear 24 1008 100 10000 4.1 140 08:21 04.11.2019
2200 Clear 25 1008 100 10000 2.1 150 07:45 04.11.2019
2201 Clear 25 1008 100 10000 2.1 150 07:25 04.11.2019
2202 Clouds 25 1008 94 10000 1 150 06:59 04.11.2019
2203 Clouds 25 1008 94 10000 1 150 06:36 04.11.2019
2204 Clear 25 1008 94 10000 1.5 150 05:59 04.11.2019
2205 Clear 25 1008 94 10000 1.5 160 04:50 04.11.2019
2206 Clear 25 1008 94 10000 1.5 160 04:25 04.11.2019
2207 Clear 25 1008 94 10000 1.5 140 03:23 04.11.2019
2208 Clear 26 1008 88 10000 1 130 01:23 04.11.2019
2209 Clouds 27 1007 62 10000 4.6 190 00:52 04.11.2019
2210 Clouds 27 1007 62 10000 4.6 190 00:21 04.11.2019
2211 Clouds 27 1007 65 10000 4.1 180 23:58 03.11.2019
2212 Clouds 27 1007 65 10000 4.1 180 23:37 03.11.2019
2213 Clouds 27 1007 65 10000 4.1 180 23:18 03.11.2019
2214 Clouds 27 1007 65 10000 4.1 180 23:18 03.11.2019
2215 Clouds 27 1007 65 10000 4.1 180 23:18 03.11.2019
2216 Clouds 28 1006 62 10000 6.7 180 22:56 03.11.2019
2217 Clouds 28 1006 62 10000 6.7 180 22:38 03.11.2019
2218 Clouds 29 1006 62 10000 6.7 180 22:18 03.11.2019
2219 Clouds 29 1006 66 10000 6.2 170 21:42 03.11.2019
2220 Clouds 30 1006 55 10000 5.7 130 21:21 03.11.2019
2221 Clouds 31 1006 66 10000 5.7 170 20:57 03.11.2019
2222 Clouds 29 1005 49 10000 6.2 130 20:37 03.11.2019
2223 Clouds 32 1005 49 10000 6.2 130 20:19 03.11.2019
2224 Clouds 33 1006 58 10000 6.7 160 19:57 03.11.2019
2225 Clouds 33 1006 58 10000 6.7 160 19:38 03.11.2019
2226 Clear 33 1006 34 10000 5.1 50 19:20 03.11.2019
2227 Clouds 33 1006 52 10000 4.1 160 18:55 03.11.2019
2228 Clear 30 1006 36 10000 3.6 30 18:36 03.11.2019
2229 Clear 35 1006 36 10000 3.6 30 18:18 03.11.2019
2230 Clear 35 1006 55 10000 4.1 30 17:42 03.11.2019
2231 Clear 34 1006 55 10000 4.1 30 17:20 03.11.2019
2232 Clear 34 1007 55 10000 5.1 30 16:57 03.11.2019
2233 Clear 32 1007 55 10000 5.1 30 16:39 03.11.2019
2234 Clear 33 1007 55 10000 5.1 30 16:21 03.11.2019
2235 Clear 33 1008 70 10000 3.6 20 15:57 03.11.2019
2236 Clear 33 1008 70 10000 3.6 20 15:39 03.11.2019
2237 Clear 33 1008 70 10000 3.6 20 15:39 03.11.2019
2238 Clear 32 1008 70 10000 3.6 20 15:21 03.11.2019
2239 Clear 32 1009 70 10000 3.1 10 14:42 03.11.2019
2240 Clouds 31 1009 70 10000 3.1 10 14:20 03.11.2019
2241 Clouds 30 1010 66 10000 3.1 360 13:59 03.11.2019
2242 Clouds 30 1010 66 10000 3.1 360 13:40 03.11.2019
2243 Clouds 29 1010 66 10000 3.1 360 13:18 03.11.2019
2244 Clouds 27 1010 74 10000 2.6 10 12:54 03.11.2019
2245 Clouds 26 1010 74 10000 2.6 10 12:36 03.11.2019
2246 Clouds 25 1010 83 10000 2.1 350 12:18 03.11.2019
2247 Clouds 25 1010 83 10000 2.1 350 11:42 03.11.2019
2248 Clouds 23 1010 83 10000 2.1 350 11:21 03.11.2019
2249 Clouds 23 1010 88 10000 1.5 330 10:55 03.11.2019
2250 Clouds 22 1010 88 10000 1.5 330 10:37 03.11.2019
2251 Clouds 23 1010 88 10000 1.5 330 10:18 03.11.2019
2252 Clouds 22 1009 88 10000 1 330 09:43 03.11.2019
2253 Clouds 22 1009 88 10000 1 330 09:43 03.11.2019
2254 Clouds 21 1009 88 10000 1 330 09:24 03.11.2019
2255 Clouds 21 1010 88 10000 1 10 08:56 03.11.2019
2256 Clear 20 1010 88 10000 1 10 08:37 03.11.2019
2257 Clear 21 1010 88 10000 1 10 08:19 03.11.2019
2258 Clear 21 1010 94 10000 1 350 07:45 03.11.2019
2259 Clear 21 1010 94 10000 1 350 07:45 03.11.2019
2260 Clear 21 1010 94 10000 1 350 07:22 03.11.2019
2261 Clear 20 1011 94 10000 1.5 70 06:39 03.11.2019
2262 Clouds 22 1011 88 10000 1.5 100 05:54 03.11.2019
2263 Clouds 22 1011 88 10000 1.5 100 05:34 03.11.2019
2264 Clouds 22 1012 94 10000 1.5 100 04:53 03.11.2019
2265 Clouds 23 1012 94 10000 1.5 100 04:26 03.11.2019
2266 Clouds 23 1013 94 10000 2.1 50 03:23 03.11.2019
2267 Clouds 25 1013 83 10000 1.5 50 02:29 03.11.2019
2268 Clouds 25 1013 88 10000 3.1 60 01:57 03.11.2019
2269 Clouds 23 1013 88 10000 3.1 60 01:36 03.11.2019
2270 Clouds 24 1013 88 10000 3.1 60 01:18 03.11.2019
2271 Clouds 23 1013 83 10000 3.6 80 00:40 03.11.2019
2272 Clouds 26 1013 83 10000 3.6 80 00:21 03.11.2019
2273 Clouds 26 1013 78 10000 3.1 70 23:56 02.11.2019
2274 Clouds 27 1013 78 10000 3.1 70 23:36 02.11.2019
2275 Clouds 27 1013 78 10000 3.1 70 23:18 02.11.2019
2276 Clouds 27 1012 78 10000 5.7 60 22:54 02.11.2019
2277 Clouds 28 1012 78 10000 5.7 60 22:36 02.11.2019
2278 Clouds 28 1012 78 10000 5.7 60 22:18 02.11.2019
2279 Clouds 28 1012 78 10000 5.7 60 22:18 02.11.2019
2280 Clouds 29 1012 74 10000 6.7 60 21:55 02.11.2019
2281 Clouds 30 1012 78 10000 5.1 110 21:36 02.11.2019
2282 Clouds 29 1012 78 10000 5.1 110 21:18 02.11.2019
2283 Clouds 29 1012 78 10000 5.1 110 21:18 02.11.2019
2284 Clouds 30 1012 70 10000 5.1 130 20:56 02.11.2019
2285 Clouds 30 1012 70 10000 5.1 130 20:56 02.11.2019
2286 Clouds 28 1012 70 10000 5.1 130 20:38 02.11.2019
2287 Clouds 30 1012 70 10000 5.1 130 20:18 02.11.2019
2288 Clouds 28 1011 74 10000 4.1 150 19:40 02.11.2019
2289 Clouds 30 1011 74 10000 4.1 150 19:21 02.11.2019
2290 Clouds 30 1012 74 10000 4.6 160 18:56 02.11.2019
2291 Clouds 28 1012 74 10000 4.6 160 18:37 02.11.2019
2292 Clouds 30 1012 74 10000 4.6 160 18:19 02.11.2019
2293 Clouds 29 1014 70 10000 4.1 150 17:56 02.11.2019
2294 Clouds 30 1014 70 10000 4.1 150 17:37 02.11.2019
2295 Clouds 29 1014 70 10000 4.1 150 17:19 02.11.2019
2296 Clouds 29 1015 83 10000 4.6 170 16:56 02.11.2019
2297 Clouds 27 1015 83 10000 4.6 170 16:36 02.11.2019
2298 Clouds 29 1015 83 10000 4.6 170 16:18 02.11.2019
2299 Clouds 29 1015 83 10000 4.6 170 16:18 02.11.2019
2300 Clouds 28 1016 83 10000 2.1 140 15:41 02.11.2019
2301 Clouds 28 1016 83 10000 2.1 140 15:19 02.11.2019
2302 Clouds 27 1017 78 10000 3.1 90 14:42 02.11.2019
2303 Clouds 27 1017 78 10000 3.1 90 14:23 02.11.2019
2304 Clouds 27 1017 83 10000 2.1 180 13:57 02.11.2019
2305 Clouds 26 1017 83 10000 2.1 180 13:38 02.11.2019
2306 Clouds 26 1017 83 10000 2.1 180 13:18 02.11.2019
2307 Clouds 25 1017 88 10000 2.6 140 12:41 02.11.2019
2308 Clouds 25 1017 88 10000 2.6 140 12:22 02.11.2019
2309 Clouds 25 1017 88 10000 2.6 140 12:22 02.11.2019
2310 Clouds 25 1017 88 10000 2.6 140 12:22 02.11.2019
2311 Clouds 24 1017 88 10000 2.6 80 11:57 02.11.2019
2312 Clouds 24 1017 88 10000 2.6 80 11:39 02.11.2019
2313 Clouds 23 1017 88 10000 2.6 80 11:20 02.11.2019
2314 Clouds 22 1017 94 10000 4.1 70 10:48 02.11.2019
2315 Clouds 21 1017 94 10000 4.1 70 10:28 02.11.2019
2316 Clouds 22 1016 100 10000 3.1 120 09:58 02.11.2019
2317 Clouds 21 1016 100 10000 3.1 120 09:39 02.11.2019
2318 Clouds 22 1016 100 10000 3.1 120 09:19 02.11.2019
2319 Clouds 22 1015 100 10000 3.1 130 08:46 02.11.2019
2320 Clouds 22 1015 100 10000 3.1 130 08:22 02.11.2019
2321 Clouds 22 1015 94 10000 2.1 150 07:50 02.11.2019
2322 Clouds 22 1015 94 10000 2.1 150 07:32 02.11.2019
2323 Clouds 23 1016 94 10000 2.1 160 06:58 02.11.2019
2324 Clouds 23 1016 94 10000 2.1 160 06:39 02.11.2019
2325 Clouds 22 1016 94 10000 2.6 160 05:59 02.11.2019
2326 Clouds 23 1016 94 10000 2.6 160 05:25 02.11.2019
2327 Clouds 23 1016 94 10000 1.5 140 04:23 02.11.2019
2328 Clouds 23 1017 100 10000 2.6 170 03:50 02.11.2019
2329 Rain 25 1017 100 10000 2.6 170 02:44 02.11.2019
2330 Rain 25 1017 100 6000 2.1 170 01:57 02.11.2019
2331 Clouds 25 1017 100 10000 2.6 160 01:25 02.11.2019
2332 Clouds 25 1016 100 10000 4.6 170 00:54 02.11.2019
2333 Clouds 25 1016 100 10000 4.6 170 00:27 02.11.2019
2334 Clouds 25 1016 100 10000 3.6 160 23:48 01.11.2019
2335 Clouds 26 1016 100 10000 3.6 160 23:23 01.11.2019
2336 Clouds 26 1016 100 10000 4.1 160 22:59 01.11.2019
2337 Clouds 23 1016 94 10000 5.1 160 22:40 01.11.2019
2338 Clouds 26 1016 94 10000 5.1 160 22:20 01.11.2019
2339 Clouds 25 1015 88 10000 5.1 160 21:42 01.11.2019
2340 Clouds 27 1015 88 10000 5.1 160 21:23 01.11.2019
2341 Clouds 27 1015 78 10000 6.7 170 20:58 01.11.2019
2342 Clouds 27 1015 78 10000 6.7 170 20:40 01.11.2019
2343 Clouds 27 1015 78 10000 6.7 170 20:20 01.11.2019
2344 Clouds 27 1015 74 10000 6.7 170 19:56 01.11.2019
2345 Clouds 27 1015 74 10000 6.7 170 19:38 01.11.2019
2346 Clouds 28 1015 74 10000 6.7 170 19:20 01.11.2019
2347 Clouds 28 1015 70 10000 6.7 170 18:40 01.11.2019
2348 Clouds 29 1015 70 10000 6.7 170 18:21 01.11.2019
2349 Clouds 28 1016 66 10000 7.2 170 17:56 01.11.2019
2350 Clouds 27 1016 66 10000 7.2 170 17:38 01.11.2019
2351 Clouds 29 1016 66 10000 7.2 170 17:19 01.11.2019
2352 Clouds 28 1016 62 10000 7.2 160 16:38 01.11.2019
2353 Clouds 28 1016 62 10000 7.2 160 16:20 01.11.2019
2354 Clouds 28 1016 78 10000 3.6 140 15:55 01.11.2019
2355 Clouds 26 1016 78 10000 3.6 140 15:37 01.11.2019
2356 Clouds 27 1016 78 10000 3.6 140 15:19 01.11.2019
2357 Clouds 28 1017 74 10000 5.1 170 14:42 01.11.2019
2358 Clouds 27 1017 74 10000 5.1 170 14:24 01.11.2019
2359 Clouds 27 1017 78 10000 4.6 160 13:57 01.11.2019
2360 Clouds 26 1017 78 10000 4.6 160 13:39 01.11.2019
2361 Clouds 26 1017 78 10000 4.6 160 13:20 01.11.2019
2362 Clouds 26 1016 83 10000 5.1 170 12:43 01.11.2019
2363 Clouds 26 1016 83 10000 5.1 170 12:25 01.11.2019
2364 Clouds 26 1016 83 10000 4.1 180 11:59 01.11.2019
2365 Clouds 26 1016 83 10000 4.1 180 11:40 01.11.2019
2366 Clouds 25 1016 83 10000 4.1 180 11:22 01.11.2019
2367 Clouds 25 1015 88 10000 3.1 180 10:42 01.11.2019
2368 Clouds 23 1015 88 10000 3.1 180 10:22 01.11.2019
2369 Clouds 23 1014 94 10000 3.6 190 09:57 01.11.2019
2370 Clouds 22 1014 94 10000 3.6 190 09:39 01.11.2019
2371 Clouds 22 1014 94 10000 3.6 190 09:20 01.11.2019
2372 Clouds 23 1014 94 10000 4.1 180 08:44 01.11.2019
2373 Clouds 23 1014 94 10000 4.1 180 08:22 01.11.2019
2374 Clouds 23 1013 88 10000 1.5 320 07:56 01.11.2019
2375 Clouds 23 1013 88 10000 1.5 320 07:37 01.11.2019
2376 Clouds 23 1013 88 10000 1.5 320 07:19 01.11.2019
2377 Clouds 23 1013 94 10000 2.6 50 06:46 01.11.2019
2378 Clouds 24 1013 94 10000 2.6 50 06:22 01.11.2019
2379 Clouds 24 1014 94 10000 2.1 40 05:43 01.11.2019
2380 Clouds 24 1015 83 10000 5.1 200 03:57 01.11.2019
2381 Clouds 25 1015 83 10000 3.1 170 02:49 01.11.2019
2382 Clouds 25 1015 83 10000 3.1 170 02:49 01.11.2019
2383 Clouds 26 1015 78 10000 4.1 170 01:35 01.11.2019
2384 Clouds 26 1014 83 10000 4.1 180 00:42 01.11.2019
2385 Clouds 26 1014 83 10000 4.1 180 00:18 01.11.2019
2386 Clouds 27 1013 69 10000 4.1 190 23:43 31.10.2019
2387 Clouds 26 1013 69 10000 4.1 190 23:23 31.10.2019
2388 Clouds 27 1012 69 10000 4.6 200 22:57 31.10.2019
2389 Clouds 26 1012 69 10000 4.6 200 22:39 31.10.2019
2390 Clouds 28 1012 69 10000 4.6 200 22:20 31.10.2019
2391 Clouds 28 1012 66 10000 5.7 190 21:44 31.10.2019
2392 Clouds 29 1012 66 10000 5.7 190 21:21 31.10.2019
2393 Clouds 29 1011 62 10000 6.2 190 20:57 31.10.2019
2394 Clouds 28 1011 62 10000 6.2 190 20:39 31.10.2019
2395 Clouds 30 1011 62 10000 6.2 190 20:20 31.10.2019
2396 Clouds 29 1011 66 9000 6.7 190 19:42 31.10.2019
2397 Clouds 29 1011 66 9000 6.7 190 19:22 31.10.2019
2398 Clouds 29 1012 66 9000 5.7 200 18:57 31.10.2019
2399 Clouds 29 1012 66 9000 5.7 200 18:57 31.10.2019
2400 Clouds 30 1012 66 9000 5.7 200 18:39 31.10.2019
2401 Clouds 28 1012 66 9000 5.7 200 18:20 31.10.2019
2402 Clouds 29 1013 70 8000 6.7 190 17:42 31.10.2019
2403 Clouds 29 1013 70 8000 6.7 190 17:42 31.10.2019
2404 Clouds 30 1013 70 8000 6.7 190 17:22 31.10.2019
2405 Clouds 30 1013 70 8000 9.8 180 16:59 31.10.2019
2406 Clouds 30 1013 74 8000 3.1 140 16:40 31.10.2019
2407 Clouds 31 1013 74 8000 3.1 140 16:20 31.10.2019
2408 Clouds 31 1013 83 8000 2.1 120 15:56 31.10.2019
2409 Clouds 30 1013 83 8000 2.1 120 15:38 31.10.2019
2410 Clouds 29 1013 83 8000 2.1 120 15:19 31.10.2019
2411 Clouds 29 1014 83 8000 2.6 140 14:56 31.10.2019
2412 Clouds 29 1014 88 8000 2.6 360 14:38 31.10.2019
2413 Clouds 29 1014 88 8000 2.6 360 14:20 31.10.2019
2414 Clouds 30 1014 88 8000 2.1 360 13:55 31.10.2019
2415 Clouds 28 1014 88 8000 2.1 360 13:37 31.10.2019
2416 Clouds 28 1014 88 8000 2.1 360 13:19 31.10.2019
2417 Clouds 27 1014 94 9000 1.5 360 12:43 31.10.2019
2418 Clouds 27 1014 94 9000 1.5 360 12:24 31.10.2019
2419 Clouds 27 1014 88 10000 1 70 11:58 31.10.2019
2420 Clouds 27 1014 88 10000 1 70 11:40 31.10.2019
2421 Clouds 24 1014 88 10000 1 70 11:19 31.10.2019
2422 Clouds 24 1012 100 10000 0.5 350 10:57 31.10.2019
2423 Clouds 24 1012 100 10000 0.5 350 10:38 31.10.2019
2424 Clouds 24 1012 100 10000 0.5 350 10:19 31.10.2019
2425 Clouds 23 1012 100 10000 1 330 09:43 31.10.2019
2426 Clouds 23 1012 100 10000 1 330 09:19 31.10.2019
2427 Clouds 23 1011 100 10000 1.5 320 08:55 31.10.2019
2428 Clouds 22 1011 100 10000 1.5 320 08:36 31.10.2019
2429 Clouds 22 1011 100 10000 1.5 320 08:18 31.10.2019
2430 Clouds 23 1011 94 10000 1.5 310 07:42 31.10.2019
2431 Clouds 23 1011 94 10000 1.5 310 07:42 31.10.2019
2432 Clouds 23 1011 94 10000 1.5 310 07:23 31.10.2019
2433 Clouds 24 1011 100 10000 1.5 340 06:39 31.10.2019
2434 Clouds 23 1011 100 10000 1.5 340 06:20 31.10.2019
2435 Clouds 24 1012 100 10000 3.6 360 04:35 31.10.2019
2436 Clouds 24 1013 100 10000 3.1 140 02:46 31.10.2019
2437 Clouds 25 1013 94 10000 3.1 160 01:53 31.10.2019
2438 Clouds 25 1013 94 10000 3.1 160 01:53 31.10.2019
2439 Rain 26 1013 94 10000 5.1 150 00:42 31.10.2019
2440 Rain 25 1013 94 10000 5.1 150 00:23 31.10.2019
2441 Clouds 26 1012 94 10000 5.1 150 23:34 30.10.2019
2442 Clouds 27 1011 78 10000 5.1 170 22:59 30.10.2019
2443 Clouds 27 1011 78 10000 5.1 170 22:39 30.10.2019
2444 Clouds 27 1011 78 10000 5.1 170 22:19 30.10.2019
2445 Clouds 27 1011 74 10000 4.1 170 21:54 30.10.2019
2446 Clouds 28 1011 74 10000 4.1 170 21:36 30.10.2019
2447 Clouds 28 1011 74 10000 4.1 170 21:18 30.10.2019
2448 Clouds 29 1011 69 10000 4.6 160 20:56 30.10.2019
2449 Clouds 29 1011 69 10000 4.6 160 20:56 30.10.2019
2450 Clouds 27 1011 69 10000 4.6 160 20:36 30.10.2019
2451 Clouds 27 1011 69 10000 4.6 160 20:36 30.10.2019
2452 Clouds 29 1011 69 10000 4.6 160 20:18 30.10.2019
2453 Clouds 29 1011 69 10000 4.6 160 20:18 30.10.2019
2454 Clouds 29 1010 66 10000 5.7 160 19:42 30.10.2019
2455 Clouds 29 1010 66 10000 5.7 160 19:23 30.10.2019
2456 Clouds 29 1010 69 10000 6.2 160 18:59 30.10.2019
2457 Clouds 28 1010 69 10000 6.2 160 18:38 30.10.2019
2458 Clouds 28 1010 69 10000 6.2 160 18:38 30.10.2019
2459 Clouds 29 1010 69 10000 6.2 160 18:19 30.10.2019
2460 Clouds 29 1010 69 10000 6.2 160 18:19 30.10.2019
2461 Clouds 29 1011 74 10000 6.2 150 17:55 30.10.2019
2462 Clouds 28 1011 74 10000 6.2 150 17:37 30.10.2019
2463 Clouds 28 1011 74 10000 6.2 150 17:37 30.10.2019
2464 Clouds 29 1011 74 10000 6.2 150 17:18 30.10.2019
2465 Clouds 30 1011 74 10000 5.1 140 16:42 30.10.2019
2466 Clouds 30 1011 74 10000 5.1 140 16:24 30.10.2019
2467 Clouds 30 1011 74 10000 5.1 140 16:24 30.10.2019
2468 Clouds 30 1011 62 10000 5.1 150 16:00 30.10.2019
2469 Clouds 30 1011 62 10000 5.1 150 15:40 30.10.2019
2470 Clouds 30 1011 62 10000 5.1 150 15:21 30.10.2019
2471 Clouds 30 1011 70 10000 4.1 140 14:59 30.10.2019
2472 Clouds 29 1011 70 10000 4.1 140 14:41 30.10.2019
2473 Clouds 28 1011 70 10000 4.1 140 14:22 30.10.2019
2474 Clouds 28 1012 78 10000 1.5 30 13:57 30.10.2019
2475 Clouds 28 1012 78 10000 1.5 30 13:39 30.10.2019
2476 Clouds 27 1012 78 10000 1.5 30 13:19 30.10.2019
2477 Clouds 28 1011 83 10000 4.6 350 12:46 30.10.2019
2478 Clouds 27 1011 83 10000 4.6 350 12:28 30.10.2019
2479 Clouds 27 1011 83 10000 4.6 350 12:28 30.10.2019
2480 Clouds 27 1011 88 10000 3.6 350 11:59 30.10.2019
2481 Clouds 27 1011 88 10000 3.6 350 11:41 30.10.2019
2482 Clouds 25 1011 88 10000 3.6 350 11:21 30.10.2019
2483 Clouds 25 1010 88 10000 1.5 330 10:43 30.10.2019
2484 Clouds 24 1010 88 10000 1.5 330 10:23 30.10.2019
2485 Clouds 24 1010 88 10000 2.6 330 09:43 30.10.2019
2486 Clouds 23 1010 88 10000 2.6 330 09:24 30.10.2019
2487 Clouds 24 1009 94 10000 3.1 30 08:58 30.10.2019
2488 Clouds 24 1009 94 10000 3.1 30 08:40 30.10.2019
2489 Clouds 24 1009 94 10000 3.1 30 08:21 30.10.2019
2490 Clouds 24 1009 83 10000 2.1 360 07:47 30.10.2019
2491 Clouds 24 1009 83 10000 2.1 360 07:28 30.10.2019
2492 Clouds 24 1009 88 10000 3.6 360 06:43 30.10.2019
2493 Clouds 24 1009 88 10000 3.6 360 06:22 30.10.2019
2494 Clouds 25 1010 61 10000 3.6 320 05:46 30.10.2019
2495 Clouds 24 1010 61 10000 3.6 320 05:24 30.10.2019
2496 Clouds 24 1011 69 10000 3.6 310 03:46 30.10.2019
2497 Clouds 24 1011 69 10000 3.6 310 03:18 30.10.2019
2498 Rain 26 1011 65 10000 5.7 300 02:19 30.10.2019
2499 Thunderstorm 27 1011 66 10000 7.2 310 01:34 30.10.2019
2500 Thunderstorm 27 1010 74 10000 3.1 310 00:31 30.10.2019
2501 Thunderstorm 26 1009 83 10000 3.1 140 23:47 29.10.2019
2502 Thunderstorm 26 1009 83 10000 3.1 140 23:28 29.10.2019
2503 Clouds 28 1008 69 10000 4.6 170 22:57 29.10.2019
2504 Clouds 29 1008 69 10000 4.6 170 22:38 29.10.2019
2505 Clouds 29 1008 69 10000 4.6 170 22:18 29.10.2019
2506 Clouds 29 1008 69 10000 4.6 170 22:18 29.10.2019
2507 Clouds 28 1007 69 10000 6.2 160 21:54 29.10.2019
2508 Clouds 29 1007 69 10000 6.2 160 21:36 29.10.2019
2509 Clouds 29 1007 69 10000 6.2 160 21:18 29.10.2019
2510 Clouds 31 1007 58 10000 6.2 170 20:41 29.10.2019
2511 Clouds 32 1007 58 10000 6.2 170 20:21 29.10.2019
2512 Clouds 33 1007 52 10000 6.7 170 19:58 29.10.2019
2513 Clouds 33 1007 52 10000 6.7 170 19:39 29.10.2019
2514 Clouds 34 1007 52 10000 6.7 170 19:20 29.10.2019
2515 Clouds 34 1007 66 10000 2.1 120 18:57 29.10.2019
2516 Clouds 32 1007 66 10000 2.1 120 18:38 29.10.2019
2517 Clouds 33 1007 66 10000 2.1 120 18:19 29.10.2019
2518 Clouds 33 1008 49 10000 2.6 130 17:56 29.10.2019
2519 Clouds 32 1008 39 10000 3.1 310 17:37 29.10.2019
2520 Clouds 35 1008 39 10000 3.1 310 17:19 29.10.2019
2521 Clouds 34 1009 63 10000 3.1 350 16:41 29.10.2019
2522 Clouds 33 1009 63 10000 3.1 350 16:22 29.10.2019
2523 Clouds 32 1010 70 10000 2.6 350 15:58 29.10.2019
2524 Clouds 31 1010 70 10000 2.6 350 15:39 29.10.2019
2525 Clouds 31 1010 70 10000 2.6 350 15:20 29.10.2019
2526 Clouds 30 1010 79 10000 3.1 360 14:56 29.10.2019
2527 Clouds 28 1010 79 10000 3.1 360 14:38 29.10.2019
2528 Clouds 30 1010 79 10000 3.1 360 14:19 29.10.2019
2529 Clouds 29 1010 74 10000 3.6 350 13:40 29.10.2019
2530 Clouds 29 1010 74 10000 3.6 350 13:22 29.10.2019
2531 Clouds 29 1010 70 10000 2.1 350 12:56 29.10.2019
2532 Clouds 28 1010 70 10000 2.1 350 12:37 29.10.2019
2533 Clouds 27 1010 70 10000 2.1 350 12:19 29.10.2019
2534 Clouds 27 1010 83 10000 1 30 11:43 29.10.2019
2535 Clouds 25 1010 83 10000 1 30 11:23 29.10.2019
2536 Clouds 24 1009 88 10000 2.6 360 10:59 29.10.2019
2537 Clouds 24 1009 88 10000 2.6 360 10:40 29.10.2019
2538 Clouds 23 1009 88 10000 2.6 360 10:20 29.10.2019
2539 Clouds 22 1009 88 10000 1 350 09:59 29.10.2019
2540 Clouds 22 1009 88 10000 1 350 09:41 29.10.2019
2541 Clouds 22 1009 88 10000 1 350 09:22 29.10.2019
2542 Clouds 22 1009 83 10000 0.5 100 08:54 29.10.2019
2543 Clouds 23 1009 83 10000 0.5 100 08:36 29.10.2019
2544 Clouds 22 1009 83 10000 0.5 100 08:18 29.10.2019
2545 Clouds 23 1008 88 10000 1 360 07:47 29.10.2019
2546 Clouds 22 1008 88 10000 1 360 07:19 29.10.2019
2547 Clouds 23 1010 88 10000 2.6 360 06:46 29.10.2019
2548 Clouds 23 1010 88 10000 2.6 360 06:26 29.10.2019
2549 Clouds 24 1011 83 10000 2.6 330 05:52 29.10.2019
2550 Clouds 24 1011 83 10000 2.6 330 05:34 29.10.2019
2551 Clouds 23 1012 88 10000 1.5 180 04:33 29.10.2019
2552 Thunderstorm 24 1012 88 10000 3.1 150 02:34 29.10.2019
2553 Thunderstorm 25 1012 78 10000 7.7 170 01:55 29.10.2019
2554 Thunderstorm 25 1012 78 10000 7.7 170 01:33 29.10.2019
2555 Thunderstorm 26 1011 78 10000 4.6 170 00:51 29.10.2019
2556 Thunderstorm 27 1010 70 10000 1.5 330 23:58 28.10.2019
2557 Thunderstorm 27 1009 70 10000 3.6 190 23:37 28.10.2019
2558 Thunderstorm 28 1009 70 10000 3.6 190 23:19 28.10.2019
2559 Clouds 29 1008 74 10000 6.2 190 22:39 28.10.2019
2560 Clouds 29 1008 74 10000 6.2 190 22:20 28.10.2019
2561 Clouds 29 1008 74 10000 4.1 170 21:57 28.10.2019
2562 Clouds 31 1008 74 10000 4.1 170 21:39 28.10.2019
2563 Clouds 31 1008 74 10000 4.1 170 21:21 28.10.2019
2564 Clouds 32 1008 62 10000 6.2 160 20:57 28.10.2019
2565 Clouds 32 1008 62 10000 6.2 160 20:39 28.10.2019
2566 Clouds 33 1008 62 10000 6.2 160 20:20 28.10.2019
2567 Clouds 34 1008 62 10000 6.7 160 19:54 28.10.2019
2568 Clouds 31 1008 62 10000 6.7 160 19:36 28.10.2019
2569 Clouds 34 1008 62 10000 6.7 160 19:18 28.10.2019
2570 Clouds 33 1009 79 10000 6.7 170 18:56 28.10.2019
2571 Clouds 32 1009 79 10000 6.7 170 18:38 28.10.2019
2572 Clouds 31 1009 79 10000 6.7 170 18:20 28.10.2019
2573 Clouds 31 1011 83 10000 6.2 150 17:55 28.10.2019
2574 Clouds 29 1011 83 10000 6.2 150 17:36 28.10.2019
2575 Clouds 30 1011 83 10000 6.2 150 17:18 28.10.2019
2576 Clouds 30 1011 83 10000 6.2 150 17:18 28.10.2019
2577 Clouds 30 1011 83 10000 6.2 150 17:18 28.10.2019
2578 Clouds 30 1012 83 10000 6.2 140 16:54 28.10.2019
2579 Clouds 29 1012 83 10000 6.2 140 16:36 28.10.2019
2580 Clouds 30 1012 83 10000 6.2 140 16:18 28.10.2019
2581 Clouds 30 1012 66 10000 6.2 180 15:55 28.10.2019
2582 Clouds 32 1012 66 10000 6.2 180 15:37 28.10.2019
2583 Clouds 30 1012 66 10000 6.2 180 15:18 28.10.2019
2584 Clouds 30 1013 66 10000 6.7 190 14:54 28.10.2019
2585 Clouds 30 1013 66 10000 6.7 190 14:36 28.10.2019
2586 Clouds 30 1013 66 10000 6.7 190 14:18 28.10.2019
2587 Clouds 30 1013 63 10000 4.6 180 13:41 28.10.2019
2588 Clouds 29 1013 63 10000 4.6 180 13:18 28.10.2019
2589 Clouds 29 1013 74 10000 2.6 130 12:58 28.10.2019
2590 Clouds 29 1013 74 10000 2.6 130 12:40 28.10.2019
2591 Clouds 29 1013 74 10000 2.6 130 12:19 28.10.2019
2592 Clouds 27 1011 83 10000 2.1 340 11:38 28.10.2019
2593 Clear 26 1011 83 10000 2.1 340 11:19 28.10.2019
2594 Clear 25 1010 88 10000 2.1 330 10:42 28.10.2019
2595 Clear 24 1010 88 10000 2.1 330 10:24 28.10.2019
2596 Clear 23 1010 94 10000 2.6 320 09:58 28.10.2019
2597 Clear 23 1010 94 10000 2.6 320 09:39 28.10.2019
2598 Clear 23 1010 94 10000 2.6 320 09:20 28.10.2019
2599 Clear 23 1010 94 10000 2.1 330 08:57 28.10.2019
2600 Clear 23 1010 94 10000 2.1 330 08:39 28.10.2019
2601 Clouds 23 1010 94 10000 2.1 330 08:19 28.10.2019
2602 Clouds 23 1011 94 10000 2.1 340 07:57 28.10.2019
2603 Clouds 23 1011 94 10000 2.1 340 07:38 28.10.2019
2604 Clouds 23 1011 94 10000 2.1 340 07:20 28.10.2019
2605 Clouds 23 1011 94 10000 1.5 330 06:40 28.10.2019
2606 Clouds 23 1011 94 10000 1.5 330 06:19 28.10.2019
2607 Clouds 24 1012 100 10000 1.5 70 04:29 28.10.2019
2608 Clouds 25 1012 94 10000 1.5 350 03:41 28.10.2019
2609 Clouds 25 1012 88 10000 2.1 340 02:45 28.10.2019
2610 Clouds 26 1012 88 10000 1 100 01:27 28.10.2019
2611 Clouds 26 1012 88 10000 2.6 170 00:46 28.10.2019
2612 Clouds 27 1012 88 10000 2.6 170 00:22 28.10.2019
2613 Clouds 27 1011 83 10000 3.1 180 23:43 27.10.2019
2614 Clouds 28 1011 83 10000 3.1 180 23:21 27.10.2019
2615 Rain 29 1010 79 10000 3.1 180 22:55 27.10.2019
2616 Rain 30 1010 79 10000 3.1 180 22:36 27.10.2019
2617 Rain 30 1010 79 10000 3.1 180 22:18 27.10.2019
2618 Rain 31 1010 74 10000 7.2 180 21:40 27.10.2019
2619 Rain 32 1010 74 10000 7.2 180 21:22 27.10.2019
2620 Rain 32 1010 74 10000 6.7 190 20:59 27.10.2019
2621 Rain 30 1010 74 10000 6.7 190 20:40 27.10.2019
2622 Clear 33 1010 74 10000 6.7 190 20:22 27.10.2019
2623 Clouds 33 1010 74 10000 6.2 180 19:57 27.10.2019
2624 Clouds 30 1010 74 10000 6.2 180 19:37 27.10.2019
2625 Clouds 33 1010 74 10000 6.2 180 19:19 27.10.2019
2626 Clouds 33 1011 66 10000 4.6 180 18:56 27.10.2019
2627 Clouds 30 1011 66 10000 4.6 180 18:38 27.10.2019
2628 Clouds 32 1011 66 10000 4.6 180 18:19 27.10.2019
2629 Clouds 32 1012 70 10000 4.1 170 17:55 27.10.2019
2630 Clouds 29 1012 70 10000 4.1 170 17:36 27.10.2019
2631 Clouds 31 1012 70 10000 4.1 170 17:18 27.10.2019
2632 Clouds 31 1014 79 10000 4.6 160 16:55 27.10.2019
2633 Clouds 29 1014 79 10000 4.6 160 16:37 27.10.2019
2634 Clouds 31 1014 79 10000 4.6 160 16:18 27.10.2019
2635 Clouds 31 1015 83 10000 5.7 160 15:55 27.10.2019
2636 Clouds 30 1015 83 10000 5.7 160 15:36 27.10.2019
2637 Clouds 30 1015 83 10000 5.7 160 15:18 27.10.2019
2638 Clouds 29 1015 79 10000 3.6 160 14:41 27.10.2019
2639 Clouds 28 1015 79 10000 3.6 160 14:19 27.10.2019
2640 Clouds 27 1015 78 10000 2.1 300 13:55 27.10.2019
2641 Clouds 26 1015 78 10000 2.1 300 13:37 27.10.2019
2642 Clouds 26 1015 78 10000 2.1 300 13:18 27.10.2019
2643 Clouds 25 1016 88 10000 2.6 330 12:42 27.10.2019
2644 Clouds 25 1016 88 10000 2.6 330 12:23 27.10.2019
2645 Clouds 25 1016 88 10000 2.1 50 11:55 27.10.2019
2646 Clouds 24 1016 88 10000 2.1 50 11:37 27.10.2019
2647 Clouds 23 1016 88 10000 2.1 50 11:18 27.10.2019
2648 Clouds 23 1015 94 10000 2.08 33 10:41 27.10.2019
2649 Clouds 22 1015 94 10000 2.08 33 10:22 27.10.2019
2650 Clouds 21 1015 94 10000 0.5 10 09:44 27.10.2019
2651 Clouds 21 1015 94 10000 0.5 10 09:44 27.10.2019
2652 Clouds 21 1015 94 10000 0.5 10 09:19 27.10.2019
2653 Clouds 22 1015 100 10000 1 360 08:59 27.10.2019
2654 Clouds 22 1015 100 10000 1 360 08:40 27.10.2019
2655 Clouds 22 1015 100 10000 1 360 08:20 27.10.2019
2656 Clouds 22 1015 94 10000 2.1 80 07:50 27.10.2019
2657 Clouds 23 1015 94 10000 2.1 80 07:29 27.10.2019
2658 Clouds 22 1015 94 10000 0.5 110 06:56 27.10.2019
2659 Clouds 22 1015 94 10000 0.5 110 06:37 27.10.2019
2660 Clouds 23 1015 94 10000 0.5 110 06:18 27.10.2019
2661 Clouds 22 1016 100 10000 2.6 150 05:38 27.10.2019
2662 Clouds 22 1016 100 10000 2.6 170 04:35 27.10.2019
2663 Clouds 24 1016 94 10000 2.6 80 02:46 27.10.2019
2664 Clouds 25 1016 100 10000 4.6 110 01:36 27.10.2019
2665 Clouds 25 1016 100 10000 4.6 110 01:18 27.10.2019
2666 Clouds 25 1015 100 10000 4.6 130 00:42 27.10.2019
2667 Clouds 25 1015 100 10000 4.6 130 00:18 27.10.2019
2668 Clouds 25 1015 100 10000 3.6 140 23:41 26.10.2019
2669 Clouds 26 1015 100 10000 3.6 140 23:22 26.10.2019
2670 Clouds 26 1015 100 10000 4.6 130 22:59 26.10.2019
2671 Clouds 24 1015 100 10000 4.6 130 22:40 26.10.2019
2672 Clouds 26 1015 100 10000 4.6 130 22:20 26.10.2019
2673 Clouds 26 1014 100 10000 6.2 170 21:59 26.10.2019
2674 Clouds 26 1014 100 10000 6.2 170 21:41 26.10.2019
2675 Clouds 26 1014 100 10000 6.2 170 21:21 26.10.2019
2676 Clouds 26 1014 94 10000 6.2 170 20:45 26.10.2019
2677 Clouds 26 1014 94 10000 6.2 170 20:45 26.10.2019
2678 Clouds 27 1014 94 10000 6.2 170 20:20 26.10.2019
2679 Clouds 27 1014 94 10000 6.2 170 20:20 26.10.2019
2680 Clouds 27 1014 88 10000 5.1 160 19:59 26.10.2019
2681 Clouds 26 1014 88 10000 5.1 160 19:40 26.10.2019
2682 Clouds 27 1014 88 10000 5.1 160 19:20 26.10.2019
2683 Clouds 27 1015 83 10000 3.6 150 18:56 26.10.2019
2684 Clouds 27 1015 83 10000 3.6 150 18:37 26.10.2019
2685 Clouds 27 1015 83 10000 3.6 150 18:18 26.10.2019
2686 Clouds 27 1016 88 6000 2.1 130 17:56 26.10.2019
2687 Clouds 27 1016 88 6000 2.1 130 17:36 26.10.2019
2688 Clouds 27 1016 88 6000 2.1 130 17:18 26.10.2019
2689 Thunderstorm 27 1016 78 6000 4.1 30 16:43 26.10.2019
2690 Clouds 27 1016 83 7000 2.6 140 16:24 26.10.2019
2691 Rain 26 1016 88 7000 3.6 140 15:43 26.10.2019
2692 Rain 26 1016 88 7000 3.6 140 15:21 26.10.2019
2693 Clouds 25 1016 88 7000 2.1 160 14:58 26.10.2019
2694 Clouds 25 1016 88 7000 2.1 160 14:37 26.10.2019
2695 Clouds 25 1016 88 7000 2.1 160 14:18 26.10.2019
2696 Clouds 25 1017 80 0 1.94 185 13:42 26.10.2019
2697 Clouds 25 1017 80 0 1.94 185 13:22 26.10.2019
2698 Clouds 25 1017 80 0 1.94 185 13:22 26.10.2019
2699 Clouds 25 1017 80 0 1.94 185 12:49 26.10.2019
2700 Clouds 22 1015 100 6000 2.78 4 12:26 26.10.2019
2701 Clouds 21 1015 100 6000 2.78 4 11:57 26.10.2019
2702 Clouds 21 1015 100 6000 2.78 4 11:38 26.10.2019
2703 Clouds 21 1015 100 6000 2.78 4 11:20 26.10.2019
2704 Clouds 23 1014 100 9000 2.6 20 10:45 26.10.2019
2705 Clouds 23 1014 100 9000 2.6 20 10:24 26.10.2019
2706 Clouds 23 1013 100 10000 1.5 60 09:48 26.10.2019
2707 Clouds 23 1013 100 10000 1.5 60 09:29 26.10.2019
2708 Clouds 23 1014 94 10000 1 340 08:48 26.10.2019
2709 Clouds 23 1014 94 10000 1 340 08:27 26.10.2019
2710 Clouds 23 1014 88 10000 0.5 0 07:57 26.10.2019
2711 Clouds 23 1014 94 10000 1 70 07:39 26.10.2019
2712 Clouds 23 1014 94 10000 1 70 07:19 26.10.2019
2713 Clouds 23 1014 88 10000 2.1 300 06:39 26.10.2019
2714 Clouds 24 1015 88 10000 3.1 320 05:24 26.10.2019
2715 Clouds 24 1015 100 10000 1.5 330 04:59 26.10.2019
2716 Clouds 24 1016 100 10000 3.6 190 03:31 26.10.2019
2717 Rain 24 1015 100 10000 4.1 170 02:29 26.10.2019
2718 Thunderstorm 24 1015 88 3000 6.7 200 01:46 26.10.2019
2719 Clouds 25 1014 100 10000 4.6 160 00:51 26.10.2019
2720 Clouds 25 1014 100 10000 6.2 160 23:55 25.10.2019
2721 Clouds 24 1014 100 10000 6.2 160 23:37 25.10.2019
2722 Clouds 25 1014 100 10000 6.2 160 23:18 25.10.2019
2723 Clouds 25 1013 88 10000 6.7 150 22:39 25.10.2019
2724 Clouds 26 1013 88 10000 6.7 150 22:21 25.10.2019
2725 Clouds 26 1013 83 10000 6.7 160 21:56 25.10.2019
2726 Clouds 26 1013 83 10000 6.7 160 21:38 25.10.2019
2727 Clouds 27 1013 83 10000 6.7 160 21:19 25.10.2019
2728 Clear 28 1013 78 10000 5.7 150 20:43 25.10.2019
2729 Clear 28 1013 78 10000 5.7 150 20:20 25.10.2019
2730 Clouds 28 1013 78 10000 6.7 150 19:56 25.10.2019
2731 Clouds 28 1013 78 10000 6.7 150 19:38 25.10.2019
2732 Clouds 28 1013 78 10000 6.7 150 19:19 25.10.2019
2733 Clouds 28 1014 74 10000 6.7 160 18:43 25.10.2019
2734 Clouds 28 1014 74 10000 6.7 160 18:20 25.10.2019
2735 Clouds 28 1015 66 10000 6.2 150 17:41 25.10.2019
2736 Clouds 29 1015 66 10000 6.2 150 17:20 25.10.2019
2737 Clouds 28 1015 74 10000 4.6 160 16:47 25.10.2019
2738 Clouds 28 1015 74 10000 4.6 160 16:24 25.10.2019
2739 Clouds 28 1015 74 10000 4.1 150 15:58 25.10.2019
2740 Clouds 28 1015 74 10000 4.1 150 15:40 25.10.2019
2741 Clouds 27 1015 74 10000 4.1 150 15:21 25.10.2019
2742 Clouds 27 1016 78 10000 4.6 160 14:43 25.10.2019
2743 Clouds 26 1016 78 10000 4.6 160 14:23 25.10.2019
2744 Clear 26 1015 78 10000 2.6 140 13:59 25.10.2019
2745 Clear 26 1015 78 10000 2.6 140 13:41 25.10.2019
2746 Clear 25 1015 78 10000 1.5 90 13:22 25.10.2019
2747 Clear 24 1015 83 10000 2.1 350 12:55 25.10.2019
2748 Clear 25 1015 83 10000 2.1 350 12:37 25.10.2019
2749 Clear 23 1015 83 10000 2.1 350 12:18 25.10.2019
2750 Clouds 22 1014 94 10000 2.1 360 11:40 25.10.2019
2751 Clouds 21 1014 94 10000 2.1 360 11:22 25.10.2019
2752 Clouds 21 1013 94 10000 3.1 20 10:55 25.10.2019
2753 Clouds 21 1013 94 10000 3.1 20 10:36 25.10.2019
2754 Clouds 21 1013 94 10000 3.1 20 10:18 25.10.2019
2755 Clouds 21 1013 94 10000 2.6 20 09:41 25.10.2019
2756 Clouds 21 1013 94 10000 2.6 20 09:20 25.10.2019
2757 Clouds 22 1012 88 10000 1.5 20 08:56 25.10.2019
2758 Clouds 21 1012 88 10000 1.5 20 08:38 25.10.2019
2759 Clouds 22 1012 88 10000 1.5 20 08:19 25.10.2019
2760 Thunderstorm 22 1013 88 10000 1.5 30 07:44 25.10.2019
2761 Thunderstorm 22 1013 88 10000 1.5 30 07:26 25.10.2019
2762 Thunderstorm 22 1013 83 10000 2.1 20 06:37 25.10.2019
2763 Rain 22 1014 83 10000 1.5 30 05:48 25.10.2019
2764 Rain 23 1014 83 10000 1.5 30 05:28 25.10.2019
2765 Clouds 23 1014 83 10000 3.6 30 04:30 25.10.2019
2766 Rain 24 1014 83 10000 3.1 100 02:35 25.10.2019
2767 Clouds 24 1013 83 10000 4.6 100 01:52 25.10.2019
2768 Clouds 26 1013 83 10000 3.6 110 00:34 25.10.2019
2769 Clouds 25 1012 88 10000 4.6 140 23:43 24.10.2019
2770 Clouds 26 1012 88 10000 4.6 140 23:24 24.10.2019
2771 Clouds 26 1011 78 10000 5.7 140 22:59 24.10.2019
2772 Clouds 26 1011 78 10000 5.7 140 22:39 24.10.2019
2773 Clouds 28 1011 78 10000 5.7 140 22:19 24.10.2019
2774 Clouds 29 1012 69 10000 6.2 160 21:57 24.10.2019
2775 Clouds 29 1012 69 10000 6.2 160 21:57 24.10.2019
2776 Clouds 29 1012 69 10000 6.2 160 21:38 24.10.2019
2777 Clouds 29 1012 69 10000 6.2 160 21:20 24.10.2019
2778 Clouds 30 1012 66 10000 4.1 150 20:59 24.10.2019
2779 Clouds 29 1012 66 10000 4.1 150 20:39 24.10.2019
2780 Clouds 30 1012 66 10000 4.1 150 20:21 24.10.2019
2781 Clouds 29 1012 69 10000 6.2 160 19:56 24.10.2019
2782 Clouds 29 1012 69 10000 6.2 160 19:37 24.10.2019
2783 Clouds 30 1012 69 10000 6.2 160 19:19 24.10.2019
2784 Clouds 30 1013 66 10000 5.1 160 18:55 24.10.2019
2785 Clouds 29 1013 66 10000 5.1 160 18:37 24.10.2019
2786 Clouds 28 1013 66 10000 5.1 160 18:18 24.10.2019
2787 Clouds 28 1014 65 10000 4.1 160 17:42 24.10.2019
2788 Clouds 28 1014 65 10000 4.1 160 17:20 24.10.2019
2789 Clouds 27 1015 69 10000 4.1 160 16:56 24.10.2019
2790 Clouds 29 1015 69 10000 4.1 160 16:38 24.10.2019
2791 Clouds 27 1015 69 10000 4.1 160 16:19 24.10.2019
2792 Clouds 27 1016 69 10000 1 140 15:58 24.10.2019
2793 Clouds 27 1016 69 10000 1 140 15:40 24.10.2019
2794 Clouds 25 1016 69 10000 1.5 340 15:21 24.10.2019
2795 Clouds 24 1016 69 10000 2.1 350 14:57 24.10.2019
2796 Clouds 24 1016 69 10000 2.1 350 14:38 24.10.2019
2797 Clouds 24 1016 69 10000 2.1 350 14:20 24.10.2019
2798 Clouds 24 1016 73 10000 1 30 13:41 24.10.2019
2799 Clouds 24 1016 73 10000 1 30 13:20 24.10.2019
2800 Clouds 23 1016 83 10000 1.5 70 12:57 24.10.2019
2801 Clouds 23 1016 83 10000 1.5 70 12:39 24.10.2019
2802 Clouds 21 1016 83 10000 1.5 70 12:19 24.10.2019
2803 Clouds 21 1016 88 10000 3.1 90 11:57 24.10.2019
2804 Clouds 20 1016 88 10000 3.1 90 11:38 24.10.2019
2805 Clouds 20 1016 88 10000 3.1 90 11:19 24.10.2019
2806 Clouds 21 1015 88 10000 2.1 70 10:57 24.10.2019
2807 Clouds 20 1015 88 10000 2.1 70 10:38 24.10.2019
2808 Clouds 20 1015 88 10000 2.1 70 10:20 24.10.2019
2809 Clouds 20 1015 88 10000 1 120 09:38 24.10.2019
2810 Clouds 20 1015 88 10000 1 120 09:38 24.10.2019
2811 Clouds 20 1015 88 10000 1 120 09:18 24.10.2019
2812 Clouds 20 1015 88 10000 2.1 130 08:54 24.10.2019
2813 Clouds 20 1015 88 10000 2.1 130 08:36 24.10.2019
2814 Clouds 20 1015 88 10000 2.1 130 08:18 24.10.2019
2815 Clouds 21 1015 83 10000 3.1 130 07:42 24.10.2019
2816 Clouds 21 1015 83 10000 3.1 130 07:21 24.10.2019
2817 Clouds 20 1016 83 10000 1.5 130 06:40 24.10.2019
2818 Clouds 21 1016 83 10000 1.5 130 06:20 24.10.2019
2819 Clouds 21 1016 88 10000 3.1 130 05:48 24.10.2019
2820 Clouds 22 1016 88 10000 3.1 130 05:28 24.10.2019
2821 Clouds 21 1017 88 10000 2.6 100 03:37 24.10.2019
2822 Clouds 23 1017 83 10000 3.1 110 02:56 24.10.2019
2823 Clouds 23 1017 83 10000 3.1 110 02:25 24.10.2019
2824 Clouds 23 1017 83 10000 4.6 120 01:51 24.10.2019
2825 Clouds 24 1017 83 10000 4.6 120 01:27 24.10.2019
2826 Clouds 24 1016 83 10000 4.6 120 00:41 24.10.2019
2827 Clouds 24 1016 83 10000 4.6 120 00:23 24.10.2019
2828 Clouds 24 1016 83 10000 4.6 130 23:43 23.10.2019
2829 Clouds 24 1016 83 10000 4.6 130 23:23 23.10.2019
2830 Clouds 24 1015 83 10000 3.1 140 22:57 23.10.2019
2831 Clouds 22 1015 83 10000 3.1 140 22:38 23.10.2019
2832 Clouds 24 1015 83 10000 3.1 140 22:19 23.10.2019
2833 Clouds 25 1015 78 10000 3.1 140 21:57 23.10.2019
2834 Clouds 24 1015 78 10000 3.1 140 21:38 23.10.2019
2835 Clouds 24 1015 78 10000 3.1 140 21:20 23.10.2019
2836 Clouds 24 1015 78 10000 4.6 160 20:57 23.10.2019
2837 Clouds 24 1015 78 10000 4.6 160 20:39 23.10.2019
2838 Clouds 25 1015 78 10000 4.6 160 20:20 23.10.2019
2839 Clouds 25 1015 78 10000 5.1 150 19:57 23.10.2019
2840 Clouds 25 1015 78 10000 5.1 150 19:38 23.10.2019
2841 Clouds 25 1015 78 10000 5.1 150 19:18 23.10.2019
2842 Clouds 25 1015 78 10000 6.2 160 18:55 23.10.2019
2843 Clouds 25 1015 78 10000 6.2 160 18:36 23.10.2019
2844 Clouds 25 1015 78 10000 6.2 160 18:18 23.10.2019
2845 Clouds 25 1015 74 10000 5.1 150 17:43 23.10.2019
2846 Clouds 25 1015 74 10000 5.1 150 17:20 23.10.2019
2847 Clouds 24 1016 88 10000 3.6 150 16:56 23.10.2019
2848 Clouds 23 1016 88 10000 3.6 150 16:38 23.10.2019
2849 Clouds 24 1016 88 10000 3.6 150 16:19 23.10.2019
2850 Clouds 24 1016 88 10000 3.6 150 16:19 23.10.2019
2851 Rain 25 1016 88 10000 4.6 140 15:42 23.10.2019
2852 Rain 24 1016 88 10000 4.6 140 15:22 23.10.2019
2853 Clouds 24 1016 83 10000 0.5 130 14:58 23.10.2019
2854 Clouds 23 1016 83 10000 0.5 130 14:38 23.10.2019
2855 Clouds 24 1016 83 10000 0.5 130 14:19 23.10.2019
2856 Clouds 24 1016 83 10000 1 30 13:58 23.10.2019
2857 Clouds 24 1016 83 10000 1 30 13:40 23.10.2019
2858 Clouds 24 1016 83 10000 1 30 13:22 23.10.2019
2859 Clouds 22 1015 88 10000 1 30 12:55 23.10.2019
2860 Clouds 22 1015 88 10000 1 30 12:37 23.10.2019
2861 Clouds 22 1015 88 10000 1 30 12:18 23.10.2019
2862 Clouds 21 1015 88 10000 2.1 20 11:56 23.10.2019
2863 Clouds 21 1015 88 10000 2.1 20 11:56 23.10.2019
2864 Clouds 21 1015 88 10000 2.1 20 11:37 23.10.2019
2865 Clouds 21 1015 88 10000 2.1 20 11:37 23.10.2019
2866 Clouds 21 1015 88 10000 2.1 20 11:19 23.10.2019
2867 Clouds 20 1014 100 10000 2.1 50 10:45 23.10.2019
2868 Clouds 20 1014 100 10000 2.1 50 10:25 23.10.2019
2869 Clouds 20 1013 100 10000 1 90 09:55 23.10.2019
2870 Clouds 20 1013 100 10000 1 90 09:36 23.10.2019
2871 Clouds 20 1013 100 10000 1 90 09:18 23.10.2019
2872 Rain 21 1013 88 8000 3.6 150 08:41 23.10.2019
2873 Rain 21 1013 88 8000 3.6 150 08:23 23.10.2019
2874 Clouds 21 1013 88 10000 1.5 130 07:46 23.10.2019
2875 Clouds 21 1013 88 10000 1.5 130 07:22 23.10.2019
2876 Clouds 21 1014 88 10000 2.1 120 06:47 23.10.2019
2877 Clouds 21 1014 88 10000 2.1 120 06:22 23.10.2019
2878 Clouds 21 1014 88 10000 3.6 150 05:47 23.10.2019
2879 Clouds 22 1014 83 10000 3.1 140 04:57 23.10.2019
2880 Clouds 23 1014 78 10000 4.1 160 03:35 23.10.2019
2881 Clouds 23 1014 88 10000 4.1 160 02:41 23.10.2019
2882 Clouds 23 1013 88 10000 5.1 160 01:33 23.10.2019
2883 Clouds 23 1012 88 10000 6.2 160 00:56 23.10.2019
2884 Clouds 23 1012 88 10000 6.2 160 00:28 23.10.2019
2885 Clouds 23 1012 88 10000 6.2 160 23:40 22.10.2019
2886 Clouds 23 1012 88 10000 6.2 160 23:18 22.10.2019
2887 Clouds 24 1011 83 10000 6.2 160 22:57 22.10.2019
2888 Clouds 24 1011 83 10000 6.2 160 22:39 22.10.2019
2889 Clouds 24 1011 83 10000 6.2 160 22:20 22.10.2019
2890 Clouds 25 1011 78 10000 6.7 160 21:56 22.10.2019
2891 Clouds 23 1011 78 10000 6.7 160 21:37 22.10.2019
2892 Clouds 25 1011 78 10000 6.7 160 21:18 22.10.2019
2893 Clouds 26 1011 74 10000 6.2 160 20:56 22.10.2019
2894 Clouds 26 1011 74 10000 6.2 160 20:38 22.10.2019
2895 Clouds 26 1011 74 10000 6.2 160 20:20 22.10.2019
2896 Clouds 27 1011 74 10000 5.7 160 19:54 22.10.2019
2897 Clouds 27 1011 74 10000 5.7 160 19:54 22.10.2019
2898 Clouds 27 1011 74 10000 5.7 160 19:36 22.10.2019
2899 Clouds 26 1011 69 10000 4.6 150 19:18 22.10.2019
2900 Clouds 27 1011 69 10000 4.6 150 18:40 22.10.2019
2901 Clouds 26 1011 69 10000 4.6 150 18:22 22.10.2019
2902 Clouds 26 1012 74 10000 4.1 160 17:58 22.10.2019
2903 Clouds 24 1012 74 10000 4.1 160 17:39 22.10.2019
2904 Clouds 25 1012 74 10000 4.1 160 17:20 22.10.2019
2905 Clouds 25 1012 73 10000 3.6 140 16:57 22.10.2019
2906 Clouds 25 1012 73 10000 3.6 140 16:38 22.10.2019
2907 Clouds 25 1012 73 10000 3.6 140 16:19 22.10.2019
2908 Clouds 25 1012 73 10000 3.6 140 16:19 22.10.2019
2909 Clouds 24 1012 78 10000 3.1 140 15:58 22.10.2019
2910 Clouds 24 1012 78 10000 3.1 140 15:39 22.10.2019
2911 Clouds 24 1012 78 10000 3.1 140 15:18 22.10.2019
2912 Clouds 24 1012 78 10000 2.6 20 14:43 22.10.2019
2913 Clouds 23 1012 78 10000 2.6 20 14:20 22.10.2019
2914 Clouds 23 1012 73 10000 3.1 350 13:43 22.10.2019
2915 Clouds 22 1012 73 10000 3.1 350 13:22 22.10.2019
2916 Clouds 22 1012 73 10000 3.1 350 13:22 22.10.2019
2917 Clouds 22 1011 78 10000 1 30 12:59 22.10.2019
2918 Clouds 22 1011 78 10000 1 30 12:40 22.10.2019
2919 Clouds 20 1011 78 10000 1 30 12:21 22.10.2019
2920 Clouds 20 1011 88 10000 1 180 11:56 22.10.2019
2921 Clouds 20 1011 88 10000 1 180 11:38 22.10.2019
2922 Clouds 20 1011 88 10000 1 180 11:20 22.10.2019
2923 Clouds 20 1009 83 10000 2.1 100 10:56 22.10.2019
2924 Clouds 20 1009 83 10000 2.1 100 10:37 22.10.2019
2925 Clouds 20 1009 83 10000 2.1 100 10:18 22.10.2019
2926 Clouds 20 1009 83 10000 3.1 70 09:54 22.10.2019
2927 Clouds 20 1009 83 10000 3.1 70 09:36 22.10.2019
2928 Clouds 20 1009 83 10000 3.1 70 09:18 22.10.2019
2929 Clouds 20 1009 88 10000 2.1 180 08:42 22.10.2019
2930 Clouds 20 1009 88 10000 2.1 180 08:21 22.10.2019
2931 Clouds 20 1009 83 10000 3.37 78 07:46 22.10.2019
2932 Clouds 20 1009 83 10000 3.37 78 07:26 22.10.2019
2933 Clouds 20 1010 83 10000 1 40 06:51 22.10.2019
2934 Clouds 20 1010 83 10000 1 40 06:31 22.10.2019
2935 Clouds 20 1010 83 10000 1 40 06:31 22.10.2019
2936 Clouds 20 1009 83 10000 2.1 100 05:57 22.10.2019
2937 Clouds 20 1009 83 10000 2.1 100 05:21 22.10.2019
2938 Rain 21 1010 83 9000 5.1 30 02:47 22.10.2019
2939 Rain 21 1010 83 9000 5.1 30 02:28 22.10.2019
2940 Clouds 21 1011 78 10000 3.1 40 01:28 22.10.2019
2941 Clouds 21 1011 78 10000 1.5 100 00:58 22.10.2019
2942 Clouds 21 1011 78 10000 1.5 100 00:40 22.10.2019
2943 Clouds 21 1011 78 10000 1.5 100 00:21 22.10.2019
2944 Rain 21 1011 83 6000 2.6 140 23:55 21.10.2019
2945 Rain 19 1011 83 6000 2.6 140 23:37 21.10.2019
2946 Rain 22 1011 83 6000 2.6 140 23:18 21.10.2019
2947 Clouds 22 1011 73 10000 3.6 170 22:56 21.10.2019
2948 Clouds 21 1011 73 10000 3.6 170 22:37 21.10.2019
2949 Clouds 22 1011 73 10000 3.6 170 22:19 21.10.2019
2950 Clouds 22 1010 69 10000 2.6 150 21:54 21.10.2019
2951 Clouds 22 1010 69 10000 2.6 150 21:54 21.10.2019
2952 Clouds 20 1010 69 10000 2.6 150 21:36 21.10.2019
2953 Clouds 20 1010 69 10000 2.6 150 21:36 21.10.2019
2954 Clouds 23 1010 69 10000 2.6 150 21:18 21.10.2019
2955 Clouds 23 1010 73 10000 3.1 160 20:41 21.10.2019
2956 Clouds 23 1010 73 10000 3.1 160 20:21 21.10.2019
2957 Clouds 23 1011 69 10000 3.1 150 19:59 21.10.2019
2958 Clouds 23 1011 69 10000 3.1 150 19:41 21.10.2019
2959 Clouds 23 1011 69 10000 3.1 150 19:22 21.10.2019
2960 Clouds 23 1012 64 10000 3.1 140 18:57 21.10.2019
2961 Clouds 22 1012 64 10000 3.1 140 18:38 21.10.2019
2962 Clouds 22 1012 64 10000 3.1 140 18:19 21.10.2019
2963 Clouds 22 1012 69 10000 2.6 140 17:59 21.10.2019
2964 Clouds 23 1012 69 10000 2.6 140 17:38 21.10.2019
2965 Clouds 23 1012 69 10000 2.6 140 17:19 21.10.2019
2966 Clouds 23 1013 73 10000 1.5 40 16:57 21.10.2019
2967 Clouds 23 1013 73 10000 1.5 40 16:39 21.10.2019
2968 Clouds 23 1013 73 10000 1.5 40 16:20 21.10.2019
2969 Clouds 23 1013 73 10000 2.1 350 15:47 21.10.2019
2970 Clouds 21 1013 73 10000 2.1 350 15:27 21.10.2019
2971 Clouds 21 1014 78 10000 2.1 10 14:59 21.10.2019
2972 Clouds 21 1014 78 10000 2.1 10 14:40 21.10.2019
2973 Clouds 20 1014 78 10000 2.1 10 14:21 21.10.2019
2974 Clouds 21 1013 78 10000 2.6 330 13:57 21.10.2019
2975 Clouds 22 1013 78 10000 2.6 330 13:39 21.10.2019
2976 Clouds 20 1013 78 10000 2.6 330 13:19 21.10.2019
2977 Clouds 20 1013 83 10000 2.6 310 12:42 21.10.2019
2978 Clouds 19 1013 83 10000 2.6 310 12:23 21.10.2019
2979 Clouds 19 1013 77 10000 1 240 11:58 21.10.2019
2980 Clouds 19 1013 77 10000 1 240 11:39 21.10.2019
2981 Clouds 18 1013 77 10000 1 240 11:21 21.10.2019
2982 Clouds 18 1012 83 10000 2.6 220 10:57 21.10.2019
2983 Clouds 18 1012 83 10000 2.6 220 10:57 21.10.2019
2984 Clouds 18 1012 83 10000 2.6 220 10:38 21.10.2019
2985 Clouds 18 1012 83 10000 2.6 220 10:19 21.10.2019
2986 Clouds 18 1012 77 10000 2.6 310 09:54 21.10.2019
2987 Clouds 18 1012 77 10000 2.6 310 09:36 21.10.2019
2988 Clouds 19 1012 77 10000 2.6 310 09:18 21.10.2019
2989 Clouds 19 1012 83 10000 1.5 300 08:40 21.10.2019
2990 Clouds 19 1012 83 10000 1.5 300 08:22 21.10.2019
2991 Clouds 19 1012 77 10000 2.1 310 07:44 21.10.2019
2992 Clouds 19 1012 77 10000 2.1 310 07:22 21.10.2019
2993 Clouds 19 1013 77 10000 3.1 320 06:58 21.10.2019
2994 Clouds 19 1013 77 10000 3.1 320 06:40 21.10.2019
2995 Clouds 19 1014 68 10000 1 230 05:57 21.10.2019
2996 Clouds 19 1014 68 10000 1 230 05:21 21.10.2019
2997 Clouds 19 1015 83 10000 2.1 300 03:39 21.10.2019
2998 Rain 19 1015 83 10000 2.6 290 02:39 21.10.2019
2999 Rain 21 1015 83 10000 2.6 290 02:19 21.10.2019
3000 Rain 21 1015 83 10000 2.6 290 02:19 21.10.2019
3001 Rain 21 1014 73 10000 3.6 260 01:43 21.10.2019
3002 Clouds 20 1014 77 10000 2.1 300 00:51 21.10.2019
3003 Clouds 20 1014 77 10000 2.1 300 00:28 21.10.2019
3004 Clouds 20 1014 73 10000 2.6 240 23:58 20.10.2019
3005 Clouds 20 1014 73 10000 2.6 240 23:39 20.10.2019
3006 Clouds 22 1014 73 10000 2.6 240 23:21 20.10.2019
3007 Clouds 22 1014 64 10000 3.6 220 22:42 20.10.2019
3008 Clouds 22 1014 64 10000 3.6 220 22:24 20.10.2019
3009 Clouds 22 1014 64 10000 3.6 220 22:24 20.10.2019
3010 Clouds 23 1014 69 10000 4.6 230 21:59 20.10.2019
3011 Clouds 23 1014 69 10000 4.6 230 21:40 20.10.2019
3012 Rain 23 1014 69 10000 4.6 230 21:22 20.10.2019
3013 Rain 23 1014 64 10000 5.7 220 20:56 20.10.2019
3014 Rain 23 1014 64 10000 5.7 220 20:38 20.10.2019
3015 Clouds 23 1014 64 10000 5.7 220 20:18 20.10.2019
3016 Clouds 22 1014 60 10000 4.1 230 19:55 20.10.2019
3017 Clouds 22 1014 60 10000 4.1 230 19:37 20.10.2019
3018 Clouds 23 1014 60 10000 4.1 230 19:18 20.10.2019
3019 Clouds 23 1015 73 8000 5.1 200 18:40 20.10.2019
3020 Clouds 23 1015 73 8000 5.1 200 18:22 20.10.2019
3021 Clouds 23 1015 69 8000 3.6 210 17:57 20.10.2019
3022 Clouds 23 1015 69 8000 3.6 210 17:38 20.10.2019
3023 Clouds 23 1015 69 8000 3.6 210 17:20 20.10.2019
3024 Clouds 22 1015 88 6000 5.1 210 16:43 20.10.2019
3025 Clouds 22 1015 88 6000 5.1 210 16:24 20.10.2019
3026 Rain 21 1016 94 4500 3.1 210 15:59 20.10.2019
3027 Rain 21 1016 94 4500 3.1 210 15:40 20.10.2019
3028 Rain 21 1016 94 4500 3.1 210 15:40 20.10.2019
3029 Rain 21 1016 94 4500 3.1 210 15:21 20.10.2019
3030 Rain 22 1016 88 7000 3.1 230 14:59 20.10.2019
3031 Rain 22 1016 88 7000 3.1 230 14:38 20.10.2019
3032 Rain 21 1016 83 8000 3.6 220 14:19 20.10.2019
3033 Rain 21 1015 94 5000 4.1 210 13:56 20.10.2019
3034 Rain 20 1015 94 5000 4.1 210 13:37 20.10.2019
3035 Rain 21 1015 94 5000 4.1 210 13:18 20.10.2019
3036 Rain 21 1015 94 4500 2.6 230 12:57 20.10.2019
3037 Rain 21 1015 94 4500 2.6 230 12:39 20.10.2019
3038 Rain 20 1015 94 4500 2.6 230 12:21 20.10.2019
3039 Rain 20 1015 83 8000 4.6 200 11:57 20.10.2019
3040 Rain 20 1015 83 8000 4.6 200 11:39 20.10.2019
3041 Rain 20 1014 94 9000 2.1 230 11:21 20.10.2019
3042 Rain 21 1013 83 10000 6.7 190 10:54 20.10.2019
3043 Rain 21 1013 83 10000 6.7 190 10:54 20.10.2019
3044 Clouds 20 1013 83 10000 6.7 190 10:36 20.10.2019
3045 Rain 21 1013 83 10000 6.7 190 10:18 20.10.2019
3046 Rain 22 1013 83 10000 6.2 190 09:42 20.10.2019
3047 Clouds 21 1013 83 10000 6.2 190 09:22 20.10.2019
3048 Clouds 22 1013 94 10000 5.1 200 08:49 20.10.2019
3049 Clouds 22 1013 94 10000 5.1 200 08:28 20.10.2019
3050 Rain 22 1013 100 9000 4.6 170 07:57 20.10.2019
3051 Rain 22 1013 100 9000 4.6 170 07:39 20.10.2019
3052 Rain 22 1013 100 9000 4.6 170 07:20 20.10.2019
3053 Rain 22 1014 88 10000 1.5 220 06:23 20.10.2019
3054 Clouds 23 1015 100 10000 3.6 200 04:28 20.10.2019
3055 Rain 23 1015 94 10000 3.6 190 03:48 20.10.2019
3056 Rain 23 1015 94 10000 3.6 190 03:21 20.10.2019
3057 Clouds 23 1015 83 10000 4.6 190 02:45 20.10.2019
3058 Clouds 24 1015 83 10000 4.6 190 02:18 20.10.2019
3059 Clouds 24 1014 83 10000 3.6 210 01:43 20.10.2019
3060 Clouds 23 1014 83 10000 3.6 210 01:19 20.10.2019
3061 Clouds 23 1014 83 10000 5.1 200 00:42 20.10.2019
3062 Clouds 25 1014 83 10000 5.1 200 00:20 20.10.2019
3063 Clouds 25 1014 83 10000 6.7 200 23:43 19.10.2019
3064 Clouds 25 1014 83 10000 6.7 200 23:24 19.10.2019
3065 Clouds 26 1013 78 10000 8.2 190 22:58 19.10.2019
3066 Clouds 26 1013 78 10000 8.2 190 22:40 19.10.2019
3067 Clouds 26 1013 78 10000 8.2 190 22:20 19.10.2019
3068 Clouds 26 1013 78 10000 8.7 190 21:46 19.10.2019
3069 Clouds 26 1013 78 10000 8.7 190 21:46 19.10.2019
3070 Clouds 27 1013 78 10000 8.7 190 21:25 19.10.2019
3071 Clouds 28 1012 74 10000 8.2 180 20:57 19.10.2019
3072 Clouds 27 1012 74 10000 8.2 180 20:39 19.10.2019
3073 Clouds 28 1012 74 10000 8.2 180 20:20 19.10.2019
3074 Clouds 28 1012 70 10000 6.7 170 19:41 19.10.2019
3075 Clouds 28 1012 70 10000 6.7 170 19:23 19.10.2019
3076 Clouds 29 1013 62 10000 6.2 180 18:54 19.10.2019
3077 Clouds 28 1013 62 10000 6.2 180 18:36 19.10.2019
3078 Clouds 29 1013 62 10000 6.2 180 18:18 19.10.2019
3079 Clouds 29 1013 62 10000 6.2 180 18:18 19.10.2019
3080 Clouds 29 1013 62 10000 6.2 180 18:18 19.10.2019
3081 Clouds 29 1014 66 10000 5.7 170 17:40 19.10.2019
3082 Clouds 28 1014 66 10000 5.7 170 17:21 19.10.2019
3083 Clouds 28 1015 70 10000 5.7 180 16:55 19.10.2019
3084 Clouds 28 1015 70 10000 5.7 180 16:37 19.10.2019
3085 Clouds 27 1015 70 10000 5.7 180 16:18 19.10.2019
3086 Clouds 27 1015 70 10000 5.7 180 16:18 19.10.2019
3087 Clouds 27 1015 74 10000 4.6 170 15:40 19.10.2019
3088 Clouds 27 1015 74 10000 4.6 170 15:22 19.10.2019
3089 Clouds 26 1015 83 10000 4.1 130 14:39 19.10.2019
3090 Clouds 26 1015 83 10000 4.1 130 14:20 19.10.2019
3091 Clouds 26 1015 83 10000 1 150 13:57 19.10.2019
3092 Clouds 25 1015 83 10000 1 150 13:39 19.10.2019
3093 Clouds 25 1015 83 10000 1 150 13:19 19.10.2019
3094 Clouds 25 1014 83 10000 3.1 238.469 12:56 19.10.2019
3095 Clouds 24 1014 83 10000 3.1 238.469 12:37 19.10.2019
3096 Clouds 23 1014 83 10000 1.88 271.862 12:18 19.10.2019
3097 Clouds 22 1014 94 10000 1 220 11:41 19.10.2019
3098 Clouds 22 1014 94 10000 1 220 11:23 19.10.2019
3099 Clouds 22 1013 94 10000 2.6 200 10:56 19.10.2019
3100 Clouds 22 1013 94 10000 2.6 200 10:38 19.10.2019
3101 Clouds 22 1013 94 10000 2.6 200 10:19 19.10.2019
3102 Clear 22 1012 94 10000 2.6 140 09:42 19.10.2019
3103 Clear 22 1012 94 10000 2.6 140 09:24 19.10.2019
3104 Clear 22 1012 83 10000 2.6 310 08:59 19.10.2019
3105 Clear 22 1012 83 10000 2.6 310 08:59 19.10.2019
3106 Clear 22 1012 83 10000 2.6 310 08:59 19.10.2019
3107 Clear 22 1012 83 10000 2.6 310 08:40 19.10.2019
3108 Clear 22 1012 83 10000 2.6 310 08:21 19.10.2019
3109 Clear 22 1013 83 10000 0.5 280 07:44 19.10.2019
3110 Clear 22 1013 83 10000 0.5 280 07:25 19.10.2019
3111 Clear 23 1013 74 10000 1 270 06:47 19.10.2019
3112 Clear 23 1013 74 10000 1 270 06:26 19.10.2019
3113 Clear 23 1013 78 10000 2.1 200 05:33 19.10.2019
3114 Clear 25 1013 78 10000 3.6 180 04:22 19.10.2019
3115 Clear 25 1014 78 10000 4.1 170 02:47 19.10.2019
3116 Clear 25 1013 83 10000 6.2 180 01:53 19.10.2019
3117 Clear 25 1013 83 10000 6.2 180 01:25 19.10.2019
3118 Clear 25 1011 88 10000 6.7 180 00:48 19.10.2019
3119 Clear 26 1011 88 10000 6.7 180 00:27 19.10.2019
3120 Clear 26 1011 88 10000 5.7 170 23:45 18.10.2019
3121 Clear 28 1011 88 10000 5.7 170 23:27 18.10.2019
3122 Clear 28 1011 88 10000 7.2 160 22:58 18.10.2019
3123 Clear 29 1011 88 10000 7.2 160 22:40 18.10.2019
3124 Clear 30 1011 88 10000 7.2 160 22:20 18.10.2019
3125 Clear 30 1011 88 10000 7.2 160 22:20 18.10.2019
3126 Clear 30 1011 88 10000 7.2 160 22:20 18.10.2019
3127 Clear 31 1010 78 10000 5.1 150 21:59 18.10.2019
3128 Clear 31 1010 78 10000 5.1 150 21:39 18.10.2019
3129 Clear 32 1010 78 10000 5.1 150 21:20 18.10.2019
3130 Clear 32 1011 62 10000 3.1 140 20:58 18.10.2019
3131 Clear 32 1011 62 10000 3.1 140 20:40 18.10.2019
3132 Clear 31 1011 62 10000 3.1 140 20:21 18.10.2019
3133 Clear 31 1011 62 10000 3.1 140 20:21 18.10.2019
3134 Clear 31 1011 70 10000 3.1 150 19:57 18.10.2019
3135 Clear 31 1011 70 10000 3.6 20 19:39 18.10.2019
3136 Clear 31 1011 70 10000 3.6 20 19:20 18.10.2019
3137 Clear 30 1012 66 10000 4.1 330 18:57 18.10.2019
3138 Clear 29 1012 66 10000 4.1 330 18:38 18.10.2019
3139 Clear 29 1012 66 10000 4.1 330 18:20 18.10.2019
3140 Clouds 27 1014 78 10000 4.1 10 17:39 18.10.2019
3141 Clouds 26 1014 78 10000 4.1 10 17:21 18.10.2019
3142 Clouds 26 1016 83 10000 2.1 30 16:59 18.10.2019
3143 Clouds 27 1016 83 10000 2.1 30 16:38 18.10.2019
3144 Rain 26 1016 83 10000 2.1 30 16:19 18.10.2019
3145 Rain 26 1016 83 10000 2.1 30 16:19 18.10.2019
3146 Rain 26 1017 78 10000 5.1 180 15:54 18.10.2019
3147 Clouds 27 1017 78 10000 5.1 180 15:36 18.10.2019
3148 Clouds 26 1017 78 10000 5.1 180 15:18 18.10.2019
3149 Clouds 26 1016 78 10000 1.5 170 14:54 18.10.2019
3150 Clouds 26 1016 78 10000 1.5 170 14:36 18.10.2019
3151 Clouds 26 1016 78 10000 1.5 170 14:36 18.10.2019
3152 Clouds 26 1016 78 10000 1.5 170 14:18 18.10.2019
3153 Clear 25 1015 74 10000 1 150 13:41 18.10.2019
3154 Clear 25 1015 74 10000 1 150 13:23 18.10.2019
3155 Clear 24 1014 74 10000 0.62 357.119 12:57 18.10.2019
3156 Clear 23 1014 74 10000 0.62 357.119 12:39 18.10.2019
3157 Clear 22 1014 74 10000 1.67 16.182 12:20 18.10.2019
3158 Clear 21 1013 83 10000 0.5 50 11:56 18.10.2019
3159 Clear 21 1013 83 10000 0.5 50 11:38 18.10.2019
3160 Clear 21 1013 83 10000 0.5 50 11:19 18.10.2019
3161 Clear 20 1013 88 10000 1.5 360 10:55 18.10.2019
3162 Clear 20 1013 88 10000 1.5 360 10:55 18.10.2019
3163 Clear 20 1013 88 10000 1.5 360 10:37 18.10.2019
3164 Clear 20 1013 88 10000 1.5 360 10:18 18.10.2019
3165 Clear 21 1013 88 10000 1.5 60 09:55 18.10.2019
3166 Clear 20 1013 88 10000 1.5 60 09:36 18.10.2019
3167 Clear 21 1013 88 10000 1.5 60 09:18 18.10.2019
3168 Clear 21 1013 88 10000 1 70 08:42 18.10.2019
3169 Clear 21 1013 88 10000 1 70 08:42 18.10.2019
3170 Clear 21 1013 88 10000 1 70 08:23 18.10.2019
3171 Clear 21 1013 88 10000 1 70 08:23 18.10.2019
3172 Clear 21 1013 83 10000 2.1 50 07:48 18.10.2019
3173 Clear 22 1013 83 10000 2.1 50 07:29 18.10.2019
3174 Clear 22 1014 83 10000 0.5 50 06:41 18.10.2019
3175 Clear 22 1014 83 10000 0.5 50 06:22 18.10.2019
3176 Clear 22 1014 83 10000 1.5 60 05:59 18.10.2019
3177 Clear 22 1014 83 10000 1.5 60 05:24 18.10.2019
3178 Clear 22 1015 88 10000 3.6 50 04:49 18.10.2019
3179 Clear 24 1015 78 10000 3.6 50 03:34 18.10.2019
3180 Clear 25 1015 83 10000 2.6 160 02:50 18.10.2019
3181 Clear 25 1015 83 10000 2.6 160 02:32 18.10.2019
3182 Clear 25 1015 88 10000 4.1 170 01:38 18.10.2019
3183 Clear 25 1015 88 10000 4.1 170 00:54 18.10.2019
3184 Clear 24 1015 88 10000 4.1 170 00:36 18.10.2019
3185 Clear 26 1015 88 10000 4.1 170 00:18 18.10.2019
3186 Clouds 26 1014 83 10000 5.7 190 23:38 17.10.2019
3187 Clouds 27 1014 83 10000 5.7 190 23:19 17.10.2019
3188 Clouds 28 1014 78 10000 3.1 170 22:55 17.10.2019
3189 Clouds 27 1014 78 10000 3.1 170 22:37 17.10.2019
3190 Clouds 28 1014 78 10000 3.1 170 22:19 17.10.2019
3191 Clouds 28 1015 78 10000 5.1 160 21:56 17.10.2019
3192 Clouds 29 1015 78 10000 5.1 160 21:38 17.10.2019
3193 Clouds 28 1015 78 10000 5.1 160 21:20 17.10.2019
3194 Clouds 28 1015 78 10000 6.7 160 20:57 17.10.2019
3195 Clouds 28 1015 78 10000 6.7 160 20:38 17.10.2019
3196 Clouds 29 1015 78 10000 6.7 160 20:19 17.10.2019
3197 -273 0 0 0 0 0 19:56 17.10.2019
3198 Clouds 28 1016 74 10000 6.2 160 19:37 17.10.2019
3199 Clouds 29 1016 74 10000 6.2 160 19:18 17.10.2019
3200 Clouds 30 1016 70 10000 5.7 160 18:42 17.10.2019
3201 Clouds 30 1016 70 10000 5.7 160 18:21 17.10.2019
3202 Clouds 29 1017 74 10000 4.1 140 17:58 17.10.2019
3203 Clouds 29 1017 74 10000 4.1 140 17:40 17.10.2019
3204 Clouds 27 1017 74 10000 4.1 140 17:22 17.10.2019
3205 Clouds 27 1017 74 10000 3.6 140 16:55 17.10.2019
3206 Clouds 27 1018 70 10000 2.6 350 16:37 17.10.2019
3207 Clouds 27 1018 70 10000 2.6 350 16:18 17.10.2019
3208 Clouds 27 1018 74 10000 3.1 350 15:55 17.10.2019
3209 Clouds 26 1018 74 10000 3.1 350 15:37 17.10.2019
3210 Clouds 26 1018 74 10000 3.1 350 15:18 17.10.2019
3211 Clouds 26 1018 78 10000 2.1 350 14:42 17.10.2019
3212 Clouds 25 1018 78 10000 2.1 350 14:23 17.10.2019
3213 Clouds 25 1018 78 10000 2.1 350 14:23 17.10.2019
3214 Clouds 25 1018 83 10000 1 40 13:56 17.10.2019
3215 Clouds 25 1018 88 10000 1 120 13:38 17.10.2019
3216 Clouds 24 1018 88 10000 1 120 13:18 17.10.2019
3217 Clouds 24 1018 94 10000 3.1 100 12:41 17.10.2019
3218 Clouds 24 1018 94 10000 3.1 100 12:20 17.10.2019
3219 Clouds 22 1017 100 10000 1.5 100 11:58 17.10.2019
3220 Clouds 21 1017 100 10000 1.5 100 11:40 17.10.2019
3221 Clouds 23 1017 100 10000 1.5 100 11:19 17.10.2019
3222 Clouds 22 1017 94 10000 0.5 140 10:55 17.10.2019
3223 Clouds 22 1017 94 10000 0.5 140 10:36 17.10.2019
3224 Clouds 22 1017 94 10000 0.5 140 10:18 17.10.2019
3225 Clouds 23 1016 100 10000 1 160 09:42 17.10.2019
3226 Clouds 23 1016 100 10000 1 160 09:22 17.10.2019
3227 Clouds 23 1016 100 10000 1.5 170 08:58 17.10.2019
3228 Clouds 23 1016 100 10000 1.5 170 08:39 17.10.2019
3229 Clouds 23 1016 100 10000 1.5 170 08:21 17.10.2019
3230 Clouds 23 1017 100 10000 2.1 160 07:55 17.10.2019
3231 Clouds 23 1017 100 10000 2.1 160 07:55 17.10.2019
3232 Clouds 23 1017 100 10000 2.1 160 07:37 17.10.2019
3233 Clouds 23 1017 100 10000 2.1 160 07:18 17.10.2019
3234 Clouds 23 1017 100 10000 2.1 160 07:18 17.10.2019
3235 Clouds 24 1018 100 10000 3.1 180 06:40 17.10.2019
3236 Clouds 24 1018 100 10000 3.1 180 06:21 17.10.2019
3237 Clouds 24 1018 94 10000 3.6 180 05:52 17.10.2019
3238 Clouds 24 1018 94 10000 3.6 180 05:32 17.10.2019
3239 Clouds 24 1018 94 10000 3.6 180 04:54 17.10.2019
3240 Clouds 23 1018 94 10000 4.1 180 03:55 17.10.2019
3241 Clouds 24 1018 94 10000 3.1 170 02:37 17.10.2019
3242 Clouds 24 1017 94 10000 3.6 170 01:31 17.10.2019
3243 Clouds 24 1017 94 10000 4.6 160 00:40 17.10.2019
3244 Clouds 24 1017 94 10000 4.6 160 00:19 17.10.2019
3245 Clouds 24 1016 94 10000 5.7 160 23:42 16.10.2019
3246 Clouds 25 1016 94 10000 5.7 160 23:21 16.10.2019
3247 Clouds 25 1016 94 10000 6.7 170 22:56 16.10.2019
3248 Clouds 24 1016 94 10000 6.7 170 22:37 16.10.2019
3249 Clouds 25 1016 94 10000 6.7 170 22:19 16.10.2019
3250 Clouds 26 1016 88 10000 6.7 160 21:57 16.10.2019
3251 Clouds 25 1016 88 10000 6.7 160 21:37 16.10.2019
3252 Clouds 26 1016 88 10000 6.7 160 21:19 16.10.2019
3253 Clouds 27 1016 83 10000 6.2 160 20:58 16.10.2019
3254 Clouds 27 1016 83 10000 6.2 160 20:58 16.10.2019
3255 Clouds 27 1016 83 10000 6.2 160 20:39 16.10.2019
3256 Clouds 27 1016 83 10000 6.2 160 20:21 16.10.2019
3257 Clouds 28 1016 83 10000 6.7 160 19:59 16.10.2019
3258 Clouds 28 1016 83 10000 6.7 160 19:39 16.10.2019
3259 Clouds 28 1016 83 10000 6.7 160 19:20 16.10.2019
3260 Clouds 28 1017 83 10000 6.2 170 18:54 16.10.2019
3261 Clouds 28 1017 83 10000 6.2 170 18:54 16.10.2019
3262 Clouds 27 1017 83 10000 6.2 170 18:36 16.10.2019
3263 Clouds 28 1017 83 10000 6.2 170 18:18 16.10.2019
3264 Clouds 28 1018 78 10000 6.2 160 17:54 16.10.2019
3265 Clouds 27 1018 78 10000 6.2 160 17:36 16.10.2019
3266 Clouds 28 1018 78 10000 6.2 160 17:18 16.10.2019
3267 Clouds 28 1018 78 10000 5.1 160 16:42 16.10.2019
3268 Clouds 28 1018 78 10000 5.1 160 16:42 16.10.2019
3269 Clouds 27 1018 78 10000 5.1 160 16:21 16.10.2019
3270 Clouds 27 1018 78 10000 5.1 160 16:21 16.10.2019
3271 Clouds 28 1019 78 10000 3.6 150 15:58 16.10.2019
3272 Clouds 27 1019 78 10000 3.6 150 15:39 16.10.2019
3273 Clouds 27 1019 78 10000 3.6 150 15:39 16.10.2019
3274 Clouds 26 1019 78 10000 2.6 130 15:18 16.10.2019
3275 Clouds 26 1019 78 10000 2.6 130 14:58 16.10.2019
3276 Clouds 26 1019 78 10000 2.6 130 14:38 16.10.2019
3277 Clouds 26 1019 78 10000 2.6 130 14:19 16.10.2019
3278 Clouds 26 1019 78 10000 2.6 130 13:57 16.10.2019
3279 -273 0 0 0 0 0 13:56 16.10.2019
3280 Clouds 26 1019 88 10000 2.1 140 13:38 16.10.2019
3281 Clouds 26 1019 88 10000 2.1 140 13:38 16.10.2019
3282 Clouds 25 1019 88 10000 2.1 140 13:19 16.10.2019
3283 -273 0 0 0 0 0 12:42 16.10.2019
3284 Clouds 22 1018 100 10000 1.5 120 12:19 16.10.2019
3285 Clouds 21 1017 100 10000 0.5 120 11:45 16.10.2019
3286 Clouds 22 1017 100 10000 0.5 120 11:19 16.10.2019
3287 -273 0 0 0 0 0 10:55 16.10.2019
3288 Clouds 22 1017 100 10000 1.988 35 10:36 16.10.2019
3289 Clouds 22 1017 100 10000 1.988 35 10:18 16.10.2019
3290 Clouds 23 1016 94 10000 0.5 100 09:40 16.10.2019
3291 Clouds 23 1016 94 10000 0.5 100 09:21 16.10.2019
3292 Clouds 23 1017 94 10000 1 170 08:46 16.10.2019
3293 Clouds 23 1017 94 10000 1 170 08:26 16.10.2019
3294 Clouds 23 1017 94 10000 1 170 07:58 16.10.2019
3295 Clouds 23 1017 94 10000 1 170 07:40 16.10.2019
3296 Clouds 23 1017 94 10000 1 170 07:21 16.10.2019
3297 Clouds 24 1017 94 10000 2.6 170 06:46 16.10.2019
3298 Clouds 24 1017 94 10000 2.6 170 06:27 16.10.2019
3299 Clouds 23 1018 94 10000 2.6 160 04:24 16.10.2019
3300 Clouds 24 1018 94 10000 2.1 150 02:50 16.10.2019
3301 Clouds 24 1018 94 10000 2.6 150 01:20 16.10.2019
3302 Clouds 24 1018 94 10000 2.6 150 00:58 16.10.2019
3303 Clouds 24 1018 94 10000 2.6 150 00:58 16.10.2019
3304 Clouds 24 1018 94 10000 3.6 170 00:39 16.10.2019
3305 Clouds 24 1018 94 10000 3.6 170 23:58 15.10.2019
3306 Clouds 24 1017 94 10000 6.2 160 23:38 15.10.2019
3307 Clouds 25 1017 94 10000 6.2 160 23:19 15.10.2019
3308 Clouds 25 1016 88 10000 6.2 170 22:55 15.10.2019
3309 Clouds 25 1016 88 10000 6.2 170 22:37 15.10.2019
3310 Clouds 26 1016 88 10000 6.2 170 22:18 15.10.2019
3311 Clouds 26 1016 78 10000 6.2 160 21:54 15.10.2019
3312 Clouds 26 1016 78 10000 6.2 160 21:36 15.10.2019
3313 Clouds 27 1016 78 10000 6.2 160 21:18 15.10.2019
3314 Clouds 28 1015 69 10000 6.7 170 20:54 15.10.2019
3315 Clouds 28 1015 69 10000 6.7 170 20:54 15.10.2019
3316 Clouds 28 1015 69 10000 6.7 170 20:54 15.10.2019
3317 Clouds 28 1015 69 10000 6.7 170 20:36 15.10.2019
3318 Clouds 28 1015 69 10000 6.7 170 20:18 15.10.2019
3319 Clouds 28 1016 66 10000 6.2 160 19:41 15.10.2019
3320 Clouds 28 1016 66 10000 6.2 160 19:20 15.10.2019
3321 Clouds 28 1016 66 10000 6.2 160 19:20 15.10.2019
3322 Clouds 28 1016 70 10000 5.7 160 18:57 15.10.2019
3323 Clouds 28 1016 70 10000 5.7 160 18:39 15.10.2019
3324 Clouds 28 1016 70 10000 5.7 160 18:20 15.10.2019
3325 Clouds 28 1017 62 10000 4.6 160 17:42 15.10.2019
3326 Clouds 28 1017 62 10000 4.6 160 17:21 15.10.2019
3327 Clouds 28 1017 62 10000 4.6 160 16:59 15.10.2019
3328 Clouds 28 1017 62 10000 4.1 150 16:41 15.10.2019
3329 Clouds 28 1017 62 10000 4.1 150 16:21 15.10.2019
3330 Clouds 28 1017 62 10000 4.1 150 15:56 15.10.2019
3331 Clouds 28 1018 66 10000 2.6 120 15:38 15.10.2019
3332 Clouds 27 1018 66 10000 2.6 120 15:19 15.10.2019
3333 Clouds 27 1018 69 10000 2.1 50 14:55 15.10.2019
3334 Clouds 27 1018 69 10000 2.1 50 14:36 15.10.2019
3335 Clouds 26 1018 69 10000 2.1 50 14:18 15.10.2019
3336 Clouds 26 1018 69 10000 2.6 30 13:43 15.10.2019
3337 Clouds 26 1018 69 10000 2.6 30 13:43 15.10.2019
3338 Clouds 26 1018 69 10000 2.6 30 13:20 15.10.2019
3339 Clouds 24 1017 78 10000 2.1 210 12:56 15.10.2019
3340 Clouds 24 1017 78 10000 2.1 210 12:56 15.10.2019
3341 Clouds 26 1017 78 10000 2.1 210 12:38 15.10.2019
3342 Clouds 23 1017 78 10000 2.1 210 12:19 15.10.2019
3343 Clouds 23 1017 78 10000 2.1 210 12:19 15.10.2019
3344 Clouds 23 1016 88 10000 1.5 180 11:43 15.10.2019
3345 Clouds 24 1016 88 10000 1.5 180 11:20 15.10.2019
3346 Clouds 23 1015 88 10000 2.1 180 10:56 15.10.2019
3347 Clouds 23 1015 88 10000 2.1 180 10:56 15.10.2019
3348 Clouds 23 1015 88 10000 2.1 180 10:37 15.10.2019
3349 Clouds 23 1015 88 10000 2.1 180 10:18 15.10.2019
3350 Clouds 24 1015 83 10000 3.1 200 09:55 15.10.2019
3351 Clouds 24 1015 83 10000 3.1 200 09:36 15.10.2019
3352 Clouds 24 1015 83 10000 3.1 200 09:18 15.10.2019
3353 Clouds 24 1015 94 10000 3.1 190 08:41 15.10.2019
3354 Clouds 24 1015 94 10000 3.1 190 08:20 15.10.2019
3355 Clouds 24 1015 83 10000 2.1 110 07:48 15.10.2019
3356 Clouds 24 1015 83 10000 2.1 110 07:23 15.10.2019
3357 Clouds 24 1016 78 10000 4.6 250 06:58 15.10.2019
3358 Clouds 24 1016 78 10000 4.6 250 06:40 15.10.2019
3359 Clouds 24 1016 78 10000 4.6 250 06:20 15.10.2019
3360 Clouds 24 1015 88 10000 2.6 180 05:37 15.10.2019
3361 Clear 24 1015 100 10000 2.1 130 04:54 15.10.2019
3362 Clear 24 1015 100 10000 2.1 130 04:23 15.10.2019
3363 Clear 24 1015 88 10000 2.1 70 03:35 15.10.2019
3364 Clear 25 1014 83 10000 2.6 160 02:22 15.10.2019
3365 Clear 25 1014 88 10000 1.5 150 01:47 15.10.2019
3366 Clear 24 1014 88 10000 1.5 150 01:18 15.10.2019
3367 Clear 24 1013 88 10000 3.6 170 00:47 15.10.2019
3368 Clear 25 1013 88 10000 3.6 170 00:20 15.10.2019
3369 Clouds 25 1012 88 10000 4.6 150 23:40 14.10.2019
3370 Clouds 25 1012 88 10000 4.6 150 23:19 14.10.2019
3371 Clouds 26 1011 78 10000 6.7 150 22:41 14.10.2019
3372 Clouds 27 1011 78 10000 6.7 150 22:21 14.10.2019
3373 Clouds 27 1011 78 10000 6.7 150 22:21 14.10.2019
3374 Clouds 27 1011 78 10000 6.7 150 21:59 14.10.2019
3375 Clouds 28 1011 74 10000 8.2 190 21:40 14.10.2019
3376 Clouds 29 1011 74 10000 8.2 190 21:21 14.10.2019
3377 Clouds 29 1010 70 10000 7.7 190 20:59 14.10.2019
3378 Clouds 29 1010 70 10000 7.7 190 20:39 14.10.2019
3379 Clouds 29 1010 70 10000 7.7 190 20:20 14.10.2019
3380 Clouds 29 1010 70 10000 7.7 190 19:58 14.10.2019
3381 Clouds 30 1011 62 10000 7.2 180 19:40 14.10.2019
3382 Clouds 31 1011 62 10000 7.2 180 19:22 14.10.2019
3383 Clouds 31 1011 59 10000 7.2 190 18:58 14.10.2019
3384 Clouds 31 1011 59 10000 7.2 190 18:38 14.10.2019
3385 Clouds 31 1011 59 10000 7.2 190 18:18 14.10.2019
3386 Clouds 31 1011 59 10000 7.2 190 18:18 14.10.2019
3387 Clouds 32 1012 79 10000 5.7 140 17:44 14.10.2019
3388 Clouds 31 1012 79 10000 5.7 140 17:25 14.10.2019
3389 -273 0 0 0 0 0 16:59 14.10.2019
3390 Clear 31 1012 74 10000 5.1 150 16:40 14.10.2019
3391 Clear 31 1012 74 10000 5.1 150 16:20 14.10.2019
3392 Clear 31 1012 74 10000 5.1 150 16:20 14.10.2019
3393 Clear 31 1013 83 10000 3.1 140 15:42 14.10.2019
3394 Clear 30 1013 83 10000 3.1 140 15:22 14.10.2019
3395 Clear 30 1013 74 10000 2.6 360 14:56 14.10.2019
3396 Clear 28 1013 74 10000 2.6 360 14:38 14.10.2019
3397 Clear 29 1013 74 10000 2.6 360 14:18 14.10.2019
3398 Clear 26 1013 78 10000 3.1 360 13:42 14.10.2019
3399 Clear 26 1013 78 10000 3.1 360 13:21 14.10.2019
3400 Clear 26 1013 78 10000 3.1 360 13:21 14.10.2019
3401 Clear 26 1012 83 10000 2.1 360 12:54 14.10.2019
3402 Clear 27 1012 83 10000 2.1 360 12:36 14.10.2019
3403 Clear 23 1012 83 10000 2.1 360 12:18 14.10.2019
3404 Clear 22 1011 94 10000 2.6 320 11:43 14.10.2019
3405 Clear 22 1011 94 10000 2.6 320 11:24 14.10.2019
3406 Clear 22 1011 94 10000 2.6 310 10:55 14.10.2019
3407 Clear 23 1011 94 10000 2.6 310 10:37 14.10.2019
3408 Clear 23 1011 94 10000 2.6 310 10:18 14.10.2019
3409 Clear 23 1010 94 10000 2.1 320 09:41 14.10.2019
3410 Clear 23 1010 94 10000 2.1 320 09:41 14.10.2019
3411 Clear 23 1010 94 10000 2.1 320 09:20 14.10.2019
3412 Clear 23 1010 94 10000 3.6 330 08:49 14.10.2019
3413 Clear 23 1010 94 10000 3.6 330 08:23 14.10.2019
3414 Clear 23 1010 88 10000 3.1 340 07:47 14.10.2019
3415 Clear 23 1010 88 10000 3.1 340 07:25 14.10.2019
3416 Clear 24 1011 94 10000 3.1 340 06:58 14.10.2019
3417 Clear 24 1011 94 10000 3.1 340 06:28 14.10.2019
3418 Clear 24 1011 88 10000 1.5 340 05:56 14.10.2019
3419 Clear 24 1011 88 10000 1.5 340 05:25 14.10.2019
3420 Clear 25 1011 74 10000 0.5 170 03:50 14.10.2019
3421 Clear 25 1011 74 10000 0.5 170 03:25 14.10.2019
3422 Clear 26 1011 83 10000 1 190 02:31 14.10.2019
3423 Clear 27 1010 78 10000 2.6 190 01:21 14.10.2019
3424 Clear 28 1010 78 10000 2.1 160 00:42 14.10.2019
3425 Clear 30 1010 78 10000 2.1 160 00:18 14.10.2019
3426 Clear 30 1010 70 10000 3.6 180 23:41 13.10.2019
3427 Clear 33 1010 70 10000 3.6 180 23:19 13.10.2019
3428 Clouds 33 1010 55 10000 4.6 190 22:57 13.10.2019
3429 Clouds 32 1010 55 10000 4.6 190 22:39 13.10.2019
3430 Clouds 35 1010 55 10000 4.6 190 22:20 13.10.2019
3431 Clouds 35 1010 55 10000 4.6 190 22:20 13.10.2019
3432 Clouds 35 1010 59 10000 4.6 180 21:57 13.10.2019
3433 Clouds 35 1010 59 10000 4.6 180 21:36 13.10.2019
3434 Clouds 35 1010 59 10000 4.6 180 21:18 13.10.2019
3435 Clouds 35 1010 84 10000 5.1 170 20:57 13.10.2019
3436 Clouds 35 1010 84 10000 5.1 170 20:56 13.10.2019
3437 Clouds 34 1010 84 10000 5.1 170 20:37 13.10.2019
3438 Clouds 35 1010 84 10000 5.1 170 20:19 13.10.2019
3439 Clouds 35 1010 66 10000 4.6 160 19:55 13.10.2019
3440 Clouds 35 1010 66 10000 4.6 160 19:55 13.10.2019
3441 Clouds 35 1010 66 10000 4.6 160 19:55 13.10.2019
3442 Clouds 35 1010 66 10000 4.6 160 19:37 13.10.2019
3443 Clouds 35 1010 66 10000 4.6 160 19:37 13.10.2019
3444 Clouds 35 1010 66 10000 4.6 160 19:19 13.10.2019
3445 Clouds 35 1011 66 10000 4.1 160 18:55 13.10.2019
3446 Clouds 35 1011 66 10000 4.1 160 18:55 13.10.2019
3447 Clouds 35 1011 66 10000 4.1 160 18:36 13.10.2019
3448 Clouds 34 1011 66 10000 4.1 160 18:18 13.10.2019
3449 Clouds 33 1012 70 10000 3.1 140 17:43 13.10.2019
3450 Clouds 33 1012 70 10000 3.1 140 17:25 13.10.2019
3451 Clear 32 1013 70 10000 2.6 150 16:58 13.10.2019
3452 -273 0 0 0 0 0 16:40 13.10.2019
3453 Clear 32 1013 55 10000 2.1 330 16:18 13.10.2019
3454 Clear 31 1014 66 10000 2.1 340 15:56 13.10.2019
3455 Clear 31 1014 66 10000 2.1 340 15:36 13.10.2019
3456 Clear 29 1014 66 10000 2.1 340 15:18 13.10.2019
3457 -273 0 0 0 0 0 14:56 13.10.2019
3458 Clear 29 1014 78 10000 3.1 330 14:56 13.10.2019
3459 Clear 28 1014 78 10000 3.1 330 14:37 13.10.2019
3460 Clear 28 1014 78 10000 3.1 330 14:18 13.10.2019
3461 Clear 28 1014 83 10000 3.1 340 13:39 13.10.2019
3462 Clear 26 1014 83 10000 3.1 340 13:21 13.10.2019
3463 Clear 25 1013 88 10000 3.1 340 12:57 13.10.2019
3464 Clear 24 1013 88 10000 3.1 340 12:39 13.10.2019
3465 Clear 23 1013 88 10000 3.1 340 12:20 13.10.2019
3466 Clear 22 1012 94 10000 2.6 350 11:58 13.10.2019
3467 Clear 22 1012 94 10000 2.6 350 11:39 13.10.2019
3468 Clear 22 1012 94 10000 2.6 350 11:20 13.10.2019
3469 Clear 22 1012 94 10000 3.6 340 10:43 13.10.2019
3470 Clear 22 1012 94 10000 3.6 340 10:24 13.10.2019
3471 Clear 22 1012 94 10000 2.6 360 09:59 13.10.2019
3472 Clear 22 1012 94 10000 2.6 360 09:39 13.10.2019
3473 Clear 22 1012 94 10000 2.6 360 09:20 13.10.2019
3474 Clear 22 1012 94 10000 1 30 08:43 13.10.2019
3475 Clear 23 1012 94 10000 1 30 08:25 13.10.2019
3476 Clear 23 1012 94 10000 2.1 20 07:51 13.10.2019
3477 Clear 23 1012 94 10000 2.1 20 07:33 13.10.2019
3478 Clear 23 1013 94 10000 1 350 06:53 13.10.2019
3479 Clear 23 1013 94 10000 1 350 06:24 13.10.2019
3480 Clear 24 1013 94 10000 2.1 20 05:21 13.10.2019
3481 Clear 24 1013 94 10000 1 40 04:34 13.10.2019
3482 Clear 24 1013 94 10000 1.5 70 03:34 13.10.2019
3483 Clear 25 1013 94 10000 1 160 02:31 13.10.2019
3484 Clear 25 1013 94 10000 1 160 02:31 13.10.2019
3485 Clear 27 1012 74 10000 1.5 190 01:37 13.10.2019
3486 Clear 27 1012 74 10000 1.5 190 01:18 13.10.2019
3487 Clear 27 1012 69 10000 4.6 190 00:42 13.10.2019
3488 Clear 30 1012 69 10000 4.6 190 00:19 13.10.2019
3489 Clear 30 1012 69 10000 4.6 190 23:42 12.10.2019
3490 Clear 31 1012 69 10000 4.6 190 23:23 12.10.2019
3491 Clear 31 1012 66 10000 6.2 180 22:59 12.10.2019
3492 Clear 32 1012 66 10000 6.2 180 22:40 12.10.2019
3493 Clear 32 1012 66 10000 6.2 180 22:22 12.10.2019
3494 Clear 32 1012 70 10000 5.7 180 21:59 12.10.2019
3495 Clear 30 1012 70 10000 5.7 180 21:40 12.10.2019
3496 Clear 33 1012 70 10000 5.7 180 21:22 12.10.2019
3497 Clear 34 1012 66 10000 5.1 160 20:55 12.10.2019
3498 Clear 34 1012 41 10000 2.6 80 20:36 12.10.2019
3499 Clear 34 1012 66 10000 5.1 160 20:18 12.10.2019
3500 Clear 34 1012 62 10000 3.6 160 19:36 12.10.2019
3501 Clear 34 1012 62 10000 3.6 160 19:18 12.10.2019
3502 Clear 34 1013 62 10000 3.1 160 18:44 12.10.2019
3503 Clear 33 1013 62 10000 3.1 160 18:26 12.10.2019
3504 Clear 32 1013 62 10000 3.1 150 17:46 12.10.2019
3505 Clear 32 1014 43 10000 2.1 360 17:25 12.10.2019
3506 Clear 32 1015 58 10000 3.1 330 16:59 12.10.2019
3507 Clear 32 1015 58 10000 3.1 330 16:40 12.10.2019
3508 Clear 30 1015 58 10000 3.1 330 16:21 12.10.2019
3509 Clear 30 1016 66 10000 3.1 310 15:57 12.10.2019
3510 Clear 30 1016 66 10000 3.1 310 15:38 12.10.2019
3511 Clear 29 1016 66 10000 3.1 310 15:18 12.10.2019
3512 -273 0 0 0 0 0 14:40 12.10.2019
3513 Clear 27 1016 69 10000 2.6 330 14:20 12.10.2019
3514 Clear 27 1016 83 10000 2.6 340 13:51 12.10.2019
3515 Clear 25 1016 83 10000 2.6 340 13:32 12.10.2019
3516 Clear 24 1016 88 10000 2.6 350 12:57 12.10.2019
3517 Clear 25 1016 88 10000 2.6 350 12:38 12.10.2019
3518 Clear 22 1016 88 10000 2.6 350 12:20 12.10.2019
3519 Clear 22 1015 88 10000 2.1 350 11:47 12.10.2019
3520 Clear 21 1015 88 10000 2.1 350 11:24 12.10.2019
3521 Clear 21 1015 88 10000 3.1 10 10:58 12.10.2019
3522 Clear 21 1015 88 10000 3.1 10 10:40 12.10.2019
3523 Clear 21 1015 88 10000 3.1 10 10:21 12.10.2019
3524 Clear 21 1014 100 10000 2.1 340 09:57 12.10.2019
3525 Clear 21 1014 100 10000 2.1 340 09:57 12.10.2019
3526 Clear 21 1014 100 10000 2.1 340 09:38 12.10.2019
3527 Clear 21 1014 100 10000 2.1 340 09:20 12.10.2019
3528 Clear 22 1014 94 10000 0.5 30 08:45 12.10.2019
3529 Clear 22 1014 94 10000 0.5 30 08:25 12.10.2019
3530 Clear 22 1015 94 10000 0.5 350 07:59 12.10.2019
3531 Clear 22 1015 94 10000 0.5 350 07:31 12.10.2019
3532 Clear 22 1015 94 10000 1.5 310 06:38 12.10.2019
3533 Clear 23 1015 88 10000 1.5 320 05:44 12.10.2019
3534 Clear 23 1016 94 10000 1 10 04:43 12.10.2019
3535 Clear 24 1016 83 10000 1 100 03:56 12.10.2019
3536 Clear 24 1016 88 10000 1.5 50 02:54 12.10.2019
3537 Clear 25 1015 88 10000 3.1 180 01:35 12.10.2019
3538 Clear 26 1015 83 10000 4.1 190 00:57 12.10.2019
3539 Clear 26 1015 83 10000 4.1 190 00:38 12.10.2019
3540 Clear 27 1015 78 10000 4.6 190 23:56 11.10.2019
3541 Clear 27 1015 78 10000 4.6 190 23:37 11.10.2019
3542 Clear 29 1015 78 10000 4.6 190 23:19 11.10.2019
3543 Clouds 29 1014 74 10000 4.6 190 22:39 11.10.2019
3544 Clouds 31 1014 74 10000 4.6 190 22:21 11.10.2019
3545 Clouds 31 1014 70 10000 3.6 170 21:55 11.10.2019
3546 Clouds 31 1014 70 10000 3.6 170 21:36 11.10.2019
3547 Clouds 31 1014 70 10000 3.6 170 21:18 11.10.2019
3548 Clouds 31 1014 78 10000 3.6 160 20:43 11.10.2019
3549 Clouds 30 1014 78 10000 3.6 160 20:25 11.10.2019
3550 Clouds 31 1015 66 10000 3.6 160 19:56 11.10.2019
3551 Clouds 31 1015 66 10000 3.6 160 19:38 11.10.2019
3552 Clouds 31 1015 66 10000 3.6 160 19:38 11.10.2019
3553 Clouds 31 1015 66 10000 3.6 160 19:18 11.10.2019
3554 Clouds 30 1015 70 10000 4.1 150 18:57 11.10.2019
3555 Clouds 29 1015 70 10000 4.1 150 18:37 11.10.2019
3556 Clouds 29 1015 70 10000 4.1 150 18:37 11.10.2019
3557 Clouds 30 1015 70 10000 4.1 150 18:19 11.10.2019
3558 Clouds 30 1016 74 10000 3.6 150 17:58 11.10.2019
3559 Clouds 28 1016 74 10000 3.6 150 17:37 11.10.2019
3560 Clouds 29 1016 74 10000 3.6 150 17:18 11.10.2019
3561 Clouds 29 1017 78 10000 2.6 130 16:54 11.10.2019
3562 Clouds 29 1017 78 10000 2.6 130 16:54 11.10.2019
3563 Clouds 29 1017 78 10000 2.6 130 16:36 11.10.2019
3564 Clouds 28 1017 78 10000 2.6 130 16:18 11.10.2019
3565 Clouds 29 1017 69 10000 2.1 320 15:39 11.10.2019
3566 Clouds 27 1017 69 10000 2.1 320 15:19 11.10.2019
3567 Clouds 26 1017 78 10000 1.5 330 14:49 11.10.2019
3568 Clouds 25 1017 78 10000 1.5 330 14:30 11.10.2019
3569 Clouds 25 1018 78 10000 1.5 20 13:58 11.10.2019
3570 Clouds 26 1018 78 10000 1.5 20 13:40 11.10.2019
3571 Clouds 24 1018 78 10000 1.5 20 13:22 11.10.2019
3572 Clouds 23 1017 88 10000 1.5 50 12:56 11.10.2019
3573 Clouds 24 1017 88 10000 1.5 50 12:38 11.10.2019
3574 Clouds 22 1017 88 10000 1.5 50 12:20 11.10.2019
3575 Clouds 21 1016 94 10000 1.5 90 11:55 11.10.2019
3576 Clouds 21 1016 94 10000 1.5 90 11:55 11.10.2019
3577 Clouds 21 1016 94 10000 1.5 90 11:36 11.10.2019
3578 Clouds 21 1016 94 10000 1.5 90 11:18 11.10.2019
3579 Clouds 22 1016 94 10000 1 70 10:41 11.10.2019
3580 Clouds 22 1016 94 10000 1 70 10:23 11.10.2019
3581 Clouds 22 1016 88 10000 1 320 09:57 11.10.2019
3582 Clouds 23 1015 94 10000 0.5 10 09:38 11.10.2019
3583 Clouds 21 1015 94 10000 0.5 10 09:20 11.10.2019
3584 Clouds 21 1015 94 10000 0.5 10 09:20 11.10.2019
3585 Clouds 22 1015 100 10000 1.5 80 08:56 11.10.2019
3586 Clouds 22 1015 100 10000 1.5 80 08:37 11.10.2019
3587 Clouds 21 1015 100 10000 1.5 80 08:19 11.10.2019
3588 Clouds 22 1016 100 10000 0.5 100 07:45 11.10.2019
3589 Clouds 22 1016 100 10000 0.5 100 07:27 11.10.2019
3590 Clouds 22 1017 100 10000 1 80 06:49 11.10.2019
3591 Clouds 22 1017 100 10000 1 80 06:24 11.10.2019
3592 Clouds 22 1017 100 10000 1 80 05:41 11.10.2019
3593 Clouds 22 1017 100 10000 1 80 05:20 11.10.2019
3594 Clouds 22 1018 100 10000 1 100 04:38 11.10.2019
3595 Clouds 22 1018 100 10000 2.6 160 02:47 11.10.2019
3596 Clouds 22 1017 94 10000 2.1 170 00:52 11.10.2019
3597 Clouds 23 1017 94 10000 2.1 170 00:29 11.10.2019
3598 Rain 23 1017 94 10000 1 150 23:48 10.10.2019
3599 Rain 23 1017 94 10000 1 150 23:23 10.10.2019
3600 Clouds 23 1017 94 10000 2.1 160 22:58 10.10.2019
3601 Clouds 23 1017 94 10000 2.1 160 22:39 10.10.2019
3602 Clouds 24 1017 94 10000 2.1 160 22:21 10.10.2019
3603 Rain 24 1017 94 10000 3.6 150 21:58 10.10.2019
3604 Rain 23 1017 94 10000 3.6 150 21:40 10.10.2019
3605 Rain 24 1017 94 10000 3.6 150 21:21 10.10.2019
3606 Clouds 24 1017 94 10000 3.1 160 20:57 10.10.2019
3607 Clouds 24 1017 94 10000 3.1 160 20:57 10.10.2019
3608 Clouds 23 1017 94 10000 3.1 160 20:38 10.10.2019
3609 Clouds 23 1017 94 10000 3.1 160 20:18 10.10.2019
3610 Clouds 24 1017 88 10000 4.1 170 19:54 10.10.2019
3611 Clouds 24 1017 88 10000 4.1 170 19:36 10.10.2019
3612 Clouds 24 1017 88 10000 4.1 170 19:18 10.10.2019
3613 Clouds 24 1018 88 10000 3.6 170 18:41 10.10.2019
3614 Clouds 24 1018 88 10000 3.6 170 18:20 10.10.2019
3615 Clouds 24 1019 88 10000 2.6 160 17:57 10.10.2019
3616 Clouds 23 1019 88 10000 2.6 160 17:37 10.10.2019
3617 Clouds 23 1019 88 10000 2.6 160 17:18 10.10.2019
3618 Rain 23 1019 94 10000 2.1 170 16:48 10.10.2019
3619 Rain 23 1019 94 10000 2.1 170 16:27 10.10.2019
3620 Drizzle 23 1019 83 10000 0.5 130 15:59 10.10.2019
3621 Drizzle 23 1019 83 10000 0.5 130 15:39 10.10.2019
3622 Drizzle 23 1019 83 10000 0.5 130 15:39 10.10.2019
3623 Clouds 22 1019 83 10000 0.5 130 15:20 10.10.2019
3624 Rain 23 1020 83 10000 1.5 170 14:56 10.10.2019
3625 Rain 23 1020 83 10000 1.5 170 14:37 10.10.2019
3626 Rain 22 1020 83 10000 1.5 170 14:18 10.10.2019
3627 Clouds 21 1019 88 10000 2.1 200 13:55 10.10.2019
3628 Clouds 23 1019 88 10000 2.1 200 13:37 10.10.2019
3629 Clouds 21 1019 88 10000 2.1 200 13:18 10.10.2019
3630 Clouds 21 1018 83 10000 1 40 12:41 10.10.2019
3631 Clouds 21 1018 83 10000 1 40 12:20 10.10.2019
3632 Clouds 21 1017 94 10000 1.5 160 11:58 10.10.2019
3633 Clouds 21 1017 94 10000 1.5 160 11:58 10.10.2019
3634 Clouds 22 1017 94 10000 1.5 160 11:39 10.10.2019
3635 Clouds 21 1017 94 10000 1.5 160 11:19 10.10.2019
3636 Clouds 21 1017 83 8000 1.5 110 10:46 10.10.2019
3637 Clouds 21 1017 83 8000 1.5 110 10:27 10.10.2019
3638 Clouds 21 1017 83 8000 2.1 100 09:58 10.10.2019
3639 Clouds 22 1017 83 8000 2.1 100 09:40 10.10.2019
3640 Clouds 21 1017 83 8000 2.1 100 09:22 10.10.2019
3641 Clouds 20 1017 94 8000 1 200 08:58 10.10.2019
3642 Clouds 20 1017 94 8000 1 200 08:38 10.10.2019
3643 Clouds 20 1017 94 8000 1 200 08:38 10.10.2019
3644 Clouds 21 1017 94 8000 1 200 08:19 10.10.2019
3645 Clouds 21 1017 88 8000 2.6 60 07:46 10.10.2019
3646 Clouds 21 1017 88 8000 2.6 60 07:23 10.10.2019
3647 Clouds 21 1018 88 9000 2.1 60 06:55 10.10.2019
3648 Clouds 21 1018 88 9000 2.1 60 06:36 10.10.2019
3649 Rain 21 1018 94 9000 1 70 05:39 10.10.2019
3650 Rain 21 1018 94 9000 1 70 05:18 10.10.2019
3651 Rain 21 1018 94 10000 2.6 110 04:34 10.10.2019
3652 Drizzle 21 1019 100 10000 3.1 170 02:29 10.10.2019
3653 Mist 21 1018 100 5000 2.6 170 01:37 10.10.2019
3654 Mist 21 1018 100 5000 2.6 170 01:37 10.10.2019
3655 Mist 21 1018 100 5000 2.6 170 01:18 10.10.2019
3656 Mist 21 1018 100 5000 2.6 160 00:29 10.10.2019
3657 Mist 21 1018 100 10000 3.1 140 23:42 09.10.2019
3658 Drizzle 21 1018 100 10000 3.1 140 23:24 09.10.2019
3659 Rain 21 1017 100 9000 3.1 170 22:59 09.10.2019
3660 Rain 22 1017 100 9000 3.1 170 22:41 09.10.2019
3661 Rain 21 1017 100 9000 3.1 170 22:22 09.10.2019
3662 Rain 22 1017 88 7000 3.1 10 21:57 09.10.2019
3663 Rain 22 1017 100 9000 4.1 180 21:38 09.10.2019
3664 Rain 22 1017 100 9000 4.1 180 21:19 09.10.2019
3665 Rain 22 1017 94 8000 2.6 180 20:55 09.10.2019
3666 Rain 22 1017 94 8000 2.6 180 20:37 09.10.2019
3667 Rain 22 1017 94 8000 2.6 180 20:18 09.10.2019
3668 Rain 22 1017 94 8000 2.6 180 20:18 09.10.2019
3669 Rain 22 1017 100 10000 1.5 140 19:44 09.10.2019
3670 Rain 22 1017 100 10000 1.5 140 19:23 09.10.2019
3671 Rain 22 1017 100 9000 2.6 340 18:40 09.10.2019
3672 Rain 22 1017 100 9000 2.6 340 18:21 09.10.2019
3673 Rain 22 1018 88 6000 3.1 340 17:59 09.10.2019
3674 Rain 21 1018 100 4000 1 10 17:40 09.10.2019
3675 -273 0 0 0 0 0 17:40 09.10.2019
3676 Rain 21 1018 100 4000 1 10 17:22 09.10.2019
3677 Rain 21 1019 100 4000 2.1 240 16:58 09.10.2019
3678 Rain 21 1019 100 4000 2.1 240 16:40 09.10.2019
3679 Rain 21 1019 100 4000 2.1 240 16:21 09.10.2019
3680 Rain 21 1019 100 4000 4.6 210 15:57 09.10.2019
3681 Rain 21 1019 100 4000 4.6 210 15:38 09.10.2019
3682 Rain 21 1019 100 4000 4.6 210 15:38 09.10.2019
3683 Rain 21 1019 100 4000 4.6 210 15:19 09.10.2019
3684 Rain 21 1018 100 4000 5.1 190 14:56 09.10.2019
3685 Rain 21 1018 100 4000 5.1 190 14:37 09.10.2019
3686 Rain 21 1018 100 4000 5.1 190 14:18 09.10.2019
3687 Rain 21 1018 100 4000 3.6 190 13:39 09.10.2019
3688 Rain 21 1018 100 4000 3.6 190 13:39 09.10.2019
3689 Rain 21 1018 100 4000 4.6 170 13:20 09.10.2019
3690 Rain 21 1017 100 3000 5.1 160 12:57 09.10.2019
3691 Rain 21 1017 100 3000 5.1 160 12:38 09.10.2019
3692 Rain 21 1017 100 3000 5.1 160 12:20 09.10.2019
3693 -273 0 0 0 0 0 11:55 09.10.2019
3694 Rain 21 1017 100 800 5.1 160 11:54 09.10.2019
3695 Rain 21 1016 100 3000 5.7 160 11:36 09.10.2019
3696 Rain 21 1016 100 3000 5.7 160 11:36 09.10.2019
3697 Rain 21 1016 100 3000 5.7 160 11:18 09.10.2019
3698 Rain 21 1015 100 4000 0.5 220 10:42 09.10.2019
3699 Rain 21 1015 100 4000 0.5 220 10:20 09.10.2019
3700 Drizzle 21 1015 94 7000 1 310 09:57 09.10.2019
3701 Drizzle 21 1015 94 7000 1 310 09:38 09.10.2019
3702 Drizzle 21 1015 94 7000 1 310 09:18 09.10.2019
3703 Drizzle 22 1015 94 7000 2.1 310 08:39 09.10.2019
3704 Drizzle 22 1015 94 7000 2.1 310 08:21 09.10.2019
3705 Drizzle 22 1015 94 7000 2.1 310 08:21 09.10.2019
3706 Drizzle 22 1015 94 4000 1.5 160 07:47 09.10.2019
3707 Drizzle 22 1015 94 4000 1.5 160 07:47 09.10.2019
3708 Drizzle 22 1015 94 4000 1.5 160 07:25 09.10.2019
3709 Rain 22 1016 100 7000 1.5 310 06:59 09.10.2019
3710 Rain 22 1016 100 7000 1.5 310 06:41 09.10.2019
3711 Rain 22 1016 94 7000 2.6 200 05:53 09.10.2019
3712 Rain 22 1016 94 7000 2.6 200 05:18 09.10.2019
3713 Rain 22 1017 94 3000 3.1 190 03:49 09.10.2019
3714 Rain 22 1017 100 5000 2.1 200 02:42 09.10.2019
3715 Rain 22 1017 100 6000 3.1 210 01:39 09.10.2019
3716 Rain 22 1017 100 6000 3.1 210 01:39 09.10.2019
3717 Rain 22 1017 100 6000 3.1 210 01:19 09.10.2019
3718 Rain 22 1016 94 4000 4.1 190 00:56 09.10.2019
3719 Rain 22 1016 94 4000 4.1 190 00:37 09.10.2019
3720 Mist 22 1016 88 6000 3.6 240 00:19 09.10.2019
3721 Mist 23 1016 94 4000 5.1 180 23:39 08.10.2019
3722 Mist 23 1016 94 4000 5.1 180 23:18 08.10.2019
3723 Mist 23 1015 100 2000 5.1 190 22:56 08.10.2019
3724 Clouds 23 1015 100 7000 5.1 190 22:37 08.10.2019
3725 Clouds 23 1015 100 7000 5.1 190 22:18 08.10.2019
3726 Clouds 23 1015 94 7000 4.6 190 21:57 08.10.2019
3727 Clouds 23 1015 94 7000 4.6 190 21:38 08.10.2019
3728 Mist 24 1015 94 7000 4.6 190 21:18 08.10.2019
3729 Mist 24 1014 88 7000 5.1 190 20:55 08.10.2019
3730 Mist 24 1014 88 7000 5.1 190 20:55 08.10.2019
3731 Rain 24 1014 88 7000 5.1 190 20:37 08.10.2019
3732 Rain 24 1014 88 7000 5.1 190 20:18 08.10.2019
3733 Rain 24 1015 88 7000 3.6 210 19:56 08.10.2019
3734 Clouds 24 1015 88 7000 3.6 210 19:36 08.10.2019
3735 Clouds 24 1015 88 7000 3.6 210 19:18 08.10.2019
3736 Rain 24 1015 88 7000 4.6 180 18:45 08.10.2019
3737 Rain 25 1015 88 7000 4.6 180 18:25 08.10.2019
3738 Rain 25 1016 83 7000 2.1 150 17:58 08.10.2019
3739 Clouds 25 1016 83 7000 2.1 150 17:39 08.10.2019
3740 Clouds 25 1016 83 7000 2.1 150 17:39 08.10.2019
3741 Clouds 26 1016 83 7000 2.1 150 17:20 08.10.2019
3742 Clouds 26 1016 94 7000 3.6 140 16:56 08.10.2019
3743 -273 0 0 0 0 0 16:56 08.10.2019
3744 Clouds 27 1016 94 7000 3.6 140 16:37 08.10.2019
3745 Rain 25 1016 94 7000 3.6 140 16:19 08.10.2019
3746 Clouds 27 1016 88 6000 1.5 110 15:40 08.10.2019
3747 Clouds 25 1016 88 6000 1.5 110 15:21 08.10.2019
3748 Clouds 24 1016 94 6000 1.5 110 14:57 08.10.2019
3749 Clouds 25 1016 94 6000 1.5 110 14:38 08.10.2019
3750 Mist 24 1016 94 6000 1.5 110 14:20 08.10.2019
3751 Clouds 24 1016 100 6000 1 20 13:55 08.10.2019
3752 Clouds 23 1016 100 6000 1 20 13:37 08.10.2019
3753 Clouds 23 1016 100 6000 1 20 13:18 08.10.2019
3754 Clouds 23 1015 100 6000 2.1 10 12:42 08.10.2019
3755 Clouds 22 1015 100 6000 2.1 10 12:21 08.10.2019
3756 Clouds 22 1014 100 6000 2.1 340 11:59 08.10.2019
3757 Clouds 23 1014 100 6000 2.1 340 11:40 08.10.2019
3758 Clouds 22 1014 100 6000 2.1 340 11:21 08.10.2019
3759 Drizzle 22 1014 100 5000 2.6 340 10:55 08.10.2019
3760 Clouds 22 1014 100 8000 2.6 320 10:36 08.10.2019
3761 Clouds 22 1014 100 8000 2.6 320 10:18 08.10.2019
3762 Rain 22 1014 100 8000 2.1 180 09:41 08.10.2019
3763 Rain 22 1014 100 8000 2.1 180 09:41 08.10.2019
3764 Rain 22 1014 100 8000 2.1 180 09:23 08.10.2019
3765 Rain 22 1014 100 8000 1 120 08:57 08.10.2019
3766 Rain 22 1014 100 8000 1 120 08:39 08.10.2019
3767 Rain 22 1014 100 8000 1 120 08:21 08.10.2019
3768 Rain 22 1014 100 7000 1 110 07:41 08.10.2019
3769 Rain 22 1014 100 7000 1 110 07:20 08.10.2019
3770 Rain 22 1014 100 7000 1 110 07:20 08.10.2019
3771 Rain 23 1015 100 7000 2.1 330 06:47 08.10.2019
3772 Rain 23 1015 100 7000 2.1 330 06:26 08.10.2019
3773 Rain 23 1015 100 10000 2.1 210 05:45 08.10.2019
3774 Rain 23 1015 100 10000 2.1 210 05:24 08.10.2019
3775 Rain 23 1016 94 4000 2.6 240 03:32 08.10.2019
3776 Rain 23 1015 94 10000 4.1 190 02:48 08.10.2019
3777 Rain 23 1015 94 10000 4.1 190 02:29 08.10.2019
3778 Rain 23 1015 94 10000 5.7 180 01:43 08.10.2019
3779 Rain 23 1015 94 10000 5.7 180 01:25 08.10.2019
3780 Clouds 24 1014 94 10000 5.7 170 00:45 08.10.2019
3781 Clouds 23 1014 94 9000 6.7 170 00:20 08.10.2019
3782 Clouds 24 1014 94 9000 6.2 180 23:39 07.10.2019
3783 Clouds 24 1014 94 9000 6.2 180 23:19 07.10.2019
3784 Clouds 24 1013 88 9000 6.7 170 22:55 07.10.2019
3785 Clouds 25 1013 88 9000 6.7 170 22:37 07.10.2019
3786 Clouds 25 1013 88 9000 6.7 170 22:19 07.10.2019
3787 Clouds 25 1013 88 9000 6.2 160 21:55 07.10.2019
3788 Clouds 26 1013 88 9000 6.2 160 21:37 07.10.2019
3789 Clouds 26 1013 88 9000 6.2 160 21:18 07.10.2019
3790 Clouds 26 1013 83 10000 6.7 170 20:57 07.10.2019
3791 Clouds 26 1013 83 10000 6.7 170 20:38 07.10.2019
3792 Clouds 27 1013 83 10000 6.7 170 20:19 07.10.2019
3793 Clouds 27 1013 83 9000 5.7 150 19:56 07.10.2019
3794 Clouds 26 1013 83 9000 5.7 150 19:38 07.10.2019
3795 Clouds 26 1013 83 9000 5.7 150 19:38 07.10.2019
3796 Clouds 27 1013 83 9000 5.7 150 19:18 07.10.2019
3797 Clouds 27 1015 78 9000 5.7 160 18:55 07.10.2019
3798 Clouds 28 1015 78 9000 5.7 160 18:37 07.10.2019
3799 Clouds 27 1015 78 9000 5.7 160 18:18 07.10.2019
3800 Clouds 27 1015 83 9000 5.1 160 17:41 07.10.2019
3801 Clouds 26 1015 83 9000 5.1 160 17:19 07.10.2019
3802 Clouds 26 1016 83 9000 3.6 150 16:55 07.10.2019
3803 Clouds 26 1016 83 9000 3.6 150 16:55 07.10.2019
3804 Clouds 28 1016 83 9000 3.6 150 16:37 07.10.2019
3805 Clouds 26 1016 83 9000 3.6 150 16:18 07.10.2019
3806 Clouds 25 1016 88 10000 3.1 150 15:41 07.10.2019
3807 Clouds 25 1016 88 10000 3.1 150 15:41 07.10.2019
3808 Clouds 26 1016 88 10000 3.1 150 15:41 07.10.2019
3809 Clouds 25 1016 88 10000 3.1 150 15:22 07.10.2019
3810 Clouds 24 1016 94 9000 3.1 140 14:42 07.10.2019
3811 Clouds 25 1016 94 9000 3.1 140 14:42 07.10.2019
3812 Clouds 24 1016 94 9000 3.1 140 14:23 07.10.2019
3813 Clouds 24 1016 88 9000 2.6 130 13:59 07.10.2019
3814 Clouds 25 1016 88 9000 2.6 130 13:40 07.10.2019
3815 Clouds 24 1016 88 9000 2.6 130 13:18 07.10.2019
3816 Clouds 23 1016 88 8000 2.6 170 12:55 07.10.2019
3817 Clouds 24 1016 88 8000 2.6 170 12:36 07.10.2019
3818 Clouds 23 1016 88 8000 2.6 170 12:18 07.10.2019
3819 Clouds 22 1015 94 8000 2.6 180 11:56 07.10.2019
3820 Clouds 22 1015 94 8000 2.6 180 11:36 07.10.2019
3821 Clouds 22 1015 94 8000 2.6 180 11:18 07.10.2019
3822 Clouds 22 1015 94 8000 2.1 180 10:40 07.10.2019
3823 Clouds 22 1015 100 10000 2.1 120 10:20 07.10.2019
3824 Clouds 22 1015 100 10000 2.1 120 09:42 07.10.2019
3825 Clouds 22 1015 100 10000 2.1 120 09:23 07.10.2019
3826 Clouds 23 1015 94 10000 2.1 40 08:56 07.10.2019
3827 Clouds 23 1015 94 10000 2.1 40 08:37 07.10.2019
3828 Clouds 23 1015 94 10000 2.1 40 08:18 07.10.2019
3829 Clouds 23 1015 88 10000 1.5 50 07:41 07.10.2019
3830 Clouds 23 1015 88 10000 1.5 50 07:21 07.10.2019
3831 Clouds 23 1015 88 10000 3.6 330 06:49 07.10.2019
3832 Clouds 23 1015 88 10000 3.6 330 06:27 07.10.2019
3833 Clouds 23 1016 88 10000 3.1 180 05:47 07.10.2019
3834 Clouds 23 1016 88 10000 3.1 180 05:22 07.10.2019
3835 Clouds 23 1016 88 10000 3.1 180 04:25 07.10.2019
3836 Clouds 23 1016 88 10000 4.6 180 03:45 07.10.2019
3837 Clouds 23 1016 88 10000 4.6 180 03:21 07.10.2019
3838 Clouds 24 1016 88 10000 3.1 170 02:22 07.10.2019
3839 Clouds 24 1016 88 10000 3.1 170 02:22 07.10.2019
3840 Clouds 24 1015 88 10000 4.1 170 01:52 07.10.2019
3841 Clouds 24 1015 88 10000 4.1 170 01:21 07.10.2019
3842 Clouds 24 1014 88 10000 3.1 170 00:41 07.10.2019
3843 Clouds 24 1014 88 10000 3.1 170 00:20 07.10.2019
3844 Clouds 24 1014 88 10000 4.1 160 23:54 06.10.2019
3845 Clouds 24 1014 88 10000 4.1 160 23:36 06.10.2019
3846 Clouds 24 1014 88 10000 4.1 160 23:18 06.10.2019
3847 Clouds 25 1013 83 10000 5.1 170 22:41 06.10.2019
3848 Clouds 25 1013 83 10000 5.1 170 22:22 06.10.2019
3849 Clouds 26 1013 74 10000 5.7 180 21:58 06.10.2019
3850 Clouds 26 1013 74 10000 5.7 180 21:38 06.10.2019
3851 Clouds 25 1013 74 10000 5.7 180 21:19 06.10.2019
3852 Clouds 25 1013 74 10000 7.2 190 20:58 06.10.2019
3853 Clouds 26 1013 74 10000 7.2 190 20:40 06.10.2019
3854 Clouds 26 1013 74 10000 7.2 190 20:21 06.10.2019
3855 Clouds 26 1013 69 10000 6.7 180 19:58 06.10.2019
3856 Clouds 27 1013 69 10000 6.7 180 19:38 06.10.2019
3857 Clouds 27 1013 69 10000 6.7 180 19:20 06.10.2019
3858 Clouds 28 1013 66 10000 6.2 170 18:57 06.10.2019
3859 Clouds 28 1013 66 10000 6.2 170 18:39 06.10.2019
3860 Clouds 28 1013 66 10000 6.2 170 18:20 06.10.2019
3861 Clouds 28 1014 66 10000 5.7 180 17:59 06.10.2019
3862 Clouds 30 1014 66 10000 5.7 180 17:39 06.10.2019
3863 Clouds 28 1014 66 10000 5.7 180 17:19 06.10.2019
3864 -273 0 0 0 0 0 16:54 06.10.2019
3865 Clouds 27 1014 69 10000 3.6 170 16:36 06.10.2019
3866 Clouds 27 1014 69 10000 3.6 170 16:18 06.10.2019
3867 Clouds 27 1014 66 10000 3.1 150 15:42 06.10.2019
3868 Clouds 27 1014 66 10000 3.1 150 15:19 06.10.2019
3869 Clouds 27 1014 65 10000 2.6 160 14:44 06.10.2019
3870 Clouds 26 1014 65 10000 2.6 160 14:25 06.10.2019
3871 Clouds 27 1014 74 10000 4.1 190 13:58 06.10.2019
3872 Clouds 25 1014 74 10000 4.1 190 13:39 06.10.2019
3873 Clouds 25 1014 74 10000 4.1 190 13:21 06.10.2019
3874 Clouds 24 1013 83 10000 3.6 190 12:57 06.10.2019
3875 Clouds 24 1013 83 10000 3.6 190 12:39 06.10.2019
3876 Clouds 23 1013 83 10000 3.6 190 12:20 06.10.2019
3877 Clouds 23 1012 88 10000 3.1 200 11:58 06.10.2019
3878 Clouds 24 1012 88 10000 3.1 200 11:39 06.10.2019
3879 Clouds 23 1012 88 10000 3.1 200 11:20 06.10.2019
3880 Clouds 23 1012 88 10000 4.1 200 10:45 06.10.2019
3881 Clouds 23 1012 88 10000 4.1 200 10:26 06.10.2019
3882 Clouds 24 1011 88 10000 4.6 190 09:58 06.10.2019
3883 Clouds 24 1011 88 10000 4.6 190 09:40 06.10.2019
3884 Clouds 24 1011 88 10000 4.6 190 09:19 06.10.2019
3885 Clear 24 1010 83 10000 2.6 190 08:45 06.10.2019
3886 Clear 24 1010 83 10000 2.6 190 08:21 06.10.2019
3887 Clear 23 1010 94 10000 2.1 140 07:57 06.10.2019
3888 Clear 23 1010 94 10000 2.1 140 07:38 06.10.2019
3889 Clear 25 1010 94 10000 1 50 06:32 06.10.2019
3890 Clear 26 1010 78 10000 2.6 320 05:35 06.10.2019
3891 Clear 26 1011 69 10000 3.1 310 04:27 06.10.2019
3892 Clear 27 1010 69 10000 1 300 02:48 06.10.2019
3893 Clear 27 1010 69 10000 1 300 02:28 06.10.2019
3894 Clear 26 1010 69 10000 2.1 20 01:46 06.10.2019
3895 Clear 27 1010 69 10000 2.1 20 01:27 06.10.2019
3896 Clear 27 1010 69 10000 2.1 20 01:27 06.10.2019
3897 Clear 27 1009 69 10000 2.6 150 00:59 06.10.2019
3898 Clear 27 1009 69 10000 2.6 150 00:59 06.10.2019
3899 Clear 28 1009 69 10000 2.6 150 00:31 06.10.2019
3900 Clear 29 1009 65 10000 4.1 180 23:46 05.10.2019
3901 Clear 30 1009 65 10000 4.1 180 23:24 05.10.2019
3902 Clear 31 1009 62 10000 3.1 180 22:59 05.10.2019
3903 Clear 31 1009 62 10000 3.1 180 22:59 05.10.2019
3904 Clear 31 1009 62 10000 3.1 180 22:40 05.10.2019
3905 Clear 31 1009 62 10000 3.1 180 22:21 05.10.2019
3906 Clear 31 1009 62 10000 3.1 180 22:21 05.10.2019
3907 Clouds 31 1009 62 10000 4.1 170 21:59 05.10.2019
3908 Clouds 29 1009 62 10000 4.1 170 21:40 05.10.2019
3909 Clouds 32 1009 62 10000 4.1 170 21:21 05.10.2019
3910 Clear 32 1009 62 10000 5.1 160 20:56 05.10.2019
3911 Clear 33 1009 62 10000 5.1 160 20:38 05.10.2019
3912 Clear 33 1009 62 10000 5.1 160 20:19 05.10.2019
3913 Clouds 33 1010 58 10000 4.6 160 19:40 05.10.2019
3914 Clouds 33 1010 58 10000 4.6 160 19:22 05.10.2019
3915 Clouds 33 1011 58 10000 5.1 160 18:57 05.10.2019
3916 Clouds 31 1011 58 10000 5.1 160 18:39 05.10.2019
3917 Clouds 32 1011 58 10000 5.1 160 18:21 05.10.2019
3918 Clouds 32 1012 55 10000 4.1 160 17:56 05.10.2019
3919 Clouds 32 1012 55 10000 4.1 160 17:37 05.10.2019
3920 Clouds 32 1012 55 10000 4.1 160 17:19 05.10.2019
3921 Clouds 31 1013 58 10000 2.6 130 16:42 05.10.2019
3922 Clouds 30 1013 58 10000 2.6 130 16:22 05.10.2019
3923 Clear 30 1013 48 10000 1.5 320 15:58 05.10.2019
3924 Clear 30 1013 48 10000 1.5 320 15:40 05.10.2019
3925 Clear 29 1013 48 10000 1.5 320 15:21 05.10.2019
3926 Clouds 29 1014 58 10000 1 360 14:58 05.10.2019
3927 Clouds 29 1014 58 10000 1 360 14:58 05.10.2019
3928 Clouds 27 1014 65 10000 1 90 14:40 05.10.2019
3929 Clouds 28 1014 65 10000 1 90 14:20 05.10.2019
3930 Clouds 27 1014 69 10000 1.5 140 13:42 05.10.2019
3931 Clouds 24 1014 69 10000 1.5 140 13:23 05.10.2019
3932 Clouds 24 1014 78 10000 1.5 100 12:47 05.10.2019
3933 Clouds 22 1014 78 10000 1.5 100 12:21 05.10.2019
3934 Clear 21 1014 83 10000 2.03 348.313 11:59 05.10.2019
3935 Clear 22 1014 83 10000 2.03 348.313 11:39 05.10.2019
3936 Clear 22 1014 83 10000 2.03 348.313 11:19 05.10.2019
3937 Clear 23 1013 88 10000 1.5 20 10:45 05.10.2019
3938 Clear 23 1013 88 10000 1.5 20 10:26 05.10.2019
3939 Clear 23 1013 88 10000 1.5 20 10:26 05.10.2019
3940 Clear 23 1013 83 10000 1.5 340 09:59 05.10.2019
3941 Clear 23 1013 83 10000 1.5 340 09:39 05.10.2019
3942 Clear 21 1013 83 10000 1.5 340 09:20 05.10.2019
3943 Clear 22 1013 88 10000 1 30 08:40 05.10.2019
3944 Clear 22 1013 88 10000 1 30 08:21 05.10.2019
3945 Clear 23 1013 83 10000 1.66 344.239 07:58 05.10.2019
3946 Clear 24 1013 83 10000 1.66 344.239 07:37 05.10.2019
3947 Clear 23 1013 83 10000 1.66 344.239 07:19 05.10.2019
3948 Clear 22 1013 83 10000 1 340 06:28 05.10.2019
3949 Clear 22 1014 83 10000 2.1 310 05:52 05.10.2019
3950 Clear 24 1014 78 10000 2.6 300 04:42 05.10.2019
3951 Clear 24 1014 69 10000 1 30 03:29 05.10.2019
3952 Clear 25 1014 74 10000 2.1 70 01:55 05.10.2019
3953 Clear 26 1014 74 10000 2.1 70 01:23 05.10.2019
3954 Clear 26 1014 69 10000 3.1 110 00:45 05.10.2019
3955 Clear 27 1014 69 10000 3.1 110 00:26 05.10.2019
3956 Clear 27 1013 74 10000 3.1 170 23:45 04.10.2019
3957 Clear 28 1013 74 10000 3.1 170 23:26 04.10.2019
3958 Clouds 28 1013 69 10000 3.6 180 22:59 04.10.2019
3959 Clouds 28 1013 69 10000 3.6 180 22:40 04.10.2019
3960 Clouds 29 1013 69 10000 3.6 180 22:22 04.10.2019
3961 Clouds 28 1013 69 10000 4.6 170 21:58 04.10.2019
3962 Clouds 27 1013 69 10000 4.6 170 21:39 04.10.2019
3963 Clouds 30 1013 69 10000 4.6 170 21:21 04.10.2019
3964 Clouds 30 1013 74 10000 5.7 160 20:57 04.10.2019
3965 Clouds 28 1013 74 10000 5.7 160 20:39 04.10.2019
3966 Clouds 29 1013 74 10000 5.7 160 20:21 04.10.2019
3967 Clouds 29 1013 74 10000 5.7 160 20:20 04.10.2019
3968 Clouds 30 1014 69 10000 5.1 160 19:54 04.10.2019
3969 Clouds 29 1014 69 10000 5.1 160 19:36 04.10.2019
3970 Clouds 29 1014 69 10000 5.1 160 19:18 04.10.2019
3971 Clouds 29 1015 65 9000 5.7 170 18:39 04.10.2019
3972 Clouds 28 1015 65 9000 5.7 170 18:19 04.10.2019
3973 Clouds 29 1016 74 9000 6.2 160 17:57 04.10.2019
3974 Clouds 28 1016 74 9000 6.2 160 17:38 04.10.2019
3975 Clouds 28 1016 74 9000 6.2 160 17:20 04.10.2019
3976 Clouds 28 1017 65 9000 2.1 100 16:55 04.10.2019
3977 Clouds 27 1017 65 9000 2.1 100 16:36 04.10.2019
3978 Clouds 27 1017 65 9000 2.1 100 16:18 04.10.2019
3979 Clouds 27 1017 69 9000 1.5 110 15:55 04.10.2019
3980 Clouds 28 1017 65 9000 1.5 20 15:36 04.10.2019
3981 Clouds 25 1017 65 9000 1.5 20 15:18 04.10.2019
3982 Clouds 24 1018 74 9000 3.1 330 14:42 04.10.2019
3983 Clouds 24 1018 74 9000 3.1 330 14:22 04.10.2019
3984 Clouds 24 1018 88 9000 2.6 360 13:59 04.10.2019
3985 Clouds 25 1018 88 9000 2.6 360 13:41 04.10.2019
3986 Clouds 22 1018 88 9000 2.6 360 13:19 04.10.2019
3987 Clouds 21 1017 94 8000 2.6 40 12:46 04.10.2019
3988 Clouds 19 1017 94 8000 2.6 40 12:27 04.10.2019
3989 Clouds 19 1017 94 10000 1.5 100 11:56 04.10.2019
3990 Clouds 19 1017 94 10000 1.5 100 11:56 04.10.2019
3991 Clouds 18 1017 94 10000 1.5 100 11:38 04.10.2019
3992 Clouds 21 1017 94 10000 1.5 100 11:19 04.10.2019
3993 Clouds 21 1017 94 10000 2.1 150 10:39 04.10.2019
3994 Clouds 21 1017 94 10000 2.1 150 10:20 04.10.2019
3995 Clear 21 1016 100 10000 1.5 170 09:45 04.10.2019
3996 Clear 21 1016 100 10000 1.5 170 09:45 04.10.2019
3997 Clear 20 1016 100 10000 1.5 170 09:27 04.10.2019
3998 Clear 21 1016 88 10000 1 140 08:56 04.10.2019
3999 Clear 21 1016 88 10000 1 140 08:37 04.10.2019
4000 Clear 21 1016 88 10000 1 140 08:19 04.10.2019
4001 Clear 21 1017 88 10000 1.5 70 07:43 04.10.2019
4002 Clear 21 1017 88 10000 1.5 70 07:21 04.10.2019
4003 Clear 21 1017 94 10000 1 110 06:42 04.10.2019
4004 Clear 22 1017 94 10000 1 110 06:24 04.10.2019
4005 Clouds 22 1017 94 10000 1.5 190 05:24 04.10.2019
4006 Clear 22 1017 94 10000 2.6 160 04:56 04.10.2019
4007 Clear 22 1017 94 10000 2.6 160 03:43 04.10.2019
4008 Clear 22 1017 94 10000 2.6 140 02:53 04.10.2019
4009 Clouds 23 1016 88 10000 3.1 160 01:55 04.10.2019
4010 Clouds 23 1016 88 10000 3.1 160 01:55 04.10.2019
4011 Clouds 22 1016 88 10000 3.1 160 01:29 04.10.2019
4012 Clouds 23 1016 83 10000 5.7 170 00:56 04.10.2019
4013 Clouds 23 1015 73 10000 6.2 180 23:55 03.10.2019
4014 Clouds 23 1015 73 10000 6.2 180 23:37 03.10.2019
4015 Clouds 24 1015 73 10000 6.2 180 23:18 03.10.2019
4016 Clear 24 1015 57 10000 6.7 190 22:55 03.10.2019
4017 Clear 25 1015 57 10000 6.7 190 22:37 03.10.2019
4018 Clear 25 1015 57 10000 6.7 190 22:18 03.10.2019
4019 Clear 26 1014 57 10000 7.2 190 21:55 03.10.2019
4020 Clear 26 1014 57 10000 7.2 190 21:36 03.10.2019
4021 Clear 26 1014 57 10000 7.2 190 21:18 03.10.2019
4022 Clear 26 1014 57 10000 7.2 190 21:18 03.10.2019
4023 Clear 26 1014 57 10000 7.2 170 20:55 03.10.2019
4024 Clear 26 1014 57 10000 7.2 170 20:37 03.10.2019
4025 Clear 26 1014 57 10000 7.2 170 20:19 03.10.2019
4026 Clear 26 1014 61 10000 7.7 180 19:41 03.10.2019
4027 Clear 27 1014 61 10000 7.7 180 19:22 03.10.2019
4028 Clouds 27 1015 54 10000 6.7 160 18:58 03.10.2019
4029 Clouds 27 1015 54 10000 6.7 160 18:39 03.10.2019
4030 Clouds 27 1015 54 10000 6.7 160 18:19 03.10.2019
4031 Clouds 27 1014 48 10000 6.2 140 17:56 03.10.2019
4032 Clouds 28 1015 58 10000 6.2 170 17:37 03.10.2019
4033 Clouds 28 1015 58 10000 6.2 170 17:19 03.10.2019
4034 Clear 28 1016 65 10000 2.1 120 16:44 03.10.2019
4035 Clear 26 1016 65 10000 2.1 120 16:26 03.10.2019
4036 Clear 26 1016 65 10000 2.1 340 15:56 03.10.2019
4037 Clear 26 1016 65 10000 2.1 340 15:38 03.10.2019
4038 Clear 26 1016 65 10000 2.1 340 15:20 03.10.2019
4039 Clear 25 1016 73 10000 2.1 350 14:46 03.10.2019
4040 Clear 24 1016 73 10000 2.1 350 14:27 03.10.2019
4041 Clear 24 1015 78 10000 1.5 30 13:59 03.10.2019
4042 Clear 24 1015 78 10000 1.5 30 13:41 03.10.2019
4043 Clear 22 1015 78 10000 1.5 30 13:19 03.10.2019
4044 Clear 22 1015 83 10000 2.1 320 12:56 03.10.2019
4045 Clear 23 1015 83 10000 2.1 320 12:38 03.10.2019
4046 Clear 18 1015 83 10000 2.1 320 12:19 03.10.2019
4047 Clear 18 1015 83 10000 2.1 320 12:19 03.10.2019
4048 Clear 17 1014 88 10000 0.5 300 11:41 03.10.2019
4049 Clear 17 1014 88 10000 0.5 300 11:41 03.10.2019
4050 Clear 18 1014 88 10000 0.5 300 11:23 03.10.2019
4051 -273 0 0 0 0 0 10:59 03.10.2019
4052 Clear 19 1013 94 10000 2.1 310 10:40 03.10.2019
4053 Clear 19 1013 94 10000 2.1 310 10:19 03.10.2019
4054 Clear 19 1012 88 10000 1.5 310 09:58 03.10.2019
4055 Clear 19 1012 88 10000 1.5 310 09:40 03.10.2019
4056 Clear 19 1012 88 10000 1.5 310 09:21 03.10.2019
4057 Clear 19 1012 94 10000 2.1 350 08:45 03.10.2019
4058 Clear 19 1012 94 10000 2.1 350 08:27 03.10.2019
4059 Clear 20 1013 88 10000 2.6 20 07:57 03.10.2019
4060 Clear 20 1013 88 10000 2.6 20 07:39 03.10.2019
4061 Clear 20 1013 88 10000 2.6 20 07:19 03.10.2019
4062 Clear 20 1013 78 10000 1 350 06:50 03.10.2019
4063 Clear 20 1013 78 10000 1 350 06:24 03.10.2019
4064 Clear 21 1014 78 10000 4.1 60 05:46 03.10.2019
4065 Clear 21 1014 78 10000 4.1 60 05:20 03.10.2019
4066 Clear 22 1013 73 10000 3.1 90 04:31 03.10.2019
4067 Clear 22 1013 78 10000 3.6 70 03:24 03.10.2019
4068 Clear 22 1013 73 10000 1.5 30 02:39 03.10.2019
4069 Clear 23 1012 69 10000 1.5 70 01:59 03.10.2019
4070 Clear 24 1012 69 10000 1.5 70 01:35 03.10.2019
4071 Clear 24 1012 69 10000 2.6 140 00:51 03.10.2019
4072 Clear 25 1012 69 10000 2.6 140 00:23 03.10.2019
4073 Clear 25 1011 69 10000 6.2 190 23:44 02.10.2019
4074 Clear 28 1011 69 10000 6.2 190 23:22 02.10.2019
4075 Clear 29 1011 57 10000 6.2 190 22:47 02.10.2019
4076 Clear 29 1011 57 10000 6.2 190 22:23 02.10.2019
4077 Clear 29 1011 54 10000 6.2 190 21:58 02.10.2019
4078 Clear 27 1011 54 10000 6.2 190 21:39 02.10.2019
4079 Clear 30 1011 54 10000 6.2 190 21:20 02.10.2019
4080 Clear 30 1012 61 10000 5.1 170 20:57 02.10.2019
4081 Clear 29 1012 61 10000 5.1 170 20:39 02.10.2019
4082 Clear 30 1012 61 10000 5.1 170 20:20 02.10.2019
4083 Clear 30 1012 58 10000 6.2 160 19:57 02.10.2019
4084 Clear 29 1012 58 10000 6.2 160 19:39 02.10.2019
4085 Clear 30 1012 58 10000 6.2 160 19:21 02.10.2019
4086 Clear 30 1013 51 10000 5.1 170 18:57 02.10.2019
4087 Clear 29 1013 51 10000 5.1 170 18:38 02.10.2019
4088 Clear 30 1013 51 10000 5.1 170 18:20 02.10.2019
4089 Clear 28 1014 51 10000 3.6 150 17:56 02.10.2019
4090 Clear 28 1014 51 10000 3.6 150 17:37 02.10.2019
4091 Clear 28 1014 51 10000 3.6 150 17:37 02.10.2019
4092 Clear 28 1014 51 10000 3.6 150 17:19 02.10.2019
4093 Clear 28 1014 51 10000 3.6 150 17:19 02.10.2019
4094 Clear 28 1015 54 10000 2.1 30 16:42 02.10.2019
4095 Clear 26 1015 57 10000 2.1 340 16:22 02.10.2019
4096 Clear 27 1015 57 10000 2.1 340 15:59 02.10.2019
4097 Clear 27 1015 57 10000 2.1 340 15:38 02.10.2019
4098 Clear 27 1015 57 10000 2.1 340 15:20 02.10.2019
4099 Clear 24 1015 69 10000 2.6 320 14:57 02.10.2019
4100 Clear 25 1015 69 10000 2.6 320 14:39 02.10.2019
4101 Clear 25 1015 69 10000 2.6 320 14:20 02.10.2019
4102 Clear 23 1015 73 10000 1.5 360 13:43 02.10.2019
4103 Clear 23 1015 73 10000 1.5 360 13:24 02.10.2019
4104 Clear 20 1014 77 10000 1.5 360 12:58 02.10.2019
4105 Clear 20 1014 77 10000 1.5 360 12:37 02.10.2019
4106 Clear 19 1015 77 10000 1 90 12:18 02.10.2019
4107 Clear 18 1014 82 10000 2.6 10 11:44 02.10.2019
4108 Clear 17 1014 82 10000 2.6 10 11:23 02.10.2019
4109 Clear 19 1014 82 10000 2.1 30 10:42 02.10.2019
4110 Clear 19 1014 82 10000 2.1 30 10:20 02.10.2019
4111 Clear 19 1014 77 10000 2.1 50 09:59 02.10.2019
4112 Clear 19 1014 77 10000 2.1 50 09:37 02.10.2019
4113 Clear 20 1014 77 10000 2.1 50 09:19 02.10.2019
4114 Clear 19 1013 77 10000 1 100 08:44 02.10.2019
4115 Clear 19 1013 77 10000 1 100 08:25 02.10.2019
4116 Clear 19 1013 77 10000 1 100 08:25 02.10.2019
4117 Clear 20 1014 77 10000 3.1 50 07:59 02.10.2019
4118 Clear 20 1014 77 10000 3.1 50 07:38 02.10.2019
4119 Clear 19 1015 77 10000 2.1 20 07:20 02.10.2019
4120 Clear 19 1015 77 10000 2.1 20 06:36 02.10.2019
4121 Clear 20 1015 77 10000 2.6 40 05:55 02.10.2019
4122 Clear 20 1015 77 10000 2.6 40 05:24 02.10.2019
4123 Clear 21 1016 78 10000 2.6 80 04:53 02.10.2019
4124 Clear 21 1016 78 10000 3.1 80 03:52 02.10.2019
4125 Clear 21 1016 83 10000 3.6 80 02:41 02.10.2019
4126 Clear 21 1016 83 10000 3.6 80 02:23 02.10.2019
4127 Clear 22 1015 73 10000 4.1 80 01:24 02.10.2019
4128 Clear 22 1014 78 10000 1.5 170 00:50 02.10.2019
4129 Clear 22 1014 78 10000 1.5 170 00:26 02.10.2019
4130 Clear 24 1013 73 10000 4.1 160 23:43 01.10.2019
4131 Clear 24 1013 73 10000 4.1 160 23:25 01.10.2019
4132 Clear 26 1013 69 10000 3.1 150 22:59 01.10.2019
4133 Clear 26 1013 69 10000 3.1 150 22:39 01.10.2019
4134 Clear 26 1013 69 10000 3.1 150 22:19 01.10.2019
4135 Clear 27 1013 69 10000 4.1 160 21:57 01.10.2019
4136 Clear 27 1013 69 10000 4.1 160 21:37 01.10.2019
4137 Clear 28 1013 69 10000 4.1 160 21:19 01.10.2019
4138 Clear 29 1013 61 10000 7.2 160 20:55 01.10.2019
4139 Clear 29 1013 61 10000 7.2 160 20:37 01.10.2019
4140 Clear 29 1013 61 10000 7.2 160 20:18 01.10.2019
4141 Clear 29 1014 61 10000 6.2 160 19:55 01.10.2019
4142 Clear 29 1014 61 10000 6.2 160 19:37 01.10.2019
4143 Clear 29 1014 61 10000 6.2 160 19:37 01.10.2019
4144 Clear 29 1014 61 10000 6.2 160 19:18 01.10.2019
4145 Clear 29 1015 61 10000 6.2 160 18:40 01.10.2019
4146 Clear 29 1015 61 10000 6.2 160 18:21 01.10.2019
4147 Clear 28 1016 61 10000 4.6 160 17:58 01.10.2019
4148 Clear 28 1016 61 10000 4.6 160 17:39 01.10.2019
4149 Clear 27 1016 61 10000 4.6 160 17:19 01.10.2019
4150 Clear 27 1017 61 10000 3.6 160 16:57 01.10.2019
4151 Clear 27 1017 61 10000 3.6 160 16:39 01.10.2019
4152 Clear 27 1017 61 10000 3.6 160 16:39 01.10.2019
4153 Clear 27 1017 61 10000 3.6 160 16:21 01.10.2019
4154 Clear 27 1017 61 10000 3.6 160 16:21 01.10.2019
4155 Clouds 26 1017 69 10000 3.1 140 15:42 01.10.2019
4156 Clouds 25 1017 69 10000 3.1 140 15:23 01.10.2019
4157 Clouds 24 1017 73 10000 2.1 340 14:41 01.10.2019
4158 Clouds 24 1017 73 10000 2.1 340 14:21 01.10.2019
4159 Clouds 22 1017 78 10000 2.1 20 13:59 01.10.2019
4160 Clouds 23 1017 78 10000 2.1 20 13:40 01.10.2019
4161 Clouds 22 1017 78 10000 2.1 20 13:21 01.10.2019
4162 Clouds 22 1017 78 10000 1.5 30 12:59 01.10.2019
4163 Clouds 21 1017 78 10000 1.5 30 12:40 01.10.2019
4164 Clouds 21 1017 78 10000 1.5 30 12:19 01.10.2019
4165 Clouds 19 1017 82 10000 2.6 40 11:58 01.10.2019
4166 Clouds 19 1017 82 10000 2.6 40 11:38 01.10.2019
4167 Clouds 19 1017 82 10000 2.6 40 11:19 01.10.2019
4168 Clouds 19 1016 88 10000 2.6 40 10:58 01.10.2019
4169 Clouds 19 1016 88 10000 2.6 40 10:40 01.10.2019
4170 Clouds 19 1016 88 10000 2.6 40 10:21 01.10.2019
4171 Clouds 20 1017 83 10000 2.6 50 09:40 01.10.2019
4172 Clouds 20 1017 83 10000 2.6 50 09:21 01.10.2019
4173 Clouds 20 1017 83 10000 3.6 80 08:42 01.10.2019
4174 Clouds 20 1017 83 10000 3.6 80 08:24 01.10.2019
4175 Clouds 20 1017 83 10000 2.6 80 07:49 01.10.2019
4176 Clouds 20 1017 83 10000 2.6 80 07:25 01.10.2019
4177 Clouds 20 1018 83 10000 2.1 100 06:48 01.10.2019
4178 Clouds 20 1018 83 10000 2.1 100 06:22 01.10.2019
4179 Clouds 20 1018 83 10000 2.1 110 05:46 01.10.2019
4180 Clouds 20 1018 83 10000 2.1 110 05:18 01.10.2019
4181 Clouds 21 1018 83 10000 3.1 60 04:34 01.10.2019
4182 Clouds 21 1018 88 10000 5.7 110 02:30 01.10.2019
4183 Clouds 22 1017 83 10000 4.6 110 01:59 01.10.2019
4184 Clouds 22 1017 83 10000 4.6 110 01:25 01.10.2019
4185 Clouds 22 1017 78 10000 3.6 100 00:40 01.10.2019
4186 Clouds 22 1017 78 10000 3.6 100 00:40 01.10.2019
4187 Clouds 22 1017 78 10000 3.6 100 00:22 01.10.2019
4188 Clouds 21 1016 78 10000 5.1 110 23:41 30.09.2019
4189 Clouds 21 1016 78 10000 5.1 110 23:41 30.09.2019
4190 Clouds 21 1016 78 10000 5.1 110 23:41 30.09.2019
4191 Clouds 22 1016 78 10000 5.1 110 23:22 30.09.2019
4192 Clouds 23 1016 78 10000 5.1 130 22:45 30.09.2019
4193 Clouds 23 1016 78 10000 5.1 130 22:45 30.09.2019
4194 Clouds 23 1016 78 10000 5.1 130 22:26 30.09.2019
4195 Clouds 24 1016 78 10000 5.7 130 21:58 30.09.2019
4196 Clouds 24 1016 78 10000 5.7 130 21:39 30.09.2019
4197 Clouds 24 1016 78 10000 5.7 130 21:20 30.09.2019
4198 Clouds 24 1016 78 10000 5.1 140 20:58 30.09.2019
4199 Clouds 24 1016 78 10000 5.1 140 20:39 30.09.2019
4200 Clouds 24 1016 78 10000 5.1 140 20:20 30.09.2019
4201 Clouds 26 1016 73 10000 6.2 140 19:58 30.09.2019
4202 Clouds 25 1016 73 10000 6.2 140 19:40 30.09.2019
4203 Clouds 25 1016 73 10000 6.2 140 19:20 30.09.2019
4204 Clouds 25 1017 73 10000 6.7 130 18:58 30.09.2019
4205 Clouds 25 1017 73 10000 6.7 130 18:40 30.09.2019
4206 Clouds 24 1017 73 10000 4.6 150 18:20 30.09.2019
4207 Clouds 24 1017 73 10000 4.6 150 17:54 30.09.2019
4208 Clouds 24 1017 73 10000 4.6 150 17:36 30.09.2019
4209 Clouds 24 1017 73 10000 4.6 150 17:18 30.09.2019
4210 Clouds 23 1018 73 10000 3.1 170 16:41 30.09.2019
4211 Clouds 23 1018 73 10000 3.1 170 16:41 30.09.2019
4212 Clouds 23 1018 78 10000 2.1 130 16:20 30.09.2019
4213 Clouds 23 1018 78 10000 2.1 130 16:19 30.09.2019
4214 Clouds 23 1018 73 10000 3.1 170 16:19 30.09.2019
4215 Clouds 23 1018 78 10000 2.1 130 15:59 30.09.2019
4216 Clouds 23 1018 78 10000 2.1 130 15:59 30.09.2019
4217 Clouds 22 1018 78 10000 2.1 130 15:38 30.09.2019
4218 Clouds 23 1018 78 10000 2.1 130 15:19 30.09.2019
4219 Clouds 22 1019 83 10000 3.6 110 14:58 30.09.2019
4220 Clouds 22 1019 83 10000 3.6 110 14:38 30.09.2019
4221 Clouds 21 1018 83 10000 2.1 120 14:19 30.09.2019
4222 Clouds 21 1018 83 10000 2.1 120 13:58 30.09.2019
4223 Clouds 21 1018 83 10000 2.1 120 13:40 30.09.2019
4224 Rain 20 1018 88 10000 1 170 13:21 30.09.2019
4225 Rain 19 1018 88 10000 1 170 12:44 30.09.2019
4226 Rain 19 1018 88 10000 1 170 12:25 30.09.2019
4227 Rain 18 1017 94 8000 1.5 80 11:59 30.09.2019
4228 Rain 18 1017 94 8000 1.5 80 11:59 30.09.2019
4229 Rain 19 1017 94 8000 1.5 80 11:40 30.09.2019
4230 Rain 20 1017 94 8000 1.5 80 11:21 30.09.2019
4231 Clouds 20 1016 88 8000 2.1 80 10:56 30.09.2019
4232 Clouds 20 1016 88 8000 2.1 80 10:37 30.09.2019
4233 Clouds 20 1016 88 10000 3.1 130 10:18 30.09.2019
4234 -273 0 0 0 0 0 09:55 30.09.2019
4235 Clouds 19 1016 88 10000 2.6 80 09:36 30.09.2019
4236 Clouds 19 1016 88 10000 2.6 80 09:18 30.09.2019
4237 Clouds 20 1016 88 10000 2.6 110 08:45 30.09.2019
4238 Clouds 20 1016 88 10000 2.6 110 08:27 30.09.2019
4239 Clouds 20 1017 88 10000 1.5 120 07:40 30.09.2019
4240 Clouds 20 1017 88 10000 2.6 120 07:19 30.09.2019
4241 Clouds 20 1017 88 10000 2.6 120 06:47 30.09.2019
4242 Clouds 20 1017 88 10000 2.6 120 06:27 30.09.2019
4243 Clouds 20 1018 94 10000 1.5 140 05:41 30.09.2019
4244 Clouds 21 1017 94 8000 3.6 130 02:54 30.09.2019
4245 Clouds 20 1017 94 8000 3.6 130 02:36 30.09.2019
4246 Rain 20 1017 94 7000 3.1 130 01:31 30.09.2019
4247 Rain 20 1017 100 5000 4.1 110 00:38 30.09.2019
4248 Rain 20 1017 100 5000 4.1 110 00:20 30.09.2019
4249 Mist 20 1016 94 10000 4.6 120 23:43 29.09.2019
4250 Clouds 21 1016 88 10000 4.1 120 23:21 29.09.2019
4251 Clouds 21 1016 88 10000 4.1 120 23:21 29.09.2019
4252 Clouds 21 1016 88 10000 4.1 120 22:55 29.09.2019
4253 Clouds 22 1016 88 10000 4.1 120 22:36 29.09.2019
4254 Clouds 22 1016 88 10000 4.6 120 22:18 29.09.2019
4255 Clouds 22 1016 88 10000 4.6 120 21:56 29.09.2019
4256 Clouds 22 1016 88 10000 4.6 120 21:37 29.09.2019
4257 Clouds 22 1016 88 10000 4.6 120 21:18 29.09.2019
4258 Clouds 22 1016 88 10000 4.6 140 20:43 29.09.2019
4259 Clouds 21 1016 88 10000 4.1 140 20:20 29.09.2019
4260 Clouds 21 1016 88 10000 4.1 140 19:58 29.09.2019
4261 Clouds 22 1016 88 10000 4.1 140 19:37 29.09.2019
4262 Clouds 21 1016 88 10000 4.1 150 19:19 29.09.2019
4263 Clouds 22 1016 88 10000 4.1 150 18:56 29.09.2019
4264 Clouds 22 1016 88 10000 4.1 150 18:56 29.09.2019
4265 Clouds 22 1016 88 10000 4.1 150 18:56 29.09.2019
4266 Clouds 22 1016 88 10000 4.1 150 18:56 29.09.2019
4267 Clouds 22 1016 88 10000 4.1 150 18:56 29.09.2019
4268 Clouds 22 1016 88 10000 4.1 150 18:38 29.09.2019
4269 Clouds 22 1016 88 10000 4.1 150 18:19 29.09.2019
4270 Clouds 22 1017 83 10000 3.1 140 17:58 29.09.2019
4271 Clouds 22 1017 83 10000 3.1 140 17:38 29.09.2019
4272 Clouds 22 1017 83 10000 3.1 140 17:19 29.09.2019
4273 Rain 21 1018 83 10000 3.1 160 16:58 29.09.2019
4274 Rain 21 1018 83 10000 3.1 160 16:40 29.09.2019
4275 Rain 21 1018 83 10000 3.1 160 16:19 29.09.2019
4276 Clouds 21 1018 83 10000 1.5 180 15:57 29.09.2019
4277 Clouds 21 1018 83 10000 1.5 180 15:36 29.09.2019
4278 Clouds 21 1018 83 10000 1.5 180 15:18 29.09.2019
4279 Clouds 21 1018 83 10000 1 350 14:55 29.09.2019
4280 Clouds 21 1018 83 10000 1 350 14:36 29.09.2019
4281 Clouds 21 1018 83 10000 1 350 14:18 29.09.2019
4282 Drizzle 20 1018 88 10000 0.5 10 13:42 29.09.2019
4283 Drizzle 20 1018 88 10000 0.5 10 13:19 29.09.2019
4284 Drizzle 19 1017 94 10000 1.5 60 12:58 29.09.2019
4285 Drizzle 19 1017 94 10000 1.5 60 12:40 29.09.2019
4286 Mist 19 1017 94 10000 1.5 40 12:21 29.09.2019
4287 Mist 20 1017 94 10000 1.5 40 11:57 29.09.2019
4288 Mist 20 1017 94 10000 1.5 40 11:39 29.09.2019
4289 Mist 19 1017 94 10000 1.5 40 11:19 29.09.2019
4290 Mist 19 1017 94 10000 1.5 50 10:57 29.09.2019
4291 Mist 19 1017 94 10000 1.5 50 10:57 29.09.2019
4292 Mist 19 1017 94 10000 1.5 50 10:37 29.09.2019
4293 Mist 19 1017 94 10000 1.5 50 10:19 29.09.2019
4294 Mist 19 1016 94 10000 0.5 190 09:47 29.09.2019
4295 Mist 20 1016 94 10000 0.5 190 09:21 29.09.2019
4296 Mist 20 1017 94 10000 0.5 120 08:59 29.09.2019
4297 Mist 20 1017 94 10000 0.5 120 08:59 29.09.2019
4298 Mist 20 1017 94 10000 0.5 120 08:41 29.09.2019
4299 Mist 20 1017 94 10000 0.5 120 08:21 29.09.2019
4300 Mist 19 1017 94 10000 0.5 40 07:43 29.09.2019
4301 Mist 19 1018 94 10000 1.5 50 07:25 29.09.2019
4302 Mist 19 1018 94 10000 1.5 50 06:45 29.09.2019
4303 Mist 20 1019 94 10000 1.5 70 05:47 29.09.2019
4304 Rain 19 1019 94 8000 0.5 350 04:41 29.09.2019
4305 Rain 19 1019 94 8000 0.5 350 04:23 29.09.2019
4306 Drizzle 19 1020 94 4500 2.1 70 02:51 29.09.2019
4307 Drizzle 19 1020 94 4500 2.1 70 02:18 29.09.2019
4308 Rain 20 1020 94 4000 3.1 140 01:38 29.09.2019
4309 Mist 20 1019 88 10000 3.1 150 00:53 29.09.2019
4310 Mist 20 1019 88 10000 3.1 150 00:21 29.09.2019
4311 Rain 19 1018 94 8000 4.6 140 23:56 28.09.2019
4312 Rain 19 1018 94 8000 4.6 140 23:37 28.09.2019
4313 Drizzle 19 1018 100 5000 4.6 150 23:18 28.09.2019
4314 Drizzle 19 1018 100 5000 4.6 150 22:40 28.09.2019
4315 Drizzle 19 1018 100 5000 4.6 150 22:21 28.09.2019
4316 Drizzle 19 1018 100 4000 6.2 170 21:57 28.09.2019
4317 Drizzle 19 1018 100 4000 6.2 170 21:39 28.09.2019
4318 Drizzle 19 1018 100 4000 6.2 170 21:21 28.09.2019
4319 Drizzle 20 1018 100 4000 5.7 170 20:57 28.09.2019
4320 Drizzle 20 1018 100 4000 5.7 170 20:57 28.09.2019
4321 Drizzle 20 1018 100 4000 5.7 170 20:38 28.09.2019
4322 Drizzle 20 1018 100 4000 5.7 170 20:19 28.09.2019
4323 Rain 21 1018 94 3500 5.1 190 19:56 28.09.2019
4324 Rain 21 1018 94 3500 5.1 190 19:38 28.09.2019
4325 Rain 21 1019 88 4000 4.6 180 19:20 28.09.2019
4326 Rain 21 1019 88 4000 4.6 180 18:55 28.09.2019
4327 Rain 21 1019 88 4000 4.6 180 18:37 28.09.2019
4328 Rain 21 1019 83 4000 4.1 160 18:18 28.09.2019
4329 Rain 22 1019 83 4000 4.1 160 17:55 28.09.2019
4330 Rain 22 1020 73 10000 4.1 160 17:36 28.09.2019
4331 Rain 22 1020 73 10000 4.1 160 17:18 28.09.2019
4332 Drizzle 22 1020 78 10000 3.6 160 16:41 28.09.2019
4333 Drizzle 22 1020 78 10000 3.6 160 16:23 28.09.2019
4334 Clouds 22 1020 83 10000 2.1 150 15:41 28.09.2019
4335 Clouds 22 1020 83 10000 2.1 150 15:23 28.09.2019
4336 Rain 21 1021 94 10000 2.1 120 14:57 28.09.2019
4337 Rain 21 1021 94 10000 2.1 120 14:38 28.09.2019
4338 Rain 21 1021 94 10000 2.1 120 14:20 28.09.2019
4339 Rain 20 1020 100 4000 3.6 180 13:57 28.09.2019
4340 Rain 20 1020 100 4000 3.6 180 13:38 28.09.2019
4341 Rain 20 1019 100 4000 2.6 180 13:19 28.09.2019
4342 Rain 19 1019 100 4000 2.6 180 12:44 28.09.2019
4343 Rain 19 1019 100 4000 2.6 180 12:20 28.09.2019
4344 Rain 19 1019 94 7000 4.1 180 11:55 28.09.2019
4345 Rain 19 1019 94 7000 4.1 180 11:37 28.09.2019
4346 Rain 20 1019 94 7000 4.1 180 11:18 28.09.2019
4347 Clouds 20 1018 94 8000 2.6 210 10:43 28.09.2019
4348 Clouds 20 1018 94 8000 2.6 210 10:20 28.09.2019
4349 Clouds 20 1017 94 6000 3.1 200 09:57 28.09.2019
4350 Clouds 20 1017 94 6000 3.1 200 09:39 28.09.2019
4351 Clouds 20 1017 94 6000 3.1 200 09:18 28.09.2019
4352 Rain 21 1017 100 6000 5.7 210 08:46 28.09.2019
4353 Rain 21 1017 100 6000 5.7 210 08:28 28.09.2019
4354 Rain 21 1017 100 6000 1 340 07:45 28.09.2019
4355 Rain 21 1017 100 6000 1 340 07:45 28.09.2019
4356 Rain 21 1018 100 6000 0.5 250 07:23 28.09.2019
4357 Rain 21 1018 100 6000 0.5 250 06:55 28.09.2019
4358 Rain 21 1018 100 6000 0.5 250 06:32 28.09.2019
4359 Rain 21 1018 94 6000 2.1 300 05:57 28.09.2019
4360 Rain 20 1018 94 6000 2.1 300 05:24 28.09.2019
4361 Rain 21 1018 88 10000 1.5 10 04:41 28.09.2019
4362 Clouds 21 1019 83 10000 2.1 190 03:59 28.09.2019
4363 Clouds 21 1019 83 10000 2.1 190 03:25 28.09.2019
4364 Clouds 21 1019 83 10000 2.6 210 02:57 28.09.2019
4365 Clouds 21 1018 73 10000 3.1 340 02:35 28.09.2019
4366 Clouds 22 1018 83 10000 3.1 190 01:51 28.09.2019
4367 Clouds 22 1018 83 10000 3.1 190 01:51 28.09.2019
4368 Clouds 22 1018 83 10000 3.1 190 01:27 28.09.2019
4369 Clouds 22 1017 78 10000 4.1 190 00:58 28.09.2019
4370 Clouds 22 1017 78 10000 4.1 190 00:39 28.09.2019
4371 Clouds 22 1016 73 10000 5.1 210 00:18 28.09.2019
4372 Clouds 22 1016 73 10000 5.1 210 23:38 27.09.2019
4373 Clouds 22 1016 73 10000 5.1 210 23:38 27.09.2019
4374 Clouds 22 1016 73 10000 5.1 210 23:19 27.09.2019
4375 Clouds 22 1016 83 10000 8.7 200 22:47 27.09.2019
4376 Clouds 22 1016 83 10000 8.7 200 22:20 27.09.2019
4377 Clouds 24 1015 78 10000 7.2 190 21:59 27.09.2019
4378 Clouds 24 1015 78 10000 7.2 190 21:39 27.09.2019
4379 Clouds 23 1015 78 10000 7.2 190 21:20 27.09.2019
4380 Clouds 24 1015 78 10000 7.7 190 20:58 27.09.2019
4381 Clouds 24 1015 78 10000 7.7 190 20:40 27.09.2019
4382 Clouds 24 1015 78 10000 7.7 190 20:19 27.09.2019
4383 Clouds 24 1015 78 10000 7.7 190 20:19 27.09.2019
4384 Clouds 24 1015 78 10000 7.7 180 19:57 27.09.2019
4385 Clouds 24 1015 78 10000 7.7 180 19:38 27.09.2019
4386 Clouds 24 1015 78 10000 7.7 180 19:19 27.09.2019
4387 Clouds 25 1016 78 8000 4.6 160 18:42 27.09.2019
4388 Clouds 25 1016 78 8000 4.6 160 18:24 27.09.2019
4389 Clouds 25 1016 78 8000 2.6 140 17:56 27.09.2019
4390 Clouds 25 1016 78 8000 2.6 140 17:38 27.09.2019
4391 Clouds 25 1016 78 8000 2.6 140 17:20 27.09.2019
4392 Clouds 25 1016 78 8000 2.6 140 17:20 27.09.2019
4393 Clouds 26 1017 74 8000 2.1 30 16:57 27.09.2019
4394 Clouds 26 1017 74 8000 2.1 30 16:38 27.09.2019
4395 Clouds 26 1017 74 8000 2.1 30 16:18 27.09.2019
4396 Clouds 24 1017 83 8000 2.6 20 15:47 27.09.2019
4397 Clouds 24 1017 83 8000 2.6 20 15:21 27.09.2019
4398 Haze 23 1017 88 7000 2.6 10 14:59 27.09.2019
4399 Haze 24 1017 88 7000 2.6 10 14:41 27.09.2019
4400 Haze 24 1017 88 7000 2.6 10 14:22 27.09.2019
4401 Mist 21 1017 88 5000 2.6 340 13:58 27.09.2019
4402 Mist 21 1017 88 5000 2.6 340 13:40 27.09.2019
4403 Mist 21 1017 88 5000 2.6 340 13:21 27.09.2019
4404 Mist 20 1016 100 5000 2.6 340 12:56 27.09.2019
4405 Mist 20 1016 100 5000 2.6 340 12:37 27.09.2019
4406 Mist 19 1016 100 7000 2.1 330 12:18 27.09.2019
4407 Mist 20 1016 100 7000 2.1 330 11:39 27.09.2019
4408 Mist 20 1015 100 9000 1.5 210 11:20 27.09.2019
4409 Mist 20 1015 100 9000 1.5 210 10:54 27.09.2019
4410 Mist 20 1015 100 9000 1.5 210 10:54 27.09.2019
4411 Mist 20 1015 100 9000 1.5 210 10:36 27.09.2019
4412 Mist 20 1015 100 9000 1.5 210 10:18 27.09.2019
4413 Mist 20 1015 94 8000 1 220 09:41 27.09.2019
4414 Mist 20 1016 100 8000 1.5 220 09:20 27.09.2019
4415 Mist 20 1016 100 8000 1.5 220 08:55 27.09.2019
4416 Mist 20 1016 100 8000 1.5 220 08:37 27.09.2019
4417 Mist 20 1016 100 8000 1.5 220 08:19 27.09.2019
4418 Mist 20 1016 100 8000 1 300 07:45 27.09.2019
4419 Mist 20 1016 100 8000 1 300 07:21 27.09.2019
4420 Mist 20 1016 94 10000 2.6 220 06:41 27.09.2019
4421 Mist 20 1016 94 10000 2.6 220 06:22 27.09.2019
4422 Rain 20 1017 100 10000 1 120 05:49 27.09.2019
4423 Rain 20 1017 100 10000 1 120 05:30 27.09.2019
4424 Rain 20 1017 100 10000 2.1 140 03:53 27.09.2019
4425 Rain 20 1017 94 9000 3.1 340 01:58 27.09.2019
4426 Rain 20 1017 94 9000 3.1 340 01:36 27.09.2019
4427 Rain 20 1017 100 8000 0.5 20 00:55 27.09.2019
4428 Rain 20 1017 100 8000 0.5 20 00:55 27.09.2019
4429 Rain 20 1018 88 8000 1 10 00:19 27.09.2019
4430 Rain 20 1017 100 6000 2.6 50 23:55 26.09.2019
4431 Rain 20 1017 100 6000 2.6 50 23:55 26.09.2019
4432 Rain 20 1016 100 6000 1 100 23:37 26.09.2019
4433 Rain 20 1016 100 6000 1 100 23:18 26.09.2019
4434 Rain 21 1016 100 5000 2.6 170 22:55 26.09.2019
4435 Rain 21 1016 100 5000 2.6 170 22:37 26.09.2019
4436 Rain 21 1016 100 5000 2.6 170 22:18 26.09.2019
4437 Rain 21 1016 100 4000 2.6 180 21:55 26.09.2019
4438 Rain 21 1016 100 4000 2.6 180 21:36 26.09.2019
4439 Rain 21 1016 100 4000 2.6 180 21:18 26.09.2019
4440 Rain 21 1016 100 4000 2.6 180 21:18 26.09.2019
4441 Rain 21 1016 94 3000 1 140 20:55 26.09.2019
4442 Rain 21 1016 100 5000 2.6 160 20:37 26.09.2019
4443 Rain 21 1017 88 4000 2.6 140 20:19 26.09.2019
4444 Rain 21 1016 100 6000 2.1 140 19:40 26.09.2019
4445 Rain 21 1017 94 6000 1 60 19:19 26.09.2019
4446 Rain 21 1017 94 6000 1 60 18:58 26.09.2019
4447 Rain 21 1017 94 6000 1 60 18:39 26.09.2019
4448 Rain 21 1017 94 6000 0.5 320 18:21 26.09.2019
4449 Rain 21 1017 94 6000 0.5 320 17:54 26.09.2019
4450 Rain 21 1017 94 6000 0.5 320 17:36 26.09.2019
4451 Rain 21 1017 94 6000 0.5 320 17:18 26.09.2019
4452 Rain 20 1018 100 6000 0.5 220 16:39 26.09.2019
4453 Rain 21 1018 100 6000 0.5 220 16:20 26.09.2019
4454 Rain 19 1018 100 5000 1 20 15:58 26.09.2019
4455 Rain 19 1018 100 5000 1 20 15:38 26.09.2019
4456 Rain 20 1018 100 5000 1 20 15:19 26.09.2019
4457 Rain 18 1018 100 5000 3.6 10 14:57 26.09.2019
4458 Rain 18 1018 100 5000 3.6 10 14:37 26.09.2019
4459 Rain 18 1018 100 6000 3.1 20 14:19 26.09.2019
4460 Rain 19 1018 100 6000 3.1 20 13:41 26.09.2019
4461 Rain 19 1018 100 6000 3.1 20 13:41 26.09.2019
4462 Rain 19 1018 100 6000 3.1 20 13:41 26.09.2019
4463 Rain 19 1018 100 7000 2.6 30 13:20 26.09.2019
4464 Rain 19 1018 100 7000 2.6 30 12:59 26.09.2019
4465 Rain 19 1018 100 7000 2.6 30 12:59 26.09.2019
4466 Rain 19 1018 100 7000 2.6 30 12:41 26.09.2019
4467 Rain 19 1018 100 7000 2.6 30 12:20 26.09.2019
4468 Rain 19 1017 94 8000 1.5 360 11:42 26.09.2019
4469 Rain 19 1017 94 8000 1.5 360 11:23 26.09.2019
4470 Rain 19 1016 94 9000 1.5 60 10:57 26.09.2019
4471 Rain 19 1016 94 9000 1.5 60 10:57 26.09.2019
4472 Rain 19 1016 94 9000 1.5 60 10:39 26.09.2019
4473 Rain 19 1016 94 9000 1.5 60 10:20 26.09.2019
4474 Rain 19 1016 94 8000 1.5 100 09:45 26.09.2019
4475 Rain 19 1016 94 8000 1.5 100 09:26 26.09.2019
4476 Rain 19 1016 94 9000 2.1 120 08:59 26.09.2019
4477 Rain 19 1016 94 9000 2.1 120 08:41 26.09.2019
4478 Rain 19 1016 94 9000 2.1 120 08:23 26.09.2019
4479 Rain 20 1017 94 10000 1.5 10 07:44 26.09.2019
4480 Rain 20 1017 94 10000 1.5 10 07:22 26.09.2019
4481 Rain 20 1017 88 10000 1.5 40 06:50 26.09.2019
4482 Rain 20 1017 88 10000 1.5 40 06:28 26.09.2019
4483 Clouds 20 1018 88 10000 1.5 30 05:51 26.09.2019
4484 Clouds 20 1018 88 10000 1.5 30 05:25 26.09.2019
4485 Clouds 20 1018 88 10000 1.5 20 03:27 26.09.2019
4486 Rain 20 1018 83 10000 2.6 40 01:56 26.09.2019
4487 Rain 20 1018 83 10000 2.6 40 01:38 26.09.2019
4488 Mist 20 1019 82 8000 1.07 41.971 01:19 26.09.2019
4489 Mist 20 1018 83 10000 2.6 90 00:41 26.09.2019
4490 Mist 20 1018 83 10000 2.6 90 00:21 26.09.2019
4491 Rain 20 1017 88 10000 1 150 23:43 25.09.2019
4492 Rain 20 1017 88 10000 1 150 23:19 25.09.2019
4493 Rain 21 1017 94 10000 1 290 22:54 25.09.2019
4494 Rain 21 1017 94 10000 1 290 22:36 25.09.2019
4495 Rain 21 1017 94 10000 1 290 22:18 25.09.2019
4496 Rain 21 1017 83 10000 1 30 21:55 25.09.2019
4497 Rain 21 1017 83 10000 1 30 21:36 25.09.2019
4498 Rain 21 1017 83 10000 1 30 21:18 25.09.2019
4499 Clouds 21 1017 78 10000 2.6 330 20:55 25.09.2019
4500 Clouds 21 1017 78 10000 2.6 330 20:37 25.09.2019
4501 Clouds 21 1017 78 10000 2.6 330 20:18 25.09.2019
4502 Clouds 22 1017 78 10000 1.5 20 19:38 25.09.2019
4503 Clouds 22 1018 69 10000 1 130 19:20 25.09.2019
4504 Clouds 22 1018 69 10000 1 130 18:56 25.09.2019
4505 Clouds 22 1018 69 10000 1 130 18:37 25.09.2019
4506 Clouds 21 1019 77 10000 1 120 18:18 25.09.2019
4507 Clouds 21 1019 77 10000 1 120 17:40 25.09.2019
4508 Clouds 21 1019 77 10000 1 120 17:21 25.09.2019
4509 Drizzle 19 1020 88 10000 2.1 120 16:57 25.09.2019
4510 Drizzle 19 1020 88 10000 2.1 120 16:38 25.09.2019
4511 Drizzle 20 1020 88 10000 2.1 120 16:19 25.09.2019
4512 Rain 19 1020 94 9000 1.5 150 15:55 25.09.2019
4513 Rain 19 1020 94 9000 1.5 150 15:55 25.09.2019
4514 Rain 19 1020 94 9000 1.5 150 15:37 25.09.2019
4515 Drizzle 20 1020 94 10000 4.1 40 15:18 25.09.2019
4516 Drizzle 18 1020 94 10000 4.1 40 14:42 25.09.2019
4517 Drizzle 20 1020 94 10000 4.1 40 14:22 25.09.2019
4518 Drizzle 19 1021 88 10000 3.1 350 13:58 25.09.2019
4519 Drizzle 19 1021 88 10000 3.1 350 13:39 25.09.2019
4520 Rain 19 1021 82 10000 2.1 360 13:20 25.09.2019
4521 Rain 19 1021 82 10000 2.1 360 12:54 25.09.2019
4522 Rain 19 1021 82 10000 2.1 360 12:36 25.09.2019
4523 Rain 18 1019 82 10000 1 40 12:18 25.09.2019
4524 Rain 18 1019 82 10000 1 40 11:40 25.09.2019
4525 Rain 18 1019 82 10000 1 40 11:40 25.09.2019
4526 Rain 18 1019 82 10000 1 40 11:20 25.09.2019
4527 Clouds 18 1019 82 10000 1.5 70 10:47 25.09.2019
4528 Clouds 18 1019 82 10000 1.5 70 10:27 25.09.2019
4529 Clouds 18 1019 82 10000 1.5 70 10:27 25.09.2019
4530 Rain 19 1018 77 10000 1 60 09:59 25.09.2019
4531 Rain 19 1018 77 10000 1 60 09:59 25.09.2019
4532 Rain 19 1018 77 10000 1 60 09:41 25.09.2019
4533 Rain 19 1018 77 10000 1 60 09:23 25.09.2019
4534 Rain 19 1018 72 10000 2.6 70 08:57 25.09.2019
4535 Rain 19 1018 72 10000 2.6 70 08:39 25.09.2019
4536 Rain 19 1018 72 10000 2.6 70 08:19 25.09.2019
4537 Clouds 19 1018 64 10000 2.1 50 07:40 25.09.2019
4538 Clouds 19 1019 64 10000 1.5 360 07:22 25.09.2019
4539 Clouds 19 1019 64 10000 1.5 360 06:55 25.09.2019
4540 Clouds 19 1019 64 10000 1.5 360 06:34 25.09.2019
4541 Clouds 20 1020 68 10000 3.1 20 05:43 25.09.2019
4542 Clouds 20 1020 68 10000 3.1 20 05:19 25.09.2019
4543 Rain 20 1020 68 10000 5.1 50 02:50 25.09.2019
4544 Clouds 21 1019 68 10000 6.2 80 01:36 25.09.2019
4545 Clouds 22 1020 64 10000 3.1 80 00:41 25.09.2019
4546 Clouds 22 1020 64 10000 4.6 90 00:22 25.09.2019
4547 Clouds 22 1020 64 10000 4.6 90 23:43 24.09.2019
4548 Clouds 22 1020 64 10000 4.6 90 23:22 24.09.2019
4549 Clouds 24 1019 64 10000 5.1 90 22:58 24.09.2019
4550 Clouds 24 1019 64 10000 5.1 90 22:38 24.09.2019
4551 Clouds 23 1019 57 10000 4.6 110 22:19 24.09.2019
4552 Clouds 23 1019 57 10000 4.6 110 22:19 24.09.2019
4553 Clouds 23 1019 57 10000 4.6 110 21:55 24.09.2019
4554 Clouds 23 1019 57 10000 4.6 110 21:37 24.09.2019
4555 Clouds 24 1019 57 10000 4.6 110 21:18 24.09.2019
4556 Clouds 23 1020 57 10000 5.1 120 20:56 24.09.2019
4557 Clouds 23 1020 57 10000 5.1 120 20:38 24.09.2019
4558 Clouds 25 1020 57 10000 5.1 120 20:19 24.09.2019
4559 Clouds 23 1020 61 10000 5.7 140 19:43 24.09.2019
4560 Clouds 23 1021 54 10000 1.5 110 19:21 24.09.2019
4561 Clouds 23 1021 54 10000 1.5 110 18:58 24.09.2019
4562 Clouds 23 1021 54 10000 1.5 110 18:39 24.09.2019
4563 Clouds 25 1021 54 10000 1.5 110 18:21 24.09.2019
4564 Clouds 23 1022 47 10000 1.5 120 17:57 24.09.2019
4565 Clouds 23 1022 47 10000 1.5 120 17:38 24.09.2019
4566 Clouds 23 1022 47 10000 1.5 120 17:38 24.09.2019
4567 Clouds 24 1022 47 10000 1.5 120 17:20 24.09.2019
4568 Clouds 24 1023 53 10000 2.1 150 16:55 24.09.2019
4569 Clouds 24 1023 53 10000 2.1 150 16:37 24.09.2019
4570 Clouds 24 1023 53 10000 2.1 150 16:18 24.09.2019
4571 Clouds 23 1024 57 10000 3.6 100 15:41 24.09.2019
4572 Clouds 23 1024 57 10000 3.6 100 15:23 24.09.2019
4573 Clouds 22 1024 56 10000 2.1 140 14:41 24.09.2019
4574 Clouds 22 1024 56 10000 2.1 140 14:20 24.09.2019
4575 Clouds 21 1024 56 10000 2.1 140 13:55 24.09.2019
4576 Clouds 20 1024 60 10000 2.6 20 13:37 24.09.2019
4577 Clouds 21 1024 60 10000 2.6 20 13:19 24.09.2019
4578 Clouds 19 1024 72 10000 2.6 60 12:39 24.09.2019
4579 Clouds 18 1024 72 10000 2.6 80 12:20 24.09.2019
4580 Clouds 18 1024 72 10000 2.6 80 11:43 24.09.2019
4581 Clouds 18 1024 72 10000 2.6 80 11:22 24.09.2019
4582 Clouds 18 1024 72 10000 1.5 70 10:59 24.09.2019
4583 Clouds 18 1024 72 10000 1.5 70 10:39 24.09.2019
4584 Clouds 18 1024 72 10000 1.5 70 10:21 24.09.2019
4585 Clouds 18 1024 77 10000 1.5 30 09:46 24.09.2019
4586 Clouds 18 1024 77 10000 1.5 30 09:28 24.09.2019
4587 Clouds 18 1024 72 10000 2.6 40 08:58 24.09.2019
4588 Clouds 18 1024 72 10000 2.6 40 08:40 24.09.2019
4589 Clouds 18 1024 72 10000 2.6 40 08:40 24.09.2019
4590 Clouds 18 1024 72 10000 2.6 40 08:22 24.09.2019
4591 Clouds 18 1025 77 10000 3.1 50 07:58 24.09.2019
4592 Clouds 18 1025 77 10000 3.1 50 07:39 24.09.2019
4593 Clouds 18 1026 77 10000 1.5 50 07:21 24.09.2019
4594 Clouds 18 1026 77 10000 1.5 50 06:37 24.09.2019
4595 Clouds 19 1026 77 10000 2.6 70 06:19 24.09.2019
4596 Clouds 19 1026 77 10000 2.6 70 05:21 24.09.2019
4597 Clouds 19 1027 82 10000 4.1 50 03:46 24.09.2019
4598 Clouds 19 1027 82 10000 4.1 50 03:25 24.09.2019
4599 Rain 20 1027 72 10000 5.1 80 02:44 24.09.2019
4600 Clouds 20 1027 72 10000 3.6 110 01:41 24.09.2019
4601 Clouds 21 1027 68 10000 4.1 120 00:41 24.09.2019
4602 Clouds 21 1027 68 10000 4.1 120 00:22 24.09.2019
4603 Clouds 21 1026 73 10000 6.2 130 23:42 23.09.2019
4604 Clouds 21 1026 73 10000 6.2 130 23:23 23.09.2019
4605 Clouds 21 1026 68 10000 6.2 150 22:41 23.09.2019
4606 Clouds 21 1026 68 10000 6.2 150 22:22 23.09.2019
4607 Clouds 21 1025 60 10000 6.7 150 21:59 23.09.2019
4608 Clouds 21 1025 60 10000 6.7 150 21:41 23.09.2019
4609 Clouds 23 1025 60 10000 6.7 150 21:20 23.09.2019
4610 Clouds 22 1025 50 10000 6.2 160 20:59 23.09.2019
4611 Clouds 22 1025 50 10000 6.2 160 20:59 23.09.2019
4612 Clouds 22 1025 50 10000 6.2 160 20:40 23.09.2019
4613 Clouds 24 1025 50 10000 6.2 160 20:19 23.09.2019
4614 Clouds 24 1025 50 10000 5.7 160 19:40 23.09.2019
4615 Clouds 24 1025 50 10000 5.7 160 19:40 23.09.2019
4616 Clouds 24 1025 50 10000 5.7 160 19:22 23.09.2019
4617 Clouds 25 1026 47 10000 5.1 170 18:59 23.09.2019
4618 Clouds 25 1026 47 10000 5.1 170 18:41 23.09.2019
4619 Clouds 22 1026 44 10000 4.1 160 18:19 23.09.2019
4620 Clouds 22 1026 44 10000 4.1 160 18:19 23.09.2019
4621 Clouds 22 1026 44 10000 4.1 160 17:57 23.09.2019
4622 Clouds 22 1026 44 10000 4.1 160 17:39 23.09.2019
4623 Clouds 23 1026 44 10000 4.1 160 17:20 23.09.2019
4624 Clouds 23 1027 47 10000 5.1 140 16:57 23.09.2019
4625 Clouds 23 1027 47 10000 5.1 140 16:36 23.09.2019
4626 Clouds 22 1027 50 10000 5.1 150 16:18 23.09.2019
4627 Clouds 22 1027 50 10000 5.1 150 15:56 23.09.2019
4628 Clouds 22 1027 50 10000 5.1 150 15:38 23.09.2019
4629 Clouds 21 1027 60 10000 4.6 140 15:18 23.09.2019
4630 Clouds 21 1027 60 10000 4.6 140 15:18 23.09.2019
4631 Clouds 21 1027 60 10000 4.6 140 14:40 23.09.2019
4632 Clouds 21 1027 60 10000 4.6 140 14:20 23.09.2019
4633 Rain 20 1027 64 10000 4.6 130 13:59 23.09.2019
4634 Rain 20 1027 64 10000 4.6 130 13:38 23.09.2019
4635 Rain 19 1026 64 10000 5.1 140 13:18 23.09.2019
4636 Rain 19 1026 64 10000 5.1 140 12:54 23.09.2019
4637 Rain 19 1026 64 10000 5.1 140 12:36 23.09.2019
4638 Clouds 18 1025 68 10000 5.7 160 12:18 23.09.2019
4639 Clouds 18 1025 68 10000 5.7 160 11:43 23.09.2019
4640 -273 0 0 0 0 0 11:25 23.09.2019
4641 Clouds 19 1024 68 10000 5.1 160 10:49 23.09.2019
4642 Clouds 19 1024 68 10000 5.1 160 10:22 23.09.2019
4643 Clouds 19 1024 77 10000 7.2 160 09:59 23.09.2019
4644 Clouds 19 1024 77 10000 7.2 160 09:38 23.09.2019
4645 Clouds 19 1024 77 10000 7.2 160 09:20 23.09.2019
4646 Mist 18 1024 88 8000 2.1 200 08:50 23.09.2019
4647 Mist 18 1024 88 8000 2.1 200 08:30 23.09.2019
4648 Rain 18 1025 88 4000 6.2 180 07:58 23.09.2019
4649 Rain 18 1025 88 4000 6.2 180 07:31 23.09.2019
4650 Rain 18 1025 100 4000 4.6 160 06:44 23.09.2019
4651 Rain 18 1025 100 4000 7.7 170 06:18 23.09.2019
4652 Rain 19 1025 100 4000 7.7 170 05:22 23.09.2019
4653 Rain 19 1025 100 4500 8.2 180 04:55 23.09.2019
4654 Rain 20 1024 83 6000 7.2 190 03:54 23.09.2019
4655 Rain 20 1023 100 3500 7.7 170 01:22 23.09.2019
4656 Rain 20 1023 100 3500 7.7 160 00:23 23.09.2019
4657 Rain 20 1022 100 4500 7.7 170 23:57 22.09.2019
4658 Drizzle 20 1021 100 2000 9.8 160 23:33 22.09.2019
4659 Drizzle 21 1021 88 4000 3.6 140 22:59 22.09.2019
4660 Drizzle 21 1020 100 2000 8.2 160 22:41 22.09.2019
4661 Drizzle 21 1020 100 2000 8.2 160 22:41 22.09.2019
4662 Drizzle 21 1020 100 2000 8.2 160 22:23 22.09.2019
4663 Drizzle 21 1020 83 8000 3.6 150 21:59 22.09.2019
4664 Drizzle 21 1020 100 4000 6.2 170 21:39 22.09.2019
4665 Drizzle 21 1020 100 4000 6.2 170 21:19 22.09.2019
4666 Drizzle 21 1019 100 2000 5.7 160 20:43 22.09.2019
4667 Drizzle 22 1019 100 2000 5.7 160 20:24 22.09.2019
4668 Drizzle 22 1019 94 5000 2.6 140 19:56 22.09.2019
4669 Drizzle 22 1019 94 5000 2.6 140 19:38 22.09.2019
4670 Drizzle 22 1019 94 5000 2.6 140 19:20 22.09.2019
4671 Drizzle 22 1019 88 6000 4.1 140 18:57 22.09.2019
4672 Drizzle 22 1019 100 4000 6.2 160 18:37 22.09.2019
4673 Rain 22 1019 94 10000 3.1 150 18:18 22.09.2019
4674 Rain 22 1019 100 4000 6.2 160 17:42 22.09.2019
4675 Rain 22 1019 100 4000 6.2 160 17:24 22.09.2019
4676 Rain 22 1019 100 7000 5.7 160 16:56 22.09.2019
4677 Rain 22 1019 100 7000 5.7 160 16:38 22.09.2019
4678 Rain 23 1019 100 7000 5.7 160 16:19 22.09.2019
4679 Drizzle 23 1019 100 8000 5.1 160 15:43 22.09.2019
4680 Drizzle 23 1019 100 8000 5.1 160 15:25 22.09.2019
4681 Rain 22 1019 88 10000 1 140 14:55 22.09.2019
4682 Rain 22 1019 100 4000 5.1 170 14:36 22.09.2019
4683 Rain 22 1019 100 4000 5.1 170 14:18 22.09.2019
4684 Mist 22 1018 100 4500 5.1 170 13:42 22.09.2019
4685 Rain 22 1018 100 4000 4.1 160 13:24 22.09.2019
4686 Rain 22 1018 100 4000 4.1 160 12:57 22.09.2019
4687 Rain 21 1018 100 4000 4.1 160 12:39 22.09.2019
4688 Rain 21 1017 100 3000 0.5 140 12:18 22.09.2019
4689 Rain 21 1017 100 3000 0.5 140 11:55 22.09.2019
4690 Rain 21 1017 100 3000 0.5 140 11:36 22.09.2019
4691 Rain 21 1017 100 7000 0.5 160 11:18 22.09.2019
4692 Rain 21 1017 100 7000 0.5 160 10:42 22.09.2019
4693 Rain 21 1017 100 7000 0.5 160 10:20 22.09.2019
4694 Rain 21 1017 100 7000 0.5 160 10:20 22.09.2019
4695 Rain 21 1017 100 7000 0.5 160 10:20 22.09.2019
4696 Rain 21 1016 100 10000 1 280 09:43 22.09.2019
4697 Rain 21 1016 100 10000 1 280 09:43 22.09.2019
4698 Rain 21 1016 100 10000 1 280 09:22 22.09.2019
4699 Rain 22 1016 100 10000 1 100 08:58 22.09.2019
4700 Rain 22 1016 100 10000 1 100 08:40 22.09.2019
4701 Rain 22 1016 100 10000 1 100 08:22 22.09.2019
4702 Rain 22 1016 100 10000 0.5 120 07:44 22.09.2019
4703 Rain 22 1016 100 10000 0.5 120 07:44 22.09.2019
4704 Rain 22 1016 100 10000 0.5 120 07:26 22.09.2019
4705 Rain 22 1017 88 5000 2.6 320 06:58 22.09.2019
4706 Rain 22 1017 100 10000 1.5 140 06:34 22.09.2019
4707 Rain 23 1018 94 5000 1.5 140 04:41 22.09.2019
4708 Drizzle 22 1018 94 10000 1 360 02:45 22.09.2019
4709 Drizzle 22 1018 94 10000 1 360 02:24 22.09.2019
4710 Clouds 22 1017 94 10000 1 80 01:38 22.09.2019
4711 Rain 22 1017 88 10000 0.5 130 00:53 22.09.2019
4712 Rain 22 1017 88 10000 0.5 130 00:32 22.09.2019
4713 Clouds 22 1016 88 10000 1.5 210 23:54 21.09.2019
4714 Rain 22 1016 88 10000 1.5 210 23:36 21.09.2019
4715 Mist 22 1016 94 10000 4.6 200 22:47 21.09.2019
4716 Rain 22 1016 94 10000 4.6 200 22:26 21.09.2019
4717 Clouds 22 1015 88 10000 4.6 200 21:59 21.09.2019
4718 Clouds 22 1015 88 10000 4.6 200 21:59 21.09.2019
4719 Clouds 22 1015 88 10000 4.6 200 21:59 21.09.2019
4720 Clouds 22 1015 88 10000 4.6 200 21:41 21.09.2019
4721 Rain 22 1015 88 10000 4.6 200 21:19 21.09.2019
4722 Rain 23 1015 88 10000 4.1 200 20:56 21.09.2019
4723 Rain 23 1015 88 10000 4.1 200 20:37 21.09.2019
4724 Rain 23 1015 88 10000 4.1 200 20:18 21.09.2019
4725 Rain 23 1015 88 10000 4.1 200 20:18 21.09.2019
4726 Clouds 23 1015 88 10000 4.1 200 19:45 21.09.2019
4727 Clouds 23 1015 94 10000 4.6 190 19:21 21.09.2019
4728 Clouds 24 1015 94 10000 4.6 190 18:41 21.09.2019
4729 Clouds 24 1015 94 10000 4.6 190 18:22 21.09.2019
4730 Clouds 24 1016 88 8000 3.6 180 17:43 21.09.2019
4731 Clouds 24 1016 88 8000 3.6 180 17:24 21.09.2019
4732 Clouds 24 1016 88 8000 3.6 180 16:58 21.09.2019
4733 Clouds 24 1017 94 8000 4.6 190 16:40 21.09.2019
4734 Rain 24 1017 94 7000 5.1 190 16:20 21.09.2019
4735 Rain 23 1017 94 7000 5.1 190 15:45 21.09.2019
4736 Rain 23 1017 94 7000 5.1 190 15:23 21.09.2019
4737 Mist 24 1017 94 5000 5.1 190 14:50 21.09.2019
4738 Rain 24 1017 94 8000 4.1 200 14:32 21.09.2019
4739 Clouds 24 1017 83 7000 4.6 200 13:57 21.09.2019
4740 Clouds 24 1017 83 7000 4.6 200 13:39 21.09.2019
4741 Clouds 23 1017 73 8000 3.6 230 13:20 21.09.2019
4742 Clouds 24 1016 88 7000 3.1 190 12:56 21.09.2019
4743 Clouds 24 1016 88 7000 3.1 190 12:38 21.09.2019
4744 Mist 22 1015 94 7000 4.1 190 12:20 21.09.2019
4745 Mist 22 1015 94 7000 4.1 190 11:44 21.09.2019
4746 Mist 24 1015 94 7000 4.1 190 11:24 21.09.2019
4747 Mist 24 1015 94 7000 4.1 190 11:24 21.09.2019
4748 Mist 24 1014 94 7000 1.5 170 10:55 21.09.2019
4749 Mist 24 1014 94 7000 1.5 170 10:37 21.09.2019
4750 Mist 24 1014 94 7000 1.5 170 10:18 21.09.2019
4751 Clouds 23 1013 100 7000 2.6 140 09:40 21.09.2019
4752 Clouds 23 1013 100 7000 2.6 140 09:21 21.09.2019
4753 Clouds 23 1013 94 7000 1.5 200 08:59 21.09.2019
4754 Clouds 23 1013 94 7000 1.5 200 08:40 21.09.2019
4755 Clouds 23 1013 100 7000 2.1 160 07:43 21.09.2019
4756 Clouds 23 1013 100 7000 2.1 160 07:25 21.09.2019
4757 -273 0 0 0 0 0 07:25 21.09.2019
4758 Clouds 23 1013 100 8000 1.5 180 06:59 21.09.2019
4759 Clouds 23 1013 100 8000 1.5 180 06:34 21.09.2019
4760 Clouds 23 1014 100 8000 3.32 238.678 05:51 21.09.2019
4761 Clouds 23 1014 100 9000 2.1 130 04:38 21.09.2019
4762 Clear 24 1015 100 10000 4.1 150 03:25 21.09.2019
4763 Clear 24 1014 94 10000 6.7 180 02:22 21.09.2019
4764 Clear 24 1013 88 10000 5.1 150 01:46 21.09.2019
4765 Clear 24 1013 88 10000 5.1 150 01:21 21.09.2019
4766 Clear 25 1012 88 8000 4.6 170 00:23 21.09.2019
4767 Clear 25 1012 88 8000 4.6 170 23:48 20.09.2019
4768 Clear 25 1012 88 8000 4.6 170 23:30 20.09.2019
4769 Clear 27 1012 94 8000 10.3 180 22:55 20.09.2019
4770 Clear 27 1012 94 8000 10.3 180 22:36 20.09.2019
4771 Clear 29 1010 83 8000 2.6 160 22:18 20.09.2019
4772 Clear 29 1010 83 8000 2.6 160 21:40 20.09.2019
4773 Clouds 29 1010 83 8000 2.6 160 21:22 20.09.2019
4774 Clouds 29 1010 88 8000 4.6 150 20:59 20.09.2019
4775 Clouds 29 1010 88 8000 4.6 150 20:41 20.09.2019
4776 Clouds 30 1011 83 8000 4.6 150 20:20 20.09.2019
4777 Clouds 30 1011 83 8000 4.6 150 19:56 20.09.2019
4778 Clouds 30 1011 83 8000 4.6 150 19:56 20.09.2019
4779 Clouds 29 1011 83 8000 4.6 150 19:37 20.09.2019
4780 Haze 29 1011 74 8000 2.1 130 19:18 20.09.2019
4781 Haze 29 1011 74 8000 2.1 130 18:39 20.09.2019
4782 Haze 28 1012 78 8000 1.5 140 18:20 20.09.2019
4783 Haze 28 1012 78 8000 1.5 140 17:57 20.09.2019
4784 Haze 28 1012 78 8000 1.5 140 17:38 20.09.2019
4785 Haze 28 1013 62 8000 2.6 10 17:18 20.09.2019
4786 Haze 28 1013 62 8000 2.6 10 16:41 20.09.2019
4787 Haze 28 1013 62 8000 2.6 10 16:41 20.09.2019
4788 Haze 28 1012 70 6000 6.7 210 16:19 20.09.2019
4789 Haze 28 1012 70 6000 6.7 210 15:43 20.09.2019
4790 Haze 27 1012 70 6000 6.7 210 15:23 20.09.2019
4791 Haze 27 1011 78 6000 4.1 170 14:57 20.09.2019
4792 Haze 27 1011 78 6000 4.1 170 14:38 20.09.2019
4793 Haze 27 1011 78 6000 4.1 170 14:18 20.09.2019
4794 Clouds 26 1007 58 0 4.22 351.615 13:45 20.09.2019
4795 Mist 24 1010 94 6000 2.6 330 13:27 20.09.2019
4796 Mist 24 1010 94 6000 2.6 330 12:56 20.09.2019
4797 Mist 24 1010 94 6000 2.6 330 12:36 20.09.2019
4798 Mist 23 1010 100 6000 2.6 350 12:18 20.09.2019
4799 Mist 23 1010 100 6000 2.6 350 11:45 20.09.2019
4800 Mist 22 1010 100 6000 2.6 350 11:20 20.09.2019
4801 Mist 22 1009 100 7000 3.1 10 10:43 20.09.2019
4802 Mist 22 1009 100 7000 3.1 10 10:23 20.09.2019
4803 -273 0 0 0 0 0 09:55 20.09.2019
4804 Mist 22 1009 100 7000 2.6 40 09:36 20.09.2019
4805 Mist 22 1009 100 6000 2.1 10 09:18 20.09.2019
4806 Mist 22 1009 100 6000 2.1 10 08:41 20.09.2019
4807 Mist 22 1009 100 6000 2.1 10 08:21 20.09.2019
4808 Clouds 22 1009 100 6000 1.5 90 07:45 20.09.2019
4809 Clouds 22 1009 100 6000 1.5 90 07:26 20.09.2019
4810 Clouds 22 1009 100 6000 2.6 150 06:44 20.09.2019
4811 Clouds 22 1009 100 6000 2.6 150 06:44 20.09.2019
4812 Clouds 23 1010 100 8000 3.1 160 06:20 20.09.2019
4813 Clouds 23 1010 100 8000 3.1 160 05:43 20.09.2019
4814 Clouds 24 1012 94 8000 4.1 170 03:36 20.09.2019
4815 Clouds 24 1012 94 8000 4.1 170 03:18 20.09.2019
4816 Clouds 24 1011 94 8000 6.7 170 01:44 20.09.2019
4817 Clouds 25 1009 88 8000 3.1 160 00:52 20.09.2019
4818 Clouds 25 1009 88 8000 3.1 160 00:21 20.09.2019
4819 Clouds 25 1008 88 8000 3.6 110 23:42 19.09.2019
4820 Clear 26 1008 74 9000 4.1 160 23:19 19.09.2019
4821 Clear 26 1008 74 9000 4.1 160 22:55 19.09.2019
4822 Clear 26 1008 74 9000 4.1 160 22:37 19.09.2019
4823 Clouds 26 1008 78 10000 4.6 170 22:18 19.09.2019
4824 Clouds 26 1008 78 10000 4.6 170 21:55 19.09.2019
4825 Clouds 26 1008 78 10000 4.6 170 21:36 19.09.2019
4826 Clouds 26 1008 83 10000 5.1 180 21:18 19.09.2019
4827 Clouds 26 1008 83 10000 5.1 180 20:43 19.09.2019
4828 Clouds 26 1008 83 10000 5.1 180 20:22 19.09.2019
4829 Clouds 26 1009 83 9000 3.6 160 19:55 19.09.2019
4830 Clouds 26 1009 83 9000 3.6 160 19:37 19.09.2019
4831 Clouds 26 1009 83 9000 3.6 160 19:19 19.09.2019
4832 Clouds 26 1010 78 9000 6.7 160 18:42 19.09.2019
4833 Clouds 27 1010 69 10000 6.7 120 18:24 19.09.2019
4834 Clouds 28 1011 70 9000 6.2 170 17:54 19.09.2019
4835 Clouds 27 1011 70 9000 6.2 170 17:36 19.09.2019
4836 Clouds 27 1011 74 9000 5.1 170 17:18 19.09.2019
4837 Clouds 27 1011 74 9000 5.1 170 16:57 19.09.2019
4838 Clouds 27 1011 74 9000 5.1 170 16:38 19.09.2019
4839 Clouds 27 1011 74 9000 4.1 170 16:18 19.09.2019
4840 Clouds 26 1011 74 9000 4.1 170 15:38 19.09.2019
4841 Clouds 26 1011 83 9000 4.1 140 15:18 19.09.2019
4842 Clouds 26 1011 83 9000 4.1 140 14:42 19.09.2019
4843 Clouds 26 1011 83 9000 4.1 140 14:23 19.09.2019
4844 Clouds 25 1011 88 9000 2.6 140 13:59 19.09.2019
4845 Clouds 25 1011 88 9000 2.6 140 13:39 19.09.2019
4846 Clouds 25 1011 88 9000 2.6 140 13:39 19.09.2019
4847 Clouds 24 1011 88 9000 2.6 140 13:19 19.09.2019
4848 Clouds 24 1011 88 9000 2.6 140 13:19 19.09.2019
4849 Clouds 23 1011 88 9000 3.1 180 12:39 19.09.2019
4850 Clouds 23 1011 88 8000 2.6 190 12:19 19.09.2019
4851 Clouds 22 1011 88 8000 2.6 190 11:57 19.09.2019
4852 Clouds 22 1011 88 8000 2.6 190 11:38 19.09.2019
4853 Clouds 23 1010 88 8000 3.6 190 11:19 19.09.2019
4854 Clouds 23 1010 88 8000 3.6 190 10:41 19.09.2019
4855 Clouds 23 1010 88 8000 3.6 190 10:22 19.09.2019
4856 Clouds 23 1010 88 7000 4.1 200 09:59 19.09.2019
4857 Clouds 23 1010 88 7000 4.1 200 09:41 19.09.2019
4858 Clouds 23 1010 88 7000 4.1 200 09:21 19.09.2019
4859 Clouds 23 1009 94 7000 1.5 170 08:55 19.09.2019
4860 Clouds 23 1009 94 7000 1.5 170 08:28 19.09.2019
4861 Clouds 23 1009 73 9000 2.6 230 07:57 19.09.2019
4862 Clouds 23 1009 94 6000 0.5 130 07:38 19.09.2019
4863 Clouds 22 1009 78 9000 3.1 250 07:20 19.09.2019
4864 Clouds 23 1009 100 6000 3.1 140 06:45 19.09.2019
4865 Clouds 23 1009 100 6000 3.1 140 06:25 19.09.2019
4866 Clouds 23 1009 94 6000 1.5 130 05:50 19.09.2019
4867 Clouds 23 1009 94 6000 1.5 130 05:50 19.09.2019
4868 Clouds 23 1009 88 6000 1 160 04:39 19.09.2019
4869 Mist 24 1010 88 6000 3.1 170 03:22 19.09.2019
4870 Mist 24 1010 78 10000 3.6 230 02:27 19.09.2019
4871 Clouds 24 1008 94 7000 7.2 190 01:22 19.09.2019
4872 Clouds 24 1008 94 7000 7.2 190 00:49 19.09.2019
4873 Clouds 24 1008 94 7000 7.2 190 00:25 19.09.2019
4874 Haze 24 1007 94 7000 6.2 200 00:25 19.09.2019
4875 Haze 24 1007 94 7000 6.2 200 23:39 18.09.2019
4876 Haze 24 1007 94 7000 6.2 200 23:21 18.09.2019
4877 Mist 25 1006 88 9000 11.8 190 22:44 18.09.2019
4878 Mist 26 1006 88 9000 11.8 190 22:23 18.09.2019
4879 Mist 27 1005 78 10000 8.2 180 21:59 18.09.2019
4880 Mist 27 1005 78 10000 8.2 180 21:59 18.09.2019
4881 Mist 27 1005 78 10000 8.2 180 21:40 18.09.2019
4882 Haze 32 1005 62 10000 8.2 180 21:19 18.09.2019
4883 Haze 32 1005 62 10000 8.2 180 20:59 18.09.2019
4884 Haze 32 1005 62 10000 8.2 180 20:40 18.09.2019
4885 Haze 32 1004 66 10000 5.7 160 20:22 18.09.2019
4886 Haze 32 1004 66 10000 5.7 160 19:59 18.09.2019
4887 Haze 32 1004 66 10000 5.7 160 19:41 18.09.2019
4888 Haze 33 1005 58 10000 4.6 150 19:20 18.09.2019
4889 Haze 32 1005 58 10000 4.6 150 18:56 18.09.2019
4890 Haze 32 1005 58 10000 4.6 150 18:38 18.09.2019
4891 Haze 32 1005 58 10000 4.6 150 18:38 18.09.2019
4892 Haze 32 1005 58 10000 4.6 150 18:19 18.09.2019
4893 Clear 33 1005 62 10000 5.1 140 17:59 18.09.2019
4894 Clear 34 1005 49 10000 3.6 350 17:40 18.09.2019
4895 Clear 34 1005 49 10000 3.6 350 17:19 18.09.2019
4896 Clear 33 1006 59 9000 4.1 360 16:56 18.09.2019
4897 Clear 33 1006 59 9000 4.1 360 16:38 18.09.2019
4898 Clear 33 1006 59 9000 4.1 360 16:19 18.09.2019
4899 Haze 31 1007 74 7000 3.6 340 15:56 18.09.2019
4900 Haze 31 1007 74 7000 3.6 340 15:37 18.09.2019
4901 Haze 31 1007 74 7000 3.6 340 15:19 18.09.2019
4902 Haze 29 1007 83 6000 3.1 350 14:57 18.09.2019
4903 Haze 29 1007 83 6000 3.1 350 14:39 18.09.2019
4904 Haze 28 1007 83 6000 3.1 350 14:21 18.09.2019
4905 Mist 25 1007 88 5000 2.1 360 13:54 18.09.2019
4906 Mist 25 1007 88 5000 2.1 360 13:36 18.09.2019
4907 Mist 23 1007 94 5000 1.5 10 13:18 18.09.2019
4908 Mist 23 1007 100 4000 1.5 170 12:37 18.09.2019
4909 Mist 21 1007 100 2000 3.1 160 12:19 18.09.2019
4910 Mist 20 1007 100 2000 3.1 160 11:40 18.09.2019
4911 Mist 21 1007 100 2000 3.1 160 11:20 18.09.2019
4912 Mist 22 1006 100 7000 1.77 10.145 10:55 18.09.2019
4913 Mist 22 1006 100 7000 1.77 10.145 10:37 18.09.2019
4914 Clear 22 1006 100 7000 1.5 120 10:18 18.09.2019
4915 Clear 22 1006 100 7000 1.5 120 09:41 18.09.2019
4916 Clouds 22 1006 100 7000 1.5 120 09:22 18.09.2019
4917 Clear 22 1007 100 8000 3.1 140 08:58 18.09.2019
4918 Clear 22 1007 100 8000 3.1 140 08:39 18.09.2019
4919 Clear 22 1007 100 8000 3.1 140 08:21 18.09.2019
4920 Clear 22 1007 100 8000 3.1 140 07:43 18.09.2019
4921 Clear 22 1007 100 8000 3.1 140 07:23 18.09.2019
4922 Clear 23 1008 100 10000 3.1 170 06:46 18.09.2019
4923 Clear 23 1008 100 10000 3.1 170 06:21 18.09.2019
4924 Clear 23 1008 100 10000 3.1 170 06:21 18.09.2019
4925 Clear 23 1008 94 10000 2.6 140 05:27 18.09.2019
4926 Clear 24 1008 94 10000 3.1 120 03:40 18.09.2019
4927 Clear 24 1008 94 10000 1.5 180 02:40 18.09.2019
4928 Clear 26 1008 78 10000 1 280 01:44 18.09.2019
4929 Clear 26 1007 83 10000 2.1 150 00:56 18.09.2019
4930 Clear 26 1007 83 10000 2.1 150 00:32 18.09.2019
4931 Clear 28 1007 66 10000 4.1 190 23:48 17.09.2019
4932 Clear 28 1007 66 10000 4.1 190 23:25 17.09.2019
4933 Clear 31 1006 58 10000 3.6 180 22:59 17.09.2019
4934 Clear 31 1006 58 10000 3.6 180 22:41 17.09.2019
4935 Clear 31 1006 58 10000 3.6 180 22:22 17.09.2019
4936 Clear 33 1006 52 10000 4.1 170 21:54 17.09.2019
4937 Clear 33 1006 52 10000 4.1 170 21:36 17.09.2019
4938 Clear 35 1006 49 10000 3.6 170 21:18 17.09.2019
4939 Clear 35 1006 49 10000 3.6 170 20:56 17.09.2019
4940 Clear 35 1006 49 10000 3.6 170 20:56 17.09.2019
4941 Clear 34 1006 49 10000 3.6 170 20:38 17.09.2019
4942 Clear 34 1007 52 10000 2.6 150 20:19 17.09.2019
4943 Clear 34 1007 52 10000 2.6 150 20:19 17.09.2019
4944 Clear 34 1007 52 10000 2.6 150 19:54 17.09.2019
4945 Clear 34 1007 52 10000 2.6 150 19:54 17.09.2019
4946 Clear 34 1007 52 10000 2.6 150 19:36 17.09.2019
4947 Clear 34 1007 36 10000 2.6 30 19:18 17.09.2019
4948 Clear 33 1008 59 10000 3.1 20 18:42 17.09.2019
4949 Clear 34 1008 59 10000 3.1 20 18:22 17.09.2019
4950 Clear 33 1009 49 10000 3.1 10 17:56 17.09.2019
4951 Clear 33 1009 49 10000 3.1 10 17:37 17.09.2019
4952 Clear 32 1010 58 10000 2.6 360 17:19 17.09.2019
4953 Clear 32 1010 58 10000 2.6 360 16:42 17.09.2019
4954 Clear 31 1010 58 10000 2.6 360 16:22 17.09.2019
4955 Clear 30 1011 69 10000 3.1 10 15:59 17.09.2019
4956 Clear 30 1011 69 10000 3.1 10 15:38 17.09.2019
4957 Clear 29 1011 69 10000 3.1 10 15:19 17.09.2019
4958 Clear 28 1011 74 10000 3.1 10 15:19 17.09.2019
4959 Clear 28 1011 74 10000 3.1 10 14:56 17.09.2019
4960 Clear 27 1011 74 10000 3.1 10 14:37 17.09.2019
4961 Clear 27 1011 74 10000 3.1 10 14:19 17.09.2019
4962 Clear 25 1011 78 10000 2.6 340 13:43 17.09.2019
4963 Clear 25 1011 78 10000 2.6 340 13:23 17.09.2019
4964 Clear 24 1012 69 10000 1 60 12:56 17.09.2019
4965 Clear 23 1011 83 10000 2.1 340 12:37 17.09.2019
4966 Clear 20 1011 100 10000 1.5 330 12:18 17.09.2019
4967 Clear 19 1011 100 10000 1.5 330 11:42 17.09.2019
4968 Clear 20 1011 100 10000 1.5 330 11:24 17.09.2019
4969 Clear 21 1010 100 10000 2.1 330 10:56 17.09.2019
4970 Clear 21 1010 100 10000 2.1 330 10:37 17.09.2019
4971 Clear 21 1010 100 10000 2.6 330 10:19 17.09.2019
4972 Clear 21 1010 100 10000 2.6 330 09:41 17.09.2019
4973 Clear 21 1010 100 10000 2.6 330 09:23 17.09.2019
4974 Clear 22 1011 94 10000 2.1 330 08:51 17.09.2019
4975 Clear 22 1011 94 10000 2.1 330 08:51 17.09.2019
4976 Clear 22 1011 94 10000 2.1 330 08:33 17.09.2019
4977 Clear 22 1012 94 10000 3.1 360 07:59 17.09.2019
4978 Clear 22 1012 94 10000 3.1 360 07:41 17.09.2019
4979 Clear 22 1012 100 10000 1.5 20 07:23 17.09.2019
4980 Clear 22 1012 100 10000 1.5 20 06:47 17.09.2019
4981 Clear 22 1012 100 10000 1.5 20 06:23 17.09.2019
4982 Clear 23 1013 94 10000 1 310 05:50 17.09.2019
4983 Clear 23 1014 94 10000 1.5 360 04:32 17.09.2019
4984 Clear 24 1014 94 10000 1 110 02:59 17.09.2019
4985 Clear 24 1014 94 10000 1 110 02:39 17.09.2019
4986 Clear 25 1014 88 10000 1.5 120 01:29 17.09.2019
4987 Clear 25 1013 88 10000 3.6 180 00:43 17.09.2019
4988 Clear 27 1013 83 10000 4.1 190 23:41 16.09.2019
4989 Clear 27 1013 83 10000 4.1 190 23:19 16.09.2019
4990 Clear 28 1013 78 10000 5.7 190 22:57 16.09.2019
4991 Clear 28 1013 78 10000 5.7 190 22:39 16.09.2019
4992 Clear 28 1013 78 10000 5.7 190 22:21 16.09.2019
4993 Clear 30 1013 74 10000 6.2 200 21:55 16.09.2019
4994 Clear 30 1013 74 10000 6.2 200 21:37 16.09.2019
4995 Clear 30 1013 43 10000 2.1 0 21:18 16.09.2019
4996 Clear 30 1013 74 10000 4.6 170 20:41 16.09.2019
4997 Clear 30 1013 74 10000 4.6 170 20:22 16.09.2019
4998 Clear 32 1013 70 10000 4.1 160 19:57 16.09.2019
4999 Clear 32 1013 70 10000 4.1 160 19:39 16.09.2019
5000 Clear 32 1013 43 10000 3.6 20 19:20 16.09.2019
5001 Clear 32 1013 43 10000 3.6 20 18:56 16.09.2019
5002 Clear 31 1014 66 10000 4.1 160 18:37 16.09.2019
5003 Clear 31 1015 70 10000 3.1 150 18:18 16.09.2019
5004 Clear 31 1015 70 10000 3.1 150 17:42 16.09.2019
5005 Clear 31 1015 70 10000 3.1 150 17:24 16.09.2019
5006 Clear 28 1015 74 10000 2.6 120 16:57 16.09.2019
5007 Clear 28 1015 74 10000 2.6 120 16:38 16.09.2019
5008 Clear 29 1016 58 10000 1.5 0 16:20 16.09.2019
5009 Clear 28 1016 69 10000 2.6 320 15:56 16.09.2019
5010 Clear 28 1016 69 10000 2.6 320 15:37 16.09.2019
5011 Clear 26 1016 83 10000 3.1 330 15:18 16.09.2019
5012 Clear 26 1016 83 10000 3.1 330 14:44 16.09.2019
5013 Clear 26 1016 83 10000 3.1 330 14:23 16.09.2019
5014 Clouds 25 1017 83 10000 2.1 350 13:59 16.09.2019
5015 Clouds 25 1017 83 10000 2.1 350 13:39 16.09.2019
5016 Clouds 25 1017 83 10000 2.1 350 13:20 16.09.2019
5017 Clouds 23 1017 88 10000 2.6 10 12:43 16.09.2019
5018 Mist 21 1016 94 10000 3.1 30 12:25 16.09.2019
5019 Mist 21 1016 94 10000 3.1 30 12:25 16.09.2019
5020 Mist 21 1016 94 10000 3.1 30 11:56 16.09.2019
5021 Mist 21 1016 94 10000 3.1 30 11:56 16.09.2019
5022 Mist 21 1016 94 10000 3.1 30 11:56 16.09.2019
5023 Mist 21 1016 94 10000 3.1 30 11:37 16.09.2019
5024 Mist 22 1016 94 10000 3.1 30 11:19 16.09.2019
5025 Mist 22 1016 94 10000 2.1 40 10:39 16.09.2019
5026 Mist 22 1016 94 10000 2.1 40 10:20 16.09.2019
5027 Mist 22 1016 94 10000 1.5 40 09:58 16.09.2019
5028 Mist 22 1016 94 10000 1.5 40 09:39 16.09.2019
5029 Mist 22 1016 94 6000 2.1 60 09:19 16.09.2019
5030 Mist 22 1016 94 6000 2.1 60 08:46 16.09.2019
5031 Mist 22 1016 94 6000 2.1 60 08:26 16.09.2019
5032 Mist 22 1017 94 6000 2.1 60 07:56 16.09.2019
5033 Mist 22 1017 94 6000 2.1 60 07:38 16.09.2019
5034 Mist 22 1017 88 10000 3.1 100 07:20 16.09.2019
5035 Mist 23 1017 88 6000 1 60 06:46 16.09.2019
5036 Mist 23 1017 88 6000 1 60 06:28 16.09.2019
5037 Clouds 23 1017 88 6000 2.6 70 05:53 16.09.2019
5038 Clouds 23 1017 88 6000 2.6 70 05:32 16.09.2019
5039 Clouds 23 1017 94 8000 3.1 80 04:49 16.09.2019
5040 Clear 23 1017 94 10000 2.6 100 02:58 16.09.2019
5041 Clouds 24 1016 94 10000 2.1 170 00:44 16.09.2019
5042 Clouds 24 1016 94 10000 2.1 170 00:26 16.09.2019
5043 Clouds 24 1016 94 10000 2.6 160 23:45 15.09.2019
5044 Clouds 24 1016 94 10000 2.6 160 23:22 15.09.2019
5045 Clouds 26 1015 88 10000 3.1 150 22:59 15.09.2019
5046 Clouds 26 1015 88 10000 3.1 150 22:38 15.09.2019
5047 Clouds 27 1015 78 10000 4.6 140 22:18 15.09.2019
5048 Clouds 27 1015 78 10000 4.6 140 21:56 15.09.2019
5049 Clouds 27 1015 78 10000 4.6 140 21:37 15.09.2019
5050 Clouds 27 1015 78 10000 4.6 140 21:37 15.09.2019
5051 Clouds 28 1015 74 10000 3.6 160 21:19 15.09.2019
5052 Clouds 28 1015 74 10000 3.6 160 20:44 15.09.2019
5053 Clouds 28 1015 74 10000 3.6 160 20:44 15.09.2019
5054 Clouds 28 1015 74 10000 3.6 160 20:26 15.09.2019
5055 Clouds 29 1016 74 10000 5.7 160 19:56 15.09.2019
5056 Clouds 29 1016 74 10000 5.7 160 19:37 15.09.2019
5057 Clouds 28 1016 61 10000 6.2 120 19:19 15.09.2019
5058 Clouds 28 1016 74 10000 5.1 150 18:40 15.09.2019
5059 Clouds 28 1017 66 10000 4.1 310 18:20 15.09.2019
5060 Clouds 27 1017 66 10000 4.1 310 17:43 15.09.2019
5061 Clouds 29 1017 66 10000 4.1 310 17:22 15.09.2019
5062 Clouds 28 1019 69 10000 3.6 330 16:58 15.09.2019
5063 Clouds 28 1019 69 10000 3.6 330 16:40 15.09.2019
5064 Clouds 28 1019 69 10000 3.6 330 16:22 15.09.2019
5065 Clouds 26 1019 69 10000 3.6 330 15:56 15.09.2019
5066 Clouds 25 1019 69 10000 3.6 330 15:38 15.09.2019
5067 Clouds 25 1019 69 10000 3.6 330 15:19 15.09.2019
5068 Clouds 24 1020 83 10000 1.5 70 14:55 15.09.2019
5069 Clouds 24 1020 83 10000 1.5 70 14:37 15.09.2019
5070 Clouds 23 1020 88 10000 1.5 10 14:18 15.09.2019
5071 Clouds 23 1020 88 10000 1.5 10 13:43 15.09.2019
5072 Clouds 23 1020 94 10000 0.5 170 13:21 15.09.2019
5073 Clouds 23 1020 94 10000 0.5 170 12:42 15.09.2019
5074 Clouds 23 1020 94 10000 0.5 170 12:24 15.09.2019
5075 Clouds 21 1020 100 10000 2.1 170 11:58 15.09.2019
5076 Clouds 21 1020 100 10000 2.1 170 11:40 15.09.2019
5077 Clouds 21 1020 100 10000 2.1 170 11:20 15.09.2019
5078 Clouds 21 1019 94 10000 2.6 180 10:42 15.09.2019
5079 Clouds 21 1019 94 10000 2.6 180 10:22 15.09.2019
5080 Clouds 22 1018 94 10000 0.5 60 09:58 15.09.2019
5081 Clouds 22 1018 94 10000 0.5 60 09:37 15.09.2019
5082 Clouds 22 1018 94 10000 0.5 60 09:19 15.09.2019
5083 Clouds 22 1018 94 10000 1.5 130 08:46 15.09.2019
5084 Clouds 22 1018 94 10000 1.5 130 08:26 15.09.2019
5085 Clouds 22 1018 88 10000 1.5 80 07:48 15.09.2019
5086 Clouds 22 1018 88 10000 1.5 80 07:27 15.09.2019
5087 Clouds 22 1018 100 10000 0.5 140 06:43 15.09.2019
5088 Clouds 23 1020 94 10000 3.1 120 03:31 15.09.2019
5089 Clouds 23 1020 94 10000 1.5 120 02:35 15.09.2019
5090 Clouds 23 1020 94 10000 3.1 130 01:40 15.09.2019
5091 Clouds 23 1020 94 10000 3.1 130 01:40 15.09.2019
5092 Clouds 23 1019 94 10000 2.6 130 01:19 15.09.2019
5093 Clouds 23 1019 94 10000 2.6 130 00:43 15.09.2019
5094 Clouds 23 1019 94 8000 3.1 150 00:22 15.09.2019
5095 Clouds 22 1019 94 8000 3.1 150 23:58 14.09.2019
5096 Clouds 22 1019 94 8000 3.1 150 23:40 14.09.2019
5097 Clouds 23 1019 94 8000 3.1 150 23:21 14.09.2019
5098 Clouds 23 1019 94 8000 4.6 170 22:59 14.09.2019
5099 Clouds 22 1019 94 8000 4.6 170 22:40 14.09.2019
5100 Clouds 23 1019 94 8000 4.6 170 22:21 14.09.2019
5101 Clouds 24 1018 94 8000 5.7 160 21:57 14.09.2019
5102 Clouds 24 1018 94 8000 5.7 160 21:39 14.09.2019
5103 Clouds 24 1018 94 8000 5.7 160 21:19 14.09.2019
5104 Clouds 24 1018 88 8000 5.1 170 20:54 14.09.2019
5105 Clouds 24 1018 88 8000 5.1 170 20:54 14.09.2019
5106 Clouds 24 1018 88 8000 5.1 170 20:36 14.09.2019
5107 Clouds 24 1018 83 8000 5.1 170 20:18 14.09.2019
5108 Clouds 24 1018 83 8000 5.1 170 19:41 14.09.2019
5109 Clouds 25 1018 83 8000 5.1 170 19:20 14.09.2019
5110 Clouds 25 1018 83 8000 5.1 170 18:54 14.09.2019
5111 Clouds 25 1019 83 8000 4.1 170 18:36 14.09.2019
5112 Mist 24 1020 88 6000 2.1 150 18:18 14.09.2019
5113 Mist 24 1020 88 6000 2.1 150 17:41 14.09.2019
5114 Drizzle 23 1020 100 6000 2.6 150 17:22 14.09.2019
5115 Drizzle 23 1020 100 6000 2.6 150 16:47 14.09.2019
5116 Drizzle 23 1021 94 6000 2.6 140 16:26 14.09.2019
5117 Rain 22 1021 100 4000 2.4 114.309 15:57 14.09.2019
5118 Rain 22 1021 100 4000 2.4 114.309 15:38 14.09.2019
5119 Rain 22 1021 100 4000 2.42 124.926 15:19 14.09.2019
5120 Rain 21 1021 100 4000 0.5 150 14:43 14.09.2019
5121 Rain 21 1021 100 4000 0.5 150 14:19 14.09.2019
5122 Rain 21 1021 100 4000 0.5 150 14:19 14.09.2019
5123 Rain 22 1021 78 8000 1 340 13:48 14.09.2019
5124 Rain 22 1021 78 8000 1 340 13:48 14.09.2019
5125 Rain 22 1020 94 4500 3.1 170 13:23 14.09.2019
5126 Rain 22 1020 94 4500 3.1 170 12:59 14.09.2019
5127 Rain 22 1020 94 4500 3.1 170 12:38 14.09.2019
5128 Clouds 22 1019 94 8000 1.5 250 12:18 14.09.2019
5129 Clouds 22 1019 94 8000 1.5 250 11:40 14.09.2019
5130 Clouds 22 1019 94 8000 1.5 250 11:19 14.09.2019
5131 Clouds 21 1019 88 10000 1 290 10:39 14.09.2019
5132 Clouds 21 1019 94 10000 2.1 350 10:20 14.09.2019
5133 Clouds 21 1019 94 10000 2.1 350 09:57 14.09.2019
5134 Clouds 21 1019 94 10000 2.1 350 09:39 14.09.2019
5135 Clouds 21 1019 94 10000 2.1 350 09:19 14.09.2019
5136 Clouds 22 1019 88 10000 1.5 190 08:47 14.09.2019
5137 Clouds 22 1019 88 10000 1.5 190 08:25 14.09.2019
5138 Clouds 22 1019 88 10000 2.6 190 07:48 14.09.2019
5139 Clouds 22 1019 88 10000 2.6 190 07:28 14.09.2019
5140 Clouds 22 1019 88 10000 2.6 190 07:28 14.09.2019
5141 Clouds 22 1020 88 10000 3.1 170 06:52 14.09.2019
5142 Clouds 22 1020 88 10000 3.1 170 06:29 14.09.2019
5143 Clouds 22 1020 88 8000 3.1 170 05:27 14.09.2019
5144 Clouds 22 1020 88 8000 3.1 180 03:46 14.09.2019
5145 Clouds 22 1020 88 8000 3.6 200 02:55 14.09.2019
5146 Clouds 22 1020 88 8000 4.1 190 01:55 14.09.2019
5147 Clouds 22 1020 88 8000 4.1 190 01:23 14.09.2019
5148 Clouds 22 1020 88 8000 4.6 190 00:59 14.09.2019
5149 Clouds 22 1020 88 8000 4.6 190 00:39 14.09.2019
5150 Clouds 22 1020 88 8000 4.6 190 00:39 14.09.2019
5151 Clouds 23 1019 88 8000 4.1 200 00:21 14.09.2019
5152 Clouds 23 1019 88 8000 4.1 200 00:21 14.09.2019
5153 Clouds 23 1019 88 8000 4.1 200 00:21 14.09.2019
5154 Clouds 23 1019 88 8000 4.1 200 00:21 14.09.2019
5155 Clouds 23 1019 88 8000 4.1 200 23:38 13.09.2019
5156 Clouds 23 1019 88 8000 4.1 200 23:38 13.09.2019
5157 Clouds 23 1018 83 8000 3.1 180 23:19 13.09.2019
5158 Clouds 23 1018 83 8000 3.1 180 22:59 13.09.2019
5159 Clouds 23 1018 83 8000 3.1 180 22:39 13.09.2019
5160 Clouds 23 1018 78 8000 3.1 220 22:20 13.09.2019
5161 Clouds 23 1018 78 8000 3.1 220 21:56 13.09.2019
5162 Clouds 24 1018 78 8000 3.1 220 21:37 13.09.2019
5163 Clouds 24 1018 78 8000 3.1 220 21:18 13.09.2019
5164 -273 0 0 0 0 0 20:55 13.09.2019
5165 -273 0 0 0 0 0 20:55 13.09.2019
5166 Clouds 23 1018 83 8000 4.1 220 20:36 13.09.2019
5167 Clouds 23 1018 78 9000 1.5 180 20:18 13.09.2019
5168 Clouds 24 1018 78 9000 1.5 180 19:42 13.09.2019
5169 Clouds 24 1018 73 8000 4.6 200 19:21 13.09.2019
5170 Clouds 24 1018 73 8000 4.6 200 18:58 13.09.2019
5171 Clouds 24 1019 78 9000 3.1 210 18:37 13.09.2019
5172 Clouds 25 1019 78 9000 4.1 200 18:19 13.09.2019
5173 Clouds 25 1019 78 9000 4.1 200 17:43 13.09.2019
5174 Clouds 24 1019 78 9000 4.1 200 17:20 13.09.2019
5175 Clouds 24 1019 83 9000 3.6 190 16:55 13.09.2019
5176 -273 0 0 0 0 0 16:55 13.09.2019
5177 Clouds 24 1019 83 9000 3.6 190 16:37 13.09.2019
5178 Clouds 24 1019 83 9000 3.6 190 16:18 13.09.2019
5179 Clouds 24 1019 83 9000 3.6 190 16:18 13.09.2019
5180 Clouds 24 1019 78 9000 4.1 190 15:40 13.09.2019
5181 Clouds 24 1019 78 9000 4.1 190 15:21 13.09.2019
5182 Clouds 23 1019 78 10000 2.6 240 14:44 13.09.2019
5183 Clouds 23 1019 78 10000 2.6 240 14:23 13.09.2019
5184 Clouds 23 1019 83 10000 2.1 240 13:59 13.09.2019
5185 Clouds 23 1019 83 10000 2.1 240 13:40 13.09.2019
5186 Clouds 23 1019 83 10000 2.1 240 13:21 13.09.2019
5187 Clouds 23 1018 83 10000 3.6 240 12:45 13.09.2019
5188 Clouds 23 1018 83 10000 3.6 240 12:24 13.09.2019
5189 Clouds 22 1017 83 10000 3.1 240 11:57 13.09.2019
5190 Clouds 23 1018 78 9000 5.19 247.441 11:20 13.09.2019
5191 Clouds 23 1016 83 10000 2.6 220 10:41 13.09.2019
5192 Clouds 22 1016 88 10000 4.6 200 10:21 13.09.2019
5193 Clouds 23 1016 83 10000 2.6 220 10:21 13.09.2019
5194 Clouds 22 1016 88 10000 4.6 200 09:56 13.09.2019
5195 Clouds 22 1016 88 10000 4.6 200 09:37 13.09.2019
5196 Clouds 22 1016 88 10000 4.6 200 09:19 13.09.2019
5197 Clouds 22 1015 88 10000 5.1 200 08:41 13.09.2019
5198 Clouds 22 1015 88 10000 5.1 200 08:21 13.09.2019
5199 Clouds 23 1014 83 10000 2.6 200 07:59 13.09.2019
5200 Clouds 23 1014 83 10000 2.6 200 07:40 13.09.2019
5201 Clear 23 1013 83 10000 3.1 190 06:54 13.09.2019
5202 Clear 23 1013 83 10000 3.1 190 06:34 13.09.2019
5203 Clear 25 1013 78 10000 3.1 200 05:32 13.09.2019
5204 Clear 26 1012 83 10000 1.5 330 03:48 13.09.2019
5205 Clear 26 1012 83 10000 1.5 330 03:24 13.09.2019
5206 Clear 26 1011 66 10000 1.5 200 02:19 13.09.2019
5207 Clear 26 1011 88 10000 1 170 01:35 13.09.2019
5208 Clear 26 1011 74 10000 1.5 20 00:59 13.09.2019
5209 Clear 27 1010 100 10000 3.1 120 00:34 13.09.2019
5210 Clear 28 1009 74 10000 3.1 160 23:48 12.09.2019
5211 Clear 28 1009 74 10000 3.1 160 23:24 12.09.2019
5212 Clear 31 1009 62 10000 4.1 180 22:57 12.09.2019
5213 Clear 32 1009 62 10000 4.1 180 22:39 12.09.2019
5214 Clear 32 1009 62 10000 4.1 180 22:21 12.09.2019
5215 Clouds 34 1009 62 9000 4.6 160 21:55 12.09.2019
5216 Clouds 34 1009 62 9000 4.6 160 21:36 12.09.2019
5217 Clouds 34 1009 62 9000 4.6 160 21:18 12.09.2019
5218 Clouds 36 1009 70 9000 4.1 160 20:44 12.09.2019
5219 Clouds 36 1009 70 9000 4.1 160 20:22 12.09.2019
5220 Clouds 36 1009 62 9000 2.6 150 19:57 12.09.2019
5221 Clouds 36 1009 62 9000 2.6 150 19:39 12.09.2019
5222 Clear 36 1009 39 10000 3.6 60 19:19 12.09.2019
5223 Clear 36 1009 39 10000 3.6 60 18:56 12.09.2019
5224 Clouds 35 1010 59 9000 2.1 350 18:36 12.09.2019
5225 Clouds 34 1010 44 9000 2.6 50 18:18 12.09.2019
5226 Clouds 34 1010 62 8000 2.6 360 17:40 12.09.2019
5227 Clouds 34 1010 62 8000 2.6 360 17:20 12.09.2019
5228 Clouds 34 1010 62 8000 2.6 360 17:20 12.09.2019
5229 Clouds 32 1011 79 7000 3.1 360 16:56 12.09.2019
5230 Clouds 32 1011 79 7000 3.1 360 16:37 12.09.2019
5231 Clouds 32 1011 79 7000 3.1 360 16:19 12.09.2019
5232 Clouds 30 1012 78 6000 3.6 350 15:41 12.09.2019
5233 Clouds 30 1012 78 6000 3.6 350 15:23 12.09.2019
5234 Clouds 30 1012 78 6000 3.6 350 15:23 12.09.2019
5235 Mist 28 1012 94 5000 3.6 340 14:46 12.09.2019
5236 Mist 28 1012 94 5000 3.6 340 14:22 12.09.2019
5237 Fog 25 1012 94 1000 4.1 350 13:58 12.09.2019
5238 Fog 25 1012 100 500 4.6 10 13:37 12.09.2019
5239 Mist 22 1012 100 3000 4.6 10 13:19 12.09.2019
5240 Mist 22 1012 100 4000 4.1 360 12:45 12.09.2019
5241 Mist 20 1012 100 4000 4.1 360 12:19 12.09.2019
5242 Mist 20 1011 100 5000 3.1 10 11:56 12.09.2019
5243 Mist 19 1011 100 5000 3.1 10 11:38 12.09.2019
5244 Mist 20 1011 100 5000 3.1 10 11:19 12.09.2019
5245 Mist 19 1011 100 5000 2.1 10 10:44 12.09.2019
5246 Mist 19 1011 100 5000 2.1 10 10:26 12.09.2019
5247 Mist 19 1011 100 5000 1 340 09:45 12.09.2019
5248 Mist 19 1011 100 5000 1 340 09:25 12.09.2019
5249 Mist 20 1011 100 6000 0.5 200 08:59 12.09.2019
5250 Mist 20 1011 100 6000 0.5 200 08:40 12.09.2019
5251 Mist 20 1011 100 6000 0.5 200 08:22 12.09.2019
5252 Mist 20 1011 100 6000 1 160 07:44 12.09.2019
5253 Mist 20 1013 93 7000 1 80 07:20 12.09.2019
5254 Mist 20 1011 100 6000 1.5 150 06:51 12.09.2019
5255 Mist 20 1011 100 6000 1.5 150 06:23 12.09.2019
5256 Mist 21 1012 100 6000 3.1 150 05:51 12.09.2019
5257 Mist 20 1012 100 6000 3.1 150 05:33 12.09.2019
5258 Mist 21 1012 100 8000 3.6 170 04:41 12.09.2019
5259 Mist 21 1012 100 7000 4.6 150 02:59 12.09.2019
5260 Mist 22 1012 100 7000 3.6 150 01:37 12.09.2019
5261 Mist 22 1012 100 7000 3.6 150 01:19 12.09.2019
5262 Mist 23 1012 83 8000 3.1 150 00:44 12.09.2019
5263 Mist 23 1012 83 8000 3.1 150 00:24 12.09.2019
5264 Clouds 23 1012 88 9000 4.6 170 23:42 11.09.2019
5265 Clouds 23 1012 88 9000 4.6 170 23:24 11.09.2019
5266 Clouds 24 1011 88 9000 5.7 180 22:57 11.09.2019
5267 Clouds 24 1011 88 9000 5.7 180 22:37 11.09.2019
5268 Clouds 24 1011 88 9000 5.7 180 22:19 11.09.2019
5269 Clouds 24 1011 83 9000 6.2 160 21:43 11.09.2019
5270 Clouds 25 1011 83 9000 6.2 160 21:25 11.09.2019
5271 Clouds 26 1011 78 8000 6.2 170 20:58 11.09.2019
5272 Clouds 27 1011 78 8000 6.2 170 20:40 11.09.2019
5273 Mist 27 1012 78 8000 5.1 150 20:20 11.09.2019
5274 Mist 27 1012 78 8000 5.1 150 20:20 11.09.2019
5275 Mist 27 1012 78 8000 5.1 150 19:58 11.09.2019
5276 Mist 27 1012 78 8000 5.1 150 19:40 11.09.2019
5277 Mist 27 1011 61 8000 7.2 130 19:21 11.09.2019
5278 Mist 27 1011 61 8000 7.2 130 18:59 11.09.2019
5279 Mist 27 1012 74 8000 5.7 150 18:40 11.09.2019
5280 Mist 27 1012 74 8000 5.7 150 18:22 11.09.2019
5281 Clouds 28 1013 83 7000 6.7 140 17:57 11.09.2019
5282 Clouds 28 1013 83 7000 6.7 140 17:38 11.09.2019
5283 Clouds 28 1013 83 7000 6.7 140 17:20 11.09.2019
5284 Clear 29 1014 83 10000 5.1 140 16:49 11.09.2019
5285 Clear 29 1014 83 10000 5.1 140 16:26 11.09.2019
5286 Clear 28 1015 74 10000 1 60 15:59 11.09.2019
5287 Clear 28 1015 74 10000 1 60 15:41 11.09.2019
5288 Clear 28 1015 74 10000 1 60 15:20 11.09.2019
5289 Clear 26 1015 78 10000 1.5 20 14:56 11.09.2019
5290 Clear 26 1015 78 10000 1.5 20 14:37 11.09.2019
5291 Clear 25 1014 83 10000 3.1 350 14:18 11.09.2019
5292 Clear 25 1014 83 10000 3.1 350 13:39 11.09.2019
5293 Clear 22 1013 88 10000 2.1 340 13:21 11.09.2019
5294 Clear 22 1013 88 10000 2.1 340 12:59 11.09.2019
5295 Clear 22 1013 88 10000 2.1 340 12:38 11.09.2019
5296 Clear 20 1013 94 10000 2.6 330 12:20 11.09.2019
5297 Clear 21 1013 94 10000 2.6 330 11:40 11.09.2019
5298 Clear 21 1013 94 10000 2.6 330 11:21 11.09.2019
5299 Clear 21 1012 100 10000 3.6 340 10:59 11.09.2019
5300 Clear 21 1012 100 10000 3.6 340 10:40 11.09.2019
5301 Clear 21 1012 94 10000 3.1 330 10:20 11.09.2019
5302 Clear 21 1012 94 10000 3.1 330 09:40 11.09.2019
5303 Clear 21 1012 94 10000 3.1 330 09:20 11.09.2019
5304 Clear 22 1012 94 10000 2.6 330 08:57 11.09.2019
5305 Clear 22 1012 94 10000 2.6 330 08:57 11.09.2019
5306 Clear 22 1012 94 10000 2.6 330 08:38 11.09.2019
5307 -273 0 0 0 0 0 08:20 11.09.2019
5308 Clear 22 1013 94 10000 2.6 330 07:41 11.09.2019
5309 Clear 23 1013 83 10000 1.5 100 07:22 11.09.2019
5310 Clear 23 1013 83 10000 1.5 100 06:50 11.09.2019
5311 Clear 23 1013 88 10000 2.6 330 06:32 11.09.2019
5312 Clear 23 1014 88 10000 2.1 330 05:42 11.09.2019
5313 Clear 22 1014 88 10000 2.1 330 05:23 11.09.2019
5314 Clear 23 1014 88 10000 3.6 320 04:42 11.09.2019
5315 Clear 23 1014 83 10000 1.5 320 03:32 11.09.2019
5316 Clear 24 1014 69 10000 0.5 180 02:46 11.09.2019
5317 Clear 25 1013 69 10000 2.1 140 02:18 11.09.2019
5318 Clear 26 1013 61 10000 1 210 00:52 11.09.2019
5319 Clear 25 1013 61 10000 1 210 00:23 11.09.2019
5320 Clear 26 1012 69 10000 3.1 170 23:56 10.09.2019
5321 Clear 27 1012 69 10000 3.1 170 23:37 10.09.2019
5322 Clear 29 1012 62 10000 3.6 170 23:19 10.09.2019
5323 Clear 29 1012 62 10000 3.6 170 23:19 10.09.2019
5324 Clear 31 1012 62 10000 3.6 170 22:41 10.09.2019
5325 Clear 30 1012 62 10000 3.6 170 22:19 10.09.2019
5326 Clear 32 1012 55 10000 4.1 180 21:55 10.09.2019
5327 Clear 32 1012 55 10000 4.1 180 21:37 10.09.2019
5328 Clear 32 1012 55 10000 4.1 180 21:19 10.09.2019
5329 Clear 33 1012 62 10000 4.1 170 20:58 10.09.2019
5330 Clear 32 1012 62 10000 4.1 170 20:38 10.09.2019
5331 Clear 33 1012 30 10000 1 60 20:20 10.09.2019
5332 Clear 33 1012 58 10000 4.1 160 19:56 10.09.2019
5333 Clear 33 1012 58 10000 4.1 160 19:56 10.09.2019
5334 Clear 33 1012 58 10000 4.1 160 19:37 10.09.2019
5335 Clear 33 1013 62 10000 3.6 160 19:19 10.09.2019
5336 Clear 33 1013 62 10000 3.6 160 18:55 10.09.2019
5337 Clear 32 1013 62 10000 3.6 160 18:37 10.09.2019
5338 Clear 32 1014 70 10000 2.6 130 18:19 10.09.2019
5339 Clear 32 1014 38 10000 1.5 350 17:43 10.09.2019
5340 Clear 32 1014 38 10000 1.5 350 17:23 10.09.2019
5341 Clear 30 1015 55 10000 2.1 330 16:59 10.09.2019
5342 Clear 31 1015 55 10000 2.1 330 16:40 10.09.2019
5343 Clear 30 1015 55 10000 2.1 330 16:21 10.09.2019
5344 Clear 29 1016 74 10000 2.6 340 15:59 10.09.2019
5345 Clear 29 1016 74 10000 2.6 340 15:40 10.09.2019
5346 Clear 27 1016 74 10000 3.1 350 15:20 10.09.2019
5347 Clear 26 1016 74 10000 3.1 350 14:42 10.09.2019
5348 Clear 26 1016 74 10000 3.1 350 14:24 10.09.2019
5349 Clear 25 1016 78 10000 2.6 350 13:56 10.09.2019
5350 Clear 25 1016 78 10000 2.6 350 13:37 10.09.2019
5351 Clear 24 1016 78 10000 2.6 350 13:19 10.09.2019
5352 Clear 22 1015 88 10000 1.5 360 12:43 10.09.2019
5353 Clear 20 1015 88 10000 1.5 360 12:24 10.09.2019
5354 Clear 19 1016 88 10000 1.5 70 11:57 10.09.2019
5355 Clear 18 1015 94 10000 1.5 350 11:39 10.09.2019
5356 Clear 19 1014 100 10000 0.5 20 11:20 10.09.2019
5357 Clear 19 1014 100 10000 0.5 20 10:42 10.09.2019
5358 Clear 21 1014 93 10000 1 320 10:19 10.09.2019
5359 Clear 21 1014 93 10000 1 320 09:56 10.09.2019
5360 Clear 21 1014 100 10000 2.6 20 09:38 10.09.2019
5361 Clear 21 1014 88 10000 1 280 09:19 10.09.2019
5362 Clear 21 1014 100 10000 2.6 10 08:45 10.09.2019
5363 Clear 21 1014 100 10000 2.6 10 08:26 10.09.2019
5364 Clear 21 1014 100 10000 2.6 10 08:26 10.09.2019
5365 Clear 22 1014 94 10000 3.1 340 07:46 10.09.2019
5366 Clear 22 1014 94 10000 3.1 340 07:26 10.09.2019
5367 Clear 22 1015 88 10000 3.6 310 06:53 10.09.2019
5368 Clear 22 1015 88 10000 3.6 310 06:35 10.09.2019
5369 Clear 23 1015 83 10000 1.5 310 05:48 10.09.2019
5370 Clear 23 1016 88 10000 0.5 210 03:57 10.09.2019
5371 Clear 24 1016 83 10000 2.6 150 02:24 10.09.2019
5372 Clear 26 1016 83 10000 1.5 190 01:59 10.09.2019
5373 Clear 26 1016 83 10000 1.5 190 01:59 10.09.2019
5374 Clear 26 1016 83 10000 1.5 190 01:41 10.09.2019
5375 Clear 25 1016 65 10000 2.6 100 01:21 10.09.2019
5376 Clear 25 1015 78 10000 2.6 180 00:28 10.09.2019
5377 Clear 27 1015 83 10000 3.6 180 23:48 09.09.2019
5378 Clear 29 1014 74 10000 5.1 190 23:20 09.09.2019
5379 Clear 29 1014 74 10000 5.1 190 23:20 09.09.2019
5380 Clear 31 1014 74 10000 5.1 190 22:57 09.09.2019
5381 Clear 31 1014 74 10000 5.1 190 22:39 09.09.2019
5382 Clear 31 1014 66 10000 4.1 180 22:21 09.09.2019
5383 Clear 32 1014 66 10000 4.1 180 21:58 09.09.2019
5384 Clear 32 1014 66 10000 4.1 180 21:40 09.09.2019
5385 Clear 31 1014 66 10000 3.1 160 21:20 09.09.2019
5386 Clear 31 1014 66 10000 3.1 160 20:57 09.09.2019
5387 Clear 31 1014 66 10000 3.1 160 20:37 09.09.2019
5388 Clear 31 1015 62 10000 3.1 160 20:19 09.09.2019
5389 Clear 31 1015 62 10000 3.1 160 19:59 09.09.2019
5390 Clear 31 1015 62 10000 3.1 160 19:39 09.09.2019
5391 Clear 30 1015 62 10000 3.1 160 19:20 09.09.2019
5392 Clear 30 1015 62 10000 3.1 160 19:20 09.09.2019
5393 Clear 30 1016 62 10000 3.6 160 18:58 09.09.2019
5394 Clear 30 1016 62 10000 3.6 160 18:40 09.09.2019
5395 Clear 29 1016 51 10000 2.1 40 18:21 09.09.2019
5396 Clear 29 1016 51 10000 2.1 40 17:59 09.09.2019
5397 Clear 29 1016 51 10000 2.1 40 17:59 09.09.2019
5398 Clear 29 1017 65 10000 3.1 150 17:40 09.09.2019
5399 Clear 29 1017 54 10000 1.5 60 17:21 09.09.2019
5400 Clear 29 1017 54 10000 1.5 60 17:21 09.09.2019
5401 Clear 29 1017 54 10000 1.5 60 16:57 09.09.2019
5402 Clear 28 1017 61 10000 1 60 16:38 09.09.2019
5403 Clear 27 1018 57 10000 2.6 120 16:20 09.09.2019
5404 Clear 28 1018 57 10000 2.6 120 15:56 09.09.2019
5405 Clear 28 1018 57 10000 2.6 120 15:56 09.09.2019
5406 Clear 28 1018 69 10000 2.6 330 15:37 09.09.2019
5407 Clear 25 1018 78 10000 3.1 340 15:19 09.09.2019
5408 Clear 25 1018 78 10000 3.1 340 14:57 09.09.2019
5409 Clear 25 1018 78 10000 3.1 340 14:38 09.09.2019
5410 Clear 24 1019 73 10000 2.1 50 14:19 09.09.2019
5411 Clear 23 1019 83 10000 2.6 350 13:45 09.09.2019
5412 Clear 22 1019 83 10000 2.6 350 13:21 09.09.2019
5413 Clear 21 1019 83 10000 2.6 350 12:58 09.09.2019
5414 Clear 21 1018 94 10000 2.6 330 12:40 09.09.2019
5415 Clear 21 1018 94 10000 2.6 330 12:40 09.09.2019
5416 Fog 19 1019 82 10000 1 130 12:21 09.09.2019
5417 Fog 19 1018 94 10000 2.6 340 11:55 09.09.2019
5418 Fog 19 1018 94 10000 2.6 340 11:36 09.09.2019
5419 Clear 20 1018 93 10000 1 100 11:18 09.09.2019
5420 Clear 20 1017 94 10000 2.6 360 10:41 09.09.2019
5421 Clear 20 1017 94 10000 2.6 360 10:21 09.09.2019
5422 Clear 20 1018 93 10000 0.5 110 09:57 09.09.2019
5423 Clear 20 1017 94 10000 2.6 360 09:38 09.09.2019
5424 Clear 20 1018 93 10000 1 80 09:20 09.09.2019
5425 Clear 21 1017 88 10000 3.6 10 08:39 09.09.2019
5426 Clear 21 1018 88 10000 1.5 90 08:20 09.09.2019
5427 Clear 21 1018 88 10000 0.5 330 07:48 09.09.2019
5428 Clear 21 1018 88 10000 0.5 330 07:28 09.09.2019
5429 Clear 21 1018 88 10000 1 70 06:59 09.09.2019
5430 Clear 21 1018 94 10000 3.1 310 06:40 09.09.2019
5431 Clear 22 1019 88 10000 1 320 05:34 09.09.2019
5432 Clear 22 1019 88 10000 0.5 350 02:59 09.09.2019
5433 Clear 22 1019 88 10000 0.5 350 02:39 09.09.2019
5434 Clear 24 1019 78 10000 2.6 190 00:54 09.09.2019
5435 Clear 25 1018 78 10000 4.1 200 00:23 09.09.2019
5436 Clear 25 1018 78 10000 4.1 200 23:46 08.09.2019
5437 Clear 25 1018 78 10000 4.1 200 23:27 08.09.2019
5438 Clear 26 1018 74 10000 6.2 200 22:57 08.09.2019
5439 Clear 26 1018 74 10000 6.2 200 22:38 08.09.2019
5440 Clear 29 1018 74 10000 5.7 190 22:20 08.09.2019
5441 Clear 28 1018 74 10000 5.7 190 21:57 08.09.2019
5442 Clear 28 1018 74 10000 5.7 190 21:38 08.09.2019
5443 Clear 28 1018 74 10000 5.7 190 21:38 08.09.2019
5444 Clear 30 1018 69 10000 3.1 160 21:20 08.09.2019
5445 Clear 30 1018 69 10000 3.1 160 20:40 08.09.2019
5446 Clear 30 1018 69 10000 3.1 160 20:22 08.09.2019
5447 Clear 30 1018 69 10000 3.1 160 19:59 08.09.2019
5448 Clear 30 1018 69 10000 3.1 160 19:39 08.09.2019
5449 Clear 30 1018 69 10000 3.1 160 19:21 08.09.2019
5450 Clear 28 1019 69 10000 3.1 130 18:58 08.09.2019
5451 Clear 28 1019 69 10000 3.1 130 18:39 08.09.2019
5452 Clear 29 1020 62 10000 1 320 18:19 08.09.2019
5453 Clear 29 1020 62 10000 1 320 17:57 08.09.2019
5454 Clear 29 1020 62 10000 1 320 17:37 08.09.2019
5455 Clear 28 1021 74 10000 2.6 350 17:18 08.09.2019
5456 Clear 28 1021 74 10000 2.6 350 16:54 08.09.2019
5457 Clear 28 1021 74 10000 2.6 350 16:36 08.09.2019
5458 Clear 25 1022 73 10000 2.6 350 16:18 08.09.2019
5459 Clear 24 1022 73 10000 2.6 350 15:41 08.09.2019
5460 Clear 24 1022 73 10000 2.6 350 15:22 08.09.2019
5461 Clear 24 1022 83 10000 1 360 14:59 08.09.2019
5462 Clear 24 1022 83 10000 1 360 14:39 08.09.2019
5463 Clear 21 1022 78 10000 1 160 14:20 08.09.2019
5464 Clear 21 1022 78 10000 1 160 13:57 08.09.2019
5465 Clear 21 1022 78 10000 1 160 13:38 08.09.2019
5466 Clear 20 1022 77 10000 2.1 180 13:20 08.09.2019
5467 Clear 19 1021 88 10000 3.1 350 12:44 08.09.2019
5468 Clear 18 1020 94 10000 3.1 360 12:24 08.09.2019
5469 Clear 18 1020 94 10000 3.1 360 11:59 08.09.2019
5470 Clear 19 1020 94 10000 3.1 360 11:41 08.09.2019
5471 Clear 19 1020 94 10000 1.5 310 11:20 08.09.2019
5472 Clear 19 1020 94 10000 1.5 310 10:59 08.09.2019
5473 Clear 19 1020 94 10000 1.5 310 10:41 08.09.2019
5474 Clear 19 1020 94 10000 1.5 360 10:22 08.09.2019
5475 Clear 19 1020 94 10000 1.5 360 10:22 08.09.2019
5476 Clear 19 1020 94 10000 1.5 360 09:55 08.09.2019
5477 Clear 19 1020 94 10000 1.5 360 09:55 08.09.2019
5478 Clear 19 1020 94 10000 1.5 360 09:37 08.09.2019
5479 Clear 19 1020 94 10000 2.6 350 09:18 08.09.2019
5480 Clear 19 1020 94 10000 2.6 350 08:39 08.09.2019
5481 Clear 20 1021 88 10000 2.6 20 08:19 08.09.2019
5482 Clear 20 1021 88 10000 2.6 20 07:42 08.09.2019
5483 Clear 20 1021 82 10000 2.1 100 07:21 08.09.2019
5484 Clear 20 1021 82 10000 2.1 100 06:57 08.09.2019
5485 Clear 21 1022 83 10000 1.5 60 06:34 08.09.2019
5486 Clear 21 1022 83 10000 2.6 80 05:40 08.09.2019
5487 Clear 21 1022 78 10000 2.6 90 04:58 08.09.2019
5488 Clear 21 1022 78 10000 2.1 70 03:23 08.09.2019
5489 Clear 22 1021 78 10000 3.1 90 02:48 08.09.2019
5490 Clear 23 1020 83 10000 3.6 120 01:53 08.09.2019
5491 Clear 23 1020 83 10000 3.6 120 01:26 08.09.2019
5492 Clear 22 1020 83 10000 2.1 100 00:47 08.09.2019
5493 Clear 22 1020 83 10000 2.1 100 00:28 08.09.2019
5494 Clear 23 1019 83 10000 3.1 190 23:55 07.09.2019
5495 Clear 23 1019 83 10000 3.1 190 23:36 07.09.2019
5496 Clear 23 1019 83 10000 3.1 190 23:36 07.09.2019
5497 Clear 26 1019 73 10000 3.1 130 23:18 07.09.2019
5498 Clear 27 1019 78 10000 2.6 200 22:42 07.09.2019
5499 Clear 27 1019 61 10000 3.1 130 22:23 07.09.2019
5500 Clear 27 1019 61 10000 3.1 130 21:56 07.09.2019
5501 Clear 28 1019 69 10000 4.1 180 21:37 07.09.2019
5502 Clear 28 1019 57 10000 3.1 120 21:19 07.09.2019
5503 Clear 28 1019 69 10000 5.1 180 20:39 07.09.2019
5504 Clear 28 1019 57 10000 3.6 130 20:21 07.09.2019
5505 Clear 28 1019 69 10000 4.6 180 19:56 07.09.2019
5506 Clear 28 1019 69 10000 4.6 180 19:38 07.09.2019
5507 Clear 27 1019 51 10000 2.6 80 19:19 07.09.2019
5508 Clear 27 1019 51 10000 2.6 80 18:58 07.09.2019
5509 Clear 27 1020 65 10000 3.6 160 18:38 07.09.2019
5510 Clear 26 1020 57 10000 2.1 100 18:20 07.09.2019
5511 Clear 26 1020 57 10000 2.1 100 18:20 07.09.2019
5512 Clear 26 1020 57 10000 2.1 100 18:20 07.09.2019
5513 Clear 26 1020 57 10000 2.1 100 17:58 07.09.2019
5514 Clear 26 1021 65 10000 4.6 160 17:38 07.09.2019
5515 Clear 25 1021 57 10000 1.5 170 17:18 07.09.2019
5516 Clear 25 1021 57 10000 1.5 170 16:55 07.09.2019
5517 Clear 25 1022 69 10000 3.1 160 16:36 07.09.2019
5518 Clear 24 1023 73 10000 1.5 100 16:18 07.09.2019
5519 Clear 24 1023 73 10000 1.5 340 15:43 07.09.2019
5520 Clear 22 1023 73 10000 2.1 90 15:24 07.09.2019
5521 Clear 23 1023 73 10000 2.1 90 14:56 07.09.2019
5522 Clear 23 1023 73 10000 1.5 330 14:36 07.09.2019
5523 Clouds 19 1023 77 10000 1.5 80 14:18 07.09.2019
5524 Clouds 19 1023 83 10000 4.1 40 13:44 07.09.2019
5525 Clouds 18 1023 88 7000 1 90 13:25 07.09.2019
5526 -273 0 0 0 0 0 12:55 07.09.2019
5527 Fog 18 1023 88 10000 4.1 50 12:37 07.09.2019
5528 Fog 18 1023 88 10000 4.1 50 12:37 07.09.2019
5529 Fog 17 1023 93 500 1 40 12:19 07.09.2019
5530 Clouds 17 1023 93 10000 3.6 50 11:41 07.09.2019
5531 Clouds 17 1023 93 10000 3.6 50 11:41 07.09.2019
5532 Clouds 18 1023 93 10000 3.1 50 11:22 07.09.2019
5533 Clouds 18 1023 93 10000 3.1 50 10:56 07.09.2019
5534 Clouds 18 1023 93 10000 3.1 50 10:37 07.09.2019
5535 Clouds 18 1023 88 10000 2.1 90 10:18 07.09.2019
5536 Clouds 18 1023 93 10000 1.5 90 09:42 07.09.2019
5537 Clouds 19 1023 82 10000 1.5 100 09:22 07.09.2019
5538 Clouds 19 1023 82 10000 1.5 100 09:22 07.09.2019
5539 Clouds 19 1023 82 10000 1.5 100 08:55 07.09.2019
5540 Clouds 19 1023 88 10000 2.6 70 08:36 07.09.2019
5541 Clouds 19 1023 88 10000 2.1 110 08:18 07.09.2019
5542 Clouds 19 1024 82 10000 2.6 50 07:43 07.09.2019
5543 Clouds 19 1024 88 10000 2.1 80 07:22 07.09.2019
5544 Clouds 19 1024 88 10000 2.6 70 06:42 07.09.2019
5545 Clouds 19 1025 88 10000 2.6 60 05:41 07.09.2019
5546 Clouds 19 1025 88 10000 2.6 60 05:41 07.09.2019
5547 Clouds 19 1025 88 10000 2.6 80 04:26 07.09.2019
5548 Clouds 19 1025 88 10000 2.6 60 03:41 07.09.2019
5549 Rain 19 1026 100 10000 2.1 80 02:22 07.09.2019
5550 Rain 19 1026 100 10000 2.1 80 01:33 07.09.2019
5551 Rain 19 1025 94 10000 3.1 120 00:55 07.09.2019
5552 Rain 19 1025 94 10000 3.1 120 00:36 07.09.2019
5553 Rain 20 1024 88 10000 3.6 130 00:18 07.09.2019
5554 Rain 19 1024 88 10000 3.6 130 23:38 06.09.2019
5555 Rain 20 1024 88 10000 4.1 140 23:20 06.09.2019
5556 Rain 20 1024 88 10000 4.1 140 22:57 06.09.2019
5557 Rain 21 1024 88 10000 4.1 140 22:37 06.09.2019
5558 Clouds 21 1023 88 10000 3.1 150 22:18 06.09.2019
5559 Clouds 21 1023 88 10000 3.1 150 21:56 06.09.2019
5560 Clouds 21 1023 88 10000 3.1 150 21:37 06.09.2019
5561 Clouds 21 1023 78 10000 4.6 120 21:19 06.09.2019
5562 Clouds 21 1023 78 10000 4.6 120 20:54 06.09.2019
5563 Clouds 21 1023 78 10000 4.6 120 20:36 06.09.2019
5564 Clouds 21 1023 78 10000 4.6 80 20:18 06.09.2019
5565 Clouds 21 1023 78 10000 4.6 80 19:41 06.09.2019
5566 Clouds 22 1024 78 10000 2.1 180 19:23 06.09.2019
5567 Clouds 22 1024 78 10000 2.1 180 18:58 06.09.2019
5568 Clouds 22 1024 78 10000 2.1 180 18:39 06.09.2019
5569 Clouds 22 1024 68 10000 5.1 90 18:21 06.09.2019
5570 Clouds 22 1025 78 10000 2.1 150 17:40 06.09.2019
5571 Clouds 21 1026 78 10000 1.5 150 17:21 06.09.2019
5572 Clouds 21 1026 78 10000 1.5 150 16:58 06.09.2019
5573 Clouds 21 1026 78 10000 1.5 150 16:38 06.09.2019
5574 Clouds 21 1026 78 10000 1.5 170 16:18 06.09.2019
5575 Clouds 20 1026 77 10000 2.1 50 15:41 06.09.2019
5576 Clouds 20 1026 77 10000 2.1 50 15:41 06.09.2019
5577 Clouds 19 1026 82 10000 1 40 15:22 06.09.2019
5578 Clouds 19 1026 82 10000 1 40 14:48 06.09.2019
5579 Clouds 19 1026 82 10000 1 80 14:20 06.09.2019
5580 Clouds 19 1026 82 10000 1 80 13:45 06.09.2019
5581 Clouds 19 1026 82 10000 1 80 13:25 06.09.2019
5582 Clouds 18 1026 82 10000 3.6 130 12:59 06.09.2019
5583 Clouds 18 1025 88 10000 1 100 12:37 06.09.2019
5584 Clouds 17 1025 88 10000 3.1 100 12:18 06.09.2019
5585 Clouds 17 1025 88 10000 3.1 100 12:18 06.09.2019
5586 Clouds 17 1025 100 10000 1.5 30 11:43 06.09.2019
5587 Clouds 18 1025 100 10000 1.5 30 11:24 06.09.2019
5588 Rain 17 1025 100 10000 1.5 60 10:58 06.09.2019
5589 Rain 17 1025 100 10000 1.5 60 10:40 06.09.2019
5590 Rain 17 1025 100 10000 1.5 60 10:21 06.09.2019
5591 Drizzle 17 1025 100 8000 1 60 09:40 06.09.2019
5592 Drizzle 18 1026 93 10000 2.6 120 09:21 06.09.2019
5593 Drizzle 18 1026 93 10000 2.6 120 08:58 06.09.2019
5594 Drizzle 17 1026 100 4000 1.5 90 08:39 06.09.2019
5595 Drizzle 17 1026 100 4000 1.5 90 08:39 06.09.2019
5596 Drizzle 18 1026 93 4000 3.6 120 08:21 06.09.2019
5597 Drizzle 18 1026 100 3500 2.6 120 07:47 06.09.2019
5598 Drizzle 18 1026 100 3500 2.6 120 07:27 06.09.2019
5599 Rain 18 1026 93 5000 2.1 110 06:57 06.09.2019
5600 Rain 18 1027 93 4000 2.6 120 06:21 06.09.2019
5601 Rain 18 1027 93 4000 1.5 130 05:43 06.09.2019
5602 Rain 18 1027 100 5000 3.1 120 04:48 06.09.2019
5603 Rain 18 1028 100 9000 4.6 140 03:53 06.09.2019
5604 Rain 18 1028 93 10000 3.1 210 02:23 06.09.2019
5605 Rain 18 1027 100 4000 5.1 180 00:45 06.09.2019
5606 Rain 18 1027 88 4500 4.1 150 23:56 05.09.2019
5607 Rain 18 1027 88 4500 4.1 150 23:38 05.09.2019
5608 Rain 19 1026 100 4500 5.7 170 23:19 05.09.2019
5609 Rain 18 1026 100 4500 5.7 170 22:43 05.09.2019
5610 Rain 18 1026 100 4500 5.7 170 22:24 05.09.2019
5611 Rain 18 1026 93 4800 5.7 170 21:56 05.09.2019
5612 Rain 18 1025 93 8000 5.1 170 21:38 05.09.2019
5613 Rain 18 1025 93 8000 5.1 170 21:38 05.09.2019
5614 Rain 18 1025 100 3000 7.7 170 21:19 05.09.2019
5615 Rain 18 1025 100 3000 7.7 170 20:57 05.09.2019
5616 Rain 19 1025 100 3000 7.7 170 20:37 05.09.2019
5617 Rain 19 1025 82 4000 4.6 130 20:19 05.09.2019
5618 Rain 19 1025 82 4000 4.6 130 19:55 05.09.2019
5619 Rain 19 1025 82 4000 4.6 130 19:37 05.09.2019
5620 Rain 19 1025 100 3000 7.2 180 19:18 05.09.2019
5621 Rain 19 1025 100 3000 7.2 170 18:41 05.09.2019
5622 Rain 20 1025 100 3000 8.2 170 18:21 05.09.2019
5623 Rain 20 1025 100 3000 8.2 170 17:57 05.09.2019
5624 Rain 20 1025 100 3000 8.2 170 17:39 05.09.2019
5625 Rain 20 1025 100 4000 8.2 160 17:20 05.09.2019
5626 Rain 20 1025 100 4000 8.2 160 16:42 05.09.2019
5627 Rain 21 1025 94 4000 6.7 180 16:21 05.09.2019
5628 Rain 21 1025 94 4000 6.7 180 15:58 05.09.2019
5629 Rain 20 1025 94 4000 6.7 180 15:39 05.09.2019
5630 Rain 21 1024 100 4000 5.1 160 15:19 05.09.2019
5631 Rain 21 1024 100 4000 5.1 160 15:19 05.09.2019
5632 Rain 21 1024 100 4000 5.1 160 14:56 05.09.2019
5633 Rain 20 1024 100 4000 5.1 160 14:38 05.09.2019
5634 Rain 20 1024 100 4000 6.2 160 14:18 05.09.2019
5635 Rain 20 1024 100 4000 6.2 160 13:41 05.09.2019
5636 Rain 20 1023 100 4000 2.1 130 13:19 05.09.2019
5637 Rain 20 1023 100 4000 2.1 130 12:43 05.09.2019
5638 Drizzle 20 1022 100 4000 0.5 250 12:25 05.09.2019
5639 Drizzle 20 1022 100 4000 0.5 250 11:57 05.09.2019
5640 Drizzle 20 1022 100 4000 0.5 250 11:38 05.09.2019
5641 Drizzle 20 1022 100 4000 2.1 310 11:18 05.09.2019
5642 Drizzle 20 1022 100 9000 2.1 320 10:41 05.09.2019
5643 Drizzle 20 1022 100 10000 0.5 210 10:22 05.09.2019
5644 Drizzle 20 1022 100 10000 0.5 210 09:57 05.09.2019
5645 Drizzle 20 1022 100 10000 0.5 210 09:38 05.09.2019
5646 Drizzle 21 1022 94 10000 1 120 09:18 05.09.2019
5647 Drizzle 21 1022 94 10000 1 120 09:18 05.09.2019
5648 Drizzle 21 1022 94 10000 1 120 09:18 05.09.2019
5649 Drizzle 21 1022 94 10000 1 120 08:45 05.09.2019
5650 Drizzle 21 1022 94 10000 1 120 08:26 05.09.2019
5651 Drizzle 21 1022 94 10000 1 280 07:45 05.09.2019
5652 Drizzle 21 1022 94 10000 1 280 07:27 05.09.2019
5653 Clouds 21 1022 94 10000 1 290 06:53 05.09.2019
5654 Clouds 21 1022 94 10000 1 290 06:29 05.09.2019
5655 Rain 21 1022 94 10000 2.1 330 05:50 05.09.2019
5656 Rain 21 1022 94 10000 2.1 330 05:30 05.09.2019
5657 Clouds 21 1022 94 10000 1.5 150 04:50 05.09.2019
5658 Clouds 21 1022 94 10000 1.5 40 04:24 05.09.2019
5659 Clouds 21 1022 94 10000 1.5 40 03:38 05.09.2019
5660 Drizzle 21 1022 94 10000 1 80 02:45 05.09.2019
5661 Clouds 21 1022 94 10000 1.5 30 02:20 05.09.2019
5662 Clouds 21 1022 94 10000 1.5 30 01:36 05.09.2019
5663 Drizzle 22 1021 94 8000 2.1 350 00:42 05.09.2019
5664 Rain 21 1022 83 8000 4.6 270 00:20 05.09.2019
5665 Rain 21 1020 88 8000 2.6 190 23:48 04.09.2019
5666 Rain 21 1020 88 8000 2.6 190 23:26 04.09.2019
5667 Rain 21 1020 88 8000 5.1 200 22:59 04.09.2019
5668 Rain 21 1020 88 8000 5.1 200 22:40 04.09.2019
5669 Rain 21 1019 94 6000 5.7 190 22:18 04.09.2019
5670 Rain 21 1019 94 6000 5.7 190 21:40 04.09.2019
5671 Rain 22 1018 94 6000 6.7 200 21:20 04.09.2019
5672 Rain 22 1018 94 6000 6.7 200 21:20 04.09.2019
5673 Rain 22 1018 94 6000 6.7 200 20:56 04.09.2019
5674 Rain 22 1018 94 6000 6.7 200 20:56 04.09.2019
5675 Rain 22 1018 94 6000 6.7 200 20:38 04.09.2019
5676 Drizzle 23 1018 94 9000 7.7 190 20:19 04.09.2019
5677 Drizzle 23 1018 94 9000 7.7 190 19:56 04.09.2019
5678 Drizzle 22 1018 94 9000 7.7 190 19:38 04.09.2019
5679 Clouds 23 1018 94 9000 7.7 190 19:19 04.09.2019
5680 Clouds 24 1018 83 10000 8.2 190 18:38 04.09.2019
5681 Mist 25 1018 83 10000 8.2 190 18:20 04.09.2019
5682 Mist 25 1018 83 7000 6.2 180 17:54 04.09.2019
5683 Mist 25 1018 83 7000 6.2 180 17:36 04.09.2019
5684 Mist 25 1019 83 5000 1 360 17:18 04.09.2019
5685 Mist 24 1019 83 5000 1 360 16:42 04.09.2019
5686 Mist 24 1019 83 5000 1 360 16:24 04.09.2019
5687 Rain 22 1019 83 8000 2.6 180 15:56 04.09.2019
5688 Rain 22 1019 100 4000 4.1 360 15:38 04.09.2019
5689 Rain 21 1018 94 6000 4.1 30 15:20 04.09.2019
5690 -273 0 0 0 0 0 14:55 04.09.2019
5691 Rain 21 1018 94 6000 4.1 30 14:55 04.09.2019
5692 Rain 21 1019 100 4500 5.7 350 14:37 04.09.2019
5693 Rain 21 1020 94 3600 4.1 30 14:18 04.09.2019
5694 Rain 21 1020 100 4500 1 230 13:40 04.09.2019
5695 Mist 22 1020 88 6000 4.1 250 13:22 04.09.2019
5696 Mist 22 1020 88 6000 4.1 250 13:22 04.09.2019
5697 Mist 22 1020 88 6000 4.1 250 12:58 04.09.2019
5698 Mist 20 1018 100 4500 1.5 180 12:38 04.09.2019
5699 Mist 20 1018 100 4500 1.5 180 12:38 04.09.2019
5700 Rain 20 1019 88 4000 1 230 12:19 04.09.2019
5701 Rain 21 1018 100 4000 1 20 11:55 04.09.2019
5702 Rain 21 1018 100 4000 1 20 11:36 04.09.2019
5703 Mist 21 1017 94 3000 3.6 80 11:18 04.09.2019
5704 Mist 21 1017 100 5000 1.5 330 10:42 04.09.2019
5705 Mist 21 1017 100 5000 1.5 330 10:23 04.09.2019
5706 Mist 21 1017 100 8000 1.5 330 09:47 04.09.2019
5707 Mist 21 1017 100 8000 1.5 330 09:27 04.09.2019
5708 Mist 21 1017 94 8000 1.5 190 08:59 04.09.2019
5709 Mist 21 1017 94 8000 1.5 10 08:40 04.09.2019
5710 Mist 21 1017 88 8000 0.5 210 08:22 04.09.2019
5711 Mist 21 1017 100 8000 1.5 310 07:49 04.09.2019
5712 Mist 21 1017 100 8000 1.5 310 07:29 04.09.2019
5713 Mist 21 1017 100 8000 1.5 10 06:40 04.09.2019
5714 Mist 21 1017 100 8000 1.5 10 06:20 04.09.2019
5715 Clouds 21 1019 100 8000 1 330 04:52 04.09.2019
5716 Clouds 21 1019 100 8000 1 330 04:18 04.09.2019
5717 Clouds 21 1019 100 9000 4.6 10 01:39 04.09.2019
5718 -273 0 0 0 0 0 00:55 04.09.2019
5719 Rain 21 1016 100 9000 6.7 150 00:34 04.09.2019
5720 Thunderstorm 21 1019 94 8000 3.6 300 23:56 03.09.2019
5721 Thunderstorm 21 1019 94 8000 3.6 300 23:38 03.09.2019
5722 Rain 23 1017 88 10000 4.6 210 23:19 03.09.2019
5723 Rain 23 1017 88 10000 4.6 210 22:40 03.09.2019
5724 Clouds 22 1016 94 10000 5.7 170 22:22 03.09.2019
5725 Clouds 22 1016 94 10000 5.7 170 21:56 03.09.2019
5726 Clouds 22 1016 94 10000 5.7 170 21:56 03.09.2019
5727 Clouds 22 1016 94 10000 5.7 170 21:56 03.09.2019
5728 Clouds 22 1016 94 10000 5.7 170 21:37 03.09.2019
5729 Rain 23 1015 83 6000 7.7 200 21:19 03.09.2019
5730 Rain 23 1015 83 6000 7.7 200 20:43 03.09.2019
5731 Rain 23 1015 83 6000 7.7 200 20:43 03.09.2019
5732 Clouds 24 1016 78 10000 8.2 220 20:24 03.09.2019
5733 Clouds 25 1016 78 10000 8.2 220 19:57 03.09.2019
5734 Clouds 24 1015 78 8000 9.3 190 19:38 03.09.2019
5735 Clouds 25 1015 78 8000 9.3 190 19:19 03.09.2019
5736 Clouds 26 1014 78 8000 8.7 170 18:56 03.09.2019
5737 Clouds 26 1014 78 8000 8.7 170 18:38 03.09.2019
5738 Clouds 26 1014 78 8000 8.7 170 18:18 03.09.2019
5739 Clouds 27 1013 74 10000 6.2 170 17:42 03.09.2019
5740 Clear 27 1013 83 10000 3.1 10 17:21 03.09.2019
5741 Clear 27 1013 83 10000 3.1 10 16:59 03.09.2019
5742 Clear 27 1013 83 10000 3.1 10 16:39 03.09.2019
5743 Clear 26 1013 73 10000 2.1 350 16:21 03.09.2019
5744 Clear 26 1014 78 10000 3.1 320 15:41 03.09.2019
5745 Mist 24 1015 88 10000 2.6 330 15:22 03.09.2019
5746 Mist 24 1015 88 10000 2.6 330 14:58 03.09.2019
5747 Mist 24 1015 88 10000 2.6 330 14:40 03.09.2019
5748 Mist 23 1015 83 8000 2.1 30 14:20 03.09.2019
5749 Mist 23 1015 83 8000 2.1 30 13:57 03.09.2019
5750 Mist 23 1015 83 8000 2.1 30 13:57 03.09.2019
5751 Mist 23 1015 83 10000 1 40 13:37 03.09.2019
5752 Mist 22 1015 83 10000 1 40 13:19 03.09.2019
5753 Mist 22 1015 83 10000 1 40 13:19 03.09.2019
5754 Mist 21 1015 94 10000 2.1 330 12:56 03.09.2019
5755 Mist 21 1015 94 10000 2.1 330 12:38 03.09.2019
5756 Mist 20 1015 94 10000 2.1 340 12:20 03.09.2019
5757 Mist 21 1015 94 10000 2.1 340 11:42 03.09.2019
5758 Clouds 21 1015 94 10000 1 350 11:22 03.09.2019
5759 Clouds 21 1015 94 10000 1 350 10:57 03.09.2019
5760 Clouds 21 1015 94 10000 1 350 10:39 03.09.2019
5761 Clouds 21 1015 100 10000 0.85 27.961 10:20 03.09.2019
5762 Clouds 21 1015 100 10000 1.12 8.629 09:44 03.09.2019
5763 Clouds 21 1015 100 10000 0.7 258.385 09:25 03.09.2019
5764 Clouds 21 1015 94 10000 1 150 08:56 03.09.2019
5765 Clouds 21 1015 94 10000 1 150 08:56 03.09.2019
5766 Clouds 21 1015 94 10000 1 150 08:37 03.09.2019
5767 Rain 21 1016 100 10000 1.5 150 08:18 03.09.2019
5768 Rain 21 1016 100 10000 1.5 150 07:41 03.09.2019
5769 Clouds 21 1016 88 10000 1 240 07:23 03.09.2019
5770 Clouds 21 1016 88 10000 1.5 150 06:45 03.09.2019
5771 Clouds 21 1016 88 10000 2.1 250 06:18 03.09.2019
5772 Clouds 21 1016 94 10000 2.1 150 03:43 03.09.2019
5773 Clouds 21 1016 94 10000 3.1 170 02:47 03.09.2019
5774 Clouds 21 1016 94 10000 5.1 170 02:25 03.09.2019
5775 Clouds 21 1016 94 10000 5.1 170 01:51 03.09.2019
5776 Clouds 22 1016 94 10000 5.1 170 01:32 03.09.2019
5777 Clouds 21 1016 94 10000 5.7 190 00:44 03.09.2019
5778 Thunderstorm 21 1016 83 9000 2.6 200 00:25 03.09.2019
5779 Thunderstorm 21 1015 94 8000 6.2 170 23:40 02.09.2019
5780 Thunderstorm 21 1015 94 8000 6.2 170 23:40 02.09.2019
5781 Thunderstorm 21 1015 94 8000 6.2 170 23:40 02.09.2019
5782 Clouds 22 1015 88 10000 6.2 190 23:20 02.09.2019
5783 Clouds 22 1015 88 10000 6.2 190 22:56 02.09.2019
5784 Clouds 22 1015 88 10000 6.2 190 22:56 02.09.2019
5785 Clouds 22 1015 88 10000 6.2 190 22:56 02.09.2019
5786 Clouds 22 1015 88 10000 6.2 190 22:38 02.09.2019
5787 Clouds 23 1014 83 10000 7.7 180 22:20 02.09.2019
5788 Clouds 23 1014 83 10000 7.7 180 21:58 02.09.2019
5789 Clouds 23 1014 83 10000 7.7 180 21:40 02.09.2019
5790 Clouds 25 1014 83 10000 7.7 180 21:20 02.09.2019
5791 Clouds 25 1014 83 10000 7.7 180 20:59 02.09.2019
5792 Clouds 25 1013 83 10000 2.6 150 20:40 02.09.2019
5793 Clouds 24 1013 78 10000 1.5 20 20:19 02.09.2019
5794 Clouds 24 1013 83 10000 3.1 170 19:56 02.09.2019
5795 Clouds 24 1013 83 10000 3.1 170 19:38 02.09.2019
5796 Clouds 24 1013 83 10000 3.1 170 19:19 02.09.2019
5797 Clouds 24 1014 83 10000 3.6 160 18:40 02.09.2019
5798 Clouds 24 1014 83 10000 3.6 160 18:22 02.09.2019
5799 Clouds 23 1014 78 10000 1.5 40 17:58 02.09.2019
5800 Clouds 23 1014 78 10000 1.5 40 17:58 02.09.2019
5801 Clouds 23 1014 88 10000 3.1 160 17:39 02.09.2019
5802 Rain 21 1016 100 10000 1.5 110 17:21 02.09.2019
5803 Rain 21 1015 88 7000 3.1 70 16:58 02.09.2019
5804 Rain 21 1016 100 10000 1.5 110 16:36 02.09.2019
5805 Rain 21 1016 94 10000 2.6 170 16:18 02.09.2019
5806 Rain 21 1016 94 10000 2.6 170 15:44 02.09.2019
5807 Rain 21 1016 94 10000 2.6 170 15:22 02.09.2019
5808 Rain 20 1015 94 10000 1.5 360 14:56 02.09.2019
5809 Rain 20 1015 94 10000 1.5 360 14:37 02.09.2019
5810 Rain 21 1014 100 10000 1.5 50 14:19 02.09.2019
5811 Rain 21 1014 100 10000 1.5 50 13:54 02.09.2019
5812 Rain 21 1014 100 10000 1.5 50 13:36 02.09.2019
5813 Rain 21 1014 94 10000 4.1 100 13:18 02.09.2019
5814 Rain 20 1015 100 10000 2.6 300 12:41 02.09.2019
5815 Mist 20 1014 100 10000 3.6 20 12:23 02.09.2019
5816 Mist 20 1014 100 10000 3.6 20 11:58 02.09.2019
5817 Mist 20 1014 100 10000 3.6 20 11:38 02.09.2019
5818 Rain 20 1015 100 9000 3.1 20 11:19 02.09.2019
5819 Rain 20 1015 100 9000 3.1 20 10:55 02.09.2019
5820 Rain 20 1015 100 9000 3.1 20 10:36 02.09.2019
5821 Rain 20 1015 100 9000 3.1 20 10:36 02.09.2019
5822 Rain 20 1015 94 5000 1 30 10:18 02.09.2019
5823 Rain 20 1014 100 9000 5.1 10 09:42 02.09.2019
5824 Rain 20 1015 94 5000 1 10 09:21 02.09.2019
5825 Rain 20 1015 100 10000 3.1 30 08:44 02.09.2019
5826 Rain 20 1015 100 10000 3.1 30 08:23 02.09.2019
5827 Rain 20 1015 94 5000 2.1 30 07:58 02.09.2019
5828 Rain 20 1016 100 10000 5.1 300 07:39 02.09.2019
5829 Rain 20 1016 94 5000 5.1 280 07:21 02.09.2019
5830 Rain 20 1014 100 10000 1.5 10 06:43 02.09.2019
5831 Thunderstorm 20 1015 100 6000 5.1 350 05:54 02.09.2019
5832 Thunderstorm 20 1015 100 6000 5.1 350 05:54 02.09.2019
5833 Thunderstorm 21 1015 100 6000 5.1 350 05:27 02.09.2019
5834 Thunderstorm 20 1016 100 6000 6.2 10 04:53 02.09.2019
5835 Thunderstorm 21 1016 100 6000 3.1 320 02:46 02.09.2019
5836 Rain 22 1015 100 7000 4.1 130 01:43 02.09.2019
5837 Rain 22 1015 94 7000 4.6 180 00:47 02.09.2019
5838 Rain 22 1016 83 8000 1.5 30 00:28 02.09.2019
5839 Rain 22 1015 94 7000 9.8 190 23:41 01.09.2019
5840 Rain 24 1013 94 7000 7.7 180 23:21 01.09.2019
5841 Rain 24 1013 94 7000 7.7 180 22:57 01.09.2019
5842 Rain 24 1013 94 7000 7.7 180 22:39 01.09.2019
5843 Rain 26 1013 54 10000 3.6 200 22:19 01.09.2019
5844 Rain 26 1013 54 10000 3.6 200 21:55 01.09.2019
5845 Rain 26 1011 73 10000 6.2 170 21:37 01.09.2019
5846 Clouds 27 1011 69 10000 1.5 170 21:18 01.09.2019
5847 Clouds 28 1011 48 10000 2.6 150 20:55 01.09.2019
5848 Clouds 28 1011 48 10000 2.6 150 20:36 01.09.2019
5849 Clouds 27 1011 48 10000 2.6 150 20:18 01.09.2019
5850 Clouds 27 1011 48 10000 2.6 150 20:18 01.09.2019
5851 Clouds 27 1011 48 10000 2.6 150 19:55 01.09.2019
5852 Clouds 27 1011 54 10000 2.1 310 19:37 01.09.2019
5853 Clouds 27 1011 54 10000 2.1 310 19:18 01.09.2019
5854 Clouds 27 1012 69 10000 1.5 360 18:41 01.09.2019
5855 Clear 27 1012 51 10000 2.1 100 18:23 01.09.2019
5856 Clear 27 1014 54 10000 2.1 40 17:55 01.09.2019
5857 Clear 27 1014 54 10000 2.1 40 17:36 01.09.2019
5858 Clear 26 1015 65 10000 2.6 360 17:18 01.09.2019
5859 Clear 26 1015 65 10000 2.6 360 16:39 01.09.2019
5860 Clear 25 1015 57 10000 1 0 16:18 01.09.2019
5861 Clear 25 1016 74 10000 3.6 310 15:46 01.09.2019
5862 Clear 25 1016 74 10000 3.6 310 15:26 01.09.2019
5863 Clear 24 1017 65 10000 2.6 270 14:56 01.09.2019
5864 Clear 24 1016 78 10000 2.6 330 14:37 01.09.2019
5865 Clear 24 1015 78 10000 3.6 330 14:19 01.09.2019
5866 Clear 24 1015 78 10000 3.6 330 13:42 01.09.2019
5867 Clear 24 1015 78 10000 3.6 330 13:23 01.09.2019
5868 Clear 23 1015 83 10000 3.1 330 12:55 01.09.2019
5869 -273 0 0 0 0 0 12:55 01.09.2019
5870 Clear 23 1015 83 10000 3.1 330 12:36 01.09.2019
5871 Clear 22 1015 78 10000 1.5 290 12:18 01.09.2019
5872 Clear 23 1015 94 10000 2.1 50 11:39 01.09.2019
5873 Clear 23 1015 78 10000 3.6 280 11:19 01.09.2019
5874 Clear 23 1015 78 10000 3.6 280 10:57 01.09.2019
5875 Clear 24 1014 78 10000 1 290 10:38 01.09.2019
5876 Clouds 24 1015 73 10000 4.6 240 10:20 01.09.2019
5877 Clear 24 1014 83 10000 1 140 09:42 01.09.2019
5878 Clear 24 1014 73 10000 6.7 240 09:23 01.09.2019
5879 Clear 24 1013 83 10000 3.1 120 08:43 01.09.2019
5880 Clear 24 1014 69 10000 4.6 220 08:22 01.09.2019
5881 Clear 24 1013 83 10000 2.6 40 07:47 01.09.2019
5882 Clear 24 1013 69 10000 4.6 270 07:23 01.09.2019
5883 Clear 24 1013 69 10000 0.5 170 06:41 01.09.2019
5884 Clear 25 1013 69 10000 6.2 250 06:18 01.09.2019
5885 Clear 25 1013 65 10000 6.7 200 05:38 01.09.2019
5886 Clear 25 1013 61 10000 7.2 250 04:27 01.09.2019
5887 Clear 25 1012 54 10000 2.1 300 03:39 01.09.2019
5888 Clear 24 1011 65 10000 1.78 356.289 02:57 01.09.2019
5889 Clear 25 1011 65 10000 1.78 356.289 02:26 01.09.2019
5890 Clear 25 1011 69 10000 0.5 270 01:41 01.09.2019
5891 Clear 26 1011 65 10000 1 40 01:22 01.09.2019
5892 Clear 26 1011 65 10000 1 40 01:22 01.09.2019
5893 Clear 26 1010 88 10000 2.1 150 00:42 01.09.2019
5894 Clear 27 1010 61 10000 2.6 100 00:21 01.09.2019
5895 Clear 28 1010 65 10000 3.1 190 23:48 31.08.2019
5896 Clear 30 1010 54 10000 3.1 180 23:22 31.08.2019
5897 Clear 30 1010 54 10000 3.1 180 22:57 31.08.2019
5898 Clear 32 1010 54 10000 3.1 180 22:39 31.08.2019
5899 Clear 32 1010 45 10000 4.1 100 22:21 31.08.2019
5900 Clear 32 1010 45 10000 4.1 100 21:55 31.08.2019
5901 Clear 33 1010 55 10000 1.5 170 21:37 31.08.2019
5902 Clear 33 1010 33 10000 3.6 60 21:18 31.08.2019
5903 Clear 33 1010 52 10000 3.6 360 20:43 31.08.2019
5904 Clear 33 1010 36 10000 3.1 70 20:24 31.08.2019
5905 Clear 33 1011 46 10000 2.6 30 19:47 31.08.2019
5906 Clear 33 1011 46 10000 2.6 30 19:24 31.08.2019
5907 Clear 33 1012 52 10000 4.6 30 18:59 31.08.2019
5908 Clear 33 1012 52 10000 4.6 30 18:39 31.08.2019
5909 Clear 32 1012 33 10000 1.5 30 18:20 31.08.2019
5910 Clear 32 1012 33 10000 1.5 30 17:55 31.08.2019
5911 Clear 32 1013 58 10000 4.6 20 17:37 31.08.2019
5912 Clear 30 1014 62 10000 3.1 20 17:18 31.08.2019
5913 Clear 30 1014 62 10000 3.1 20 16:55 31.08.2019
5914 Clear 31 1014 62 10000 3.1 20 16:37 31.08.2019
5915 Clear 28 1014 65 10000 3.1 20 16:19 31.08.2019
5916 Clear 29 1014 65 10000 3.1 20 15:42 31.08.2019
5917 Clear 26 1015 65 10000 3.1 350 15:19 31.08.2019
5918 Clear 26 1015 65 10000 3.1 350 14:57 31.08.2019
5919 Clear 26 1015 65 10000 3.1 350 14:39 31.08.2019
5920 Clear 26 1015 65 10000 3.1 350 14:39 31.08.2019
5921 Clear 24 1014 69 10000 3.1 340 14:19 31.08.2019
5922 Clear 24 1014 69 10000 3.1 340 13:41 31.08.2019
5923 Clear 22 1015 64 10000 2.76 358.382 13:23 31.08.2019
5924 Clear 22 1015 64 10000 2.76 358.382 13:23 31.08.2019
5925 Clear 21 1015 64 10000 2.76 358.382 12:58 31.08.2019
5926 Clear 21 1014 83 10000 2.6 350 12:39 31.08.2019
5927 Clear 18 1014 88 10000 3.13 351.233 12:20 31.08.2019
5928 Clear 18 1014 94 10000 2.6 330 11:55 31.08.2019
5929 Clear 19 1014 94 10000 2.6 330 11:36 31.08.2019
5930 Clear 20 1013 94 10000 2.6 330 11:18 31.08.2019
5931 Clear 20 1013 94 10000 2.6 330 11:18 31.08.2019
5932 Clear 20 1013 94 10000 2.6 330 10:41 31.08.2019
5933 Clear 20 1013 93 10000 1 100 10:19 31.08.2019
5934 Clear 20 1013 93 10000 1 100 09:56 31.08.2019
5935 Clear 20 1013 94 10000 1.5 340 09:37 31.08.2019
5936 Clear 21 1013 93 10000 1 90 09:19 31.08.2019
5937 Clear 21 1013 83 10000 2.1 330 08:42 31.08.2019
5938 Clear 21 1013 83 10000 2.1 330 08:23 31.08.2019
5939 Clear 20 1014 88 10000 2.1 330 07:40 31.08.2019
5940 Clear 20 1014 88 10000 1 120 07:22 31.08.2019
5941 Clear 20 1014 88 10000 2.6 310 06:28 31.08.2019
5942 Clear 20 1014 88 10000 1.5 100 05:59 31.08.2019
5943 Clear 20 1015 88 10000 1.5 350 05:32 31.08.2019
5944 Clear 20 1015 88 10000 3.1 340 04:34 31.08.2019
5945 Clear 21 1015 73 10000 2.1 330 03:45 31.08.2019
5946 Clear 21 1015 69 10000 1.5 310 02:36 31.08.2019
5947 Clear 22 1015 64 10000 1 190 01:53 31.08.2019
5948 Clear 22 1015 64 10000 1 190 01:33 31.08.2019
5949 Clear 22 1014 69 10000 1.5 180 00:50 31.08.2019
5950 Clear 22 1014 69 10000 1.5 180 00:50 31.08.2019
5951 Clear 24 1014 69 10000 1.5 180 00:30 31.08.2019
5952 Clear 23 1014 69 10000 1.5 180 23:57 30.08.2019
5953 Clear 23 1014 69 10000 1.5 180 23:57 30.08.2019
5954 Clear 24 1014 61 10000 4.1 190 23:38 30.08.2019
5955 Clear 26 1014 57 10000 3.1 140 23:18 30.08.2019
5956 Clear 27 1014 57 10000 4.6 190 22:42 30.08.2019
5957 Clear 27 1014 57 10000 4.6 190 22:22 30.08.2019
5958 Clear 27 1014 51 10000 4.6 130 21:58 30.08.2019
5959 Clear 28 1014 61 10000 4.6 170 21:38 30.08.2019
5960 Clear 29 1013 42 10000 5.1 140 21:19 30.08.2019
5961 Clear 29 1013 42 10000 5.1 140 20:59 30.08.2019
5962 Clear 30 1014 54 10000 4.6 160 20:40 30.08.2019
5963 Clear 29 1014 39 10000 2.6 80 20:20 30.08.2019
5964 Clear 29 1014 39 10000 2.6 80 19:57 30.08.2019
5965 Clear 29 1014 39 10000 2.6 80 19:57 30.08.2019
5966 Clear 29 1014 54 10000 4.1 160 19:39 30.08.2019
5967 Clear 30 1014 54 10000 4.1 160 19:19 30.08.2019
5968 Clear 29 1015 61 10000 4.1 150 18:54 30.08.2019
5969 Clear 29 1015 61 10000 4.1 150 18:36 30.08.2019
5970 Clear 29 1015 61 10000 4.1 150 18:18 30.08.2019
5971 -273 0 0 0 0 0 17:55 30.08.2019
5972 Clear 28 1016 65 10000 3.1 140 17:37 30.08.2019
5973 Clear 26 1017 54 10000 1 340 17:18 30.08.2019
5974 Clear 26 1017 54 10000 1 340 16:43 30.08.2019
5975 Clear 25 1017 57 10000 2.6 130 16:22 30.08.2019
5976 Clouds 25 1018 65 10000 2.1 360 15:43 30.08.2019
5977 Clouds 25 1018 65 10000 2.1 360 15:24 30.08.2019
5978 -273 0 0 0 0 0 14:55 30.08.2019
5979 Clear 22 1018 78 10000 2.1 20 14:55 30.08.2019
5980 Clear 22 1018 78 10000 2.1 20 14:36 30.08.2019
5981 Clouds 20 1018 78 10000 1 10 14:18 30.08.2019
5982 Clouds 20 1018 78 10000 1 10 13:41 30.08.2019
5983 Clear 19 1018 68 10000 2.1 80 13:22 30.08.2019
5984 Clouds 18 1018 83 10000 1 360 12:55 30.08.2019
5985 Clouds 18 1018 83 10000 1 360 12:36 30.08.2019
5986 Clear 18 1018 82 10000 1.5 110 12:18 30.08.2019
5987 Clear 18 1018 82 10000 1.5 110 12:18 30.08.2019
5988 Clouds 18 1017 88 10000 1 340 11:41 30.08.2019
5989 Clear 19 1017 82 10000 1.5 100 11:23 30.08.2019
5990 Clear 19 1017 88 10000 2.1 330 10:39 30.08.2019
5991 Clear 19 1017 88 10000 1 100 10:21 30.08.2019
5992 Clear 19 1017 88 10000 1 100 09:58 30.08.2019
5993 Clear 19 1016 88 10000 0.5 320 09:38 30.08.2019
5994 Clear 19 1017 82 10000 1.5 190 09:19 30.08.2019
5995 Clear 19 1016 88 10000 1.48 19.528 08:44 30.08.2019
5996 Clear 19 1016 88 10000 1.48 19.528 08:25 30.08.2019
5997 Clear 20 1017 82 10000 1 160 07:59 30.08.2019
5998 Clear 20 1017 83 10000 1.5 20 07:39 30.08.2019
5999 Clear 20 1017 82 10000 1.5 100 07:21 30.08.2019
6000 Clear 20 1018 83 10000 2.1 320 06:44 30.08.2019
6001 Clear 20 1018 83 10000 2.1 320 06:26 30.08.2019
6002 Clear 20 1018 83 10000 1 360 05:43 30.08.2019
6003 Clear 21 1019 78 10000 1 60 03:58 30.08.2019
6004 Clear 21 1019 78 10000 1 60 03:38 30.08.2019
6005 Clear 22 1019 78 10000 1.5 70 02:49 30.08.2019
6006 Clear 21 1019 78 10000 2.6 40 02:24 30.08.2019
6007 Clear 21 1019 78 10000 2.6 40 01:28 30.08.2019
6008 Clear 21 1018 78 10000 1.5 110 00:29 30.08.2019
6009 Clear 24 1018 73 10000 4.6 80 23:59 29.08.2019
6010 Clear 24 1018 78 10000 3.6 80 23:40 29.08.2019
6011 Clouds 25 1018 73 10000 2.1 170 23:20 29.08.2019
6012 Clouds 25 1018 73 10000 2.1 170 22:43 29.08.2019
6013 Clouds 25 1018 73 10000 2.1 170 22:25 29.08.2019
6014 Clouds 26 1018 69 10000 2.1 160 21:56 29.08.2019
6015 Clouds 26 1018 69 10000 2.1 160 21:38 29.08.2019
6016 Clouds 25 1018 57 10000 3.1 120 21:20 29.08.2019
6017 Clouds 25 1018 65 10000 3.1 160 20:43 29.08.2019
6018 Clouds 27 1018 65 10000 3.1 160 20:21 29.08.2019
6019 Clouds 27 1018 61 10000 3.6 150 19:59 29.08.2019
6020 Clouds 27 1018 61 10000 3.6 150 19:40 29.08.2019
6021 Clouds 27 1018 61 10000 3.6 150 19:21 29.08.2019
6022 Clouds 26 1019 61 10000 4.1 170 18:44 29.08.2019
6023 Clouds 26 1019 61 10000 4.1 170 18:21 29.08.2019
6024 Clouds 24 1020 65 10000 3.1 150 17:57 29.08.2019
6025 Clouds 26 1020 65 10000 3.1 150 17:39 29.08.2019
6026 Clouds 26 1020 65 10000 3.1 150 17:20 29.08.2019
6027 Clouds 26 1020 65 10000 3.1 150 17:20 29.08.2019
6028 Clouds 25 1020 65 10000 1.5 140 16:59 29.08.2019
6029 Clear 25 1020 51 0 2.08 110.305 16:40 29.08.2019
6030 Clear 24 1022 69 10000 3.1 340 16:22 29.08.2019
6031 Clear 23 1022 69 10000 3.1 340 15:40 29.08.2019
6032 Clear 22 1022 78 10000 2.6 20 15:21 29.08.2019
6033 Clear 22 1022 78 10000 2.6 20 14:56 29.08.2019
6034 Clear 22 1022 78 10000 2.6 20 14:37 29.08.2019
6035 Clouds 20 1022 82 10000 1.5 40 14:19 29.08.2019
6036 Clouds 20 1022 82 10000 1.5 40 13:55 29.08.2019
6037 Clouds 20 1022 82 10000 1.5 40 13:37 29.08.2019
6038 Clouds 17 1022 82 10000 1 180 13:18 29.08.2019
6039 Clouds 16 1021 88 10000 2.1 60 12:55 29.08.2019
6040 Clouds 16 1021 88 10000 2.1 60 12:36 29.08.2019
6041 Clouds 16 1022 88 10000 1 60 12:18 29.08.2019
6042 Clear 17 1021 88 10000 1 10 11:41 29.08.2019
6043 Clear 18 1021 88 10000 1.5 10 11:20 29.08.2019
6044 Clear 18 1021 88 10000 1.5 10 10:57 29.08.2019
6045 Clear 18 1021 88 10000 1.5 10 10:38 29.08.2019
6046 Clear 18 1021 82 10000 2.1 100 10:19 29.08.2019
6047 Clear 18 1020 82 10000 1.5 20 09:41 29.08.2019
6048 Clear 19 1020 82 10000 3.1 90 09:19 29.08.2019
6049 Clear 19 1020 82 10000 3.1 90 08:45 29.08.2019
6050 Clear 19 1020 82 10000 3.1 90 08:25 29.08.2019
6051 Clear 19 1021 82 10000 2.6 80 07:58 29.08.2019
6052 Clear 19 1021 82 10000 1.5 60 07:37 29.08.2019
6053 Clear 19 1021 82 10000 1.5 60 07:18 29.08.2019
6054 Clear 19 1021 82 10000 1 80 06:40 29.08.2019
6055 Clear 19 1022 82 10000 3.1 50 05:52 29.08.2019
6056 Clear 20 1022 82 10000 3.1 50 05:31 29.08.2019
6057 Clear 19 1023 82 10000 3.1 70 04:48 29.08.2019
6058 Clear 19 1023 82 10000 3.1 70 04:28 29.08.2019
6059 Clouds 21 1023 83 10000 3.6 110 02:18 29.08.2019
6060 Clouds 21 1023 83 10000 3.6 110 01:40 29.08.2019
6061 Clouds 21 1022 88 10000 2.6 150 00:48 29.08.2019
6062 Clouds 21 1023 77 10000 4.6 140 00:24 29.08.2019
6063 Clouds 21 1023 77 10000 4.6 140 23:59 28.08.2019
6064 Clouds 21 1022 88 10000 5.7 120 23:39 28.08.2019
6065 Clouds 22 1022 83 10000 5.7 130 23:21 28.08.2019
6066 Clouds 21 1022 83 10000 5.7 130 22:56 28.08.2019
6067 Clouds 21 1022 83 10000 5.7 130 22:38 28.08.2019
6068 Clouds 23 1022 64 10000 6.2 150 22:18 28.08.2019
6069 Clouds 23 1022 64 10000 6.2 150 22:18 28.08.2019
6070 Clouds 23 1022 73 10000 5.1 150 21:43 28.08.2019
6071 Clouds 23 1022 73 10000 5.1 150 21:25 28.08.2019
6072 Clouds 24 1022 60 10000 5.7 150 20:59 28.08.2019
6073 Clouds 24 1022 69 10000 7.2 160 20:40 28.08.2019
6074 Clouds 24 1022 57 10000 5.1 150 20:22 28.08.2019
6075 Clouds 24 1022 69 10000 6.2 160 19:44 28.08.2019
6076 Clouds 24 1022 69 10000 6.2 160 19:22 28.08.2019
6077 Clouds 24 1023 61 10000 5.7 160 18:59 28.08.2019
6078 Clouds 24 1023 61 10000 5.7 160 18:41 28.08.2019
6079 Clouds 24 1023 57 10000 1.5 100 18:21 28.08.2019
6080 Clouds 24 1024 61 10000 3.1 160 17:39 28.08.2019
6081 Clouds 23 1024 64 10000 1.5 110 17:20 28.08.2019
6082 Clouds 23 1024 64 10000 1.5 110 16:56 28.08.2019
6083 Clouds 23 1024 64 10000 1.5 110 16:38 28.08.2019
6084 Clouds 22 1024 64 10000 1.5 110 16:18 28.08.2019
6085 Clouds 23 1025 64 10000 1 130 15:39 28.08.2019
6086 -273 0 0 0 0 0 15:20 28.08.2019
6087 Clouds 20 1024 73 10000 1.5 70 14:58 28.08.2019
6088 Clouds 20 1024 73 10000 1.5 70 14:40 28.08.2019
6089 Clouds 20 1024 77 10000 4.1 90 14:21 28.08.2019
6090 Clouds 19 1024 77 10000 4.1 90 13:59 28.08.2019
6091 Clouds 19 1024 77 10000 4.1 90 13:39 28.08.2019
6092 Clouds 18 1024 77 10000 4.1 90 13:20 28.08.2019
6093 Clouds 18 1024 77 10000 4.1 90 12:56 28.08.2019
6094 Clouds 18 1023 77 10000 2.6 70 12:38 28.08.2019
6095 Clouds 18 1023 77 10000 1 60 12:20 28.08.2019
6096 Clouds 19 1023 77 10000 1 60 11:40 28.08.2019
6097 Clouds 19 1023 77 10000 1 60 11:22 28.08.2019
6098 Clouds 19 1022 77 10000 1.5 80 10:57 28.08.2019
6099 Clouds 19 1022 77 10000 1.5 80 10:38 28.08.2019
6100 Clouds 19 1022 82 10000 2.6 50 10:20 28.08.2019
6101 Clouds 19 1022 82 10000 2.6 50 10:19 28.08.2019
6102 Clouds 19 1022 82 10000 2.6 50 09:42 28.08.2019
6103 Clouds 20 1022 82 10000 2.6 70 09:21 28.08.2019
6104 Clouds 20 1022 82 10000 2.6 70 08:57 28.08.2019
6105 Clouds 20 1022 82 10000 2.6 70 08:38 28.08.2019
6106 Clouds 20 1023 73 10000 1.5 70 08:19 28.08.2019
6107 Clouds 20 1023 73 10000 1.5 70 07:38 28.08.2019
6108 Clouds 20 1023 73 10000 2.6 80 07:20 28.08.2019
6109 Clouds 20 1023 73 10000 2.6 80 06:49 28.08.2019
6110 Clouds 20 1023 68 10000 3.1 110 05:59 28.08.2019
6111 Clouds 21 1024 73 10000 1.5 120 05:24 28.08.2019
6112 Clear 21 1023 77 10000 3.1 100 02:20 28.08.2019
6113 Clear 21 1023 77 10000 3.1 100 01:31 28.08.2019
6114 Clouds 22 1023 78 10000 3.6 140 00:52 28.08.2019
6115 Clouds 22 1023 78 10000 3.6 140 00:33 28.08.2019
6116 Clouds 22 1023 68 10000 4.6 130 23:58 27.08.2019
6117 Clouds 22 1022 78 10000 5.1 130 23:38 27.08.2019
6118 Clouds 24 1022 69 10000 3.1 150 23:19 27.08.2019
6119 Clouds 24 1022 69 10000 3.1 150 22:42 27.08.2019
6120 Clear 25 1022 60 10000 4.1 140 22:23 27.08.2019
6121 Clear 25 1022 60 10000 4.1 140 21:57 27.08.2019
6122 Clouds 25 1022 69 10000 3.6 140 21:38 27.08.2019
6123 Clouds 25 1022 69 10000 3.6 140 21:38 27.08.2019
6124 Clouds 25 1022 69 10000 6.2 160 21:20 27.08.2019
6125 Clouds 25 1022 69 10000 6.2 160 20:59 27.08.2019
6126 Clouds 25 1022 69 10000 6.2 160 20:40 27.08.2019
6127 Clouds 26 1022 53 10000 5.1 130 20:19 27.08.2019
6128 Clouds 26 1023 65 10000 4.1 160 19:45 27.08.2019
6129 Clouds 26 1023 65 10000 4.1 160 19:27 27.08.2019
6130 Clouds 26 1024 57 10000 4.1 160 18:58 27.08.2019
6131 Clouds 26 1024 57 10000 4.1 160 18:39 27.08.2019
6132 Clouds 25 1024 57 10000 4.1 160 18:18 27.08.2019
6133 Clouds 25 1024 65 10000 4.6 160 17:55 27.08.2019
6134 Clouds 25 1024 65 10000 4.6 160 17:37 27.08.2019
6135 Clouds 24 1024 57 10000 3.1 80 17:18 27.08.2019
6136 Clouds 24 1025 69 10000 1 50 16:43 27.08.2019
6137 Clouds 24 1025 69 10000 1 50 16:24 27.08.2019
6138 Clouds 23 1025 68 10000 3.1 30 15:57 27.08.2019
6139 Clouds 23 1025 73 10000 2.6 360 15:38 27.08.2019
6140 Clear 22 1025 78 10000 1.5 20 15:19 27.08.2019
6141 Clear 22 1025 78 10000 1.5 20 14:43 27.08.2019
6142 Clear 19 1024 83 10000 0.5 100 14:24 27.08.2019
6143 Clear 19 1024 83 10000 0.5 100 13:56 27.08.2019
6144 Clear 19 1024 83 10000 0.5 100 13:36 27.08.2019
6145 Clear 17 1025 82 10000 1 0 13:18 27.08.2019
6146 Clouds 16 1023 88 10000 1 50 12:41 27.08.2019
6147 Clear 15 1024 88 10000 1.61 49.749 12:20 27.08.2019
6148 Clouds 16 1023 93 10000 1.61 49.749 11:56 27.08.2019
6149 Clouds 16 1023 93 10000 1.61 49.749 11:37 27.08.2019
6150 Clouds 17 1022 88 10000 3.1 50 11:18 27.08.2019
6151 Clouds 17 1022 88 10000 3.1 50 10:40 27.08.2019
6152 Clear 17 1023 87 10000 1 70 10:19 27.08.2019
6153 Clear 17 1023 87 10000 1 70 09:55 27.08.2019
6154 Clouds 17 1023 88 10000 2.1 50 09:36 27.08.2019
6155 Clear 17 1023 87 10000 1.5 30 09:18 27.08.2019
6156 Clear 17 1023 88 10000 2.1 60 08:42 27.08.2019
6157 Clear 17 1023 88 10000 2.1 60 08:23 27.08.2019
6158 Clear 18 1023 82 10000 2.6 50 07:42 27.08.2019
6159 Clear 18 1024 82 10000 1 0 07:20 27.08.2019
6160 Clear 18 1024 82 10000 2.6 60 06:59 27.08.2019
6161 Clear 18 1024 82 10000 2.6 60 06:40 27.08.2019
6162 Clear 19 1024 77 10000 2.1 110 06:19 27.08.2019
6163 Clear 19 1024 82 10000 2.1 70 05:24 27.08.2019
6164 Clear 19 1024 77 10000 3.1 90 03:43 27.08.2019
6165 Clouds 20 1024 82 10000 4.6 100 02:40 27.08.2019
6166 Clouds 20 1024 73 10000 6.2 80 01:46 27.08.2019
6167 Clear 21 1024 68 10000 5.1 100 01:24 27.08.2019
6168 Clouds 21 1023 73 10000 5.1 80 00:49 27.08.2019
6169 Clouds 21 1023 73 10000 5.1 80 00:28 27.08.2019
6170 Clouds 22 1024 68 10000 3.6 60 23:40 26.08.2019
6171 Clouds 23 1023 69 10000 3.1 110 23:22 26.08.2019
6172 Clouds 23 1023 69 10000 3.1 110 22:58 26.08.2019
6173 Clouds 23 1023 69 10000 3.1 110 22:36 26.08.2019
6174 Clouds 23 1023 69 10000 3.1 110 22:18 26.08.2019
6175 Clouds 23 1023 73 10000 3.6 110 21:39 26.08.2019
6176 Clouds 24 1023 73 10000 3.6 110 21:21 26.08.2019
6177 Clouds 23 1023 69 10000 6.2 110 20:58 26.08.2019
6178 Clouds 23 1023 69 10000 6.2 110 20:39 26.08.2019
6179 Clouds 23 1023 69 10000 6.2 110 20:39 26.08.2019
6180 Clouds 23 1023 69 10000 6.2 110 20:19 26.08.2019
6181 Clouds 23 1024 69 10000 5.7 130 19:56 26.08.2019
6182 Clouds 23 1024 69 10000 5.7 130 19:38 26.08.2019
6183 Clouds 23 1024 65 10000 5.1 130 19:18 26.08.2019
6184 Clouds 23 1024 65 10000 5.1 130 18:39 26.08.2019
6185 Clouds 23 1025 60 10000 1 130 18:20 26.08.2019
6186 Clouds 23 1025 60 10000 1 130 17:59 26.08.2019
6187 Clouds 23 1025 60 10000 1 130 17:40 26.08.2019
6188 Clouds 23 1026 64 10000 1.5 180 17:19 26.08.2019
6189 Clouds 23 1026 64 10000 1.5 180 16:56 26.08.2019
6190 Clouds 23 1026 64 10000 1.5 180 16:38 26.08.2019
6191 Clouds 23 1026 64 10000 1.5 180 16:18 26.08.2019
6192 Clouds 21 1027 73 10000 2.6 350 15:42 26.08.2019
6193 Clouds 21 1027 73 10000 2.6 350 15:22 26.08.2019
6194 Clouds 21 1027 69 10000 1.5 60 14:56 26.08.2019
6195 Clouds 20 1027 69 10000 1.5 60 14:37 26.08.2019
6196 Clouds 20 1027 69 10000 1.5 60 14:18 26.08.2019
6197 Clouds 20 1026 82 10000 2.1 60 13:42 26.08.2019
6198 Clouds 20 1026 82 10000 2.1 60 13:21 26.08.2019
6199 Clouds 18 1026 77 10000 2.1 50 12:46 26.08.2019
6200 Clouds 17 1026 77 10000 2.1 50 12:28 26.08.2019
6201 Clouds 18 1025 77 10000 2.6 60 11:59 26.08.2019
6202 Clouds 18 1025 77 10000 2.6 60 11:38 26.08.2019
6203 Clouds 18 1025 77 10000 2.6 60 11:19 26.08.2019
6204 Clouds 19 1025 77 10000 2.6 90 10:55 26.08.2019
6205 Clouds 19 1025 77 10000 2.6 90 10:55 26.08.2019
6206 Clouds 19 1025 77 10000 2.6 90 10:36 26.08.2019
6207 Clouds 19 1025 77 10000 2.6 90 10:18 26.08.2019
6208 Clouds 18 1025 82 10000 3.6 100 09:41 26.08.2019
6209 Clouds 18 1025 82 10000 3.6 100 09:23 26.08.2019
6210 Clouds 19 1025 82 10000 4.6 100 08:56 26.08.2019
6211 Clouds 19 1025 82 10000 4.6 100 08:37 26.08.2019
6212 Clouds 19 1025 82 10000 4.6 100 08:19 26.08.2019
6213 Clouds 19 1025 88 10000 4.1 100 07:42 26.08.2019
6214 Clouds 19 1025 88 10000 4.1 100 07:24 26.08.2019
6215 Clouds 19 1026 82 10000 2.1 80 06:50 26.08.2019
6216 Clouds 19 1026 82 10000 2.1 80 06:26 26.08.2019
6217 Clouds 19 1026 88 10000 4.6 100 05:58 26.08.2019
6218 Clouds 19 1027 88 10000 2.1 110 04:35 26.08.2019
6219 Clouds 19 1027 88 10000 2.6 110 03:48 26.08.2019
6220 Clouds 19 1027 73 10000 1.5 60 02:31 26.08.2019
6221 Clouds 20 1027 73 10000 2.1 100 01:23 26.08.2019
6222 Clouds 20 1026 73 10000 3.1 120 00:43 26.08.2019
6223 Clouds 20 1026 73 10000 3.1 120 00:24 26.08.2019
6224 Clouds 20 1026 73 10000 4.1 160 23:44 25.08.2019
6225 Clouds 20 1026 73 10000 4.1 160 23:20 25.08.2019
6226 Clouds 21 1025 77 10000 4.1 170 22:58 25.08.2019
6227 Clouds 21 1025 77 10000 4.1 170 22:40 25.08.2019
6228 Clouds 21 1025 77 10000 4.1 170 22:20 25.08.2019
6229 Clouds 21 1025 77 10000 4.1 180 21:58 25.08.2019
6230 Clouds 21 1025 77 10000 4.1 180 21:39 25.08.2019
6231 Clouds 21 1025 77 10000 4.1 180 21:19 25.08.2019
6232 Clouds 22 1025 73 10000 4.6 180 20:55 25.08.2019
6233 Clouds 22 1025 73 10000 4.6 180 20:55 25.08.2019
6234 Clouds 22 1025 73 10000 4.6 180 20:36 25.08.2019
6235 Clouds 22 1025 73 10000 4.6 180 20:18 25.08.2019
6236 Clouds 21 1025 69 10000 4.1 170 19:40 25.08.2019
6237 Clouds 21 1025 69 10000 4.1 170 19:21 25.08.2019
6238 Rain 21 1025 68 10000 3.6 180 18:58 25.08.2019
6239 Rain 21 1025 68 10000 3.6 180 18:40 25.08.2019
6240 Clouds 21 1026 78 10000 5.1 160 18:22 25.08.2019
6241 Clouds 21 1026 78 10000 5.1 160 17:59 25.08.2019
6242 Clouds 21 1026 78 10000 5.1 160 17:39 25.08.2019
6243 Clouds 21 1026 78 10000 5.1 160 17:20 25.08.2019
6244 Clouds 21 1027 73 10000 2.6 190 16:41 25.08.2019
6245 Rain 20 1027 73 10000 2.6 190 16:23 25.08.2019
6246 Clouds 20 1027 83 7000 1.5 170 15:48 25.08.2019
6247 Rain 20 1027 83 7000 1.5 170 15:27 25.08.2019
6248 Clouds 19 1027 94 7000 2.1 320 14:56 25.08.2019
6249 Mist 19 1027 94 7000 2.1 320 14:38 25.08.2019
6250 Mist 19 1027 94 7000 2.1 320 14:19 25.08.2019
6251 Clouds 18 1026 94 8000 2.6 30 13:43 25.08.2019
6252 Mist 18 1026 94 8000 2.6 30 13:21 25.08.2019
6253 Drizzle 18 1026 93 10000 1.5 10 12:56 25.08.2019
6254 Drizzle 17 1026 93 10000 1.5 10 12:37 25.08.2019
6255 Drizzle 17 1026 93 10000 1.5 10 12:37 25.08.2019
6256 Drizzle 17 1026 93 10000 1.5 10 12:19 25.08.2019
6257 Rain 16 1025 93 10000 0.5 270 11:54 25.08.2019
6258 Rain 18 1025 93 10000 0.5 270 11:36 25.08.2019
6259 Rain 18 1025 93 10000 0.5 270 11:18 25.08.2019
6260 Drizzle 18 1025 100 6000 1 330 10:40 25.08.2019
6261 Drizzle 18 1025 100 6000 1 330 10:21 25.08.2019
6262 Clouds 18 1024 100 6000 2.1 300 09:57 25.08.2019
6263 Clouds 18 1024 100 6000 2.1 300 09:39 25.08.2019
6264 Clouds 18 1024 100 6000 2.1 300 09:20 25.08.2019
6265 Clouds 18 1025 100 6000 2.1 310 08:42 25.08.2019
6266 Clouds 18 1025 100 6000 2.1 310 08:22 25.08.2019
6267 Rain 19 1025 100 6000 1.5 290 07:43 25.08.2019
6268 Rain 19 1025 100 6000 1.5 290 07:22 25.08.2019
6269 Rain 19 1025 100 6000 2.6 320 06:31 25.08.2019
6270 Rain 18 1026 100 10000 1 250 04:53 25.08.2019
6271 Rain 18 1025 100 10000 1.5 180 03:37 25.08.2019
6272 Rain 19 1025 93 10000 3.1 160 02:40 25.08.2019
6273 Rain 19 1025 100 7000 4.6 170 01:42 25.08.2019
6274 Rain 19 1024 82 10000 3.1 210 00:40 25.08.2019
6275 Rain 19 1024 82 10000 3.1 210 00:21 25.08.2019
6276 Rain 19 1023 73 10000 3.6 220 23:52 24.08.2019
6277 Rain 20 1023 73 10000 3.6 220 23:23 24.08.2019
6278 Clouds 20 1022 73 10000 3.6 200 22:57 24.08.2019
6279 Clouds 20 1022 73 10000 3.6 200 22:39 24.08.2019
6280 Clouds 21 1022 73 10000 3.6 200 22:19 24.08.2019
6281 Clouds 21 1021 78 10000 4.6 200 21:56 24.08.2019
6282 Clouds 21 1021 78 10000 4.6 200 21:38 24.08.2019
6283 Clouds 22 1021 78 10000 4.6 200 21:20 24.08.2019
6284 Clouds 22 1021 69 10000 4.6 180 20:56 24.08.2019
6285 Clouds 22 1021 69 10000 4.6 180 20:56 24.08.2019
6286 Clouds 22 1021 69 10000 4.6 180 20:37 24.08.2019
6287 Clouds 22 1021 69 10000 4.6 180 20:37 24.08.2019
6288 Clouds 22 1021 69 10000 4.6 180 20:37 24.08.2019
6289 Clouds 22 1021 69 10000 4.6 180 20:18 24.08.2019
6290 Clouds 22 1022 69 10000 2.6 160 19:57 24.08.2019
6291 Clouds 22 1022 69 10000 2.6 160 19:38 24.08.2019
6292 Clouds 22 1022 69 10000 2.6 160 19:19 24.08.2019
6293 Clouds 22 1023 83 10000 1 140 18:45 24.08.2019
6294 Clouds 22 1023 83 10000 1 140 18:23 24.08.2019
6295 Clouds 21 1023 78 10000 1 130 17:46 24.08.2019
6296 Clouds 22 1023 78 10000 1 130 17:27 24.08.2019
6297 Clouds 21 1023 88 10000 1 10 16:56 24.08.2019
6298 Clouds 21 1023 88 10000 1 10 16:36 24.08.2019
6299 Clouds 21 1023 88 10000 1 10 16:18 24.08.2019
6300 Clouds 20 1023 88 8000 3.6 360 15:43 24.08.2019
6301 Clouds 20 1023 88 8000 3.6 360 15:25 24.08.2019
6302 Clouds 20 1023 88 8000 2.6 350 14:56 24.08.2019
6303 Clouds 20 1023 88 8000 2.6 350 14:37 24.08.2019
6304 Clouds 20 1023 88 8000 2.6 350 14:18 24.08.2019
6305 Mist 17 1022 88 6000 3.1 330 13:42 24.08.2019
6306 Mist 18 1022 88 6000 3.1 330 13:22 24.08.2019
6307 Fog 16 1022 94 6000 3.1 330 12:59 24.08.2019
6308 Fog 16 1021 100 6000 3.1 330 12:40 24.08.2019
6309 Fog 16 1021 100 6000 3.1 330 12:22 24.08.2019
6310 Fog 15 1021 100 8000 3.1 330 11:46 24.08.2019
6311 Fog 15 1021 100 8000 3.1 330 11:26 24.08.2019
6312 Clouds 17 1020 100 8000 3.1 50 10:59 24.08.2019
6313 Clouds 17 1020 100 8000 3.1 50 10:38 24.08.2019
6314 Clouds 17 1020 100 8000 3.1 50 10:19 24.08.2019
6315 Clear 17 1020 100 10000 1.5 20 09:41 24.08.2019
6316 Clear 17 1020 100 10000 1.5 20 09:18 24.08.2019
6317 Clear 17 1020 100 10000 1.5 20 09:18 24.08.2019
6318 Clear 16 1020 100 10000 0.5 210 08:43 24.08.2019
6319 Clear 16 1020 100 10000 0.5 210 08:23 24.08.2019
6320 Clear 17 1021 100 10000 2.1 310 07:51 24.08.2019
6321 Clear 17 1021 100 10000 2.1 310 07:29 24.08.2019
6322 Clear 17 1021 100 10000 1.5 290 06:31 24.08.2019
6323 Clouds 17 1021 100 10000 3.6 340 05:59 24.08.2019
6324 Clouds 17 1021 100 10000 3.6 340 05:35 24.08.2019
6325 Clouds 18 1021 93 10000 3.6 310 03:40 24.08.2019
6326 Clouds 18 1021 88 10000 2.6 330 02:50 24.08.2019
6327 Clouds 18 1020 88 10000 2.6 230 01:54 24.08.2019
6328 Clouds 18 1020 88 10000 2.6 230 01:24 24.08.2019
6329 Clouds 18 1020 93 10000 3.1 200 00:46 24.08.2019
6330 Clouds 18 1020 93 10000 3.1 200 00:22 24.08.2019
6331 Clouds 18 1019 93 10000 1.5 170 23:45 23.08.2019
6332 Clouds 18 1019 93 10000 1.5 170 23:20 23.08.2019
6333 Rain 18 1018 93 10000 2.1 80 22:44 23.08.2019
6334 Rain 18 1018 93 10000 2.1 80 22:25 23.08.2019
6335 Rain 18 1018 93 4000 2.6 350 21:55 23.08.2019
6336 Rain 18 1018 93 4000 2.6 350 21:37 23.08.2019
6337 Rain 18 1018 93 4000 2.6 350 21:19 23.08.2019
6338 Rain 19 1019 77 10000 1.5 310 20:51 23.08.2019
6339 Rain 19 1019 77 10000 1.5 310 20:33 23.08.2019
6340 Clouds 20 1019 77 10000 1.5 330 19:47 23.08.2019
6341 Clouds 20 1019 77 10000 1.5 330 19:19 23.08.2019
6342 Clouds 20 1020 73 10000 1.5 330 18:55 23.08.2019
6343 Clouds 20 1020 73 10000 1.5 330 18:37 23.08.2019
6344 Clouds 20 1020 73 10000 1.5 330 18:19 23.08.2019
6345 Clouds 20 1021 68 10000 1 70 17:42 23.08.2019
6346 Clouds 20 1021 68 10000 1 70 17:24 23.08.2019
6347 Clouds 20 1022 73 10000 0.5 120 16:56 23.08.2019
6348 Clouds 20 1022 73 10000 0.5 120 16:38 23.08.2019
6349 Clouds 19 1022 77 10000 2.1 180 16:20 23.08.2019
6350 Clouds 19 1022 77 10000 2.1 180 15:40 23.08.2019
6351 Clouds 19 1022 77 10000 2.1 180 15:22 23.08.2019
6352 Clouds 18 1022 77 10000 2.6 180 14:56 23.08.2019
6353 Clouds 19 1022 77 10000 2.6 180 14:38 23.08.2019
6354 Clouds 19 1022 77 10000 2.6 180 14:20 23.08.2019
6355 Clouds 17 1021 77 10000 1.5 110 13:42 23.08.2019
6356 Clouds 18 1021 77 10000 1.5 110 13:23 23.08.2019
6357 Clouds 18 1021 77 10000 2.1 80 13:00 23.08.2019
6358 Clouds 18 1021 77 10000 2.1 80 12:41 23.08.2019
6359 Clouds 18 1021 77 10000 2.1 80 12:22 23.08.2019
6360 Clouds 17 1021 82 10000 2.1 90 11:58 23.08.2019
6361 Clouds 17 1021 82 10000 2.1 90 11:39 23.08.2019
6362 Clouds 17 1021 82 10000 2.1 90 11:20 23.08.2019
6363 Clouds 17 1021 88 10000 2.6 70 10:57 23.08.2019
6364 Clouds 17 1021 88 10000 2.6 70 10:39 23.08.2019
6365 Clouds 17 1021 88 10000 2.6 70 10:19 23.08.2019
6366 Clouds 17 1021 88 10000 3.1 60 09:44 23.08.2019
6367 Clouds 17 1021 88 10000 3.1 60 09:25 23.08.2019
6368 Clouds 18 1022 82 10000 1.5 50 08:56 23.08.2019
6369 Clouds 18 1022 82 10000 1.5 50 08:37 23.08.2019
6370 Clouds 18 1022 82 10000 1.5 50 08:18 23.08.2019
6371 Clouds 18 1023 82 10000 2.1 50 07:41 23.08.2019
6372 Clouds 18 1023 82 10000 2.1 50 07:23 23.08.2019
6373 Clouds 18 1024 88 10000 1.5 50 06:43 23.08.2019
6374 Clouds 18 1024 88 10000 1.5 50 06:22 23.08.2019
6375 Clouds 18 1024 88 10000 2.1 40 05:46 23.08.2019
6376 Clouds 18 1024 88 10000 2.1 40 05:26 23.08.2019
6377 Clouds 18 1024 88 10000 2.6 50 03:59 23.08.2019
6378 Clouds 19 1024 77 10000 2.1 70 02:41 23.08.2019
6379 Clouds 19 1024 77 10000 2.1 70 02:21 23.08.2019
6380 Clouds 18 1024 77 9000 2.6 80 01:37 23.08.2019
6381 Clouds 18 1023 82 6000 3.6 90 00:44 23.08.2019
6382 Clouds 18 1023 82 6000 3.6 90 00:18 23.08.2019
6383 Rain 18 1023 82 10000 3.1 110 23:43 22.08.2019
6384 Rain 19 1023 82 10000 3.1 110 23:23 22.08.2019
6385 Rain 19 1024 88 4000 2.6 150 22:55 22.08.2019
6386 Rain 19 1024 88 4000 2.6 150 22:37 22.08.2019
6387 Rain 19 1024 88 4000 2.6 150 22:19 22.08.2019
6388 Rain 19 1023 88 10000 3.1 110 21:42 22.08.2019
6389 Rain 19 1023 88 10000 3.1 110 21:23 22.08.2019
6390 Rain 19 1023 88 6000 4.1 140 20:59 22.08.2019
6391 Rain 19 1023 93 6000 5.7 140 20:41 22.08.2019
6392 Rain 19 1023 93 6000 5.7 140 20:20 22.08.2019
6393 Rain 19 1023 100 5000 4.1 130 19:59 22.08.2019
6394 Rain 19 1023 100 5000 4.1 130 19:40 22.08.2019
6395 Rain 19 1023 100 5000 4.1 130 19:21 22.08.2019
6396 Rain 20 1023 100 5000 5.1 150 18:59 22.08.2019
6397 Rain 20 1023 82 10000 5.1 160 18:40 22.08.2019
6398 Rain 20 1023 82 10000 5.1 160 18:20 22.08.2019
6399 Rain 20 1024 83 10000 5.7 160 17:57 22.08.2019
6400 Rain 20 1024 83 10000 5.7 160 17:39 22.08.2019
6401 Drizzle 20 1025 94 10000 2.6 190 17:19 22.08.2019
6402 Drizzle 20 1025 94 10000 2.6 190 16:56 22.08.2019
6403 Drizzle 20 1025 94 10000 2.6 190 16:37 22.08.2019
6404 Drizzle 20 1025 94 10000 2.6 190 16:19 22.08.2019
6405 Rain 22 1025 73 10000 3.6 180 15:42 22.08.2019
6406 Rain 22 1025 73 10000 3.6 180 15:42 22.08.2019
6407 Rain 22 1025 73 10000 3.6 180 15:42 22.08.2019
6408 Rain 22 1025 73 10000 3.6 180 15:42 22.08.2019
6409 Rain 22 1025 73 10000 3.6 180 15:24 22.08.2019
6410 Rain 22 1025 73 10000 3.6 180 15:24 22.08.2019
6411 Clouds 21 1024 83 10000 1.5 80 14:59 22.08.2019
6412 Clouds 21 1024 83 10000 1.5 80 14:41 22.08.2019
6413 Clouds 21 1024 83 10000 1.5 80 14:22 22.08.2019
6414 Clouds 20 1024 88 10000 1 40 13:58 22.08.2019
6415 Clouds 20 1024 88 10000 1 40 13:40 22.08.2019
6416 Clouds 20 1024 88 10000 1 40 13:20 22.08.2019
6417 Clouds 19 1023 88 10000 1 290 12:56 22.08.2019
6418 Clouds 19 1023 88 10000 1 290 12:38 22.08.2019
6419 Clouds 19 1023 88 10000 1 290 12:19 22.08.2019
6420 Clouds 19 1022 82 10000 0.5 220 11:42 22.08.2019
6421 Clouds 19 1022 82 10000 0.5 220 11:21 22.08.2019
6422 Clouds 19 1021 82 10000 0.5 250 10:58 22.08.2019
6423 Clouds 19 1021 82 10000 0.5 250 10:40 22.08.2019
6424 Clouds 19 1021 82 10000 1.5 50 10:22 22.08.2019
6425 Clouds 19 1021 82 10000 1.5 50 09:57 22.08.2019
6426 Clouds 19 1021 82 10000 1.5 50 09:39 22.08.2019
6427 Clouds 20 1021 82 10000 1.5 50 09:20 22.08.2019
6428 Clouds 20 1021 82 10000 1 70 08:54 22.08.2019
6429 Clouds 20 1021 82 10000 1 70 08:36 22.08.2019
6430 Clouds 20 1022 82 10000 1 60 08:18 22.08.2019
6431 Clouds 20 1022 82 10000 1 60 07:39 22.08.2019
6432 Clouds 20 1022 82 10000 1.5 50 07:19 22.08.2019
6433 Clouds 20 1022 82 10000 1.5 50 06:48 22.08.2019
6434 Clouds 20 1022 82 10000 1.5 50 06:23 22.08.2019
6435 Clouds 20 1022 82 10000 1 80 05:36 22.08.2019
6436 Clouds 20 1022 77 10000 1 80 04:20 22.08.2019
6437 Clouds 20 1022 83 10000 2.6 130 02:38 22.08.2019
6438 Clouds 20 1022 77 10000 3.1 130 01:45 22.08.2019
6439 Clouds 20 1022 77 10000 3.1 130 01:22 22.08.2019
6440 Clouds 20 1022 83 10000 3.1 130 00:44 22.08.2019
6441 Clouds 20 1022 83 10000 3.1 130 00:25 22.08.2019
6442 Clouds 20 1021 77 10000 3.1 160 23:50 21.08.2019
6443 Clouds 21 1021 77 10000 3.1 160 23:30 21.08.2019
6444 Clouds 20 1021 77 10000 4.1 160 22:59 21.08.2019
6445 Clouds 20 1021 77 10000 4.1 160 22:41 21.08.2019
6446 Clouds 22 1021 73 10000 4.6 150 22:21 21.08.2019
6447 Clouds 22 1021 73 10000 4.6 150 21:58 21.08.2019
6448 Clouds 22 1021 73 10000 4.6 150 21:39 21.08.2019
6449 Clouds 22 1021 73 10000 4.6 150 21:20 21.08.2019
6450 Clouds 22 1020 73 10000 5.1 160 20:58 21.08.2019
6451 Clouds 22 1020 73 10000 5.1 160 20:40 21.08.2019
6452 Clouds 22 1021 73 10000 4.1 170 20:22 21.08.2019
6453 Clouds 22 1021 73 10000 4.1 170 19:56 21.08.2019
6454 Clouds 22 1021 73 10000 4.1 170 19:37 21.08.2019
6455 Clouds 23 1022 78 10000 1 140 19:19 21.08.2019
6456 Clouds 23 1022 78 10000 1 140 18:43 21.08.2019
6457 Clouds 23 1022 78 10000 1 140 18:23 21.08.2019
6458 Clouds 21 1023 88 10000 1 150 17:54 21.08.2019
6459 Clouds 21 1023 88 10000 1 150 17:36 21.08.2019
6460 Clouds 21 1023 88 10000 1 150 17:18 21.08.2019
6461 Clouds 20 1023 88 8000 1.5 180 16:42 21.08.2019
6462 Clouds 20 1023 88 8000 1.5 180 16:23 21.08.2019
6463 Rain 19 1024 94 6000 1 20 15:59 21.08.2019
6464 Rain 19 1024 94 6000 1 20 15:41 21.08.2019
6465 Rain 19 1024 94 6000 1 20 15:21 21.08.2019
6466 Rain 19 1024 94 6000 1 360 14:57 21.08.2019
6467 Rain 19 1024 94 6000 1 360 14:57 21.08.2019
6468 Rain 18 1023 100 5000 1 290 14:39 21.08.2019
6469 Rain 18 1023 100 5000 1 290 14:39 21.08.2019
6470 Rain 19 1023 100 5000 1 290 14:20 21.08.2019
6471 Rain 18 1023 100 5000 3.1 60 13:55 21.08.2019
6472 Rain 18 1023 100 5000 3.1 60 13:37 21.08.2019
6473 Rain 18 1023 100 5000 4.1 70 13:18 21.08.2019
6474 Clouds 18 1023 93 10000 0.5 170 12:41 21.08.2019
6475 Clouds 18 1023 93 10000 0.5 170 12:41 21.08.2019
6476 Rain 18 1023 93 10000 0.5 170 12:22 21.08.2019
6477 Rain 18 1022 93 10000 1.5 210 11:59 21.08.2019
6478 Rain 18 1022 93 10000 1.5 210 11:40 21.08.2019
6479 Rain 18 1022 93 10000 1.5 210 11:22 21.08.2019
6480 Clouds 18 1022 100 10000 2.1 160 10:56 21.08.2019
6481 Clouds 18 1022 100 10000 2.1 160 10:38 21.08.2019
6482 Clouds 18 1022 100 10000 2.1 160 10:19 21.08.2019
6483 Clouds 18 1022 100 10000 4.1 170 09:55 21.08.2019
6484 Clouds 18 1022 100 10000 4.1 170 09:37 21.08.2019
6485 Clouds 18 1022 100 10000 4.1 170 09:18 21.08.2019
6486 Rain 18 1022 100 8000 5.1 160 08:42 21.08.2019
6487 Rain 18 1022 100 8000 5.1 160 08:23 21.08.2019
6488 Rain 18 1022 93 10000 5.1 180 07:42 21.08.2019
6489 Rain 18 1022 93 10000 5.1 180 07:23 21.08.2019
6490 Rain 18 1023 100 8000 5.1 140 06:50 21.08.2019
6491 Rain 18 1023 100 8000 5.1 140 06:24 21.08.2019
6492 Rain 18 1023 93 5000 7.7 170 05:46 21.08.2019
6493 Rain 19 1023 93 5000 7.7 170 05:23 21.08.2019
6494 Rain 19 1023 100 5000 8.2 170 03:39 21.08.2019
6495 Rain 20 1023 100 6000 8.2 170 01:51 21.08.2019
6496 Rain 20 1022 100 6000 9.3 160 01:23 21.08.2019
6497 Rain 21 1020 94 6000 4.6 190 00:38 21.08.2019
6498 Rain 21 1020 94 6000 4.6 190 00:18 21.08.2019
6499 Rain 21 1020 94 6000 4.1 200 23:43 20.08.2019
6500 Rain 21 1019 100 6000 1.5 200 23:19 20.08.2019
6501 Rain 22 1019 100 6000 1.5 200 22:58 20.08.2019
6502 Rain 22 1019 100 6000 1.5 200 22:39 20.08.2019
6503 Clouds 23 1018 94 8000 3.6 170 22:21 20.08.2019
6504 Clouds 23 1018 94 8000 3.6 170 21:57 20.08.2019
6505 Clouds 23 1018 94 8000 3.6 170 21:57 20.08.2019
6506 Clouds 23 1018 94 8000 3.6 170 21:38 20.08.2019
6507 Clouds 23 1018 94 8000 3.6 170 21:38 20.08.2019
6508 Rain 23 1018 94 8000 4.1 150 21:19 20.08.2019
6509 Clouds 23 1018 94 8000 3.6 170 21:19 20.08.2019
6510 Rain 23 1018 94 8000 4.1 150 20:56 20.08.2019
6511 Rain 23 1018 94 8000 4.1 150 20:36 20.08.2019
6512 Rain 23 1018 94 8000 4.1 150 20:36 20.08.2019
6513 Rain 23 1018 94 8000 4.1 150 20:18 20.08.2019
6514 Clouds 23 1018 94 8000 4.6 160 19:39 20.08.2019
6515 Clouds 23 1018 94 8000 4.6 160 19:21 20.08.2019
6516 Clouds 23 1019 94 9000 2.6 160 18:56 20.08.2019
6517 Clouds 23 1020 83 10000 3.1 160 18:38 20.08.2019
6518 Clouds 23 1020 83 10000 3.1 160 18:19 20.08.2019
6519 Clouds 23 1020 83 10000 3.1 160 17:55 20.08.2019
6520 Clouds 23 1020 83 10000 3.1 160 17:37 20.08.2019
6521 Mist 23 1020 78 10000 3.6 50 17:19 20.08.2019
6522 Mist 22 1020 78 10000 3.6 50 17:19 20.08.2019
6523 Mist 23 1020 88 10000 2.1 170 16:43 20.08.2019
6524 Mist 23 1021 78 10000 2.1 140 16:24 20.08.2019
6525 Mist 22 1021 88 10000 1 120 15:43 20.08.2019
6526 Mist 22 1021 83 10000 5.7 60 15:19 20.08.2019
6527 Mist 22 1021 83 10000 5.7 60 14:59 20.08.2019
6528 Mist 22 1020 88 10000 1 180 14:40 20.08.2019
6529 Clouds 21 1020 88 10000 2.6 100 14:21 20.08.2019
6530 Clouds 21 1020 88 10000 2.6 100 14:21 20.08.2019
6531 Clouds 21 1020 88 10000 2.6 100 13:56 20.08.2019
6532 Clouds 21 1020 94 9000 1 170 13:38 20.08.2019
6533 Mist 21 1020 88 9000 2.1 60 13:20 20.08.2019
6534 Mist 21 1019 100 9000 1.5 150 12:50 20.08.2019
6535 Rain 20 1020 88 9000 2.1 110 12:26 20.08.2019
6536 Rain 20 1020 88 9000 2.1 110 11:58 20.08.2019
6537 Rain 20 1020 88 9000 2.1 110 11:58 20.08.2019
6538 Rain 20 1019 100 8000 2.1 170 11:38 20.08.2019
6539 Rain 20 1018 100 8000 2.1 170 11:18 20.08.2019
6540 Rain 20 1018 100 8000 2.1 170 10:57 20.08.2019
6541 Rain 20 1018 100 8000 2.1 170 10:57 20.08.2019
6542 Rain 20 1018 100 8000 2.1 170 10:38 20.08.2019
6543 Rain 21 1018 94 8000 3.6 120 10:20 20.08.2019
6544 Rain 20 1018 100 6000 2.6 40 09:43 20.08.2019
6545 Rain 20 1018 100 6000 2.6 40 09:25 20.08.2019
6546 Rain 20 1018 93 6000 3.1 110 08:58 20.08.2019
6547 Rain 20 1018 100 5000 4.1 90 08:40 20.08.2019
6548 Rain 21 1018 94 6000 2.1 140 08:21 20.08.2019
6549 Rain 21 1018 94 6000 2.1 140 07:57 20.08.2019
6550 Rain 21 1018 94 8000 4.1 120 07:37 20.08.2019
6551 Rain 21 1018 88 6000 3.6 110 07:18 20.08.2019
6552 Rain 21 1018 88 6000 3.6 110 07:18 20.08.2019
6553 Rain 21 1019 94 8000 5.1 110 06:28 20.08.2019
6554 Clouds 22 1019 88 8000 3.6 70 05:58 20.08.2019
6555 Clouds 22 1019 100 8000 4.1 120 05:38 20.08.2019
6556 Clouds 22 1020 83 8000 3.1 110 04:21 20.08.2019
6557 Rain 22 1019 94 9000 3.6 130 02:47 20.08.2019
6558 Rain 22 1019 94 9000 4.1 110 01:45 20.08.2019
6559 Clouds 22 1018 100 9000 3.6 140 01:20 20.08.2019
6560 Clouds 22 1018 100 9000 3.6 140 00:43 20.08.2019
6561 Clouds 22 1018 94 9000 4.1 140 00:21 20.08.2019
6562 Clouds 22 1018 94 9000 4.1 140 23:42 19.08.2019
6563 Clouds 23 1018 94 9000 3.6 160 23:19 19.08.2019
6564 Clouds 23 1018 94 9000 3.6 160 23:19 19.08.2019
6565 Clouds 23 1018 94 9000 3.6 160 22:58 19.08.2019
6566 Clouds 23 1018 94 9000 3.6 160 22:40 19.08.2019
6567 Clouds 23 1017 83 9000 4.6 170 22:20 19.08.2019
6568 Clouds 22 1017 83 9000 4.6 170 21:57 19.08.2019
6569 Clouds 22 1017 83 9000 4.6 170 21:38 19.08.2019
6570 Clouds 24 1017 88 9000 6.2 190 21:19 19.08.2019
6571 Clouds 24 1017 88 9000 6.2 190 20:40 19.08.2019
6572 Clouds 24 1017 83 10000 7.2 190 20:21 19.08.2019
6573 Clouds 24 1017 83 10000 7.2 190 19:59 19.08.2019
6574 Clouds 24 1017 83 10000 7.2 190 19:41 19.08.2019
6575 Clouds 24 1017 83 10000 7.2 190 19:19 19.08.2019
6576 Clouds 24 1017 83 10000 7.2 190 19:19 19.08.2019
6577 Clouds 24 1017 83 10000 7.2 190 19:19 19.08.2019
6578 Clouds 24 1017 83 10000 7.2 190 19:19 19.08.2019
6579 Clouds 24 1018 78 9000 6.7 200 18:59 19.08.2019
6580 Clouds 24 1018 78 9000 6.7 200 18:40 19.08.2019
6581 Clouds 24 1018 83 10000 6.2 200 18:21 19.08.2019
6582 Clouds 24 1018 83 10000 6.2 200 17:56 19.08.2019
6583 Clouds 24 1018 83 10000 6.2 200 17:37 19.08.2019
6584 Clouds 24 1018 83 10000 4.6 200 17:19 19.08.2019
6585 Clouds 24 1018 83 10000 4.6 200 16:54 19.08.2019
6586 Clouds 24 1018 83 10000 4.6 200 16:36 19.08.2019
6587 Clouds 24 1019 65 10000 4.1 200 16:18 19.08.2019
6588 Clouds 24 1018 83 10000 3.6 200 15:43 19.08.2019
6589 Clouds 24 1018 83 10000 3.6 200 15:19 19.08.2019
6590 Clouds 24 1018 83 10000 2.1 20 14:44 19.08.2019
6591 Clouds 24 1018 83 10000 2.1 20 14:24 19.08.2019
6592 Clouds 23 1018 78 10000 1 190 13:58 19.08.2019
6593 Clouds 23 1018 78 10000 1 190 13:40 19.08.2019
6594 Clouds 23 1018 78 10000 1 190 13:20 19.08.2019
6595 Clouds 23 1018 78 10000 1 190 13:20 19.08.2019
6596 Clouds 22 1017 83 10000 1 140 12:58 19.08.2019
6597 Clouds 22 1017 83 10000 1 140 12:40 19.08.2019
6598 Clouds 22 1017 83 10000 1 140 12:20 19.08.2019
6599 Clouds 22 1016 83 10000 2.1 10 11:41 19.08.2019
6600 Clouds 22 1016 83 10000 2.1 10 11:41 19.08.2019
6601 Clouds 22 1016 83 10000 2.1 10 11:23 19.08.2019
6602 Clear 22 1015 69 10000 2.1 150 10:59 19.08.2019
6603 Clear 22 1015 69 10000 2.1 150 10:39 19.08.2019
6604 Clear 22 1015 69 10000 2.1 150 10:19 19.08.2019
6605 Clear 23 1015 69 10000 3.1 90 09:54 19.08.2019
6606 Clear 23 1015 69 10000 3.1 90 09:36 19.08.2019
6607 Clear 23 1015 69 10000 3.1 90 09:18 19.08.2019
6608 Clear 23 1014 73 10000 3.6 30 08:42 19.08.2019
6609 Clear 23 1014 73 10000 3.6 30 08:21 19.08.2019
6610 Clear 23 1014 60 10000 2.6 320 07:54 19.08.2019
6611 Clear 23 1014 60 10000 2.6 320 07:34 19.08.2019
6612 Clear 21 1014 78 10000 2.1 320 06:59 19.08.2019
6613 Clear 21 1014 78 10000 2.1 320 06:36 19.08.2019
6614 Clear 21 1014 78 10000 2.1 320 06:36 19.08.2019
6615 Clear 20 1014 83 10000 2.6 340 05:27 19.08.2019
6616 Clear 20 1014 78 10000 2.6 350 04:33 19.08.2019
6617 Clear 21 1013 73 10000 1 300 03:27 19.08.2019
6618 Clear 21 1013 83 10000 1.5 150 02:30 19.08.2019
6619 Clear 22 1013 83 10000 2.6 110 01:37 19.08.2019
6620 Clear 24 1012 57 10000 2.1 170 00:49 19.08.2019
6621 Clear 23 1012 57 10000 2.1 170 00:24 19.08.2019
6622 Clear 24 1012 47 10000 1 190 23:57 18.08.2019
6623 Clear 24 1012 47 10000 1 190 23:37 18.08.2019
6624 Clear 24 1012 47 10000 1 190 23:19 18.08.2019
6625 Clear 30 1011 35 10000 1 10 22:40 18.08.2019
6626 Clear 29 1011 35 10000 1 10 22:21 18.08.2019
6627 Clear 32 1011 42 10000 3.1 30 21:57 18.08.2019
6628 Clear 32 1011 42 10000 3.1 30 21:39 18.08.2019
6629 Clear 32 1011 42 10000 3.1 30 21:20 18.08.2019
6630 Clear 33 1011 51 10000 4.1 40 20:54 18.08.2019
6631 Clear 33 1011 51 10000 4.1 40 20:36 18.08.2019
6632 Clear 33 1011 51 10000 4.1 40 20:18 18.08.2019
6633 Clear 32 1012 51 10000 3.6 20 19:41 18.08.2019
6634 Clear 32 1012 51 10000 3.6 20 19:23 18.08.2019
6635 Clear 32 1013 42 10000 2.6 340 18:57 18.08.2019
6636 Clear 32 1013 42 10000 2.6 340 18:39 18.08.2019
6637 Clear 32 1013 42 10000 2.6 340 18:20 18.08.2019
6638 Clear 31 1014 45 10000 3.6 360 17:54 18.08.2019
6639 Clear 31 1014 45 10000 3.6 360 17:36 18.08.2019
6640 Clear 31 1014 45 10000 3.6 360 17:18 18.08.2019
6641 Clear 28 1015 57 10000 3.6 10 16:43 18.08.2019
6642 Clear 28 1015 57 10000 3.6 10 16:23 18.08.2019
6643 Clear 26 1016 69 10000 4.6 360 15:59 18.08.2019
6644 Clear 27 1016 69 10000 4.6 360 15:39 18.08.2019
6645 Clear 26 1016 69 10000 4.6 360 15:20 18.08.2019
6646 Clear 24 1016 73 10000 4.1 350 14:57 18.08.2019
6647 Clear 24 1016 73 10000 4.1 350 14:38 18.08.2019
6648 Clear 21 1015 78 10000 4.1 340 14:19 18.08.2019
6649 Clear 22 1015 78 10000 4.1 340 13:56 18.08.2019
6650 Clear 22 1015 78 10000 4.1 340 13:38 18.08.2019
6651 Clear 22 1015 78 10000 4.1 340 13:19 18.08.2019
6652 Clear 19 1015 88 10000 3.6 330 12:45 18.08.2019
6653 Clear 19 1015 88 10000 3.6 330 12:22 18.08.2019
6654 Clear 18 1015 88 10000 2.6 330 11:56 18.08.2019
6655 Clear 18 1015 88 10000 2.6 330 11:37 18.08.2019
6656 Clear 18 1015 88 10000 2.6 330 11:19 18.08.2019
6657 Clear 19 1015 88 10000 3.6 330 10:41 18.08.2019
6658 Clear 19 1015 88 10000 3.1 360 10:22 18.08.2019
6659 Clear 19 1015 88 10000 3.1 360 09:55 18.08.2019
6660 Clear 19 1015 88 10000 3.1 360 09:36 18.08.2019
6661 Clear 19 1015 88 10000 3.1 360 09:18 18.08.2019
6662 Clear 19 1015 88 10000 3.1 360 08:42 18.08.2019
6663 Clear 19 1015 88 10000 3.1 360 08:24 18.08.2019
6664 Clear 19 1016 88 10000 2.1 330 07:49 18.08.2019
6665 Clear 19 1016 88 10000 2.1 330 07:29 18.08.2019
6666 Clear 20 1016 82 10000 0.5 100 05:50 18.08.2019
6667 Clear 19 1017 73 10000 0.5 140 04:58 18.08.2019
6668 Clear 19 1016 68 10000 1 220 03:44 18.08.2019
6669 Clear 18 1016 68 10000 2.1 10 02:49 18.08.2019
6670 Clear 18 1016 68 10000 2.1 10 02:26 18.08.2019
6671 Clear 20 1016 60 10000 1.5 80 01:48 18.08.2019
6672 Clear 20 1016 60 10000 1.5 80 01:25 18.08.2019
6673 Clear 20 1015 60 10000 1.5 170 00:40 18.08.